<?xml version="1.0" encoding="UTF-8" standalone="no" ?><gpx xmlns="http://www.topografix.com/GPX/1/1" xmlns:gpxx="http://www.garmin.com/xmlschemas/GpxExtensions/v3" xmlns:gpxtpx="http://www.garmin.com/xmlschemas/TrackPointExtension/v1" creator="Oregon 300" version="1.1" xmlns:xsi="http://www.w3.org/2001/XMLSchema-instance" xsi:schemaLocation="http://www.topografix.com/GPX/1/1 http://www.topografix.com/GPX/1/1/gpx.xsd http://www.garmin.com/xmlschemas/GpxExtensions/v3 http://www.garmin.com/xmlschemas/GpxExtensionsv3.xsd http://www.garmin.com/xmlschemas/TrackPointExtension/v1 http://www.garmin.com/xmlschemas/TrackPointExtensionv1.xsd"><metadata><link href="http://www.garmin.com"><text>Garmin International</text></link><time>2010-06-27T16:13:01Z</time></metadata><trk><name>Aktueller Track: 26 JUN 2010 10:00</name><trkseg><trkpt lat="47.231941" lon="13.159075"><ele>1688.21</ele><time>2010-06-26T08:00:20Z</time></trkpt><trkpt lat="47.231941" lon="13.159075"><ele>1687.73</ele><time>2010-06-26T08:00:34Z</time></trkpt><trkpt lat="47.231942" lon="13.159078"><ele>1688.69</ele><time>2010-06-26T08:00:51Z</time></trkpt><trkpt lat="47.231942" lon="13.159078"><ele>1686.29</ele><time>2010-06-26T08:01:06Z</time></trkpt><trkpt lat="47.231942" lon="13.159078"><ele>1687.25</ele><time>2010-06-26T08:01:15Z</time></trkpt><trkpt lat="47.231941" lon="13.159076"><ele>1689.17</ele><time>2010-06-26T08:01:49Z</time></trkpt><trkpt lat="47.231942" lon="13.159079"><ele>1689.17</ele><time>2010-06-26T08:02:24Z</time></trkpt><trkpt lat="47.231944" lon="13.159076"><ele>1690.14</ele><time>2010-06-26T08:03:10Z</time></trkpt><trkpt lat="47.231944" lon="13.159076"><ele>1688.69</ele><time>2010-06-26T08:03:12Z</time></trkpt><trkpt lat="47.231944" lon="13.159075"><ele>1689.17</ele><time>2010-06-26T08:03:24Z</time></trkpt><trkpt lat="47.231942" lon="13.159074"><ele>1687.73</ele><time>2010-06-26T08:04:22Z</time></trkpt><trkpt lat="47.231942" lon="13.159074"><ele>1689.17</ele><time>2010-06-26T08:04:25Z</time></trkpt><trkpt lat="47.231941" lon="13.159076"><ele>1690.14</ele><time>2010-06-26T08:04:49Z</time></trkpt><trkpt lat="47.231941" lon="13.159076"><ele>1687.25</ele><time>2010-06-26T08:04:50Z</time></trkpt><trkpt lat="47.231941" lon="13.159076"><ele>1689.65</ele><time>2010-06-26T08:05:10Z</time></trkpt><trkpt lat="47.231939" lon="13.159078"><ele>1688.21</ele><time>2010-06-26T08:06:07Z</time></trkpt><trkpt lat="47.231940" lon="13.159077"><ele>1689.17</ele><time>2010-06-26T08:07:51Z</time></trkpt><trkpt lat="47.231939" lon="13.159079"><ele>1688.21</ele><time>2010-06-26T08:08:16Z</time></trkpt><trkpt lat="47.231938" lon="13.159075"><ele>1688.21</ele><time>2010-06-26T08:10:03Z</time></trkpt><trkpt lat="47.231943" lon="13.159034"><ele>1685.33</ele><time>2010-06-26T08:10:05Z</time></trkpt><trkpt lat="47.231902" lon="13.158877"><ele>1688.69</ele><time>2010-06-26T08:10:16Z</time></trkpt><trkpt lat="47.231897" lon="13.158861"><ele>1692.54</ele><time>2010-06-26T08:10:17Z</time></trkpt><trkpt lat="47.231891" lon="13.158850"><ele>1688.21</ele><time>2010-06-26T08:10:18Z</time></trkpt><trkpt lat="47.231875" lon="13.158812"><ele>1692.06</ele><time>2010-06-26T08:10:22Z</time></trkpt><trkpt lat="47.231851" lon="13.158771"><ele>1688.69</ele><time>2010-06-26T08:10:27Z</time></trkpt><trkpt lat="47.231846" lon="13.158765"><ele>1693.50</ele><time>2010-06-26T08:10:28Z</time></trkpt><trkpt lat="47.231831" lon="13.158743"><ele>1690.62</ele><time>2010-06-26T08:10:30Z</time></trkpt><trkpt lat="47.231798" lon="13.158726"><ele>1693.02</ele><time>2010-06-26T08:10:35Z</time></trkpt><trkpt lat="47.231773" lon="13.158712"><ele>1690.14</ele><time>2010-06-26T08:10:38Z</time></trkpt><trkpt lat="47.231755" lon="13.158717"><ele>1694.46</ele><time>2010-06-26T08:10:40Z</time></trkpt><trkpt lat="47.231750" lon="13.158724"><ele>1691.10</ele><time>2010-06-26T08:10:41Z</time></trkpt><trkpt lat="47.231719" lon="13.158803"><ele>1692.54</ele><time>2010-06-26T08:10:47Z</time></trkpt><trkpt lat="47.231714" lon="13.158836"><ele>1693.50</ele><time>2010-06-26T08:10:49Z</time></trkpt><trkpt lat="47.231717" lon="13.158867"><ele>1693.98</ele><time>2010-06-26T08:10:51Z</time></trkpt><trkpt lat="47.231716" lon="13.159016"><ele>1694.46</ele><time>2010-06-26T08:11:02Z</time></trkpt><trkpt lat="47.231711" lon="13.159073"><ele>1695.42</ele><time>2010-06-26T08:11:06Z</time></trkpt><trkpt lat="47.231693" lon="13.159177"><ele>1693.98</ele><time>2010-06-26T08:11:15Z</time></trkpt><trkpt lat="47.231694" lon="13.159212"><ele>1696.86</ele><time>2010-06-26T08:11:18Z</time></trkpt><trkpt lat="47.231656" lon="13.159291"><ele>1697.83</ele><time>2010-06-26T08:11:28Z</time></trkpt><trkpt lat="47.231628" lon="13.159317"><ele>1699.27</ele><time>2010-06-26T08:11:35Z</time></trkpt><trkpt lat="47.231609" lon="13.159330"><ele>1699.27</ele><time>2010-06-26T08:11:38Z</time></trkpt><trkpt lat="47.231551" lon="13.159401"><ele>1697.83</ele><time>2010-06-26T08:11:53Z</time></trkpt><trkpt lat="47.231544" lon="13.159404"><ele>1702.15</ele><time>2010-06-26T08:11:54Z</time></trkpt><trkpt lat="47.231537" lon="13.159405"><ele>1697.34</ele><time>2010-06-26T08:11:55Z</time></trkpt><trkpt lat="47.231528" lon="13.159408"><ele>1701.19</ele><time>2010-06-26T08:11:56Z</time></trkpt><trkpt lat="47.231421" lon="13.159449"><ele>1701.19</ele><time>2010-06-26T08:12:09Z</time></trkpt><trkpt lat="47.231375" lon="13.159487"><ele>1704.55</ele><time>2010-06-26T08:12:14Z</time></trkpt><trkpt lat="47.231321" lon="13.159593"><ele>1703.11</ele><time>2010-06-26T08:12:24Z</time></trkpt><trkpt lat="47.231289" lon="13.159773"><ele>1705.52</ele><time>2010-06-26T08:12:36Z</time></trkpt><trkpt lat="47.231273" lon="13.159866"><ele>1704.55</ele><time>2010-06-26T08:12:42Z</time></trkpt><trkpt lat="47.231268" lon="13.159981"><ele>1705.52</ele><time>2010-06-26T08:12:53Z</time></trkpt><trkpt lat="47.231245" lon="13.160061"><ele>1706.48</ele><time>2010-06-26T08:13:24Z</time></trkpt><trkpt lat="47.231254" lon="13.160132"><ele>1706.48</ele><time>2010-06-26T08:13:36Z</time></trkpt><trkpt lat="47.231269" lon="13.160116"><ele>1706.48</ele><time>2010-06-26T08:13:49Z</time></trkpt><trkpt lat="47.231221" lon="13.160217"><ele>1708.88</ele><time>2010-06-26T08:14:49Z</time></trkpt><trkpt lat="47.231203" lon="13.160268"><ele>1707.44</ele><time>2010-06-26T08:14:53Z</time></trkpt><trkpt lat="47.231185" lon="13.160336"><ele>1710.32</ele><time>2010-06-26T08:14:58Z</time></trkpt><trkpt lat="47.231175" lon="13.160352"><ele>1706.96</ele><time>2010-06-26T08:14:59Z</time></trkpt><trkpt lat="47.231167" lon="13.160366"><ele>1709.84</ele><time>2010-06-26T08:15:00Z</time></trkpt><trkpt lat="47.231133" lon="13.160494"><ele>1712.73</ele><time>2010-06-26T08:15:10Z</time></trkpt><trkpt lat="47.231124" lon="13.160514"><ele>1709.36</ele><time>2010-06-26T08:15:12Z</time></trkpt><trkpt lat="47.231118" lon="13.160526"><ele>1713.21</ele><time>2010-06-26T08:15:13Z</time></trkpt><trkpt lat="47.231116" lon="13.160538"><ele>1713.21</ele><time>2010-06-26T08:15:14Z</time></trkpt><trkpt lat="47.231112" lon="13.160559"><ele>1710.32</ele><time>2010-06-26T08:15:16Z</time></trkpt><trkpt lat="47.231099" lon="13.160596"><ele>1713.69</ele><time>2010-06-26T08:15:19Z</time></trkpt><trkpt lat="47.231044" lon="13.160715"><ele>1714.65</ele><time>2010-06-26T08:15:27Z</time></trkpt><trkpt lat="47.231039" lon="13.160727"><ele>1711.28</ele><time>2010-06-26T08:15:28Z</time></trkpt><trkpt lat="47.231035" lon="13.160744"><ele>1714.17</ele><time>2010-06-26T08:15:29Z</time></trkpt><trkpt lat="47.231029" lon="13.160792"><ele>1715.61</ele><time>2010-06-26T08:15:34Z</time></trkpt><trkpt lat="47.231024" lon="13.160806"><ele>1711.76</ele><time>2010-06-26T08:15:35Z</time></trkpt><trkpt lat="47.231004" lon="13.160839"><ele>1718.01</ele><time>2010-06-26T08:15:37Z</time></trkpt><trkpt lat="47.230997" lon="13.160853"><ele>1713.69</ele><time>2010-06-26T08:15:38Z</time></trkpt><trkpt lat="47.230983" lon="13.160883"><ele>1718.49</ele><time>2010-06-26T08:15:40Z</time></trkpt><trkpt lat="47.230983" lon="13.160897"><ele>1715.61</ele><time>2010-06-26T08:15:41Z</time></trkpt><trkpt lat="47.230935" lon="13.160972"><ele>1720.42</ele><time>2010-06-26T08:15:49Z</time></trkpt><trkpt lat="47.230927" lon="13.160986"><ele>1715.13</ele><time>2010-06-26T08:15:50Z</time></trkpt><trkpt lat="47.230914" lon="13.161011"><ele>1720.42</ele><time>2010-06-26T08:15:52Z</time></trkpt><trkpt lat="47.230907" lon="13.161019"><ele>1720.90</ele><time>2010-06-26T08:15:53Z</time></trkpt><trkpt lat="47.230899" lon="13.161027"><ele>1715.13</ele><time>2010-06-26T08:15:54Z</time></trkpt><trkpt lat="47.230891" lon="13.161035"><ele>1718.01</ele><time>2010-06-26T08:15:55Z</time></trkpt><trkpt lat="47.230840" lon="13.161099"><ele>1720.90</ele><time>2010-06-26T08:16:00Z</time></trkpt><trkpt lat="47.230835" lon="13.161110"><ele>1717.05</ele><time>2010-06-26T08:16:01Z</time></trkpt><trkpt lat="47.230822" lon="13.161142"><ele>1721.38</ele><time>2010-06-26T08:16:03Z</time></trkpt><trkpt lat="47.230774" lon="13.161241"><ele>1722.82</ele><time>2010-06-26T08:16:10Z</time></trkpt><trkpt lat="47.230762" lon="13.161268"><ele>1720.90</ele><time>2010-06-26T08:16:12Z</time></trkpt><trkpt lat="47.230739" lon="13.161353"><ele>1722.34</ele><time>2010-06-26T08:16:18Z</time></trkpt><trkpt lat="47.230697" lon="13.161498"><ele>1722.34</ele><time>2010-06-26T08:16:29Z</time></trkpt><trkpt lat="47.230687" lon="13.161544"><ele>1725.70</ele><time>2010-06-26T08:16:32Z</time></trkpt><trkpt lat="47.230675" lon="13.161582"><ele>1722.82</ele><time>2010-06-26T08:16:34Z</time></trkpt><trkpt lat="47.230667" lon="13.161622"><ele>1726.18</ele><time>2010-06-26T08:16:36Z</time></trkpt><trkpt lat="47.230665" lon="13.161635"><ele>1722.82</ele><time>2010-06-26T08:16:37Z</time></trkpt><trkpt lat="47.230657" lon="13.161670"><ele>1726.67</ele><time>2010-06-26T08:16:39Z</time></trkpt><trkpt lat="47.230609" lon="13.161870"><ele>1724.74</ele><time>2010-06-26T08:16:51Z</time></trkpt><trkpt lat="47.230613" lon="13.161898"><ele>1728.11</ele><time>2010-06-26T08:16:53Z</time></trkpt><trkpt lat="47.230616" lon="13.161916"><ele>1724.26</ele><time>2010-06-26T08:16:54Z</time></trkpt><trkpt lat="47.230615" lon="13.161936"><ele>1725.22</ele><time>2010-06-26T08:16:55Z</time></trkpt><trkpt lat="47.230615" lon="13.161947"><ele>1729.07</ele><time>2010-06-26T08:16:56Z</time></trkpt><trkpt lat="47.230611" lon="13.161960"><ele>1725.22</ele><time>2010-06-26T08:16:57Z</time></trkpt><trkpt lat="47.230610" lon="13.161994"><ele>1728.59</ele><time>2010-06-26T08:16:59Z</time></trkpt><trkpt lat="47.230606" lon="13.162007"><ele>1726.18</ele><time>2010-06-26T08:17:00Z</time></trkpt><trkpt lat="47.230596" lon="13.162044"><ele>1729.07</ele><time>2010-06-26T08:17:03Z</time></trkpt><trkpt lat="47.230542" lon="13.162251"><ele>1729.07</ele><time>2010-06-26T08:17:15Z</time></trkpt><trkpt lat="47.230533" lon="13.162299"><ele>1730.99</ele><time>2010-06-26T08:17:18Z</time></trkpt><trkpt lat="47.230515" lon="13.162334"><ele>1729.55</ele><time>2010-06-26T08:17:20Z</time></trkpt><trkpt lat="47.230469" lon="13.162537"><ele>1729.55</ele><time>2010-06-26T08:17:33Z</time></trkpt><trkpt lat="47.230470" lon="13.162570"><ele>1732.91</ele><time>2010-06-26T08:17:35Z</time></trkpt><trkpt lat="47.230465" lon="13.162624"><ele>1731.95</ele><time>2010-06-26T08:17:38Z</time></trkpt><trkpt lat="47.230464" lon="13.162668"><ele>1734.36</ele><time>2010-06-26T08:17:40Z</time></trkpt><trkpt lat="47.230452" lon="13.162761"><ele>1734.36</ele><time>2010-06-26T08:17:45Z</time></trkpt><trkpt lat="47.230446" lon="13.162833"><ele>1734.36</ele><time>2010-06-26T08:17:49Z</time></trkpt><trkpt lat="47.230443" lon="13.163065"><ele>1734.84</ele><time>2010-06-26T08:18:02Z</time></trkpt><trkpt lat="47.230444" lon="13.163248"><ele>1736.28</ele><time>2010-06-26T08:18:14Z</time></trkpt><trkpt lat="47.230454" lon="13.163274"><ele>1737.24</ele><time>2010-06-26T08:18:16Z</time></trkpt><trkpt lat="47.230502" lon="13.163439"><ele>1736.76</ele><time>2010-06-26T08:18:29Z</time></trkpt><trkpt lat="47.230511" lon="13.163476"><ele>1739.64</ele><time>2010-06-26T08:18:33Z</time></trkpt><trkpt lat="47.230514" lon="13.163521"><ele>1738.20</ele><time>2010-06-26T08:18:37Z</time></trkpt><trkpt lat="47.230535" lon="13.163686"><ele>1741.57</ele><time>2010-06-26T08:18:48Z</time></trkpt><trkpt lat="47.230559" lon="13.163849"><ele>1739.16</ele><time>2010-06-26T08:19:01Z</time></trkpt><trkpt lat="47.230555" lon="13.163875"><ele>1743.49</ele><time>2010-06-26T08:19:03Z</time></trkpt><trkpt lat="47.230560" lon="13.164057"><ele>1743.01</ele><time>2010-06-26T08:19:17Z</time></trkpt><trkpt lat="47.230560" lon="13.164233"><ele>1746.37</ele><time>2010-06-26T08:19:30Z</time></trkpt><trkpt lat="47.230556" lon="13.164316"><ele>1743.49</ele><time>2010-06-26T08:19:38Z</time></trkpt><trkpt lat="47.230556" lon="13.164332"><ele>1746.37</ele><time>2010-06-26T08:19:39Z</time></trkpt><trkpt lat="47.230561" lon="13.164553"><ele>1747.81</ele><time>2010-06-26T08:19:54Z</time></trkpt><trkpt lat="47.230535" lon="13.164727"><ele>1747.81</ele><time>2010-06-26T08:20:06Z</time></trkpt><trkpt lat="47.230511" lon="13.164949"><ele>1750.22</ele><time>2010-06-26T08:20:19Z</time></trkpt><trkpt lat="47.230485" lon="13.165061"><ele>1749.74</ele><time>2010-06-26T08:20:28Z</time></trkpt><trkpt lat="47.230433" lon="13.165234"><ele>1750.70</ele><time>2010-06-26T08:20:43Z</time></trkpt><trkpt lat="47.230359" lon="13.165407"><ele>1750.70</ele><time>2010-06-26T08:20:54Z</time></trkpt><trkpt lat="47.230325" lon="13.165514"><ele>1751.66</ele><time>2010-06-26T08:21:01Z</time></trkpt><trkpt lat="47.230310" lon="13.165562"><ele>1751.66</ele><time>2010-06-26T08:21:05Z</time></trkpt><trkpt lat="47.230285" lon="13.165740"><ele>1752.14</ele><time>2010-06-26T08:21:17Z</time></trkpt><trkpt lat="47.230297" lon="13.165899"><ele>1753.10</ele><time>2010-06-26T08:21:27Z</time></trkpt><trkpt lat="47.230325" lon="13.166081"><ele>1754.54</ele><time>2010-06-26T08:21:38Z</time></trkpt><trkpt lat="47.230338" lon="13.166136"><ele>1755.02</ele><time>2010-06-26T08:21:42Z</time></trkpt><trkpt lat="47.230382" lon="13.166284"><ele>1755.50</ele><time>2010-06-26T08:21:54Z</time></trkpt><trkpt lat="47.230459" lon="13.166417"><ele>1755.50</ele><time>2010-06-26T08:22:05Z</time></trkpt><trkpt lat="47.230501" lon="13.166506"><ele>1759.35</ele><time>2010-06-26T08:22:13Z</time></trkpt><trkpt lat="47.230591" lon="13.166676"><ele>1759.83</ele><time>2010-06-26T08:22:26Z</time></trkpt><trkpt lat="47.230661" lon="13.166749"><ele>1760.31</ele><time>2010-06-26T08:22:33Z</time></trkpt><trkpt lat="47.230667" lon="13.166756"><ele>1759.83</ele><time>2010-06-26T08:22:34Z</time></trkpt><trkpt lat="47.230680" lon="13.166794"><ele>1759.83</ele><time>2010-06-26T08:22:38Z</time></trkpt><trkpt lat="47.230787" lon="13.166917"><ele>1761.75</ele><time>2010-06-26T08:22:51Z</time></trkpt><trkpt lat="47.230886" lon="13.167053"><ele>1762.23</ele><time>2010-06-26T08:23:04Z</time></trkpt><trkpt lat="47.230971" lon="13.167192"><ele>1762.71</ele><time>2010-06-26T08:23:16Z</time></trkpt><trkpt lat="47.231061" lon="13.167358"><ele>1764.16</ele><time>2010-06-26T08:23:30Z</time></trkpt><trkpt lat="47.231139" lon="13.167472"><ele>1767.04</ele><time>2010-06-26T08:23:43Z</time></trkpt><trkpt lat="47.231247" lon="13.167579"><ele>1768.48</ele><time>2010-06-26T08:23:56Z</time></trkpt><trkpt lat="47.231259" lon="13.167581"><ele>1767.52</ele><time>2010-06-26T08:23:57Z</time></trkpt><trkpt lat="47.231369" lon="13.167703"><ele>1768.96</ele><time>2010-06-26T08:24:10Z</time></trkpt><trkpt lat="47.231400" lon="13.167740"><ele>1768.00</ele><time>2010-06-26T08:24:14Z</time></trkpt><trkpt lat="47.231466" lon="13.167887"><ele>1770.41</ele><time>2010-06-26T08:24:27Z</time></trkpt><trkpt lat="47.231532" lon="13.167998"><ele>1770.89</ele><time>2010-06-26T08:24:38Z</time></trkpt><trkpt lat="47.231591" lon="13.168153"><ele>1773.77</ele><time>2010-06-26T08:24:50Z</time></trkpt><trkpt lat="47.231617" lon="13.168192"><ele>1773.29</ele><time>2010-06-26T08:25:00Z</time></trkpt><trkpt lat="47.231638" lon="13.168237"><ele>1774.73</ele><time>2010-06-26T08:25:04Z</time></trkpt><trkpt lat="47.231643" lon="13.168250"><ele>1771.37</ele><time>2010-06-26T08:25:05Z</time></trkpt><trkpt lat="47.231673" lon="13.168312"><ele>1775.21</ele><time>2010-06-26T08:25:10Z</time></trkpt><trkpt lat="47.231707" lon="13.168450"><ele>1774.25</ele><time>2010-06-26T08:25:19Z</time></trkpt><trkpt lat="47.231743" lon="13.168495"><ele>1770.41</ele><time>2010-06-26T08:25:23Z</time></trkpt><trkpt lat="47.231757" lon="13.168523"><ele>1777.13</ele><time>2010-06-26T08:25:25Z</time></trkpt><trkpt lat="47.231762" lon="13.168539"><ele>1775.21</ele><time>2010-06-26T08:25:26Z</time></trkpt><trkpt lat="47.231819" lon="13.168745"><ele>1776.65</ele><time>2010-06-26T08:25:42Z</time></trkpt><trkpt lat="47.231834" lon="13.168814"><ele>1775.69</ele><time>2010-06-26T08:25:47Z</time></trkpt><trkpt lat="47.231828" lon="13.168907"><ele>1775.69</ele><time>2010-06-26T08:25:52Z</time></trkpt><trkpt lat="47.231781" lon="13.169040"><ele>1777.13</ele><time>2010-06-26T08:26:03Z</time></trkpt><trkpt lat="47.231759" lon="13.169059"><ele>1778.10</ele><time>2010-06-26T08:26:13Z</time></trkpt><trkpt lat="47.231708" lon="13.169052"><ele>1778.58</ele><time>2010-06-26T08:26:19Z</time></trkpt><trkpt lat="47.231601" lon="13.168968"><ele>1780.50</ele><time>2010-06-26T08:26:31Z</time></trkpt><trkpt lat="47.231538" lon="13.168903"><ele>1783.38</ele><time>2010-06-26T08:26:39Z</time></trkpt><trkpt lat="47.231496" lon="13.168854"><ele>1783.38</ele><time>2010-06-26T08:26:45Z</time></trkpt><trkpt lat="47.231410" lon="13.168773"><ele>1784.34</ele><time>2010-06-26T08:26:57Z</time></trkpt><trkpt lat="47.231340" lon="13.168721"><ele>1787.23</ele><time>2010-06-26T08:27:06Z</time></trkpt><trkpt lat="47.231263" lon="13.168648"><ele>1788.19</ele><time>2010-06-26T08:27:18Z</time></trkpt><trkpt lat="47.231257" lon="13.168642"><ele>1789.63</ele><time>2010-06-26T08:27:19Z</time></trkpt><trkpt lat="47.231188" lon="13.168598"><ele>1791.07</ele><time>2010-06-26T08:27:27Z</time></trkpt><trkpt lat="47.231130" lon="13.168525"><ele>1791.55</ele><time>2010-06-26T08:27:38Z</time></trkpt><trkpt lat="47.231068" lon="13.168489"><ele>1795.40</ele><time>2010-06-26T08:27:46Z</time></trkpt><trkpt lat="47.231038" lon="13.168442"><ele>1792.03</ele><time>2010-06-26T08:27:54Z</time></trkpt><trkpt lat="47.231035" lon="13.168435"><ele>1793.00</ele><time>2010-06-26T08:27:55Z</time></trkpt><trkpt lat="47.230988" lon="13.168399"><ele>1795.88</ele><time>2010-06-26T08:28:02Z</time></trkpt><trkpt lat="47.230927" lon="13.168334"><ele>1791.07</ele><time>2010-06-26T08:28:13Z</time></trkpt><trkpt lat="47.230921" lon="13.168327"><ele>1796.36</ele><time>2010-06-26T08:28:14Z</time></trkpt><trkpt lat="47.230904" lon="13.168310"><ele>1797.32</ele><time>2010-06-26T08:28:17Z</time></trkpt><trkpt lat="47.230799" lon="13.168232"><ele>1799.73</ele><time>2010-06-26T08:28:30Z</time></trkpt><trkpt lat="47.230759" lon="13.168171"><ele>1800.21</ele><time>2010-06-26T08:28:42Z</time></trkpt><trkpt lat="47.230749" lon="13.168164"><ele>1800.69</ele><time>2010-06-26T08:28:43Z</time></trkpt><trkpt lat="47.230725" lon="13.168142"><ele>1802.13</ele><time>2010-06-26T08:28:45Z</time></trkpt><trkpt lat="47.230644" lon="13.168030"><ele>1805.49</ele><time>2010-06-26T08:28:57Z</time></trkpt><trkpt lat="47.230621" lon="13.168009"><ele>1803.57</ele><time>2010-06-26T08:29:00Z</time></trkpt><trkpt lat="47.230602" lon="13.167999"><ele>1805.01</ele><time>2010-06-26T08:29:02Z</time></trkpt><trkpt lat="47.230526" lon="13.167959"><ele>1806.94</ele><time>2010-06-26T08:29:12Z</time></trkpt><trkpt lat="47.230455" lon="13.167929"><ele>1808.86</ele><time>2010-06-26T08:29:21Z</time></trkpt><trkpt lat="47.230375" lon="13.167883"><ele>1811.74</ele><time>2010-06-26T08:29:32Z</time></trkpt><trkpt lat="47.230281" lon="13.167839"><ele>1813.66</ele><time>2010-06-26T08:29:45Z</time></trkpt><trkpt lat="47.230193" lon="13.167821"><ele>1813.66</ele><time>2010-06-26T08:29:56Z</time></trkpt><trkpt lat="47.230070" lon="13.167794"><ele>1816.07</ele><time>2010-06-26T08:30:09Z</time></trkpt><trkpt lat="47.229960" lon="13.167751"><ele>1817.51</ele><time>2010-06-26T08:30:22Z</time></trkpt><trkpt lat="47.229837" lon="13.167706"><ele>1817.51</ele><time>2010-06-26T08:30:34Z</time></trkpt><trkpt lat="47.229683" lon="13.167659"><ele>1819.91</ele><time>2010-06-26T08:30:51Z</time></trkpt><trkpt lat="47.229656" lon="13.167655"><ele>1820.39</ele><time>2010-06-26T08:30:54Z</time></trkpt><trkpt lat="47.229595" lon="13.167668"><ele>1822.32</ele><time>2010-06-26T08:31:01Z</time></trkpt><trkpt lat="47.229535" lon="13.167748"><ele>1822.80</ele><time>2010-06-26T08:31:08Z</time></trkpt><trkpt lat="47.229474" lon="13.167854"><ele>1823.76</ele><time>2010-06-26T08:31:17Z</time></trkpt><trkpt lat="47.229378" lon="13.168094"><ele>1824.72</ele><time>2010-06-26T08:31:34Z</time></trkpt><trkpt lat="47.229330" lon="13.168192"><ele>1827.60</ele><time>2010-06-26T08:31:44Z</time></trkpt><trkpt lat="47.229300" lon="13.168222"><ele>1828.08</ele><time>2010-06-26T08:31:49Z</time></trkpt><trkpt lat="47.229197" lon="13.168306"><ele>1830.01</ele><time>2010-06-26T08:32:03Z</time></trkpt><trkpt lat="47.229147" lon="13.168356"><ele>1833.85</ele><time>2010-06-26T08:32:12Z</time></trkpt><trkpt lat="47.229079" lon="13.168385"><ele>1833.85</ele><time>2010-06-26T08:32:22Z</time></trkpt><trkpt lat="47.228993" lon="13.168441"><ele>1834.33</ele><time>2010-06-26T08:32:32Z</time></trkpt><trkpt lat="47.228970" lon="13.168449"><ele>1835.29</ele><time>2010-06-26T08:32:34Z</time></trkpt><trkpt lat="47.228953" lon="13.168456"><ele>1836.26</ele><time>2010-06-26T08:32:36Z</time></trkpt><trkpt lat="47.228859" lon="13.168535"><ele>1838.66</ele><time>2010-06-26T08:32:47Z</time></trkpt><trkpt lat="47.228831" lon="13.168558"><ele>1838.18</ele><time>2010-06-26T08:32:51Z</time></trkpt><trkpt lat="47.228720" lon="13.168540"><ele>1838.66</ele><time>2010-06-26T08:33:02Z</time></trkpt><trkpt lat="47.228655" lon="13.168491"><ele>1842.02</ele><time>2010-06-26T08:33:10Z</time></trkpt><trkpt lat="47.228583" lon="13.168401"><ele>1842.50</ele><time>2010-06-26T08:33:24Z</time></trkpt><trkpt lat="47.228524" lon="13.168391"><ele>1842.50</ele><time>2010-06-26T08:33:44Z</time></trkpt><trkpt lat="47.228546" lon="13.168377"><ele>1841.54</ele><time>2010-06-26T08:34:11Z</time></trkpt><trkpt lat="47.228546" lon="13.168377"><ele>1842.50</ele><time>2010-06-26T08:34:19Z</time></trkpt><trkpt lat="47.228546" lon="13.168377"><ele>1837.70</ele><time>2010-06-26T08:34:25Z</time></trkpt><trkpt lat="47.228546" lon="13.168377"><ele>1837.22</ele><time>2010-06-26T08:34:26Z</time></trkpt><trkpt lat="47.228546" lon="13.168377"><ele>1842.02</ele><time>2010-06-26T08:34:27Z</time></trkpt><trkpt lat="47.228546" lon="13.168377"><ele>1842.02</ele><time>2010-06-26T08:34:28Z</time></trkpt><trkpt lat="47.228546" lon="13.168377"><ele>1837.22</ele><time>2010-06-26T08:34:32Z</time></trkpt><trkpt lat="47.228546" lon="13.168370"><ele>1842.02</ele><time>2010-06-26T08:34:33Z</time></trkpt><trkpt lat="47.228542" lon="13.168349"><ele>1840.58</ele><time>2010-06-26T08:34:42Z</time></trkpt><trkpt lat="47.228564" lon="13.168221"><ele>1842.02</ele><time>2010-06-26T08:34:52Z</time></trkpt><trkpt lat="47.228585" lon="13.168121"><ele>1842.02</ele><time>2010-06-26T08:34:57Z</time></trkpt><trkpt lat="47.228577" lon="13.168041"><ele>1841.06</ele><time>2010-06-26T08:35:02Z</time></trkpt><trkpt lat="47.228564" lon="13.167903"><ele>1842.98</ele><time>2010-06-26T08:35:10Z</time></trkpt><trkpt lat="47.228558" lon="13.167868"><ele>1841.54</ele><time>2010-06-26T08:35:12Z</time></trkpt><trkpt lat="47.228555" lon="13.167855"><ele>1844.91</ele><time>2010-06-26T08:35:13Z</time></trkpt><trkpt lat="47.228551" lon="13.167839"><ele>1840.58</ele><time>2010-06-26T08:35:14Z</time></trkpt><trkpt lat="47.228548" lon="13.167813"><ele>1843.95</ele><time>2010-06-26T08:35:16Z</time></trkpt><trkpt lat="47.228518" lon="13.167681"><ele>1844.43</ele><time>2010-06-26T08:35:28Z</time></trkpt><trkpt lat="47.228495" lon="13.167510"><ele>1848.75</ele><time>2010-06-26T08:35:41Z</time></trkpt><trkpt lat="47.228477" lon="13.167373"><ele>1849.71</ele><time>2010-06-26T08:35:51Z</time></trkpt><trkpt lat="47.228466" lon="13.167250"><ele>1852.60</ele><time>2010-06-26T08:36:00Z</time></trkpt><trkpt lat="47.228432" lon="13.167101"><ele>1853.08</ele><time>2010-06-26T08:36:11Z</time></trkpt><trkpt lat="47.228428" lon="13.167086"><ele>1850.19</ele><time>2010-06-26T08:36:12Z</time></trkpt><trkpt lat="47.228410" lon="13.167034"><ele>1854.04</ele><time>2010-06-26T08:36:16Z</time></trkpt><trkpt lat="47.228399" lon="13.166987"><ele>1853.08</ele><time>2010-06-26T08:36:30Z</time></trkpt><trkpt lat="47.228369" lon="13.166893"><ele>1856.44</ele><time>2010-06-26T08:36:54Z</time></trkpt><trkpt lat="47.228366" lon="13.166883"><ele>1853.08</ele><time>2010-06-26T08:36:55Z</time></trkpt><trkpt lat="47.228360" lon="13.166864"><ele>1855.96</ele><time>2010-06-26T08:36:57Z</time></trkpt><trkpt lat="47.228351" lon="13.166800"><ele>1856.44</ele><time>2010-06-26T08:37:04Z</time></trkpt><trkpt lat="47.228316" lon="13.166701"><ele>1858.85</ele><time>2010-06-26T08:37:15Z</time></trkpt><trkpt lat="47.228285" lon="13.166566"><ele>1860.77</ele><time>2010-06-26T08:37:27Z</time></trkpt><trkpt lat="47.228285" lon="13.166554"><ele>1860.77</ele><time>2010-06-26T08:37:28Z</time></trkpt><trkpt lat="47.228257" lon="13.166478"><ele>1863.17</ele><time>2010-06-26T08:37:35Z</time></trkpt><trkpt lat="47.228249" lon="13.166458"><ele>1862.69</ele><time>2010-06-26T08:37:37Z</time></trkpt><trkpt lat="47.228247" lon="13.166416"><ele>1864.61</ele><time>2010-06-26T08:37:40Z</time></trkpt><trkpt lat="47.228227" lon="13.166294"><ele>1864.13</ele><time>2010-06-26T08:37:51Z</time></trkpt><trkpt lat="47.228198" lon="13.166180"><ele>1864.13</ele><time>2010-06-26T08:38:03Z</time></trkpt><trkpt lat="47.228195" lon="13.166145"><ele>1865.58</ele><time>2010-06-26T08:38:06Z</time></trkpt><trkpt lat="47.228190" lon="13.166118"><ele>1865.09</ele><time>2010-06-26T08:38:08Z</time></trkpt><trkpt lat="47.228152" lon="13.165931"><ele>1866.54</ele><time>2010-06-26T08:38:21Z</time></trkpt><trkpt lat="47.228099" lon="13.165785"><ele>1864.61</ele><time>2010-06-26T08:38:32Z</time></trkpt><trkpt lat="47.228098" lon="13.165776"><ele>1867.50</ele><time>2010-06-26T08:38:33Z</time></trkpt><trkpt lat="47.228098" lon="13.165767"><ele>1868.94</ele><time>2010-06-26T08:38:34Z</time></trkpt><trkpt lat="47.228098" lon="13.165735"><ele>1868.94</ele><time>2010-06-26T08:38:36Z</time></trkpt><trkpt lat="47.228097" lon="13.165722"><ele>1867.98</ele><time>2010-06-26T08:38:37Z</time></trkpt><trkpt lat="47.228061" lon="13.165586"><ele>1872.30</ele><time>2010-06-26T08:38:50Z</time></trkpt><trkpt lat="47.228053" lon="13.165574"><ele>1867.02</ele><time>2010-06-26T08:38:51Z</time></trkpt><trkpt lat="47.228043" lon="13.165554"><ele>1872.79</ele><time>2010-06-26T08:38:53Z</time></trkpt><trkpt lat="47.228033" lon="13.165523"><ele>1872.79</ele><time>2010-06-26T08:38:55Z</time></trkpt><trkpt lat="47.227981" lon="13.165435"><ele>1869.42</ele><time>2010-06-26T08:39:03Z</time></trkpt><trkpt lat="47.227977" lon="13.165424"><ele>1873.75</ele><time>2010-06-26T08:39:04Z</time></trkpt><trkpt lat="47.227971" lon="13.165402"><ele>1870.38</ele><time>2010-06-26T08:39:06Z</time></trkpt><trkpt lat="47.227970" lon="13.165389"><ele>1874.23</ele><time>2010-06-26T08:39:07Z</time></trkpt><trkpt lat="47.227962" lon="13.165371"><ele>1873.27</ele><time>2010-06-26T08:39:09Z</time></trkpt><trkpt lat="47.227947" lon="13.165314"><ele>1873.75</ele><time>2010-06-26T08:39:13Z</time></trkpt><trkpt lat="47.227933" lon="13.165292"><ele>1876.15</ele><time>2010-06-26T08:39:15Z</time></trkpt><trkpt lat="47.227922" lon="13.165257"><ele>1876.63</ele><time>2010-06-26T08:39:18Z</time></trkpt><trkpt lat="47.227909" lon="13.165225"><ele>1877.11</ele><time>2010-06-26T08:39:21Z</time></trkpt><trkpt lat="47.227897" lon="13.165203"><ele>1878.55</ele><time>2010-06-26T08:39:23Z</time></trkpt><trkpt lat="47.227883" lon="13.165180"><ele>1875.19</ele><time>2010-06-26T08:39:25Z</time></trkpt><trkpt lat="47.227875" lon="13.165167"><ele>1879.51</ele><time>2010-06-26T08:39:26Z</time></trkpt><trkpt lat="47.227859" lon="13.165122"><ele>1879.51</ele><time>2010-06-26T08:39:29Z</time></trkpt><trkpt lat="47.227857" lon="13.165108"><ele>1876.63</ele><time>2010-06-26T08:39:30Z</time></trkpt><trkpt lat="47.227843" lon="13.165079"><ele>1876.15</ele><time>2010-06-26T08:39:33Z</time></trkpt><trkpt lat="47.227824" lon="13.164926"><ele>1879.03</ele><time>2010-06-26T08:39:44Z</time></trkpt><trkpt lat="47.227824" lon="13.164867"><ele>1880.00</ele><time>2010-06-26T08:39:48Z</time></trkpt><trkpt lat="47.227833" lon="13.164811"><ele>1879.03</ele><time>2010-06-26T08:39:52Z</time></trkpt><trkpt lat="47.227845" lon="13.164671"><ele>1880.00</ele><time>2010-06-26T08:40:02Z</time></trkpt><trkpt lat="47.227830" lon="13.164545"><ele>1880.48</ele><time>2010-06-26T08:40:13Z</time></trkpt><trkpt lat="47.227822" lon="13.164524"><ele>1879.03</ele><time>2010-06-26T08:40:16Z</time></trkpt><trkpt lat="47.227803" lon="13.164529"><ele>1879.51</ele><time>2010-06-26T08:40:32Z</time></trkpt><trkpt lat="47.227803" lon="13.164529"><ele>1879.03</ele><time>2010-06-26T08:40:40Z</time></trkpt><trkpt lat="47.227804" lon="13.164528"><ele>1881.44</ele><time>2010-06-26T08:41:56Z</time></trkpt><trkpt lat="47.227806" lon="13.164514"><ele>1880.00</ele><time>2010-06-26T08:42:28Z</time></trkpt><trkpt lat="47.227806" lon="13.164460"><ele>1880.00</ele><time>2010-06-26T08:42:31Z</time></trkpt><trkpt lat="47.227796" lon="13.164411"><ele>1879.51</ele><time>2010-06-26T08:42:33Z</time></trkpt><trkpt lat="47.227743" lon="13.164292"><ele>1879.51</ele><time>2010-06-26T08:42:42Z</time></trkpt><trkpt lat="47.227705" lon="13.164240"><ele>1880.48</ele><time>2010-06-26T08:42:47Z</time></trkpt><trkpt lat="47.227609" lon="13.164128"><ele>1879.51</ele><time>2010-06-26T08:42:55Z</time></trkpt><trkpt lat="47.227592" lon="13.164116"><ele>1880.48</ele><time>2010-06-26T08:42:56Z</time></trkpt><trkpt lat="47.227578" lon="13.164080"><ele>1877.11</ele><time>2010-06-26T08:42:58Z</time></trkpt><trkpt lat="47.227575" lon="13.164066"><ele>1879.03</ele><time>2010-06-26T08:42:59Z</time></trkpt><trkpt lat="47.227564" lon="13.164032"><ele>1881.44</ele><time>2010-06-26T08:43:01Z</time></trkpt><trkpt lat="47.227549" lon="13.163992"><ele>1878.55</ele><time>2010-06-26T08:43:03Z</time></trkpt><trkpt lat="47.227543" lon="13.163978"><ele>1881.92</ele><time>2010-06-26T08:43:04Z</time></trkpt><trkpt lat="47.227497" lon="13.163763"><ele>1885.28</ele><time>2010-06-26T08:43:17Z</time></trkpt><trkpt lat="47.227467" lon="13.163621"><ele>1883.36</ele><time>2010-06-26T08:43:27Z</time></trkpt><trkpt lat="47.227464" lon="13.163608"><ele>1878.55</ele><time>2010-06-26T08:43:28Z</time></trkpt><trkpt lat="47.227457" lon="13.163597"><ele>1886.24</ele><time>2010-06-26T08:43:29Z</time></trkpt><trkpt lat="47.227452" lon="13.163581"><ele>1884.80</ele><time>2010-06-26T08:43:30Z</time></trkpt><trkpt lat="47.227447" lon="13.163564"><ele>1884.80</ele><time>2010-06-26T08:43:31Z</time></trkpt><trkpt lat="47.227438" lon="13.163537"><ele>1885.28</ele><time>2010-06-26T08:43:33Z</time></trkpt><trkpt lat="47.227428" lon="13.163443"><ele>1886.24</ele><time>2010-06-26T08:43:39Z</time></trkpt><trkpt lat="47.227401" lon="13.163285"><ele>1885.76</ele><time>2010-06-26T08:43:50Z</time></trkpt><trkpt lat="47.227375" lon="13.163197"><ele>1887.69</ele><time>2010-06-26T08:43:56Z</time></trkpt><trkpt lat="47.227313" lon="13.162994"><ele>1888.65</ele><time>2010-06-26T08:44:09Z</time></trkpt><trkpt lat="47.227254" lon="13.162828"><ele>1889.13</ele><time>2010-06-26T08:44:21Z</time></trkpt><trkpt lat="47.227229" lon="13.162692"><ele>1891.53</ele><time>2010-06-26T08:44:33Z</time></trkpt><trkpt lat="47.227206" lon="13.162581"><ele>1892.97</ele><time>2010-06-26T08:44:41Z</time></trkpt><trkpt lat="47.227181" lon="13.162428"><ele>1893.45</ele><time>2010-06-26T08:44:52Z</time></trkpt><trkpt lat="47.227177" lon="13.162343"><ele>1894.42</ele><time>2010-06-26T08:45:00Z</time></trkpt><trkpt lat="47.227178" lon="13.162334"><ele>1894.42</ele><time>2010-06-26T08:45:01Z</time></trkpt><trkpt lat="47.227172" lon="13.162306"><ele>1895.38</ele><time>2010-06-26T08:45:05Z</time></trkpt><trkpt lat="47.227135" lon="13.162194"><ele>1896.34</ele><time>2010-06-26T08:45:14Z</time></trkpt><trkpt lat="47.227109" lon="13.162072"><ele>1898.74</ele><time>2010-06-26T08:45:25Z</time></trkpt><trkpt lat="47.227092" lon="13.161969"><ele>1898.74</ele><time>2010-06-26T08:45:35Z</time></trkpt><trkpt lat="47.227092" lon="13.161958"><ele>1900.18</ele><time>2010-06-26T08:45:36Z</time></trkpt><trkpt lat="47.227081" lon="13.161851"><ele>1901.14</ele><time>2010-06-26T08:45:46Z</time></trkpt><trkpt lat="47.227064" lon="13.161780"><ele>1902.11</ele><time>2010-06-26T08:45:54Z</time></trkpt><trkpt lat="47.227057" lon="13.161773"><ele>1901.63</ele><time>2010-06-26T08:45:55Z</time></trkpt><trkpt lat="47.227030" lon="13.161713"><ele>1902.59</ele><time>2010-06-26T08:46:00Z</time></trkpt><trkpt lat="47.227035" lon="13.161648"><ele>1904.51</ele><time>2010-06-26T08:46:06Z</time></trkpt><trkpt lat="47.227020" lon="13.161534"><ele>1905.47</ele><time>2010-06-26T08:46:16Z</time></trkpt><trkpt lat="47.227005" lon="13.161476"><ele>1905.95</ele><time>2010-06-26T08:46:22Z</time></trkpt><trkpt lat="47.226986" lon="13.161376"><ele>1906.91</ele><time>2010-06-26T08:46:32Z</time></trkpt><trkpt lat="47.226985" lon="13.161303"><ele>1907.87</ele><time>2010-06-26T08:46:41Z</time></trkpt><trkpt lat="47.226978" lon="13.161279"><ele>1908.35</ele><time>2010-06-26T08:46:43Z</time></trkpt><trkpt lat="47.226982" lon="13.161256"><ele>1909.32</ele><time>2010-06-26T08:46:46Z</time></trkpt><trkpt lat="47.226970" lon="13.161146"><ele>1909.80</ele><time>2010-06-26T08:46:55Z</time></trkpt><trkpt lat="47.226961" lon="13.161069"><ele>1913.16</ele><time>2010-06-26T08:47:02Z</time></trkpt><trkpt lat="47.226964" lon="13.161046"><ele>1913.16</ele><time>2010-06-26T08:47:04Z</time></trkpt><trkpt lat="47.226966" lon="13.161009"><ele>1912.20</ele><time>2010-06-26T08:47:07Z</time></trkpt><trkpt lat="47.226970" lon="13.160894"><ele>1915.08</ele><time>2010-06-26T08:47:16Z</time></trkpt><trkpt lat="47.226946" lon="13.160782"><ele>1916.04</ele><time>2010-06-26T08:47:25Z</time></trkpt><trkpt lat="47.226931" lon="13.160746"><ele>1916.04</ele><time>2010-06-26T08:47:28Z</time></trkpt><trkpt lat="47.226849" lon="13.160621"><ele>1915.56</ele><time>2010-06-26T08:47:40Z</time></trkpt><trkpt lat="47.226775" lon="13.160497"><ele>1917.97</ele><time>2010-06-26T08:47:52Z</time></trkpt><trkpt lat="47.226747" lon="13.160417"><ele>1918.45</ele><time>2010-06-26T08:47:58Z</time></trkpt><trkpt lat="47.226737" lon="13.160380"><ele>1917.97</ele><time>2010-06-26T08:48:01Z</time></trkpt><trkpt lat="47.226748" lon="13.160248"><ele>1919.89</ele><time>2010-06-26T08:48:12Z</time></trkpt><trkpt lat="47.226748" lon="13.160238"><ele>1920.85</ele><time>2010-06-26T08:48:13Z</time></trkpt><trkpt lat="47.226784" lon="13.160116"><ele>1923.25</ele><time>2010-06-26T08:48:22Z</time></trkpt><trkpt lat="47.226785" lon="13.159990"><ele>1922.29</ele><time>2010-06-26T08:48:31Z</time></trkpt><trkpt lat="47.226771" lon="13.159912"><ele>1926.14</ele><time>2010-06-26T08:48:37Z</time></trkpt><trkpt lat="47.226770" lon="13.159779"><ele>1923.74</ele><time>2010-06-26T08:48:47Z</time></trkpt><trkpt lat="47.226770" lon="13.159754"><ele>1926.62</ele><time>2010-06-26T08:48:49Z</time></trkpt><trkpt lat="47.226788" lon="13.159656"><ele>1926.62</ele><time>2010-06-26T08:48:55Z</time></trkpt><trkpt lat="47.226753" lon="13.159541"><ele>1928.06</ele><time>2010-06-26T08:49:04Z</time></trkpt><trkpt lat="47.226722" lon="13.159393"><ele>1929.98</ele><time>2010-06-26T08:49:14Z</time></trkpt><trkpt lat="47.226675" lon="13.159279"><ele>1931.43</ele><time>2010-06-26T08:49:24Z</time></trkpt><trkpt lat="47.226667" lon="13.159168"><ele>1933.35</ele><time>2010-06-26T08:49:33Z</time></trkpt><trkpt lat="47.226655" lon="13.159057"><ele>1937.19</ele><time>2010-06-26T08:49:43Z</time></trkpt><trkpt lat="47.226651" lon="13.159044"><ele>1933.35</ele><time>2010-06-26T08:49:44Z</time></trkpt><trkpt lat="47.226649" lon="13.159032"><ele>1936.71</ele><time>2010-06-26T08:49:45Z</time></trkpt><trkpt lat="47.226622" lon="13.158934"><ele>1936.23</ele><time>2010-06-26T08:49:52Z</time></trkpt><trkpt lat="47.226598" lon="13.158841"><ele>1937.67</ele><time>2010-06-26T08:50:00Z</time></trkpt><trkpt lat="47.226605" lon="13.158754"><ele>1940.08</ele><time>2010-06-26T08:50:07Z</time></trkpt><trkpt lat="47.226590" lon="13.158611"><ele>1942.00</ele><time>2010-06-26T08:50:19Z</time></trkpt><trkpt lat="47.226549" lon="13.158493"><ele>1943.44</ele><time>2010-06-26T08:50:30Z</time></trkpt><trkpt lat="47.226520" lon="13.158413"><ele>1942.96</ele><time>2010-06-26T08:50:37Z</time></trkpt><trkpt lat="47.226476" lon="13.158303"><ele>1947.29</ele><time>2010-06-26T08:50:48Z</time></trkpt><trkpt lat="47.226472" lon="13.158291"><ele>1947.29</ele><time>2010-06-26T08:50:49Z</time></trkpt><trkpt lat="47.226426" lon="13.158200"><ele>1948.25</ele><time>2010-06-26T08:50:59Z</time></trkpt><trkpt lat="47.226381" lon="13.158115"><ele>1949.69</ele><time>2010-06-26T08:51:07Z</time></trkpt><trkpt lat="47.226374" lon="13.158100"><ele>1949.69</ele><time>2010-06-26T08:51:08Z</time></trkpt><trkpt lat="47.226346" lon="13.158041"><ele>1950.17</ele><time>2010-06-26T08:51:13Z</time></trkpt><trkpt lat="47.226277" lon="13.157885"><ele>1953.06</ele><time>2010-06-26T08:51:26Z</time></trkpt><trkpt lat="47.226234" lon="13.157759"><ele>1954.98</ele><time>2010-06-26T08:51:38Z</time></trkpt><trkpt lat="47.226205" lon="13.157689"><ele>1954.50</ele><time>2010-06-26T08:51:45Z</time></trkpt><trkpt lat="47.226156" lon="13.157572"><ele>1955.94</ele><time>2010-06-26T08:51:56Z</time></trkpt><trkpt lat="47.226093" lon="13.157412"><ele>1957.86</ele><time>2010-06-26T08:52:08Z</time></trkpt><trkpt lat="47.226082" lon="13.157342"><ele>1957.86</ele><time>2010-06-26T08:52:13Z</time></trkpt><trkpt lat="47.226022" lon="13.157217"><ele>1959.30</ele><time>2010-06-26T08:52:24Z</time></trkpt><trkpt lat="47.225987" lon="13.157179"><ele>1958.82</ele><time>2010-06-26T08:52:29Z</time></trkpt><trkpt lat="47.225915" lon="13.157038"><ele>1960.75</ele><time>2010-06-26T08:52:41Z</time></trkpt><trkpt lat="47.225834" lon="13.156879"><ele>1963.15</ele><time>2010-06-26T08:52:55Z</time></trkpt><trkpt lat="47.225830" lon="13.156868"><ele>1962.67</ele><time>2010-06-26T08:52:56Z</time></trkpt><trkpt lat="47.225801" lon="13.156806"><ele>1963.63</ele><time>2010-06-26T08:53:01Z</time></trkpt><trkpt lat="47.225722" lon="13.156660"><ele>1966.03</ele><time>2010-06-26T08:53:14Z</time></trkpt><trkpt lat="47.225663" lon="13.156579"><ele>1968.44</ele><time>2010-06-26T08:53:24Z</time></trkpt><trkpt lat="47.225617" lon="13.156522"><ele>1969.40</ele><time>2010-06-26T08:53:31Z</time></trkpt><trkpt lat="47.225574" lon="13.156460"><ele>1970.84</ele><time>2010-06-26T08:53:37Z</time></trkpt><trkpt lat="47.225520" lon="13.156344"><ele>1970.36</ele><time>2010-06-26T08:53:48Z</time></trkpt><trkpt lat="47.225503" lon="13.156302"><ele>1973.24</ele><time>2010-06-26T08:53:52Z</time></trkpt><trkpt lat="47.225478" lon="13.156169"><ele>1974.20</ele><time>2010-06-26T08:54:02Z</time></trkpt><trkpt lat="47.225478" lon="13.156157"><ele>1974.20</ele><time>2010-06-26T08:54:03Z</time></trkpt><trkpt lat="47.225461" lon="13.155955"><ele>1976.61</ele><time>2010-06-26T08:54:16Z</time></trkpt><trkpt lat="47.225463" lon="13.155942"><ele>1976.61</ele><time>2010-06-26T08:54:17Z</time></trkpt><trkpt lat="47.225449" lon="13.155850"><ele>1977.09</ele><time>2010-06-26T08:54:23Z</time></trkpt><trkpt lat="47.225413" lon="13.155762"><ele>1977.09</ele><time>2010-06-26T08:54:29Z</time></trkpt><trkpt lat="47.225371" lon="13.155622"><ele>1979.01</ele><time>2010-06-26T08:54:39Z</time></trkpt><trkpt lat="47.225338" lon="13.155474"><ele>1981.41</ele><time>2010-06-26T08:54:49Z</time></trkpt><trkpt lat="47.225279" lon="13.155332"><ele>1982.38</ele><time>2010-06-26T08:55:01Z</time></trkpt><trkpt lat="47.225267" lon="13.155329"><ele>1980.93</ele><time>2010-06-26T08:55:02Z</time></trkpt><trkpt lat="47.225185" lon="13.155170"><ele>1983.34</ele><time>2010-06-26T08:55:15Z</time></trkpt><trkpt lat="47.225170" lon="13.155141"><ele>1983.34</ele><time>2010-06-26T08:55:17Z</time></trkpt><trkpt lat="47.225161" lon="13.155095"><ele>1983.34</ele><time>2010-06-26T08:55:20Z</time></trkpt><trkpt lat="47.225147" lon="13.154994"><ele>1983.82</ele><time>2010-06-26T08:55:28Z</time></trkpt><trkpt lat="47.225124" lon="13.154874"><ele>1986.22</ele><time>2010-06-26T08:55:35Z</time></trkpt><trkpt lat="47.225160" lon="13.154690"><ele>1988.62</ele><time>2010-06-26T08:55:47Z</time></trkpt><trkpt lat="47.225199" lon="13.154538"><ele>1990.07</ele><time>2010-06-26T08:55:59Z</time></trkpt><trkpt lat="47.225236" lon="13.154379"><ele>1992.47</ele><time>2010-06-26T08:56:10Z</time></trkpt><trkpt lat="47.225255" lon="13.154253"><ele>1992.95</ele><time>2010-06-26T08:56:19Z</time></trkpt><trkpt lat="47.225242" lon="13.154140"><ele>1993.43</ele><time>2010-06-26T08:56:28Z</time></trkpt><trkpt lat="47.225250" lon="13.154032"><ele>1994.87</ele><time>2010-06-26T08:56:36Z</time></trkpt><trkpt lat="47.225261" lon="13.153843"><ele>1995.83</ele><time>2010-06-26T08:56:48Z</time></trkpt><trkpt lat="47.225293" lon="13.153710"><ele>1996.80</ele><time>2010-06-26T08:56:59Z</time></trkpt><trkpt lat="47.225285" lon="13.153677"><ele>1996.80</ele><time>2010-06-26T08:57:01Z</time></trkpt><trkpt lat="47.225280" lon="13.153501"><ele>1997.76</ele><time>2010-06-26T08:57:12Z</time></trkpt><trkpt lat="47.225254" lon="13.153361"><ele>1998.72</ele><time>2010-06-26T08:57:22Z</time></trkpt><trkpt lat="47.225242" lon="13.153326"><ele>1998.72</ele><time>2010-06-26T08:57:25Z</time></trkpt><trkpt lat="47.225189" lon="13.153275"><ele>1999.20</ele><time>2010-06-26T08:57:30Z</time></trkpt><trkpt lat="47.225174" lon="13.153253"><ele>1999.20</ele><time>2010-06-26T08:57:33Z</time></trkpt><trkpt lat="47.225110" lon="13.153208"><ele>2000.16</ele><time>2010-06-26T08:57:39Z</time></trkpt><trkpt lat="47.225078" lon="13.153225"><ele>2000.16</ele><time>2010-06-26T08:57:49Z</time></trkpt><trkpt lat="47.225075" lon="13.153228"><ele>2000.64</ele><time>2010-06-26T08:58:36Z</time></trkpt><trkpt lat="47.225075" lon="13.153228"><ele>1999.68</ele><time>2010-06-26T08:58:49Z</time></trkpt><trkpt lat="47.225075" lon="13.153228"><ele>2000.16</ele><time>2010-06-26T08:58:51Z</time></trkpt><trkpt lat="47.225074" lon="13.153226"><ele>1999.68</ele><time>2010-06-26T08:59:36Z</time></trkpt><trkpt lat="47.225074" lon="13.153226"><ele>2000.64</ele><time>2010-06-26T08:59:38Z</time></trkpt><trkpt lat="47.225072" lon="13.153224"><ele>2000.64</ele><time>2010-06-26T09:00:13Z</time></trkpt><trkpt lat="47.225081" lon="13.153230"><ele>1999.68</ele><time>2010-06-26T09:00:15Z</time></trkpt><trkpt lat="47.225106" lon="13.153265"><ele>1999.20</ele><time>2010-06-26T09:00:19Z</time></trkpt><trkpt lat="47.225106" lon="13.153257"><ele>2000.16</ele><time>2010-06-26T09:00:31Z</time></trkpt><trkpt lat="47.225054" lon="13.153222"><ele>1995.35</ele><time>2010-06-26T09:00:38Z</time></trkpt><trkpt lat="47.225054" lon="13.153222"><ele>2000.16</ele><time>2010-06-26T09:00:39Z</time></trkpt><trkpt lat="47.225054" lon="13.153222"><ele>1999.68</ele><time>2010-06-26T09:00:45Z</time></trkpt><trkpt lat="47.225054" lon="13.153221"><ele>1999.20</ele><time>2010-06-26T09:01:19Z</time></trkpt><trkpt lat="47.225054" lon="13.153221"><ele>1999.20</ele><time>2010-06-26T09:01:29Z</time></trkpt><trkpt lat="47.225054" lon="13.153221"><ele>1999.68</ele><time>2010-06-26T09:01:56Z</time></trkpt><trkpt lat="47.225019" lon="13.153210"><ele>2002.56</ele><time>2010-06-26T09:02:08Z</time></trkpt><trkpt lat="47.224976" lon="13.153227"><ele>2002.56</ele><time>2010-06-26T09:02:14Z</time></trkpt><trkpt lat="47.224942" lon="13.153230"><ele>2002.08</ele><time>2010-06-26T09:02:21Z</time></trkpt><trkpt lat="47.224929" lon="13.153241"><ele>2003.52</ele><time>2010-06-26T09:02:23Z</time></trkpt><trkpt lat="47.224920" lon="13.153245"><ele>2002.08</ele><time>2010-06-26T09:02:24Z</time></trkpt><trkpt lat="47.224914" lon="13.153271"><ele>2004.49</ele><time>2010-06-26T09:02:27Z</time></trkpt><trkpt lat="47.224893" lon="13.153327"><ele>2005.45</ele><time>2010-06-26T09:02:33Z</time></trkpt><trkpt lat="47.224885" lon="13.153356"><ele>2006.41</ele><time>2010-06-26T09:02:35Z</time></trkpt><trkpt lat="47.224875" lon="13.153384"><ele>2006.41</ele><time>2010-06-26T09:02:39Z</time></trkpt><trkpt lat="47.224857" lon="13.153408"><ele>2007.37</ele><time>2010-06-26T09:02:43Z</time></trkpt><trkpt lat="47.224846" lon="13.153424"><ele>2011.70</ele><time>2010-06-26T09:02:45Z</time></trkpt><trkpt lat="47.224841" lon="13.153435"><ele>2008.33</ele><time>2010-06-26T09:02:46Z</time></trkpt><trkpt lat="47.224814" lon="13.153486"><ele>2012.18</ele><time>2010-06-26T09:02:54Z</time></trkpt><trkpt lat="47.224801" lon="13.153566"><ele>2013.62</ele><time>2010-06-26T09:03:03Z</time></trkpt><trkpt lat="47.224806" lon="13.153580"><ele>2013.62</ele><time>2010-06-26T09:03:04Z</time></trkpt><trkpt lat="47.224795" lon="13.153669"><ele>2013.14</ele><time>2010-06-26T09:03:14Z</time></trkpt><trkpt lat="47.224792" lon="13.153684"><ele>2016.50</ele><time>2010-06-26T09:03:15Z</time></trkpt><trkpt lat="47.224790" lon="13.153695"><ele>2016.50</ele><time>2010-06-26T09:03:16Z</time></trkpt><trkpt lat="47.224777" lon="13.153748"><ele>2016.98</ele><time>2010-06-26T09:03:24Z</time></trkpt><trkpt lat="47.224773" lon="13.153758"><ele>2017.94</ele><time>2010-06-26T09:03:26Z</time></trkpt><trkpt lat="47.224774" lon="13.153825"><ele>2019.87</ele><time>2010-06-26T09:03:31Z</time></trkpt><trkpt lat="47.224710" lon="13.153941"><ele>2021.31</ele><time>2010-06-26T09:03:42Z</time></trkpt><trkpt lat="47.224703" lon="13.153989"><ele>2021.31</ele><time>2010-06-26T09:03:52Z</time></trkpt><trkpt lat="47.224704" lon="13.153990"><ele>2019.87</ele><time>2010-06-26T09:07:37Z</time></trkpt><trkpt lat="47.224728" lon="13.154024"><ele>2020.83</ele><time>2010-06-26T09:08:02Z</time></trkpt><trkpt lat="47.224725" lon="13.153993"><ele>2022.27</ele><time>2010-06-26T09:08:31Z</time></trkpt><trkpt lat="47.224706" lon="13.154007"><ele>2020.35</ele><time>2010-06-26T09:10:06Z</time></trkpt><trkpt lat="47.224685" lon="13.154048"><ele>2020.35</ele><time>2010-06-26T09:10:19Z</time></trkpt><trkpt lat="47.224698" lon="13.154014"><ele>2021.31</ele><time>2010-06-26T09:10:29Z</time></trkpt><trkpt lat="47.224700" lon="13.154000"><ele>2021.31</ele><time>2010-06-26T09:11:31Z</time></trkpt><trkpt lat="47.224706" lon="13.153945"><ele>2020.83</ele><time>2010-06-26T09:11:47Z</time></trkpt><trkpt lat="47.224708" lon="13.153939"><ele>2015.54</ele><time>2010-06-26T09:12:20Z</time></trkpt><trkpt lat="47.224708" lon="13.153939"><ele>2021.31</ele><time>2010-06-26T09:12:21Z</time></trkpt><trkpt lat="47.224708" lon="13.153939"><ele>2017.94</ele><time>2010-06-26T09:12:26Z</time></trkpt><trkpt lat="47.224708" lon="13.153939"><ele>2021.79</ele><time>2010-06-26T09:12:27Z</time></trkpt><trkpt lat="47.224708" lon="13.153939"><ele>2017.94</ele><time>2010-06-26T09:12:29Z</time></trkpt><trkpt lat="47.224708" lon="13.153939"><ele>2019.39</ele><time>2010-06-26T09:12:30Z</time></trkpt><trkpt lat="47.224708" lon="13.153939"><ele>2024.19</ele><time>2010-06-26T09:12:31Z</time></trkpt><trkpt lat="47.224708" lon="13.153939"><ele>2022.27</ele><time>2010-06-26T09:12:32Z</time></trkpt><trkpt lat="47.224708" lon="13.153939"><ele>2020.35</ele><time>2010-06-26T09:12:34Z</time></trkpt><trkpt lat="47.224708" lon="13.153939"><ele>2021.79</ele><time>2010-06-26T09:12:45Z</time></trkpt><trkpt lat="47.224706" lon="13.153933"><ele>2016.50</ele><time>2010-06-26T09:13:07Z</time></trkpt><trkpt lat="47.224706" lon="13.153933"><ele>2019.39</ele><time>2010-06-26T09:13:08Z</time></trkpt><trkpt lat="47.224706" lon="13.153933"><ele>2021.31</ele><time>2010-06-26T09:13:13Z</time></trkpt><trkpt lat="47.224701" lon="13.153931"><ele>2019.39</ele><time>2010-06-26T09:13:15Z</time></trkpt><trkpt lat="47.224698" lon="13.153978"><ele>2020.35</ele><time>2010-06-26T09:13:26Z</time></trkpt><trkpt lat="47.224698" lon="13.153984"><ele>2021.79</ele><time>2010-06-26T09:13:35Z</time></trkpt><trkpt lat="47.224698" lon="13.153984"><ele>2019.87</ele><time>2010-06-26T09:13:38Z</time></trkpt><trkpt lat="47.224721" lon="13.154013"><ele>2020.83</ele><time>2010-06-26T09:14:22Z</time></trkpt><trkpt lat="47.224718" lon="13.154015"><ele>2021.31</ele><time>2010-06-26T09:15:22Z</time></trkpt><trkpt lat="47.224717" lon="13.154009"><ele>2020.83</ele><time>2010-06-26T09:16:12Z</time></trkpt><trkpt lat="47.224729" lon="13.153947"><ele>2022.27</ele><time>2010-06-26T09:16:26Z</time></trkpt><trkpt lat="47.224734" lon="13.153919"><ele>2022.75</ele><time>2010-06-26T09:17:14Z</time></trkpt><trkpt lat="47.224734" lon="13.153910"><ele>2018.43</ele><time>2010-06-26T09:17:19Z</time></trkpt><trkpt lat="47.224734" lon="13.153910"><ele>2010.73</ele><time>2010-06-26T09:17:20Z</time></trkpt><trkpt lat="47.224734" lon="13.153910"><ele>2018.43</ele><time>2010-06-26T09:17:21Z</time></trkpt><trkpt lat="47.224734" lon="13.153910"><ele>2019.87</ele><time>2010-06-26T09:17:23Z</time></trkpt><trkpt lat="47.224734" lon="13.153910"><ele>2020.35</ele><time>2010-06-26T09:17:29Z</time></trkpt><trkpt lat="47.224733" lon="13.153921"><ele>2023.23</ele><time>2010-06-26T09:17:31Z</time></trkpt><trkpt lat="47.224733" lon="13.153924"><ele>2020.35</ele><time>2010-06-26T09:17:39Z</time></trkpt><trkpt lat="47.224732" lon="13.153926"><ele>2022.27</ele><time>2010-06-26T09:18:30Z</time></trkpt><trkpt lat="47.224727" lon="13.153927"><ele>2021.79</ele><time>2010-06-26T09:19:00Z</time></trkpt><trkpt lat="47.224728" lon="13.153929"><ele>2021.79</ele><time>2010-06-26T09:19:37Z</time></trkpt><trkpt lat="47.224717" lon="13.153931"><ele>2022.75</ele><time>2010-06-26T09:19:41Z</time></trkpt><trkpt lat="47.224703" lon="13.153963"><ele>2021.79</ele><time>2010-06-26T09:20:03Z</time></trkpt><trkpt lat="47.224708" lon="13.153959"><ele>2021.31</ele><time>2010-06-26T09:20:31Z</time></trkpt><trkpt lat="47.224709" lon="13.153969"><ele>2021.79</ele><time>2010-06-26T09:20:51Z</time></trkpt><trkpt lat="47.224710" lon="13.153977"><ele>1995.83</ele><time>2010-06-26T09:20:54Z</time></trkpt><trkpt lat="47.224712" lon="13.153982"><ele>2016.50</ele><time>2010-06-26T09:20:55Z</time></trkpt><trkpt lat="47.224714" lon="13.153986"><ele>2020.35</ele><time>2010-06-26T09:20:56Z</time></trkpt><trkpt lat="47.224709" lon="13.153976"><ele>2018.91</ele><time>2010-06-26T09:21:29Z</time></trkpt><trkpt lat="47.224709" lon="13.153976"><ele>2031.40</ele><time>2010-06-26T09:21:31Z</time></trkpt><trkpt lat="47.224709" lon="13.153976"><ele>2021.31</ele><time>2010-06-26T09:21:32Z</time></trkpt><trkpt lat="47.224709" lon="13.153976"><ele>2003.52</ele><time>2010-06-26T09:21:34Z</time></trkpt><trkpt lat="47.224709" lon="13.153976"><ele>2020.35</ele><time>2010-06-26T09:21:35Z</time></trkpt><trkpt lat="47.224714" lon="13.153988"><ele>2030.44</ele><time>2010-06-26T09:22:08Z</time></trkpt><trkpt lat="47.224718" lon="13.153981"><ele>2024.19</ele><time>2010-06-26T09:22:09Z</time></trkpt><trkpt lat="47.224718" lon="13.153981"><ele>2020.83</ele><time>2010-06-26T09:22:10Z</time></trkpt><trkpt lat="47.224719" lon="13.153981"><ele>2021.31</ele><time>2010-06-26T09:22:11Z</time></trkpt><trkpt lat="47.224742" lon="13.153945"><ele>2020.83</ele><time>2010-06-26T09:22:28Z</time></trkpt><trkpt lat="47.224742" lon="13.153945"><ele>2021.79</ele><time>2010-06-26T09:22:54Z</time></trkpt><trkpt lat="47.224785" lon="13.153818"><ele>2019.87</ele><time>2010-06-26T09:23:05Z</time></trkpt><trkpt lat="47.224801" lon="13.153754"><ele>2019.87</ele><time>2010-06-26T09:23:15Z</time></trkpt><trkpt lat="47.224801" lon="13.153754"><ele>2018.91</ele><time>2010-06-26T09:23:18Z</time></trkpt><trkpt lat="47.224802" lon="13.153724"><ele>2016.98</ele><time>2010-06-26T09:23:28Z</time></trkpt><trkpt lat="47.224812" lon="13.153702"><ele>2016.02</ele><time>2010-06-26T09:23:30Z</time></trkpt><trkpt lat="47.224829" lon="13.153627"><ele>2014.10</ele><time>2010-06-26T09:23:36Z</time></trkpt><trkpt lat="47.224869" lon="13.153553"><ele>2012.18</ele><time>2010-06-26T09:23:48Z</time></trkpt><trkpt lat="47.224897" lon="13.153459"><ele>2010.25</ele><time>2010-06-26T09:23:59Z</time></trkpt><trkpt lat="47.224903" lon="13.153398"><ele>2007.85</ele><time>2010-06-26T09:24:07Z</time></trkpt><trkpt lat="47.224888" lon="13.153352"><ele>2006.89</ele><time>2010-06-26T09:24:11Z</time></trkpt><trkpt lat="47.224898" lon="13.153296"><ele>2004.49</ele><time>2010-06-26T09:24:18Z</time></trkpt><trkpt lat="47.224932" lon="13.153250"><ele>2003.52</ele><time>2010-06-26T09:24:29Z</time></trkpt><trkpt lat="47.224977" lon="13.153202"><ele>2003.52</ele><time>2010-06-26T09:24:40Z</time></trkpt><trkpt lat="47.224976" lon="13.153197"><ele>2003.52</ele><time>2010-06-26T09:26:10Z</time></trkpt><trkpt lat="47.225040" lon="13.153163"><ele>2004.01</ele><time>2010-06-26T09:26:18Z</time></trkpt><trkpt lat="47.225046" lon="13.153157"><ele>2003.04</ele><time>2010-06-26T09:26:19Z</time></trkpt><trkpt lat="47.225144" lon="13.153129"><ele>2001.60</ele><time>2010-06-26T09:26:31Z</time></trkpt><trkpt lat="47.225206" lon="13.153149"><ele>2001.60</ele><time>2010-06-26T09:26:40Z</time></trkpt><trkpt lat="47.225275" lon="13.153154"><ele>2001.12</ele><time>2010-06-26T09:26:50Z</time></trkpt><trkpt lat="47.225360" lon="13.153137"><ele>2001.12</ele><time>2010-06-26T09:26:59Z</time></trkpt><trkpt lat="47.225475" lon="13.153082"><ele>1999.68</ele><time>2010-06-26T09:27:10Z</time></trkpt><trkpt lat="47.225522" lon="13.153069"><ele>1998.72</ele><time>2010-06-26T09:27:17Z</time></trkpt><trkpt lat="47.225568" lon="13.153095"><ele>1997.76</ele><time>2010-06-26T09:27:23Z</time></trkpt><trkpt lat="47.225622" lon="13.153070"><ele>1998.72</ele><time>2010-06-26T09:27:28Z</time></trkpt><trkpt lat="47.225648" lon="13.153050"><ele>1996.32</ele><time>2010-06-26T09:27:31Z</time></trkpt><trkpt lat="47.225676" lon="13.153045"><ele>1996.32</ele><time>2010-06-26T09:27:34Z</time></trkpt><trkpt lat="47.225741" lon="13.153033"><ele>1995.35</ele><time>2010-06-26T09:27:45Z</time></trkpt><trkpt lat="47.225764" lon="13.153016"><ele>1994.39</ele><time>2010-06-26T09:27:49Z</time></trkpt><trkpt lat="47.225808" lon="13.152983"><ele>1993.43</ele><time>2010-06-26T09:27:53Z</time></trkpt><trkpt lat="47.225903" lon="13.152911"><ele>1991.99</ele><time>2010-06-26T09:28:03Z</time></trkpt><trkpt lat="47.225914" lon="13.152876"><ele>1991.03</ele><time>2010-06-26T09:28:06Z</time></trkpt><trkpt lat="47.225925" lon="13.152769"><ele>1991.99</ele><time>2010-06-26T09:28:19Z</time></trkpt><trkpt lat="47.225931" lon="13.152701"><ele>1991.99</ele><time>2010-06-26T09:29:23Z</time></trkpt><trkpt lat="47.225978" lon="13.152717"><ele>1991.03</ele><time>2010-06-26T09:29:29Z</time></trkpt><trkpt lat="47.226003" lon="13.152753"><ele>1991.51</ele><time>2010-06-26T09:29:45Z</time></trkpt><trkpt lat="47.226032" lon="13.152750"><ele>1990.55</ele><time>2010-06-26T09:29:49Z</time></trkpt><trkpt lat="47.226057" lon="13.152746"><ele>1991.51</ele><time>2010-06-26T09:29:52Z</time></trkpt><trkpt lat="47.226132" lon="13.152711"><ele>1989.59</ele><time>2010-06-26T09:30:02Z</time></trkpt><trkpt lat="47.226222" lon="13.152650"><ele>1989.10</ele><time>2010-06-26T09:30:12Z</time></trkpt><trkpt lat="47.226320" lon="13.152544"><ele>1988.14</ele><time>2010-06-26T09:30:24Z</time></trkpt><trkpt lat="47.226400" lon="13.152412"><ele>1985.74</ele><time>2010-06-26T09:30:36Z</time></trkpt><trkpt lat="47.226437" lon="13.152376"><ele>1984.30</ele><time>2010-06-26T09:30:40Z</time></trkpt><trkpt lat="47.226519" lon="13.152302"><ele>1981.90</ele><time>2010-06-26T09:30:53Z</time></trkpt><trkpt lat="47.226537" lon="13.152285"><ele>1980.45</ele><time>2010-06-26T09:30:56Z</time></trkpt><trkpt lat="47.226568" lon="13.152254"><ele>1979.49</ele><time>2010-06-26T09:31:00Z</time></trkpt><trkpt lat="47.226610" lon="13.152215"><ele>1979.01</ele><time>2010-06-26T09:31:05Z</time></trkpt><trkpt lat="47.226622" lon="13.152211"><ele>1978.53</ele><time>2010-06-26T09:31:06Z</time></trkpt><trkpt lat="47.226640" lon="13.152197"><ele>1978.53</ele><time>2010-06-26T09:31:08Z</time></trkpt><trkpt lat="47.226729" lon="13.152144"><ele>1976.61</ele><time>2010-06-26T09:31:20Z</time></trkpt><trkpt lat="47.226747" lon="13.152135"><ele>1975.17</ele><time>2010-06-26T09:31:22Z</time></trkpt><trkpt lat="47.226813" lon="13.152085"><ele>1974.20</ele><time>2010-06-26T09:31:30Z</time></trkpt><trkpt lat="47.226846" lon="13.151966"><ele>1973.72</ele><time>2010-06-26T09:31:37Z</time></trkpt><trkpt lat="47.226917" lon="13.151950"><ele>1972.76</ele><time>2010-06-26T09:31:44Z</time></trkpt><trkpt lat="47.227053" lon="13.151949"><ele>1971.80</ele><time>2010-06-26T09:31:56Z</time></trkpt><trkpt lat="47.227122" lon="13.151891"><ele>1970.36</ele><time>2010-06-26T09:32:06Z</time></trkpt><trkpt lat="47.227209" lon="13.151830"><ele>1969.40</ele><time>2010-06-26T09:32:14Z</time></trkpt><trkpt lat="47.227295" lon="13.151765"><ele>1967.96</ele><time>2010-06-26T09:32:24Z</time></trkpt><trkpt lat="47.227304" lon="13.151757"><ele>1967.48</ele><time>2010-06-26T09:32:26Z</time></trkpt><trkpt lat="47.227427" lon="13.151688"><ele>1966.51</ele><time>2010-06-26T09:32:36Z</time></trkpt><trkpt lat="47.227506" lon="13.151631"><ele>1966.51</ele><time>2010-06-26T09:32:45Z</time></trkpt><trkpt lat="47.227615" lon="13.151564"><ele>1965.55</ele><time>2010-06-26T09:32:55Z</time></trkpt><trkpt lat="47.227661" lon="13.151543"><ele>1964.59</ele><time>2010-06-26T09:33:00Z</time></trkpt><trkpt lat="47.227791" lon="13.151460"><ele>1963.63</ele><time>2010-06-26T09:33:13Z</time></trkpt><trkpt lat="47.227909" lon="13.151367"><ele>1962.67</ele><time>2010-06-26T09:33:26Z</time></trkpt><trkpt lat="47.228034" lon="13.151287"><ele>1962.19</ele><time>2010-06-26T09:33:37Z</time></trkpt><trkpt lat="47.228120" lon="13.151197"><ele>1962.19</ele><time>2010-06-26T09:33:47Z</time></trkpt><trkpt lat="47.228217" lon="13.151083"><ele>1959.78</ele><time>2010-06-26T09:33:58Z</time></trkpt><trkpt lat="47.228308" lon="13.150961"><ele>1958.82</ele><time>2010-06-26T09:34:10Z</time></trkpt><trkpt lat="47.228413" lon="13.150841"><ele>1958.82</ele><time>2010-06-26T09:34:23Z</time></trkpt><trkpt lat="47.228515" lon="13.150703"><ele>1958.34</ele><time>2010-06-26T09:34:35Z</time></trkpt><trkpt lat="47.228608" lon="13.150611"><ele>1958.34</ele><time>2010-06-26T09:34:46Z</time></trkpt><trkpt lat="47.228624" lon="13.150591"><ele>1956.90</ele><time>2010-06-26T09:34:48Z</time></trkpt><trkpt lat="47.228742" lon="13.150494"><ele>1957.38</ele><time>2010-06-26T09:35:00Z</time></trkpt><trkpt lat="47.228883" lon="13.150406"><ele>1956.42</ele><time>2010-06-26T09:35:13Z</time></trkpt><trkpt lat="47.229009" lon="13.150356"><ele>1955.94</ele><time>2010-06-26T09:35:24Z</time></trkpt><trkpt lat="47.229037" lon="13.150342"><ele>1954.50</ele><time>2010-06-26T09:35:27Z</time></trkpt><trkpt lat="47.229084" lon="13.150313"><ele>1954.98</ele><time>2010-06-26T09:35:32Z</time></trkpt><trkpt lat="47.229233" lon="13.150262"><ele>1953.06</ele><time>2010-06-26T09:35:46Z</time></trkpt><trkpt lat="47.229242" lon="13.150255"><ele>1953.06</ele><time>2010-06-26T09:35:47Z</time></trkpt><trkpt lat="47.229310" lon="13.150200"><ele>1952.57</ele><time>2010-06-26T09:35:55Z</time></trkpt><trkpt lat="47.229374" lon="13.150163"><ele>1952.57</ele><time>2010-06-26T09:36:01Z</time></trkpt><trkpt lat="47.229492" lon="13.150098"><ele>1952.09</ele><time>2010-06-26T09:36:13Z</time></trkpt><trkpt lat="47.229544" lon="13.150073"><ele>1949.69</ele><time>2010-06-26T09:36:17Z</time></trkpt><trkpt lat="47.229646" lon="13.150002"><ele>1950.17</ele><time>2010-06-26T09:36:28Z</time></trkpt><trkpt lat="47.229670" lon="13.149983"><ele>1948.73</ele><time>2010-06-26T09:36:30Z</time></trkpt><trkpt lat="47.229771" lon="13.149920"><ele>1949.69</ele><time>2010-06-26T09:36:40Z</time></trkpt><trkpt lat="47.229904" lon="13.149843"><ele>1947.77</ele><time>2010-06-26T09:36:53Z</time></trkpt><trkpt lat="47.229987" lon="13.149777"><ele>1947.77</ele><time>2010-06-26T09:37:00Z</time></trkpt><trkpt lat="47.230099" lon="13.149718"><ele>1947.77</ele><time>2010-06-26T09:37:11Z</time></trkpt><trkpt lat="47.230134" lon="13.149690"><ele>1945.85</ele><time>2010-06-26T09:37:15Z</time></trkpt><trkpt lat="47.230264" lon="13.149608"><ele>1945.36</ele><time>2010-06-26T09:37:27Z</time></trkpt><trkpt lat="47.230382" lon="13.149536"><ele>1942.96</ele><time>2010-06-26T09:37:38Z</time></trkpt><trkpt lat="47.230415" lon="13.149526"><ele>1943.44</ele><time>2010-06-26T09:37:40Z</time></trkpt><trkpt lat="47.230542" lon="13.149421"><ele>1942.00</ele><time>2010-06-26T09:37:53Z</time></trkpt><trkpt lat="47.230638" lon="13.149314"><ele>1940.56</ele><time>2010-06-26T09:38:04Z</time></trkpt><trkpt lat="47.230727" lon="13.149250"><ele>1941.04</ele><time>2010-06-26T09:38:14Z</time></trkpt><trkpt lat="47.230814" lon="13.149203"><ele>1940.08</ele><time>2010-06-26T09:38:24Z</time></trkpt><trkpt lat="47.230905" lon="13.149189"><ele>1940.08</ele><time>2010-06-26T09:38:34Z</time></trkpt><trkpt lat="47.231020" lon="13.149171"><ele>1940.08</ele><time>2010-06-26T09:38:46Z</time></trkpt><trkpt lat="47.231136" lon="13.149114"><ele>1940.08</ele><time>2010-06-26T09:38:58Z</time></trkpt><trkpt lat="47.231201" lon="13.149050"><ele>1938.64</ele><time>2010-06-26T09:39:11Z</time></trkpt><trkpt lat="47.231216" lon="13.149032"><ele>1939.60</ele><time>2010-06-26T09:39:13Z</time></trkpt><trkpt lat="47.231318" lon="13.148950"><ele>1939.60</ele><time>2010-06-26T09:39:25Z</time></trkpt><trkpt lat="47.231382" lon="13.148867"><ele>1937.19</ele><time>2010-06-26T09:39:33Z</time></trkpt><trkpt lat="47.231442" lon="13.148780"><ele>1937.19</ele><time>2010-06-26T09:39:40Z</time></trkpt><trkpt lat="47.231488" lon="13.148724"><ele>1935.75</ele><time>2010-06-26T09:39:44Z</time></trkpt><trkpt lat="47.231542" lon="13.148652"><ele>1935.27</ele><time>2010-06-26T09:39:56Z</time></trkpt><trkpt lat="47.231542" lon="13.148652"><ele>1935.27</ele><time>2010-06-26T09:40:01Z</time></trkpt><trkpt lat="47.231569" lon="13.148625"><ele>1935.27</ele><time>2010-06-26T09:40:05Z</time></trkpt><trkpt lat="47.231652" lon="13.148509"><ele>1933.83</ele><time>2010-06-26T09:40:17Z</time></trkpt><trkpt lat="47.231657" lon="13.148495"><ele>1933.35</ele><time>2010-06-26T09:40:18Z</time></trkpt><trkpt lat="47.231719" lon="13.148393"><ele>1931.43</ele><time>2010-06-26T09:40:27Z</time></trkpt><trkpt lat="47.231775" lon="13.148297"><ele>1930.95</ele><time>2010-06-26T09:40:35Z</time></trkpt><trkpt lat="47.231817" lon="13.148228"><ele>1929.50</ele><time>2010-06-26T09:40:41Z</time></trkpt><trkpt lat="47.231908" lon="13.148076"><ele>1928.54</ele><time>2010-06-26T09:40:55Z</time></trkpt><trkpt lat="47.231991" lon="13.147895"><ele>1927.58</ele><time>2010-06-26T09:41:09Z</time></trkpt><trkpt lat="47.232062" lon="13.147776"><ele>1926.14</ele><time>2010-06-26T09:41:20Z</time></trkpt><trkpt lat="47.232143" lon="13.147612"><ele>1926.14</ele><time>2010-06-26T09:41:33Z</time></trkpt><trkpt lat="47.232228" lon="13.147465"><ele>1923.25</ele><time>2010-06-26T09:41:46Z</time></trkpt><trkpt lat="47.232230" lon="13.147459"><ele>1923.25</ele><time>2010-06-26T09:41:47Z</time></trkpt><trkpt lat="47.232329" lon="13.147290"><ele>1922.29</ele><time>2010-06-26T09:42:03Z</time></trkpt><trkpt lat="47.232364" lon="13.147187"><ele>1920.37</ele><time>2010-06-26T09:42:12Z</time></trkpt><trkpt lat="47.232441" lon="13.147021"><ele>1918.93</ele><time>2010-06-26T09:42:25Z</time></trkpt><trkpt lat="47.232543" lon="13.146824"><ele>1917.97</ele><time>2010-06-26T09:42:40Z</time></trkpt><trkpt lat="47.232556" lon="13.146793"><ele>1917.01</ele><time>2010-06-26T09:42:42Z</time></trkpt><trkpt lat="47.232591" lon="13.146647"><ele>1916.04</ele><time>2010-06-26T09:42:53Z</time></trkpt><trkpt lat="47.232619" lon="13.146557"><ele>1915.08</ele><time>2010-06-26T09:43:00Z</time></trkpt><trkpt lat="47.232672" lon="13.146415"><ele>1913.64</ele><time>2010-06-26T09:43:12Z</time></trkpt><trkpt lat="47.232749" lon="13.146272"><ele>1913.16</ele><time>2010-06-26T09:43:24Z</time></trkpt><trkpt lat="47.232763" lon="13.146253"><ele>1913.64</ele><time>2010-06-26T09:43:26Z</time></trkpt><trkpt lat="47.232870" lon="13.146145"><ele>1911.24</ele><time>2010-06-26T09:43:39Z</time></trkpt><trkpt lat="47.232915" lon="13.146118"><ele>1911.24</ele><time>2010-06-26T09:43:44Z</time></trkpt><trkpt lat="47.233018" lon="13.146105"><ele>1909.80</ele><time>2010-06-26T09:43:56Z</time></trkpt><trkpt lat="47.233109" lon="13.146055"><ele>1908.35</ele><time>2010-06-26T09:44:05Z</time></trkpt><trkpt lat="47.233162" lon="13.146029"><ele>1908.35</ele><time>2010-06-26T09:44:11Z</time></trkpt><trkpt lat="47.233277" lon="13.145898"><ele>1908.35</ele><time>2010-06-26T09:44:24Z</time></trkpt><trkpt lat="47.233357" lon="13.145811"><ele>1905.47</ele><time>2010-06-26T09:44:34Z</time></trkpt><trkpt lat="47.233437" lon="13.145709"><ele>1905.47</ele><time>2010-06-26T09:44:43Z</time></trkpt><trkpt lat="47.233558" lon="13.145620"><ele>1903.07</ele><time>2010-06-26T09:44:58Z</time></trkpt><trkpt lat="47.233635" lon="13.145574"><ele>1903.07</ele><time>2010-06-26T09:45:04Z</time></trkpt><trkpt lat="47.233689" lon="13.145515"><ele>1902.11</ele><time>2010-06-26T09:45:13Z</time></trkpt><trkpt lat="47.233811" lon="13.145409"><ele>1900.18</ele><time>2010-06-26T09:45:25Z</time></trkpt><trkpt lat="47.233924" lon="13.145302"><ele>1899.22</ele><time>2010-06-26T09:45:39Z</time></trkpt><trkpt lat="47.233969" lon="13.145245"><ele>1899.22</ele><time>2010-06-26T09:45:45Z</time></trkpt><trkpt lat="47.234067" lon="13.145107"><ele>1897.78</ele><time>2010-06-26T09:45:59Z</time></trkpt><trkpt lat="47.234060" lon="13.145090"><ele>1897.30</ele><time>2010-06-26T09:46:42Z</time></trkpt><trkpt lat="47.234058" lon="13.145070"><ele>1896.82</ele><time>2010-06-26T09:47:10Z</time></trkpt><trkpt lat="47.234067" lon="13.145075"><ele>1897.30</ele><time>2010-06-26T09:48:02Z</time></trkpt><trkpt lat="47.234138" lon="13.144999"><ele>1896.82</ele><time>2010-06-26T09:49:07Z</time></trkpt><trkpt lat="47.234180" lon="13.144926"><ele>1894.90</ele><time>2010-06-26T09:49:12Z</time></trkpt><trkpt lat="47.234277" lon="13.144751"><ele>1893.45</ele><time>2010-06-26T09:49:27Z</time></trkpt><trkpt lat="47.234311" lon="13.144693"><ele>1892.01</ele><time>2010-06-26T09:49:33Z</time></trkpt><trkpt lat="47.234343" lon="13.144648"><ele>1892.01</ele><time>2010-06-26T09:49:36Z</time></trkpt><trkpt lat="47.234405" lon="13.144505"><ele>1889.13</ele><time>2010-06-26T09:49:46Z</time></trkpt><trkpt lat="47.234497" lon="13.144316"><ele>1888.17</ele><time>2010-06-26T09:50:04Z</time></trkpt><trkpt lat="47.234515" lon="13.144281"><ele>1880.48</ele><time>2010-06-26T09:50:08Z</time></trkpt><trkpt lat="47.234518" lon="13.144268"><ele>1887.69</ele><time>2010-06-26T09:50:09Z</time></trkpt><trkpt lat="47.234552" lon="13.144186"><ele>1888.17</ele><time>2010-06-26T09:50:27Z</time></trkpt><trkpt lat="47.234602" lon="13.144075"><ele>1885.76</ele><time>2010-06-26T09:50:37Z</time></trkpt><trkpt lat="47.234701" lon="13.143916"><ele>1883.84</ele><time>2010-06-26T09:50:50Z</time></trkpt><trkpt lat="47.234772" lon="13.143789"><ele>1881.44</ele><time>2010-06-26T09:51:01Z</time></trkpt><trkpt lat="47.234795" lon="13.143725"><ele>1880.96</ele><time>2010-06-26T09:51:06Z</time></trkpt><trkpt lat="47.234779" lon="13.143559"><ele>1877.11</ele><time>2010-06-26T09:51:16Z</time></trkpt><trkpt lat="47.234778" lon="13.143538"><ele>1878.07</ele><time>2010-06-26T09:51:21Z</time></trkpt><trkpt lat="47.234777" lon="13.143545"><ele>1880.00</ele><time>2010-06-26T09:51:32Z</time></trkpt><trkpt lat="47.234775" lon="13.143552"><ele>1879.03</ele><time>2010-06-26T09:51:34Z</time></trkpt><trkpt lat="47.234775" lon="13.143552"><ele>1879.51</ele><time>2010-06-26T09:51:38Z</time></trkpt><trkpt lat="47.234775" lon="13.143552"><ele>1879.03</ele><time>2010-06-26T09:51:45Z</time></trkpt><trkpt lat="47.234778" lon="13.143537"><ele>1875.19</ele><time>2010-06-26T09:51:53Z</time></trkpt><trkpt lat="47.234778" lon="13.143537"><ele>1880.48</ele><time>2010-06-26T09:51:54Z</time></trkpt><trkpt lat="47.234811" lon="13.143490"><ele>1877.11</ele><time>2010-06-26T09:52:04Z</time></trkpt><trkpt lat="47.234854" lon="13.143412"><ele>1872.79</ele><time>2010-06-26T09:52:11Z</time></trkpt><trkpt lat="47.234858" lon="13.143402"><ele>1876.63</ele><time>2010-06-26T09:52:12Z</time></trkpt><trkpt lat="47.234868" lon="13.143378"><ele>1878.55</ele><time>2010-06-26T09:52:14Z</time></trkpt><trkpt lat="47.234880" lon="13.143353"><ele>1875.19</ele><time>2010-06-26T09:52:17Z</time></trkpt><trkpt lat="47.234883" lon="13.143346"><ele>1874.71</ele><time>2010-06-26T09:52:18Z</time></trkpt><trkpt lat="47.234885" lon="13.143317"><ele>1871.34</ele><time>2010-06-26T09:52:27Z</time></trkpt><trkpt lat="47.234885" lon="13.143317"><ele>1874.71</ele><time>2010-06-26T09:52:28Z</time></trkpt><trkpt lat="47.234906" lon="13.143212"><ele>1870.86</ele><time>2010-06-26T09:53:18Z</time></trkpt><trkpt lat="47.234906" lon="13.143212"><ele>1870.38</ele><time>2010-06-26T09:53:19Z</time></trkpt><trkpt lat="47.234918" lon="13.143195"><ele>1873.75</ele><time>2010-06-26T09:53:21Z</time></trkpt><trkpt lat="47.234914" lon="13.143111"><ele>1871.34</ele><time>2010-06-26T09:53:29Z</time></trkpt><trkpt lat="47.234920" lon="13.142987"><ele>1870.38</ele><time>2010-06-26T09:53:39Z</time></trkpt><trkpt lat="47.234900" lon="13.142897"><ele>1867.02</ele><time>2010-06-26T09:54:21Z</time></trkpt><trkpt lat="47.234896" lon="13.142838"><ele>1867.50</ele><time>2010-06-26T09:54:32Z</time></trkpt><trkpt lat="47.234887" lon="13.142739"><ele>1862.69</ele><time>2010-06-26T09:54:46Z</time></trkpt><trkpt lat="47.234877" lon="13.142711"><ele>1866.06</ele><time>2010-06-26T09:54:49Z</time></trkpt><trkpt lat="47.234852" lon="13.142643"><ele>1861.25</ele><time>2010-06-26T09:54:58Z</time></trkpt><trkpt lat="47.234835" lon="13.142571"><ele>1861.25</ele><time>2010-06-26T09:55:07Z</time></trkpt><trkpt lat="47.234809" lon="13.142444"><ele>1858.85</ele><time>2010-06-26T09:55:19Z</time></trkpt><trkpt lat="47.234762" lon="13.142258"><ele>1857.40</ele><time>2010-06-26T09:55:36Z</time></trkpt><trkpt lat="47.234723" lon="13.141982"><ele>1854.52</ele><time>2010-06-26T09:56:03Z</time></trkpt><trkpt lat="47.234677" lon="13.141773"><ele>1851.16</ele><time>2010-06-26T09:56:20Z</time></trkpt><trkpt lat="47.234657" lon="13.141710"><ele>1851.64</ele><time>2010-06-26T09:56:25Z</time></trkpt><trkpt lat="47.234650" lon="13.141692"><ele>1850.19</ele><time>2010-06-26T09:56:27Z</time></trkpt><trkpt lat="47.234618" lon="13.141567"><ele>1850.19</ele><time>2010-06-26T09:56:40Z</time></trkpt><trkpt lat="47.234571" lon="13.141434"><ele>1849.23</ele><time>2010-06-26T09:56:51Z</time></trkpt><trkpt lat="47.234545" lon="13.141324"><ele>1845.87</ele><time>2010-06-26T09:56:59Z</time></trkpt><trkpt lat="47.234539" lon="13.141306"><ele>1844.91</ele><time>2010-06-26T09:57:01Z</time></trkpt><trkpt lat="47.234530" lon="13.141275"><ele>1845.87</ele><time>2010-06-26T09:57:03Z</time></trkpt><trkpt lat="47.234515" lon="13.141177"><ele>1842.98</ele><time>2010-06-26T09:57:11Z</time></trkpt><trkpt lat="47.234508" lon="13.141165"><ele>1842.98</ele><time>2010-06-26T09:57:12Z</time></trkpt><trkpt lat="47.234500" lon="13.141155"><ele>1843.95</ele><time>2010-06-26T09:57:13Z</time></trkpt><trkpt lat="47.234457" lon="13.141116"><ele>1842.02</ele><time>2010-06-26T09:57:17Z</time></trkpt><trkpt lat="47.234450" lon="13.141106"><ele>1843.47</ele><time>2010-06-26T09:57:18Z</time></trkpt><trkpt lat="47.234424" lon="13.141076"><ele>1848.27</ele><time>2010-06-26T09:57:21Z</time></trkpt><trkpt lat="47.234413" lon="13.141066"><ele>1844.43</ele><time>2010-06-26T09:57:22Z</time></trkpt><trkpt lat="47.234366" lon="13.141029"><ele>1848.75</ele><time>2010-06-26T09:57:26Z</time></trkpt><trkpt lat="47.234358" lon="13.141016"><ele>1841.06</ele><time>2010-06-26T09:57:27Z</time></trkpt><trkpt lat="47.234350" lon="13.141012"><ele>1844.43</ele><time>2010-06-26T09:57:28Z</time></trkpt><trkpt lat="47.234340" lon="13.141007"><ele>1847.79</ele><time>2010-06-26T09:57:29Z</time></trkpt><trkpt lat="47.234333" lon="13.141001"><ele>1842.98</ele><time>2010-06-26T09:57:30Z</time></trkpt><trkpt lat="47.234299" lon="13.140974"><ele>1848.75</ele><time>2010-06-26T09:57:33Z</time></trkpt><trkpt lat="47.234285" lon="13.140964"><ele>1843.47</ele><time>2010-06-26T09:57:34Z</time></trkpt><trkpt lat="47.234272" lon="13.140956"><ele>1843.95</ele><time>2010-06-26T09:57:35Z</time></trkpt><trkpt lat="47.234233" lon="13.140904"><ele>1841.06</ele><time>2010-06-26T09:57:40Z</time></trkpt><trkpt lat="47.234219" lon="13.140878"><ele>1847.31</ele><time>2010-06-26T09:57:42Z</time></trkpt><trkpt lat="47.234196" lon="13.140833"><ele>1843.47</ele><time>2010-06-26T09:57:45Z</time></trkpt><trkpt lat="47.234192" lon="13.140820"><ele>1845.39</ele><time>2010-06-26T09:57:46Z</time></trkpt><trkpt lat="47.234187" lon="13.140808"><ele>1848.75</ele><time>2010-06-26T09:57:47Z</time></trkpt><trkpt lat="47.234181" lon="13.140797"><ele>1844.43</ele><time>2010-06-26T09:57:48Z</time></trkpt><trkpt lat="47.234161" lon="13.140741"><ele>1848.27</ele><time>2010-06-26T09:57:53Z</time></trkpt><trkpt lat="47.234154" lon="13.140728"><ele>1841.06</ele><time>2010-06-26T09:57:54Z</time></trkpt><trkpt lat="47.234148" lon="13.140710"><ele>1845.39</ele><time>2010-06-26T09:57:55Z</time></trkpt><trkpt lat="47.234137" lon="13.140640"><ele>1848.75</ele><time>2010-06-26T09:58:00Z</time></trkpt><trkpt lat="47.234132" lon="13.140624"><ele>1840.10</ele><time>2010-06-26T09:58:01Z</time></trkpt><trkpt lat="47.234129" lon="13.140612"><ele>1842.50</ele><time>2010-06-26T09:58:02Z</time></trkpt><trkpt lat="47.234124" lon="13.140599"><ele>1847.31</ele><time>2010-06-26T09:58:03Z</time></trkpt><trkpt lat="47.234120" lon="13.140586"><ele>1846.83</ele><time>2010-06-26T09:58:04Z</time></trkpt><trkpt lat="47.234117" lon="13.140573"><ele>1842.98</ele><time>2010-06-26T09:58:05Z</time></trkpt><trkpt lat="47.234112" lon="13.140564"><ele>1846.35</ele><time>2010-06-26T09:58:06Z</time></trkpt><trkpt lat="47.234102" lon="13.140529"><ele>1842.98</ele><time>2010-06-26T09:58:09Z</time></trkpt><trkpt lat="47.234103" lon="13.140515"><ele>1846.83</ele><time>2010-06-26T09:58:10Z</time></trkpt><trkpt lat="47.234101" lon="13.140478"><ele>1847.31</ele><time>2010-06-26T09:58:12Z</time></trkpt><trkpt lat="47.234098" lon="13.140460"><ele>1844.43</ele><time>2010-06-26T09:58:13Z</time></trkpt><trkpt lat="47.234093" lon="13.140439"><ele>1845.87</ele><time>2010-06-26T09:58:14Z</time></trkpt><trkpt lat="47.234089" lon="13.140419"><ele>1849.23</ele><time>2010-06-26T09:58:15Z</time></trkpt><trkpt lat="47.234086" lon="13.140399"><ele>1849.23</ele><time>2010-06-26T09:58:16Z</time></trkpt><trkpt lat="47.234051" lon="13.140250"><ele>1847.79</ele><time>2010-06-26T09:58:27Z</time></trkpt><trkpt lat="47.234013" lon="13.140078"><ele>1849.71</ele><time>2010-06-26T09:58:38Z</time></trkpt><trkpt lat="47.234008" lon="13.140063"><ele>1844.43</ele><time>2010-06-26T09:58:39Z</time></trkpt><trkpt lat="47.234006" lon="13.140044"><ele>1849.23</ele><time>2010-06-26T09:58:40Z</time></trkpt><trkpt lat="47.234002" lon="13.140005"><ele>1849.71</ele><time>2010-06-26T09:58:42Z</time></trkpt><trkpt lat="47.233999" lon="13.139992"><ele>1844.91</ele><time>2010-06-26T09:58:43Z</time></trkpt><trkpt lat="47.233994" lon="13.139978"><ele>1847.31</ele><time>2010-06-26T09:58:44Z</time></trkpt><trkpt lat="47.233990" lon="13.139966"><ele>1851.16</ele><time>2010-06-26T09:58:45Z</time></trkpt><trkpt lat="47.233987" lon="13.139956"><ele>1847.31</ele><time>2010-06-26T09:58:46Z</time></trkpt><trkpt lat="47.233974" lon="13.139905"><ele>1851.16</ele><time>2010-06-26T09:58:54Z</time></trkpt><trkpt lat="47.233966" lon="13.139905"><ele>1845.39</ele><time>2010-06-26T09:58:55Z</time></trkpt><trkpt lat="47.233966" lon="13.139905"><ele>1850.19</ele><time>2010-06-26T09:58:56Z</time></trkpt><trkpt lat="47.233940" lon="13.139861"><ele>1846.35</ele><time>2010-06-26T09:59:01Z</time></trkpt><trkpt lat="47.233936" lon="13.139848"><ele>1851.64</ele><time>2010-06-26T09:59:02Z</time></trkpt><trkpt lat="47.233934" lon="13.139839"><ele>1844.91</ele><time>2010-06-26T09:59:03Z</time></trkpt><trkpt lat="47.233932" lon="13.139831"><ele>1851.64</ele><time>2010-06-26T09:59:04Z</time></trkpt><trkpt lat="47.233923" lon="13.139798"><ele>1854.04</ele><time>2010-06-26T09:59:07Z</time></trkpt><trkpt lat="47.233914" lon="13.139781"><ele>1847.79</ele><time>2010-06-26T09:59:09Z</time></trkpt><trkpt lat="47.233913" lon="13.139775"><ele>1851.64</ele><time>2010-06-26T09:59:10Z</time></trkpt><trkpt lat="47.233895" lon="13.139738"><ele>1855.96</ele><time>2010-06-26T09:59:15Z</time></trkpt><trkpt lat="47.233878" lon="13.139703"><ele>1848.75</ele><time>2010-06-26T09:59:18Z</time></trkpt><trkpt lat="47.233874" lon="13.139693"><ele>1853.56</ele><time>2010-06-26T09:59:19Z</time></trkpt><trkpt lat="47.233856" lon="13.139655"><ele>1853.56</ele><time>2010-06-26T09:59:23Z</time></trkpt><trkpt lat="47.233851" lon="13.139649"><ele>1848.75</ele><time>2010-06-26T09:59:24Z</time></trkpt><trkpt lat="47.233850" lon="13.139640"><ele>1853.08</ele><time>2010-06-26T09:59:25Z</time></trkpt><trkpt lat="47.233848" lon="13.139628"><ele>1858.37</ele><time>2010-06-26T09:59:26Z</time></trkpt><trkpt lat="47.233843" lon="13.139615"><ele>1848.75</ele><time>2010-06-26T09:59:27Z</time></trkpt><trkpt lat="47.233840" lon="13.139601"><ele>1855.00</ele><time>2010-06-26T09:59:28Z</time></trkpt><trkpt lat="47.233831" lon="13.139574"><ele>1851.16</ele><time>2010-06-26T09:59:30Z</time></trkpt><trkpt lat="47.233829" lon="13.139569"><ele>1856.92</ele><time>2010-06-26T09:59:31Z</time></trkpt><trkpt lat="47.233806" lon="13.139483"><ele>1860.77</ele><time>2010-06-26T09:59:38Z</time></trkpt><trkpt lat="47.233804" lon="13.139471"><ele>1855.48</ele><time>2010-06-26T09:59:39Z</time></trkpt><trkpt lat="47.233801" lon="13.139444"><ele>1858.85</ele><time>2010-06-26T09:59:41Z</time></trkpt><trkpt lat="47.233802" lon="13.139435"><ele>1852.60</ele><time>2010-06-26T09:59:42Z</time></trkpt><trkpt lat="47.233802" lon="13.139429"><ele>1858.37</ele><time>2010-06-26T09:59:43Z</time></trkpt><trkpt lat="47.233800" lon="13.139421"><ele>1853.08</ele><time>2010-06-26T09:59:44Z</time></trkpt><trkpt lat="47.233801" lon="13.139414"><ele>1858.85</ele><time>2010-06-26T09:59:45Z</time></trkpt><trkpt lat="47.233786" lon="13.139355"><ele>1854.52</ele><time>2010-06-26T09:59:52Z</time></trkpt><trkpt lat="47.233782" lon="13.139350"><ele>1860.29</ele><time>2010-06-26T09:59:53Z</time></trkpt><trkpt lat="47.233773" lon="13.139342"><ele>1856.92</ele><time>2010-06-26T09:59:55Z</time></trkpt><trkpt lat="47.233766" lon="13.139326"><ele>1860.77</ele><time>2010-06-26T09:59:57Z</time></trkpt><trkpt lat="47.233736" lon="13.139267"><ele>1860.29</ele><time>2010-06-26T10:00:07Z</time></trkpt><trkpt lat="47.233723" lon="13.139246"><ele>1860.29</ele><time>2010-06-26T10:00:11Z</time></trkpt><trkpt lat="47.233707" lon="13.139190"><ele>1860.77</ele><time>2010-06-26T10:00:26Z</time></trkpt><trkpt lat="47.233717" lon="13.139174"><ele>1857.40</ele><time>2010-06-26T10:02:08Z</time></trkpt><trkpt lat="47.233717" lon="13.139174"><ele>1860.29</ele><time>2010-06-26T10:02:11Z</time></trkpt><trkpt lat="47.233718" lon="13.139175"><ele>1861.73</ele><time>2010-06-26T10:02:29Z</time></trkpt><trkpt lat="47.233718" lon="13.139175"><ele>1859.81</ele><time>2010-06-26T10:02:30Z</time></trkpt><trkpt lat="47.233742" lon="13.139141"><ele>1851.64</ele><time>2010-06-26T10:02:39Z</time></trkpt><trkpt lat="47.233742" lon="13.139141"><ele>1856.44</ele><time>2010-06-26T10:02:40Z</time></trkpt><trkpt lat="47.233742" lon="13.139141"><ele>1858.85</ele><time>2010-06-26T10:02:42Z</time></trkpt><trkpt lat="47.233744" lon="13.139128"><ele>1853.56</ele><time>2010-06-26T10:02:49Z</time></trkpt><trkpt lat="47.233744" lon="13.139128"><ele>1862.21</ele><time>2010-06-26T10:02:50Z</time></trkpt><trkpt lat="47.233744" lon="13.139128"><ele>1856.92</ele><time>2010-06-26T10:02:51Z</time></trkpt><trkpt lat="47.233744" lon="13.139128"><ele>1859.81</ele><time>2010-06-26T10:02:54Z</time></trkpt><trkpt lat="47.233744" lon="13.139128"><ele>1856.44</ele><time>2010-06-26T10:02:56Z</time></trkpt><trkpt lat="47.233744" lon="13.139128"><ele>1859.33</ele><time>2010-06-26T10:02:59Z</time></trkpt><trkpt lat="47.233738" lon="13.139131"><ele>1864.13</ele><time>2010-06-26T10:03:37Z</time></trkpt><trkpt lat="47.233735" lon="13.139133"><ele>1858.85</ele><time>2010-06-26T10:03:38Z</time></trkpt><trkpt lat="47.233732" lon="13.139131"><ele>1862.21</ele><time>2010-06-26T10:03:39Z</time></trkpt><trkpt lat="47.233732" lon="13.139131"><ele>1859.33</ele><time>2010-06-26T10:03:41Z</time></trkpt><trkpt lat="47.233736" lon="13.139129"><ele>1848.27</ele><time>2010-06-26T10:03:43Z</time></trkpt><trkpt lat="47.233736" lon="13.139129"><ele>1855.96</ele><time>2010-06-26T10:03:44Z</time></trkpt><trkpt lat="47.233736" lon="13.139129"><ele>1858.37</ele><time>2010-06-26T10:03:47Z</time></trkpt><trkpt lat="47.233736" lon="13.139129"><ele>1865.09</ele><time>2010-06-26T10:03:49Z</time></trkpt><trkpt lat="47.233736" lon="13.139129"><ele>1860.77</ele><time>2010-06-26T10:03:50Z</time></trkpt><trkpt lat="47.233736" lon="13.139129"><ele>1855.00</ele><time>2010-06-26T10:03:52Z</time></trkpt><trkpt lat="47.233739" lon="13.139131"><ele>1861.25</ele><time>2010-06-26T10:03:53Z</time></trkpt><trkpt lat="47.233742" lon="13.139130"><ele>1851.16</ele><time>2010-06-26T10:03:55Z</time></trkpt><trkpt lat="47.233741" lon="13.139126"><ele>1857.89</ele><time>2010-06-26T10:03:56Z</time></trkpt><trkpt lat="47.233741" lon="13.139126"><ele>1862.69</ele><time>2010-06-26T10:04:01Z</time></trkpt><trkpt lat="47.233741" lon="13.139126"><ele>1858.85</ele><time>2010-06-26T10:04:02Z</time></trkpt><trkpt lat="47.233741" lon="13.139126"><ele>1862.69</ele><time>2010-06-26T10:04:14Z</time></trkpt><trkpt lat="47.233741" lon="13.139126"><ele>1860.77</ele><time>2010-06-26T10:04:15Z</time></trkpt><trkpt lat="47.233741" lon="13.139126"><ele>1857.40</ele><time>2010-06-26T10:04:17Z</time></trkpt><trkpt lat="47.233741" lon="13.139126"><ele>1860.77</ele><time>2010-06-26T10:04:57Z</time></trkpt><trkpt lat="47.233741" lon="13.139126"><ele>1857.40</ele><time>2010-06-26T10:05:31Z</time></trkpt><trkpt lat="47.233741" lon="13.139126"><ele>1860.77</ele><time>2010-06-26T10:05:39Z</time></trkpt><trkpt lat="47.233741" lon="13.139126"><ele>1848.75</ele><time>2010-06-26T10:05:51Z</time></trkpt><trkpt lat="47.233741" lon="13.139126"><ele>1861.73</ele><time>2010-06-26T10:05:52Z</time></trkpt><trkpt lat="47.233741" lon="13.139126"><ele>1858.37</ele><time>2010-06-26T10:05:53Z</time></trkpt><trkpt lat="47.233741" lon="13.139126"><ele>1863.65</ele><time>2010-06-26T10:06:10Z</time></trkpt><trkpt lat="47.233741" lon="13.139126"><ele>1859.81</ele><time>2010-06-26T10:06:11Z</time></trkpt><trkpt lat="47.233741" lon="13.139126"><ele>1855.96</ele><time>2010-06-26T10:06:15Z</time></trkpt><trkpt lat="47.233741" lon="13.139126"><ele>1859.81</ele><time>2010-06-26T10:06:16Z</time></trkpt><trkpt lat="47.233741" lon="13.139126"><ele>1859.81</ele><time>2010-06-26T10:06:17Z</time></trkpt><trkpt lat="47.233670" lon="13.139078"><ele>1867.98</ele><time>2010-06-26T10:06:29Z</time></trkpt><trkpt lat="47.233670" lon="13.139078"><ele>1862.21</ele><time>2010-06-26T10:06:30Z</time></trkpt><trkpt lat="47.233670" lon="13.139078"><ele>1858.37</ele><time>2010-06-26T10:06:32Z</time></trkpt><trkpt lat="47.233670" lon="13.139078"><ele>1858.85</ele><time>2010-06-26T10:06:33Z</time></trkpt><trkpt lat="47.233670" lon="13.139078"><ele>1862.21</ele><time>2010-06-26T10:06:50Z</time></trkpt><trkpt lat="47.233670" lon="13.139078"><ele>1861.73</ele><time>2010-06-26T10:06:51Z</time></trkpt><trkpt lat="47.233670" lon="13.139078"><ele>1859.81</ele><time>2010-06-26T10:06:53Z</time></trkpt><trkpt lat="47.233728" lon="13.139152"><ele>1860.77</ele><time>2010-06-26T10:07:08Z</time></trkpt><trkpt lat="47.233728" lon="13.139152"><ele>1857.40</ele><time>2010-06-26T10:07:17Z</time></trkpt><trkpt lat="47.233728" lon="13.139152"><ele>1860.77</ele><time>2010-06-26T10:07:18Z</time></trkpt><trkpt lat="47.233728" lon="13.139152"><ele>1861.25</ele><time>2010-06-26T10:07:23Z</time></trkpt><trkpt lat="47.233728" lon="13.139152"><ele>1851.16</ele><time>2010-06-26T10:07:35Z</time></trkpt><trkpt lat="47.233728" lon="13.139152"><ele>1858.85</ele><time>2010-06-26T10:07:36Z</time></trkpt><trkpt lat="47.233725" lon="13.139155"><ele>1860.77</ele><time>2010-06-26T10:07:38Z</time></trkpt><trkpt lat="47.233728" lon="13.139196"><ele>1863.65</ele><time>2010-06-26T10:08:07Z</time></trkpt><trkpt lat="47.233722" lon="13.139212"><ele>1860.77</ele><time>2010-06-26T10:08:23Z</time></trkpt><trkpt lat="47.233722" lon="13.139212"><ele>1860.29</ele><time>2010-06-26T10:08:24Z</time></trkpt><trkpt lat="47.233725" lon="13.139215"><ele>1856.92</ele><time>2010-06-26T10:08:29Z</time></trkpt><trkpt lat="47.233725" lon="13.139215"><ele>1860.77</ele><time>2010-06-26T10:08:30Z</time></trkpt><trkpt lat="47.233725" lon="13.139215"><ele>1857.40</ele><time>2010-06-26T10:08:33Z</time></trkpt><trkpt lat="47.233725" lon="13.139215"><ele>1860.77</ele><time>2010-06-26T10:08:39Z</time></trkpt><trkpt lat="47.233729" lon="13.139216"><ele>1856.92</ele><time>2010-06-26T10:08:51Z</time></trkpt><trkpt lat="47.233729" lon="13.139216"><ele>1858.37</ele><time>2010-06-26T10:08:52Z</time></trkpt><trkpt lat="47.233729" lon="13.139216"><ele>1863.17</ele><time>2010-06-26T10:09:05Z</time></trkpt><trkpt lat="47.233729" lon="13.139216"><ele>1861.73</ele><time>2010-06-26T10:09:06Z</time></trkpt><trkpt lat="47.233729" lon="13.139216"><ele>1860.77</ele><time>2010-06-26T10:09:08Z</time></trkpt><trkpt lat="47.233727" lon="13.139213"><ele>1857.89</ele><time>2010-06-26T10:09:34Z</time></trkpt><trkpt lat="47.233727" lon="13.139213"><ele>1861.25</ele><time>2010-06-26T10:09:35Z</time></trkpt><trkpt lat="47.233727" lon="13.139213"><ele>1860.29</ele><time>2010-06-26T10:09:36Z</time></trkpt><trkpt lat="47.233723" lon="13.139216"><ele>1851.64</ele><time>2010-06-26T10:10:09Z</time></trkpt><trkpt lat="47.233723" lon="13.139216"><ele>1857.89</ele><time>2010-06-26T10:10:10Z</time></trkpt><trkpt lat="47.233723" lon="13.139216"><ele>1862.69</ele><time>2010-06-26T10:10:15Z</time></trkpt><trkpt lat="47.233725" lon="13.139211"><ele>1860.29</ele><time>2010-06-26T10:10:16Z</time></trkpt><trkpt lat="47.233725" lon="13.139211"><ele>1858.85</ele><time>2010-06-26T10:10:18Z</time></trkpt><trkpt lat="47.233725" lon="13.139211"><ele>1855.48</ele><time>2010-06-26T10:10:21Z</time></trkpt><trkpt lat="47.233725" lon="13.139211"><ele>1861.73</ele><time>2010-06-26T10:10:22Z</time></trkpt><trkpt lat="47.233728" lon="13.139197"><ele>1858.85</ele><time>2010-06-26T10:10:28Z</time></trkpt><trkpt lat="47.233728" lon="13.139197"><ele>1859.33</ele><time>2010-06-26T10:10:36Z</time></trkpt><trkpt lat="47.233730" lon="13.139199"><ele>1859.33</ele><time>2010-06-26T10:10:57Z</time></trkpt><trkpt lat="47.233722" lon="13.139188"><ele>1855.96</ele><time>2010-06-26T10:11:08Z</time></trkpt><trkpt lat="47.233721" lon="13.139188"><ele>1859.33</ele><time>2010-06-26T10:11:09Z</time></trkpt><trkpt lat="47.233720" lon="13.139189"><ele>1858.37</ele><time>2010-06-26T10:11:23Z</time></trkpt><trkpt lat="47.233720" lon="13.139189"><ele>1863.65</ele><time>2010-06-26T10:11:25Z</time></trkpt><trkpt lat="47.233722" lon="13.139181"><ele>1861.73</ele><time>2010-06-26T10:11:26Z</time></trkpt><trkpt lat="47.233722" lon="13.139179"><ele>1861.25</ele><time>2010-06-26T10:11:28Z</time></trkpt><trkpt lat="47.233722" lon="13.139179"><ele>1857.89</ele><time>2010-06-26T10:11:48Z</time></trkpt><trkpt lat="47.233716" lon="13.139184"><ele>1858.85</ele><time>2010-06-26T10:11:49Z</time></trkpt><trkpt lat="47.233688" lon="13.139215"><ele>1869.42</ele><time>2010-06-26T10:11:52Z</time></trkpt><trkpt lat="47.233684" lon="13.139219"><ele>1867.02</ele><time>2010-06-26T10:11:53Z</time></trkpt><trkpt lat="47.233684" lon="13.139219"><ele>1863.17</ele><time>2010-06-26T10:11:54Z</time></trkpt><trkpt lat="47.233684" lon="13.139219"><ele>1857.40</ele><time>2010-06-26T10:11:58Z</time></trkpt><trkpt lat="47.233684" lon="13.139219"><ele>1862.69</ele><time>2010-06-26T10:11:59Z</time></trkpt><trkpt lat="47.233684" lon="13.139219"><ele>1859.33</ele><time>2010-06-26T10:12:10Z</time></trkpt><trkpt lat="47.233684" lon="13.139219"><ele>1862.21</ele><time>2010-06-26T10:12:13Z</time></trkpt><trkpt lat="47.233684" lon="13.139219"><ele>1855.96</ele><time>2010-06-26T10:12:16Z</time></trkpt><trkpt lat="47.233684" lon="13.139219"><ele>1864.13</ele><time>2010-06-26T10:12:17Z</time></trkpt><trkpt lat="47.233684" lon="13.139219"><ele>1860.77</ele><time>2010-06-26T10:12:18Z</time></trkpt><trkpt lat="47.233684" lon="13.139219"><ele>1864.13</ele><time>2010-06-26T10:12:21Z</time></trkpt><trkpt lat="47.233684" lon="13.139219"><ele>1859.81</ele><time>2010-06-26T10:12:26Z</time></trkpt><trkpt lat="47.233684" lon="13.139219"><ele>1864.13</ele><time>2010-06-26T10:12:27Z</time></trkpt><trkpt lat="47.233684" lon="13.139219"><ele>1859.33</ele><time>2010-06-26T10:12:29Z</time></trkpt><trkpt lat="47.233684" lon="13.139219"><ele>1862.69</ele><time>2010-06-26T10:12:31Z</time></trkpt><trkpt lat="47.233684" lon="13.139219"><ele>1862.69</ele><time>2010-06-26T10:12:32Z</time></trkpt><trkpt lat="47.233685" lon="13.139219"><ele>1860.29</ele><time>2010-06-26T10:12:34Z</time></trkpt><trkpt lat="47.233685" lon="13.139219"><ele>1848.27</ele><time>2010-06-26T10:12:48Z</time></trkpt><trkpt lat="47.233685" lon="13.139219"><ele>1862.69</ele><time>2010-06-26T10:12:49Z</time></trkpt><trkpt lat="47.233684" lon="13.139220"><ele>1858.85</ele><time>2010-06-26T10:13:23Z</time></trkpt><trkpt lat="47.233684" lon="13.139220"><ele>1862.21</ele><time>2010-06-26T10:13:25Z</time></trkpt><trkpt lat="47.233684" lon="13.139220"><ele>1868.94</ele><time>2010-06-26T10:13:36Z</time></trkpt><trkpt lat="47.233684" lon="13.139220"><ele>1866.06</ele><time>2010-06-26T10:13:37Z</time></trkpt><trkpt lat="47.233684" lon="13.139220"><ele>1861.73</ele><time>2010-06-26T10:13:38Z</time></trkpt><trkpt lat="47.233684" lon="13.139220"><ele>1862.69</ele><time>2010-06-26T10:13:39Z</time></trkpt><trkpt lat="47.233684" lon="13.139220"><ele>1859.33</ele><time>2010-06-26T10:13:51Z</time></trkpt><trkpt lat="47.233687" lon="13.139231"><ele>1862.69</ele><time>2010-06-26T10:13:58Z</time></trkpt><trkpt lat="47.233687" lon="13.139231"><ele>1868.94</ele><time>2010-06-26T10:14:01Z</time></trkpt><trkpt lat="47.233687" lon="13.139231"><ele>1865.09</ele><time>2010-06-26T10:14:02Z</time></trkpt><trkpt lat="47.233687" lon="13.139231"><ele>1862.69</ele><time>2010-06-26T10:14:04Z</time></trkpt><trkpt lat="47.233687" lon="13.139231"><ele>1862.69</ele><time>2010-06-26T10:14:10Z</time></trkpt><trkpt lat="47.233714" lon="13.139304"><ele>1861.25</ele><time>2010-06-26T10:15:27Z</time></trkpt><trkpt lat="47.233715" lon="13.139314"><ele>1861.73</ele><time>2010-06-26T10:15:58Z</time></trkpt><trkpt lat="47.233715" lon="13.139314"><ele>1862.69</ele><time>2010-06-26T10:16:29Z</time></trkpt><trkpt lat="47.233726" lon="13.139322"><ele>1859.81</ele><time>2010-06-26T10:16:31Z</time></trkpt><trkpt lat="47.233735" lon="13.139347"><ele>1862.21</ele><time>2010-06-26T10:16:33Z</time></trkpt><trkpt lat="47.233753" lon="13.139354"><ele>1863.65</ele><time>2010-06-26T10:16:37Z</time></trkpt><trkpt lat="47.233793" lon="13.139395"><ele>1860.77</ele><time>2010-06-26T10:16:40Z</time></trkpt><trkpt lat="47.233821" lon="13.139509"><ele>1856.92</ele><time>2010-06-26T10:16:50Z</time></trkpt><trkpt lat="47.233818" lon="13.139555"><ele>1859.33</ele><time>2010-06-26T10:16:52Z</time></trkpt><trkpt lat="47.233820" lon="13.139644"><ele>1856.44</ele><time>2010-06-26T10:16:58Z</time></trkpt><trkpt lat="47.233886" lon="13.139836"><ele>1854.04</ele><time>2010-06-26T10:17:10Z</time></trkpt><trkpt lat="47.233912" lon="13.139891"><ele>1852.12</ele><time>2010-06-26T10:17:14Z</time></trkpt><trkpt lat="47.233939" lon="13.139976"><ele>1851.64</ele><time>2010-06-26T10:17:24Z</time></trkpt><trkpt lat="47.233939" lon="13.139976"><ele>1843.95</ele><time>2010-06-26T10:17:27Z</time></trkpt><trkpt lat="47.233939" lon="13.139976"><ele>1851.16</ele><time>2010-06-26T10:17:28Z</time></trkpt><trkpt lat="47.233961" lon="13.140009"><ele>1852.12</ele><time>2010-06-26T10:17:54Z</time></trkpt><trkpt lat="47.233999" lon="13.140148"><ele>1850.68</ele><time>2010-06-26T10:18:03Z</time></trkpt><trkpt lat="47.234031" lon="13.140249"><ele>1848.75</ele><time>2010-06-26T10:18:10Z</time></trkpt><trkpt lat="47.234053" lon="13.140330"><ele>1850.19</ele><time>2010-06-26T10:18:16Z</time></trkpt><trkpt lat="47.234073" lon="13.140416"><ele>1851.64</ele><time>2010-06-26T10:18:22Z</time></trkpt><trkpt lat="47.234086" lon="13.140450"><ele>1847.79</ele><time>2010-06-26T10:18:25Z</time></trkpt><trkpt lat="47.234103" lon="13.140606"><ele>1848.75</ele><time>2010-06-26T10:18:35Z</time></trkpt><trkpt lat="47.234117" lon="13.140682"><ele>1845.87</ele><time>2010-06-26T10:18:40Z</time></trkpt><trkpt lat="47.234133" lon="13.140718"><ele>1847.79</ele><time>2010-06-26T10:18:43Z</time></trkpt><trkpt lat="47.234180" lon="13.140842"><ele>1848.75</ele><time>2010-06-26T10:18:51Z</time></trkpt><trkpt lat="47.234216" lon="13.140936"><ele>1847.31</ele><time>2010-06-26T10:18:58Z</time></trkpt><trkpt lat="47.234284" lon="13.141020"><ele>1846.83</ele><time>2010-06-26T10:19:07Z</time></trkpt><trkpt lat="47.234346" lon="13.141072"><ele>1847.79</ele><time>2010-06-26T10:19:14Z</time></trkpt><trkpt lat="47.234370" lon="13.141094"><ele>1844.91</ele><time>2010-06-26T10:19:16Z</time></trkpt><trkpt lat="47.234404" lon="13.141108"><ele>1847.79</ele><time>2010-06-26T10:19:19Z</time></trkpt><trkpt lat="47.234459" lon="13.141098"><ele>1846.35</ele><time>2010-06-26T10:19:25Z</time></trkpt><trkpt lat="47.234498" lon="13.141049"><ele>1846.35</ele><time>2010-06-26T10:19:32Z</time></trkpt><trkpt lat="47.234512" lon="13.140941"><ele>1845.87</ele><time>2010-06-26T10:19:40Z</time></trkpt><trkpt lat="47.234502" lon="13.140839"><ele>1843.95</ele><time>2010-06-26T10:19:48Z</time></trkpt><trkpt lat="47.234495" lon="13.140747"><ele>1846.83</ele><time>2010-06-26T10:19:53Z</time></trkpt><trkpt lat="47.234490" lon="13.140664"><ele>1842.98</ele><time>2010-06-26T10:19:58Z</time></trkpt><trkpt lat="47.234473" lon="13.140583"><ele>1841.54</ele><time>2010-06-26T10:20:02Z</time></trkpt><trkpt lat="47.234464" lon="13.140530"><ele>1844.91</ele><time>2010-06-26T10:20:05Z</time></trkpt><trkpt lat="47.234460" lon="13.140454"><ele>1841.54</ele><time>2010-06-26T10:20:09Z</time></trkpt><trkpt lat="47.234457" lon="13.140441"><ele>1842.02</ele><time>2010-06-26T10:20:10Z</time></trkpt><trkpt lat="47.234449" lon="13.140386"><ele>1842.02</ele><time>2010-06-26T10:20:13Z</time></trkpt><trkpt lat="47.234445" lon="13.140271"><ele>1840.58</ele><time>2010-06-26T10:20:20Z</time></trkpt><trkpt lat="47.234418" lon="13.140153"><ele>1838.66</ele><time>2010-06-26T10:20:28Z</time></trkpt><trkpt lat="47.234414" lon="13.139982"><ele>1836.74</ele><time>2010-06-26T10:20:41Z</time></trkpt><trkpt lat="47.234405" lon="13.139835"><ele>1837.22</ele><time>2010-06-26T10:20:50Z</time></trkpt><trkpt lat="47.234399" lon="13.139823"><ele>1837.70</ele><time>2010-06-26T10:20:51Z</time></trkpt><trkpt lat="47.234394" lon="13.139789"><ele>1833.85</ele><time>2010-06-26T10:20:54Z</time></trkpt><trkpt lat="47.234389" lon="13.139709"><ele>1836.74</ele><time>2010-06-26T10:20:59Z</time></trkpt><trkpt lat="47.234383" lon="13.139599"><ele>1833.85</ele><time>2010-06-26T10:21:06Z</time></trkpt><trkpt lat="47.234381" lon="13.139560"><ele>1832.41</ele><time>2010-06-26T10:21:08Z</time></trkpt><trkpt lat="47.234382" lon="13.139472"><ele>1833.85</ele><time>2010-06-26T10:21:13Z</time></trkpt><trkpt lat="47.234409" lon="13.139336"><ele>1833.85</ele><time>2010-06-26T10:21:23Z</time></trkpt><trkpt lat="47.234415" lon="13.139306"><ele>1831.45</ele><time>2010-06-26T10:21:26Z</time></trkpt><trkpt lat="47.234420" lon="13.139156"><ele>1830.97</ele><time>2010-06-26T10:21:37Z</time></trkpt><trkpt lat="47.234424" lon="13.139125"><ele>1829.53</ele><time>2010-06-26T10:21:39Z</time></trkpt><trkpt lat="47.234430" lon="13.139090"><ele>1827.60</ele><time>2010-06-26T10:21:42Z</time></trkpt><trkpt lat="47.234423" lon="13.139061"><ele>1829.53</ele><time>2010-06-26T10:21:44Z</time></trkpt><trkpt lat="47.234418" lon="13.138992"><ele>1828.56</ele><time>2010-06-26T10:21:48Z</time></trkpt><trkpt lat="47.234410" lon="13.138811"><ele>1826.64</ele><time>2010-06-26T10:22:01Z</time></trkpt><trkpt lat="47.234394" lon="13.138592"><ele>1824.72</ele><time>2010-06-26T10:22:15Z</time></trkpt><trkpt lat="47.234395" lon="13.138543"><ele>1823.28</ele><time>2010-06-26T10:22:18Z</time></trkpt><trkpt lat="47.234390" lon="13.138509"><ele>1825.20</ele><time>2010-06-26T10:22:20Z</time></trkpt><trkpt lat="47.234384" lon="13.138482"><ele>1821.84</ele><time>2010-06-26T10:22:22Z</time></trkpt><trkpt lat="47.234382" lon="13.138468"><ele>1823.28</ele><time>2010-06-26T10:22:23Z</time></trkpt><trkpt lat="47.234366" lon="13.138320"><ele>1823.28</ele><time>2010-06-26T10:22:33Z</time></trkpt><trkpt lat="47.234354" lon="13.138238"><ele>1819.91</ele><time>2010-06-26T10:22:38Z</time></trkpt><trkpt lat="47.234352" lon="13.138223"><ele>1819.91</ele><time>2010-06-26T10:22:39Z</time></trkpt><trkpt lat="47.234352" lon="13.138207"><ele>1819.91</ele><time>2010-06-26T10:22:40Z</time></trkpt><trkpt lat="47.234347" lon="13.138177"><ele>1821.35</ele><time>2010-06-26T10:22:42Z</time></trkpt><trkpt lat="47.234350" lon="13.138061"><ele>1818.95</ele><time>2010-06-26T10:22:50Z</time></trkpt><trkpt lat="47.234351" lon="13.138005"><ele>1815.59</ele><time>2010-06-26T10:22:54Z</time></trkpt><trkpt lat="47.234351" lon="13.137868"><ele>1817.03</ele><time>2010-06-26T10:23:02Z</time></trkpt><trkpt lat="47.234326" lon="13.137694"><ele>1814.15</ele><time>2010-06-26T10:23:14Z</time></trkpt><trkpt lat="47.234319" lon="13.137668"><ele>1813.66</ele><time>2010-06-26T10:23:16Z</time></trkpt><trkpt lat="47.234315" lon="13.137526"><ele>1810.78</ele><time>2010-06-26T10:23:25Z</time></trkpt><trkpt lat="47.234315" lon="13.137509"><ele>1812.70</ele><time>2010-06-26T10:23:26Z</time></trkpt><trkpt lat="47.234290" lon="13.137427"><ele>1811.26</ele><time>2010-06-26T10:23:32Z</time></trkpt><trkpt lat="47.234276" lon="13.137359"><ele>1813.66</ele><time>2010-06-26T10:23:36Z</time></trkpt><trkpt lat="47.234278" lon="13.137290"><ele>1811.26</ele><time>2010-06-26T10:23:40Z</time></trkpt><trkpt lat="47.234286" lon="13.137153"><ele>1809.34</ele><time>2010-06-26T10:23:48Z</time></trkpt><trkpt lat="47.234289" lon="13.137119"><ele>1808.86</ele><time>2010-06-26T10:23:50Z</time></trkpt><trkpt lat="47.234278" lon="13.137061"><ele>1806.94</ele><time>2010-06-26T10:23:54Z</time></trkpt><trkpt lat="47.234280" lon="13.137038"><ele>1805.97</ele><time>2010-06-26T10:23:56Z</time></trkpt><trkpt lat="47.234289" lon="13.137008"><ele>1807.42</ele><time>2010-06-26T10:23:58Z</time></trkpt><trkpt lat="47.234292" lon="13.136907"><ele>1807.90</ele><time>2010-06-26T10:24:05Z</time></trkpt><trkpt lat="47.234297" lon="13.136880"><ele>1805.01</ele><time>2010-06-26T10:24:07Z</time></trkpt><trkpt lat="47.234297" lon="13.136738"><ele>1806.45</ele><time>2010-06-26T10:24:16Z</time></trkpt><trkpt lat="47.234297" lon="13.136724"><ele>1805.97</ele><time>2010-06-26T10:24:17Z</time></trkpt><trkpt lat="47.234293" lon="13.136658"><ele>1803.57</ele><time>2010-06-26T10:24:21Z</time></trkpt><trkpt lat="47.234293" lon="13.136493"><ele>1802.61</ele><time>2010-06-26T10:24:32Z</time></trkpt><trkpt lat="47.234378" lon="13.136367"><ele>1801.17</ele><time>2010-06-26T10:24:43Z</time></trkpt><trkpt lat="47.234454" lon="13.136360"><ele>1801.65</ele><time>2010-06-26T10:24:48Z</time></trkpt><trkpt lat="47.234493" lon="13.136368"><ele>1800.21</ele><time>2010-06-26T10:24:51Z</time></trkpt><trkpt lat="47.234550" lon="13.136401"><ele>1798.76</ele><time>2010-06-26T10:24:56Z</time></trkpt><trkpt lat="47.234635" lon="13.136476"><ele>1799.73</ele><time>2010-06-26T10:25:06Z</time></trkpt><trkpt lat="47.234670" lon="13.136516"><ele>1798.76</ele><time>2010-06-26T10:25:10Z</time></trkpt><trkpt lat="47.234722" lon="13.136642"><ele>1799.73</ele><time>2010-06-26T10:25:19Z</time></trkpt><trkpt lat="47.234735" lon="13.136693"><ele>1797.80</ele><time>2010-06-26T10:25:23Z</time></trkpt><trkpt lat="47.234751" lon="13.136725"><ele>1796.84</ele><time>2010-06-26T10:25:26Z</time></trkpt><trkpt lat="47.234755" lon="13.136757"><ele>1795.40</ele><time>2010-06-26T10:25:28Z</time></trkpt><trkpt lat="47.234790" lon="13.136864"><ele>1793.96</ele><time>2010-06-26T10:25:37Z</time></trkpt><trkpt lat="47.234792" lon="13.136879"><ele>1793.48</ele><time>2010-06-26T10:25:38Z</time></trkpt><trkpt lat="47.234798" lon="13.136924"><ele>1794.92</ele><time>2010-06-26T10:25:41Z</time></trkpt><trkpt lat="47.234817" lon="13.137049"><ele>1795.40</ele><time>2010-06-26T10:25:49Z</time></trkpt><trkpt lat="47.234821" lon="13.137090"><ele>1793.96</ele><time>2010-06-26T10:25:51Z</time></trkpt><trkpt lat="47.234814" lon="13.137175"><ele>1792.52</ele><time>2010-06-26T10:25:55Z</time></trkpt><trkpt lat="47.234821" lon="13.137363"><ele>1790.59</ele><time>2010-06-26T10:26:07Z</time></trkpt><trkpt lat="47.234814" lon="13.137419"><ele>1788.67</ele><time>2010-06-26T10:26:10Z</time></trkpt><trkpt lat="47.234816" lon="13.137473"><ele>1790.11</ele><time>2010-06-26T10:26:13Z</time></trkpt><trkpt lat="47.234812" lon="13.137545"><ele>1788.67</ele><time>2010-06-26T10:26:17Z</time></trkpt><trkpt lat="47.234814" lon="13.137555"><ele>1788.19</ele><time>2010-06-26T10:26:18Z</time></trkpt><trkpt lat="47.234865" lon="13.137776"><ele>1790.59</ele><time>2010-06-26T10:26:30Z</time></trkpt><trkpt lat="47.234874" lon="13.137793"><ele>1790.11</ele><time>2010-06-26T10:26:31Z</time></trkpt><trkpt lat="47.234917" lon="13.137829"><ele>1787.23</ele><time>2010-06-26T10:26:35Z</time></trkpt><trkpt lat="47.234952" lon="13.137883"><ele>1783.38</ele><time>2010-06-26T10:26:39Z</time></trkpt><trkpt lat="47.234961" lon="13.137913"><ele>1782.42</ele><time>2010-06-26T10:26:41Z</time></trkpt><trkpt lat="47.234973" lon="13.137935"><ele>1786.75</ele><time>2010-06-26T10:26:43Z</time></trkpt><trkpt lat="47.234984" lon="13.137946"><ele>1786.75</ele><time>2010-06-26T10:26:44Z</time></trkpt><trkpt lat="47.235025" lon="13.137994"><ele>1786.75</ele><time>2010-06-26T10:26:48Z</time></trkpt><trkpt lat="47.235070" lon="13.138084"><ele>1782.90</ele><time>2010-06-26T10:26:54Z</time></trkpt><trkpt lat="47.235112" lon="13.138161"><ele>1782.42</ele><time>2010-06-26T10:27:02Z</time></trkpt><trkpt lat="47.235128" lon="13.138282"><ele>1781.94</ele><time>2010-06-26T10:27:11Z</time></trkpt><trkpt lat="47.235141" lon="13.138336"><ele>1783.86</ele><time>2010-06-26T10:27:15Z</time></trkpt><trkpt lat="47.235144" lon="13.138364"><ele>1782.90</ele><time>2010-06-26T10:27:17Z</time></trkpt><trkpt lat="47.235157" lon="13.138400"><ele>1780.98</ele><time>2010-06-26T10:27:20Z</time></trkpt><trkpt lat="47.235202" lon="13.138501"><ele>1778.10</ele><time>2010-06-26T10:27:27Z</time></trkpt><trkpt lat="47.235223" lon="13.138614"><ele>1777.13</ele><time>2010-06-26T10:27:33Z</time></trkpt><trkpt lat="47.235298" lon="13.138680"><ele>1779.06</ele><time>2010-06-26T10:27:38Z</time></trkpt><trkpt lat="47.235402" lon="13.138713"><ele>1775.21</ele><time>2010-06-26T10:27:46Z</time></trkpt><trkpt lat="47.235452" lon="13.138742"><ele>1777.61</ele><time>2010-06-26T10:27:51Z</time></trkpt><trkpt lat="47.235471" lon="13.138746"><ele>1773.77</ele><time>2010-06-26T10:27:53Z</time></trkpt><trkpt lat="47.235483" lon="13.138747"><ele>1775.69</ele><time>2010-06-26T10:27:54Z</time></trkpt><trkpt lat="47.235604" lon="13.138861"><ele>1774.25</ele><time>2010-06-26T10:28:08Z</time></trkpt><trkpt lat="47.235654" lon="13.138931"><ele>1770.89</ele><time>2010-06-26T10:28:15Z</time></trkpt><trkpt lat="47.235659" lon="13.138941"><ele>1771.37</ele><time>2010-06-26T10:28:16Z</time></trkpt><trkpt lat="47.235676" lon="13.138955"><ele>1774.25</ele><time>2010-06-26T10:28:18Z</time></trkpt><trkpt lat="47.235800" lon="13.139012"><ele>1769.44</ele><time>2010-06-26T10:28:31Z</time></trkpt><trkpt lat="47.235815" lon="13.139011"><ele>1769.44</ele><time>2010-06-26T10:28:32Z</time></trkpt><trkpt lat="47.235862" lon="13.139002"><ele>1772.81</ele><time>2010-06-26T10:28:36Z</time></trkpt><trkpt lat="47.235870" lon="13.139001"><ele>1773.29</ele><time>2010-06-26T10:28:37Z</time></trkpt><trkpt lat="47.235940" lon="13.138997"><ele>1768.48</ele><time>2010-06-26T10:28:44Z</time></trkpt><trkpt lat="47.235945" lon="13.138992"><ele>1768.00</ele><time>2010-06-26T10:28:45Z</time></trkpt><trkpt lat="47.235964" lon="13.138997"><ele>1769.92</ele><time>2010-06-26T10:28:47Z</time></trkpt><trkpt lat="47.236003" lon="13.139008"><ele>1773.29</ele><time>2010-06-26T10:28:51Z</time></trkpt><trkpt lat="47.236037" lon="13.139012"><ele>1769.44</ele><time>2010-06-26T10:28:54Z</time></trkpt><trkpt lat="47.236049" lon="13.139015"><ele>1769.92</ele><time>2010-06-26T10:28:55Z</time></trkpt><trkpt lat="47.236074" lon="13.139026"><ele>1766.08</ele><time>2010-06-26T10:28:57Z</time></trkpt><trkpt lat="47.236124" lon="13.139059"><ele>1769.44</ele><time>2010-06-26T10:29:02Z</time></trkpt><trkpt lat="47.236176" lon="13.139129"><ele>1768.48</ele><time>2010-06-26T10:29:09Z</time></trkpt><trkpt lat="47.236197" lon="13.139197"><ele>1767.52</ele><time>2010-06-26T10:29:14Z</time></trkpt><trkpt lat="47.236229" lon="13.139284"><ele>1767.04</ele><time>2010-06-26T10:29:21Z</time></trkpt><trkpt lat="47.236254" lon="13.139411"><ele>1765.60</ele><time>2010-06-26T10:29:29Z</time></trkpt><trkpt lat="47.236267" lon="13.139449"><ele>1766.08</ele><time>2010-06-26T10:29:31Z</time></trkpt><trkpt lat="47.236293" lon="13.139488"><ele>1764.16</ele><time>2010-06-26T10:29:34Z</time></trkpt><trkpt lat="47.236377" lon="13.139564"><ele>1763.68</ele><time>2010-06-26T10:29:43Z</time></trkpt><trkpt lat="47.236448" lon="13.139642"><ele>1763.68</ele><time>2010-06-26T10:29:51Z</time></trkpt><trkpt lat="47.236478" lon="13.139671"><ele>1762.23</ele><time>2010-06-26T10:29:54Z</time></trkpt><trkpt lat="47.236498" lon="13.139699"><ele>1763.68</ele><time>2010-06-26T10:29:56Z</time></trkpt><trkpt lat="47.236542" lon="13.139747"><ele>1762.23</ele><time>2010-06-26T10:30:01Z</time></trkpt><trkpt lat="47.236609" lon="13.139849"><ele>1758.87</ele><time>2010-06-26T10:30:11Z</time></trkpt><trkpt lat="47.236616" lon="13.139858"><ele>1759.83</ele><time>2010-06-26T10:30:12Z</time></trkpt><trkpt lat="47.236626" lon="13.139867"><ele>1760.79</ele><time>2010-06-26T10:30:14Z</time></trkpt><trkpt lat="47.236733" lon="13.139876"><ele>1759.35</ele><time>2010-06-26T10:30:25Z</time></trkpt><trkpt lat="47.236772" lon="13.139881"><ele>1756.95</ele><time>2010-06-26T10:30:29Z</time></trkpt><trkpt lat="47.236884" lon="13.139871"><ele>1756.95</ele><time>2010-06-26T10:30:40Z</time></trkpt><trkpt lat="47.236972" lon="13.139864"><ele>1753.10</ele><time>2010-06-26T10:30:49Z</time></trkpt><trkpt lat="47.236983" lon="13.139863"><ele>1754.06</ele><time>2010-06-26T10:30:50Z</time></trkpt><trkpt lat="47.237143" lon="13.139905"><ele>1753.58</ele><time>2010-06-26T10:31:04Z</time></trkpt><trkpt lat="47.237219" lon="13.139948"><ele>1753.10</ele><time>2010-06-26T10:31:14Z</time></trkpt><trkpt lat="47.237289" lon="13.140065"><ele>1752.14</ele><time>2010-06-26T10:31:27Z</time></trkpt><trkpt lat="47.237317" lon="13.140088"><ele>1751.18</ele><time>2010-06-26T10:31:30Z</time></trkpt><trkpt lat="47.237373" lon="13.140075"><ele>1747.33</ele><time>2010-06-26T10:31:34Z</time></trkpt><trkpt lat="47.237381" lon="13.140068"><ele>1747.81</ele><time>2010-06-26T10:31:35Z</time></trkpt><trkpt lat="47.237388" lon="13.140061"><ele>1748.78</ele><time>2010-06-26T10:31:36Z</time></trkpt><trkpt lat="47.237414" lon="13.140003"><ele>1751.18</ele><time>2010-06-26T10:31:40Z</time></trkpt><trkpt lat="47.237425" lon="13.139937"><ele>1746.37</ele><time>2010-06-26T10:31:45Z</time></trkpt><trkpt lat="47.237421" lon="13.139931"><ele>1749.74</ele><time>2010-06-26T10:31:51Z</time></trkpt><trkpt lat="47.237377" lon="13.139845"><ele>1747.81</ele><time>2010-06-26T10:32:19Z</time></trkpt><trkpt lat="47.237334" lon="13.139767"><ele>1745.89</ele><time>2010-06-26T10:32:24Z</time></trkpt><trkpt lat="47.237286" lon="13.139688"><ele>1744.45</ele><time>2010-06-26T10:32:31Z</time></trkpt><trkpt lat="47.237250" lon="13.139667"><ele>1743.97</ele><time>2010-06-26T10:32:35Z</time></trkpt><trkpt lat="47.237091" lon="13.139515"><ele>1743.01</ele><time>2010-06-26T10:32:51Z</time></trkpt><trkpt lat="47.237072" lon="13.139491"><ele>1742.05</ele><time>2010-06-26T10:32:53Z</time></trkpt><trkpt lat="47.237062" lon="13.139475"><ele>1744.93</ele><time>2010-06-26T10:32:54Z</time></trkpt><trkpt lat="47.237053" lon="13.139464"><ele>1743.97</ele><time>2010-06-26T10:32:55Z</time></trkpt><trkpt lat="47.237039" lon="13.139450"><ele>1743.01</ele><time>2010-06-26T10:32:57Z</time></trkpt><trkpt lat="47.236942" lon="13.139340"><ele>1739.64</ele><time>2010-06-26T10:33:08Z</time></trkpt><trkpt lat="47.236890" lon="13.139205"><ele>1741.08</ele><time>2010-06-26T10:33:21Z</time></trkpt><trkpt lat="47.236875" lon="13.139177"><ele>1741.57</ele><time>2010-06-26T10:33:23Z</time></trkpt><trkpt lat="47.236834" lon="13.139112"><ele>1738.20</ele><time>2010-06-26T10:33:28Z</time></trkpt><trkpt lat="47.236764" lon="13.139039"><ele>1737.72</ele><time>2010-06-26T10:33:36Z</time></trkpt><trkpt lat="47.236738" lon="13.138981"><ele>1735.80</ele><time>2010-06-26T10:33:40Z</time></trkpt><trkpt lat="47.236687" lon="13.138870"><ele>1737.24</ele><time>2010-06-26T10:33:50Z</time></trkpt><trkpt lat="47.236675" lon="13.138836"><ele>1732.91</ele><time>2010-06-26T10:33:53Z</time></trkpt><trkpt lat="47.236669" lon="13.138827"><ele>1733.88</ele><time>2010-06-26T10:33:54Z</time></trkpt><trkpt lat="47.236647" lon="13.138783"><ele>1734.84</ele><time>2010-06-26T10:33:58Z</time></trkpt><trkpt lat="47.236609" lon="13.138651"><ele>1735.80</ele><time>2010-06-26T10:34:06Z</time></trkpt><trkpt lat="47.236594" lon="13.138581"><ele>1731.95</ele><time>2010-06-26T10:34:10Z</time></trkpt><trkpt lat="47.236590" lon="13.138569"><ele>1732.91</ele><time>2010-06-26T10:34:11Z</time></trkpt><trkpt lat="47.236562" lon="13.138513"><ele>1733.39</ele><time>2010-06-26T10:34:16Z</time></trkpt><trkpt lat="47.236530" lon="13.138410"><ele>1728.59</ele><time>2010-06-26T10:34:25Z</time></trkpt><trkpt lat="47.236523" lon="13.138346"><ele>1730.51</ele><time>2010-06-26T10:34:29Z</time></trkpt><trkpt lat="47.236450" lon="13.138150"><ele>1728.59</ele><time>2010-06-26T10:34:42Z</time></trkpt><trkpt lat="47.236445" lon="13.138129"><ele>1728.59</ele><time>2010-06-26T10:34:43Z</time></trkpt><trkpt lat="47.236418" lon="13.138050"><ele>1725.70</ele><time>2010-06-26T10:34:48Z</time></trkpt><trkpt lat="47.236413" lon="13.138030"><ele>1725.70</ele><time>2010-06-26T10:34:49Z</time></trkpt><trkpt lat="47.236404" lon="13.137978"><ele>1727.15</ele><time>2010-06-26T10:34:52Z</time></trkpt><trkpt lat="47.236419" lon="13.137863"><ele>1723.78</ele><time>2010-06-26T10:35:01Z</time></trkpt><trkpt lat="47.236414" lon="13.137793"><ele>1725.22</ele><time>2010-06-26T10:35:05Z</time></trkpt><trkpt lat="47.236377" lon="13.137615"><ele>1722.82</ele><time>2010-06-26T10:35:20Z</time></trkpt><trkpt lat="47.236380" lon="13.137603"><ele>1723.78</ele><time>2010-06-26T10:35:21Z</time></trkpt><trkpt lat="47.236388" lon="13.137575"><ele>1725.70</ele><time>2010-06-26T10:35:23Z</time></trkpt><trkpt lat="47.236391" lon="13.137532"><ele>1722.82</ele><time>2010-06-26T10:35:26Z</time></trkpt><trkpt lat="47.236392" lon="13.137408"><ele>1723.78</ele><time>2010-06-26T10:35:33Z</time></trkpt><trkpt lat="47.236391" lon="13.137379"><ele>1720.42</ele><time>2010-06-26T10:35:35Z</time></trkpt><trkpt lat="47.236391" lon="13.137367"><ele>1720.42</ele><time>2010-06-26T10:35:36Z</time></trkpt><trkpt lat="47.236378" lon="13.137184"><ele>1720.42</ele><time>2010-06-26T10:35:47Z</time></trkpt><trkpt lat="47.236366" lon="13.137128"><ele>1721.86</ele><time>2010-06-26T10:35:50Z</time></trkpt><trkpt lat="47.236344" lon="13.137069"><ele>1719.46</ele><time>2010-06-26T10:35:54Z</time></trkpt><trkpt lat="47.236331" lon="13.137018"><ele>1717.53</ele><time>2010-06-26T10:35:57Z</time></trkpt><trkpt lat="47.236320" lon="13.136834"><ele>1714.65</ele><time>2010-06-26T10:36:08Z</time></trkpt><trkpt lat="47.236332" lon="13.136777"><ele>1715.13</ele><time>2010-06-26T10:36:12Z</time></trkpt><trkpt lat="47.236393" lon="13.136618"><ele>1715.61</ele><time>2010-06-26T10:36:24Z</time></trkpt><trkpt lat="47.236430" lon="13.136555"><ele>1711.28</ele><time>2010-06-26T10:36:29Z</time></trkpt><trkpt lat="47.236475" lon="13.136454"><ele>1714.17</ele><time>2010-06-26T10:36:35Z</time></trkpt><trkpt lat="47.236511" lon="13.136376"><ele>1712.73</ele><time>2010-06-26T10:36:39Z</time></trkpt><trkpt lat="47.236525" lon="13.136272"><ele>1708.88</ele><time>2010-06-26T10:36:45Z</time></trkpt><trkpt lat="47.236525" lon="13.136259"><ele>1709.36</ele><time>2010-06-26T10:36:46Z</time></trkpt><trkpt lat="47.236536" lon="13.136223"><ele>1711.28</ele><time>2010-06-26T10:36:48Z</time></trkpt><trkpt lat="47.236549" lon="13.136040"><ele>1710.80</ele><time>2010-06-26T10:37:00Z</time></trkpt><trkpt lat="47.236552" lon="13.136024"><ele>1711.28</ele><time>2010-06-26T10:37:01Z</time></trkpt><trkpt lat="47.236556" lon="13.135985"><ele>1709.36</ele><time>2010-06-26T10:37:03Z</time></trkpt><trkpt lat="47.236554" lon="13.135945"><ele>1706.00</ele><time>2010-06-26T10:37:05Z</time></trkpt><trkpt lat="47.236557" lon="13.135921"><ele>1706.48</ele><time>2010-06-26T10:37:06Z</time></trkpt><trkpt lat="47.236575" lon="13.135841"><ele>1707.92</ele><time>2010-06-26T10:37:11Z</time></trkpt><trkpt lat="47.236627" lon="13.135623"><ele>1707.44</ele><time>2010-06-26T10:37:25Z</time></trkpt><trkpt lat="47.236667" lon="13.135557"><ele>1702.15</ele><time>2010-06-26T10:37:30Z</time></trkpt><trkpt lat="47.236671" lon="13.135543"><ele>1702.63</ele><time>2010-06-26T10:37:31Z</time></trkpt><trkpt lat="47.236681" lon="13.135508"><ele>1705.52</ele><time>2010-06-26T10:37:33Z</time></trkpt><trkpt lat="47.236759" lon="13.135330"><ele>1704.55</ele><time>2010-06-26T10:37:46Z</time></trkpt><trkpt lat="47.236800" lon="13.135260"><ele>1700.23</ele><time>2010-06-26T10:37:51Z</time></trkpt><trkpt lat="47.236899" lon="13.135128"><ele>1700.71</ele><time>2010-06-26T10:38:01Z</time></trkpt><trkpt lat="47.236931" lon="13.135077"><ele>1704.55</ele><time>2010-06-26T10:38:04Z</time></trkpt><trkpt lat="47.236972" lon="13.134999"><ele>1701.19</ele><time>2010-06-26T10:38:11Z</time></trkpt><trkpt lat="47.236987" lon="13.134943"><ele>1697.34</ele><time>2010-06-26T10:38:15Z</time></trkpt><trkpt lat="47.236994" lon="13.134922"><ele>1697.34</ele><time>2010-06-26T10:38:16Z</time></trkpt><trkpt lat="47.237013" lon="13.134885"><ele>1699.75</ele><time>2010-06-26T10:38:18Z</time></trkpt><trkpt lat="47.237178" lon="13.134741"><ele>1700.23</ele><time>2010-06-26T10:38:28Z</time></trkpt><trkpt lat="47.237216" lon="13.134693"><ele>1698.79</ele><time>2010-06-26T10:38:31Z</time></trkpt><trkpt lat="47.237241" lon="13.134673"><ele>1697.34</ele><time>2010-06-26T10:38:33Z</time></trkpt><trkpt lat="47.237298" lon="13.134745"><ele>1694.94</ele><time>2010-06-26T10:38:45Z</time></trkpt><trkpt lat="47.237309" lon="13.134873"><ele>1690.62</ele><time>2010-06-26T10:38:55Z</time></trkpt><trkpt lat="47.237306" lon="13.134887"><ele>1694.46</ele><time>2010-06-26T10:38:56Z</time></trkpt><trkpt lat="47.237283" lon="13.135011"><ele>1691.10</ele><time>2010-06-26T10:39:05Z</time></trkpt><trkpt lat="47.237310" lon="13.135319"><ele>1691.10</ele><time>2010-06-26T10:39:30Z</time></trkpt><trkpt lat="47.237313" lon="13.135392"><ele>1688.69</ele><time>2010-06-26T10:39:33Z</time></trkpt><trkpt lat="47.237403" lon="13.135662"><ele>1687.25</ele><time>2010-06-26T10:39:49Z</time></trkpt><trkpt lat="47.237474" lon="13.135874"><ele>1684.37</ele><time>2010-06-26T10:40:08Z</time></trkpt><trkpt lat="47.237545" lon="13.136007"><ele>1683.41</ele><time>2010-06-26T10:40:18Z</time></trkpt><trkpt lat="47.237628" lon="13.136149"><ele>1681.96</ele><time>2010-06-26T10:40:31Z</time></trkpt><trkpt lat="47.237625" lon="13.136192"><ele>1678.60</ele><time>2010-06-26T10:40:34Z</time></trkpt><trkpt lat="47.237626" lon="13.136199"><ele>1680.04</ele><time>2010-06-26T10:40:35Z</time></trkpt><trkpt lat="47.237590" lon="13.136339"><ele>1680.52</ele><time>2010-06-26T10:40:46Z</time></trkpt><trkpt lat="47.237572" lon="13.136386"><ele>1678.60</ele><time>2010-06-26T10:40:49Z</time></trkpt><trkpt lat="47.237577" lon="13.136445"><ele>1677.16</ele><time>2010-06-26T10:40:52Z</time></trkpt><trkpt lat="47.237567" lon="13.136500"><ele>1674.27</ele><time>2010-06-26T10:40:55Z</time></trkpt><trkpt lat="47.237563" lon="13.136538"><ele>1677.16</ele><time>2010-06-26T10:40:58Z</time></trkpt><trkpt lat="47.237562" lon="13.136552"><ele>1677.16</ele><time>2010-06-26T10:40:59Z</time></trkpt><trkpt lat="47.237556" lon="13.136594"><ele>1675.72</ele><time>2010-06-26T10:41:03Z</time></trkpt><trkpt lat="47.237544" lon="13.136757"><ele>1675.23</ele><time>2010-06-26T10:41:13Z</time></trkpt><trkpt lat="47.237553" lon="13.136815"><ele>1674.75</ele><time>2010-06-26T10:41:18Z</time></trkpt><trkpt lat="47.237583" lon="13.136896"><ele>1674.27</ele><time>2010-06-26T10:41:23Z</time></trkpt><trkpt lat="47.237586" lon="13.136911"><ele>1673.31</ele><time>2010-06-26T10:41:24Z</time></trkpt><trkpt lat="47.237609" lon="13.137014"><ele>1672.83</ele><time>2010-06-26T10:41:30Z</time></trkpt><trkpt lat="47.237625" lon="13.137056"><ele>1674.75</ele><time>2010-06-26T10:41:33Z</time></trkpt><trkpt lat="47.237672" lon="13.137110"><ele>1671.39</ele><time>2010-06-26T10:41:39Z</time></trkpt><trkpt lat="47.237750" lon="13.137227"><ele>1672.83</ele><time>2010-06-26T10:41:49Z</time></trkpt><trkpt lat="47.237759" lon="13.137234"><ele>1672.35</ele><time>2010-06-26T10:41:50Z</time></trkpt><trkpt lat="47.237872" lon="13.137229"><ele>1668.99</ele><time>2010-06-26T10:42:02Z</time></trkpt><trkpt lat="47.237911" lon="13.137241"><ele>1670.91</ele><time>2010-06-26T10:42:06Z</time></trkpt><trkpt lat="47.238065" lon="13.137309"><ele>1667.54</ele><time>2010-06-26T10:42:19Z</time></trkpt><trkpt lat="47.238111" lon="13.137372"><ele>1667.06</ele><time>2010-06-26T10:42:27Z</time></trkpt><trkpt lat="47.238140" lon="13.137456"><ele>1665.14</ele><time>2010-06-26T10:42:33Z</time></trkpt><trkpt lat="47.238185" lon="13.137590"><ele>1665.62</ele><time>2010-06-26T10:42:42Z</time></trkpt><trkpt lat="47.238215" lon="13.137658"><ele>1662.74</ele><time>2010-06-26T10:42:46Z</time></trkpt><trkpt lat="47.238270" lon="13.137796"><ele>1662.74</ele><time>2010-06-26T10:42:57Z</time></trkpt><trkpt lat="47.238314" lon="13.137938"><ele>1662.26</ele><time>2010-06-26T10:43:08Z</time></trkpt><trkpt lat="47.238371" lon="13.138093"><ele>1658.89</ele><time>2010-06-26T10:43:19Z</time></trkpt><trkpt lat="47.238416" lon="13.138157"><ele>1661.78</ele><time>2010-06-26T10:43:23Z</time></trkpt><trkpt lat="47.238555" lon="13.138273"><ele>1660.81</ele><time>2010-06-26T10:43:34Z</time></trkpt><trkpt lat="47.238666" lon="13.138232"><ele>1659.85</ele><time>2010-06-26T10:43:42Z</time></trkpt><trkpt lat="47.238706" lon="13.138188"><ele>1658.41</ele><time>2010-06-26T10:43:45Z</time></trkpt><trkpt lat="47.238710" lon="13.138085"><ele>1658.89</ele><time>2010-06-26T10:43:51Z</time></trkpt><trkpt lat="47.238695" lon="13.138033"><ele>1659.85</ele><time>2010-06-26T10:43:54Z</time></trkpt><trkpt lat="47.238680" lon="13.137937"><ele>1658.41</ele><time>2010-06-26T10:43:59Z</time></trkpt><trkpt lat="47.238644" lon="13.137801"><ele>1657.45</ele><time>2010-06-26T10:44:06Z</time></trkpt><trkpt lat="47.238608" lon="13.137657"><ele>1653.12</ele><time>2010-06-26T10:44:16Z</time></trkpt><trkpt lat="47.238592" lon="13.137564"><ele>1654.57</ele><time>2010-06-26T10:44:21Z</time></trkpt><trkpt lat="47.238571" lon="13.137343"><ele>1652.64</ele><time>2010-06-26T10:44:33Z</time></trkpt><trkpt lat="47.238562" lon="13.137286"><ele>1651.20</ele><time>2010-06-26T10:44:36Z</time></trkpt><trkpt lat="47.238554" lon="13.137182"><ele>1652.16</ele><time>2010-06-26T10:44:43Z</time></trkpt><trkpt lat="47.238555" lon="13.137139"><ele>1649.28</ele><time>2010-06-26T10:44:46Z</time></trkpt><trkpt lat="47.238596" lon="13.136860"><ele>1648.80</ele><time>2010-06-26T10:45:03Z</time></trkpt><trkpt lat="47.238612" lon="13.136832"><ele>1646.40</ele><time>2010-06-26T10:45:05Z</time></trkpt><trkpt lat="47.238635" lon="13.136755"><ele>1647.84</ele><time>2010-06-26T10:45:10Z</time></trkpt><trkpt lat="47.238667" lon="13.136665"><ele>1646.40</ele><time>2010-06-26T10:45:16Z</time></trkpt><trkpt lat="47.238606" lon="13.136424"><ele>1643.51</ele><time>2010-06-26T10:45:31Z</time></trkpt><trkpt lat="47.238578" lon="13.136397"><ele>1643.03</ele><time>2010-06-26T10:45:34Z</time></trkpt><trkpt lat="47.238495" lon="13.136314"><ele>1640.63</ele><time>2010-06-26T10:45:44Z</time></trkpt><trkpt lat="47.238484" lon="13.136269"><ele>1637.74</ele><time>2010-06-26T10:45:48Z</time></trkpt><trkpt lat="47.238479" lon="13.136232"><ele>1640.15</ele><time>2010-06-26T10:45:50Z</time></trkpt><trkpt lat="47.238491" lon="13.136088"><ele>1639.67</ele><time>2010-06-26T10:45:57Z</time></trkpt><trkpt lat="47.238510" lon="13.136063"><ele>1640.63</ele><time>2010-06-26T10:45:59Z</time></trkpt><trkpt lat="47.238544" lon="13.135973"><ele>1637.74</ele><time>2010-06-26T10:46:06Z</time></trkpt><trkpt lat="47.238606" lon="13.135775"><ele>1634.38</ele><time>2010-06-26T10:46:21Z</time></trkpt><trkpt lat="47.238675" lon="13.135566"><ele>1632.94</ele><time>2010-06-26T10:46:36Z</time></trkpt><trkpt lat="47.238687" lon="13.135544"><ele>1632.94</ele><time>2010-06-26T10:46:38Z</time></trkpt><trkpt lat="47.238723" lon="13.135461"><ele>1632.46</ele><time>2010-06-26T10:46:44Z</time></trkpt><trkpt lat="47.238735" lon="13.135432"><ele>1632.94</ele><time>2010-06-26T10:46:46Z</time></trkpt><trkpt lat="47.238746" lon="13.135389"><ele>1631.01</ele><time>2010-06-26T10:46:49Z</time></trkpt><trkpt lat="47.238758" lon="13.135316"><ele>1628.61</ele><time>2010-06-26T10:46:54Z</time></trkpt><trkpt lat="47.238786" lon="13.135192"><ele>1628.61</ele><time>2010-06-26T10:47:01Z</time></trkpt><trkpt lat="47.238809" lon="13.134963"><ele>1628.13</ele><time>2010-06-26T10:47:14Z</time></trkpt><trkpt lat="47.238822" lon="13.134887"><ele>1626.69</ele><time>2010-06-26T10:47:19Z</time></trkpt><trkpt lat="47.238837" lon="13.134847"><ele>1625.73</ele><time>2010-06-26T10:47:22Z</time></trkpt><trkpt lat="47.238931" lon="13.134720"><ele>1622.36</ele><time>2010-06-26T10:47:32Z</time></trkpt><trkpt lat="47.238935" lon="13.134710"><ele>1623.32</ele><time>2010-06-26T10:47:33Z</time></trkpt><trkpt lat="47.239041" lon="13.134493"><ele>1626.21</ele><time>2010-06-26T10:47:47Z</time></trkpt><trkpt lat="47.239057" lon="13.134473"><ele>1622.84</ele><time>2010-06-26T10:47:49Z</time></trkpt><trkpt lat="47.239065" lon="13.134460"><ele>1622.84</ele><time>2010-06-26T10:47:50Z</time></trkpt><trkpt lat="47.239071" lon="13.134340"><ele>1620.92</ele><time>2010-06-26T10:47:58Z</time></trkpt><trkpt lat="47.239065" lon="13.134280"><ele>1619.96</ele><time>2010-06-26T10:48:02Z</time></trkpt><trkpt lat="47.239056" lon="13.134233"><ele>1622.84</ele><time>2010-06-26T10:48:05Z</time></trkpt><trkpt lat="47.239039" lon="13.134176"><ele>1620.92</ele><time>2010-06-26T10:48:09Z</time></trkpt><trkpt lat="47.238999" lon="13.134101"><ele>1617.07</ele><time>2010-06-26T10:48:14Z</time></trkpt><trkpt lat="47.238990" lon="13.134091"><ele>1617.07</ele><time>2010-06-26T10:48:15Z</time></trkpt><trkpt lat="47.238966" lon="13.134052"><ele>1620.92</ele><time>2010-06-26T10:48:18Z</time></trkpt><trkpt lat="47.238957" lon="13.134036"><ele>1620.44</ele><time>2010-06-26T10:48:19Z</time></trkpt><trkpt lat="47.238927" lon="13.133998"><ele>1619.48</ele><time>2010-06-26T10:48:22Z</time></trkpt><trkpt lat="47.238885" lon="13.133942"><ele>1620.44</ele><time>2010-06-26T10:48:26Z</time></trkpt><trkpt lat="47.238856" lon="13.133902"><ele>1618.04</ele><time>2010-06-26T10:48:29Z</time></trkpt><trkpt lat="47.238819" lon="13.133834"><ele>1613.23</ele><time>2010-06-26T10:48:36Z</time></trkpt><trkpt lat="47.238819" lon="13.133834"><ele>1613.23</ele><time>2010-06-26T10:48:37Z</time></trkpt><trkpt lat="47.238817" lon="13.133836"><ele>1617.56</ele><time>2010-06-26T10:48:38Z</time></trkpt><trkpt lat="47.238817" lon="13.133835"><ele>1610.83</ele><time>2010-06-26T10:48:48Z</time></trkpt><trkpt lat="47.238812" lon="13.133836"><ele>1617.56</ele><time>2010-06-26T10:48:50Z</time></trkpt><trkpt lat="47.238812" lon="13.133836"><ele>1616.59</ele><time>2010-06-26T10:48:51Z</time></trkpt><trkpt lat="47.238812" lon="13.133836"><ele>1608.90</ele><time>2010-06-26T10:49:04Z</time></trkpt><trkpt lat="47.238812" lon="13.133836"><ele>1616.59</ele><time>2010-06-26T10:49:05Z</time></trkpt><trkpt lat="47.238812" lon="13.133836"><ele>1616.59</ele><time>2010-06-26T10:49:06Z</time></trkpt><trkpt lat="47.238812" lon="13.133836"><ele>1622.84</ele><time>2010-06-26T10:49:07Z</time></trkpt><trkpt lat="47.238812" lon="13.133836"><ele>1618.04</ele><time>2010-06-26T10:49:08Z</time></trkpt><trkpt lat="47.238812" lon="13.133836"><ele>1616.59</ele><time>2010-06-26T10:49:10Z</time></trkpt><trkpt lat="47.238808" lon="13.133849"><ele>1611.31</ele><time>2010-06-26T10:49:48Z</time></trkpt><trkpt lat="47.238808" lon="13.133849"><ele>1614.67</ele><time>2010-06-26T10:49:49Z</time></trkpt><trkpt lat="47.238808" lon="13.133849"><ele>1615.63</ele><time>2010-06-26T10:49:50Z</time></trkpt><trkpt lat="47.238807" lon="13.133849"><ele>1618.04</ele><time>2010-06-26T10:50:21Z</time></trkpt><trkpt lat="47.238807" lon="13.133849"><ele>1615.15</ele><time>2010-06-26T10:50:28Z</time></trkpt><trkpt lat="47.238812" lon="13.133850"><ele>1620.44</ele><time>2010-06-26T10:50:32Z</time></trkpt><trkpt lat="47.238814" lon="13.133850"><ele>1617.07</ele><time>2010-06-26T10:50:33Z</time></trkpt><trkpt lat="47.238816" lon="13.133849"><ele>1619.96</ele><time>2010-06-26T10:50:44Z</time></trkpt><trkpt lat="47.238816" lon="13.133849"><ele>1617.07</ele><time>2010-06-26T10:50:45Z</time></trkpt><trkpt lat="47.238816" lon="13.133849"><ele>1614.67</ele><time>2010-06-26T10:50:55Z</time></trkpt><trkpt lat="47.238816" lon="13.133849"><ele>1616.59</ele><time>2010-06-26T10:50:57Z</time></trkpt><trkpt lat="47.238816" lon="13.133849"><ele>1609.86</ele><time>2010-06-26T10:51:10Z</time></trkpt><trkpt lat="47.238816" lon="13.133849"><ele>1626.69</ele><time>2010-06-26T10:51:12Z</time></trkpt><trkpt lat="47.238816" lon="13.133849"><ele>1619.00</ele><time>2010-06-26T10:51:13Z</time></trkpt><trkpt lat="47.238819" lon="13.133847"><ele>1616.59</ele><time>2010-06-26T10:51:15Z</time></trkpt><trkpt lat="47.238819" lon="13.133847"><ele>1609.86</ele><time>2010-06-26T10:51:41Z</time></trkpt><trkpt lat="47.238819" lon="13.133847"><ele>1616.59</ele><time>2010-06-26T10:51:42Z</time></trkpt><trkpt lat="47.238819" lon="13.133847"><ele>1619.48</ele><time>2010-06-26T10:51:46Z</time></trkpt><trkpt lat="47.238828" lon="13.133843"><ele>1616.11</ele><time>2010-06-26T10:51:47Z</time></trkpt><trkpt lat="47.238824" lon="13.133826"><ele>1611.31</ele><time>2010-06-26T10:51:48Z</time></trkpt><trkpt lat="47.238814" lon="13.133810"><ele>1626.69</ele><time>2010-06-26T10:51:49Z</time></trkpt><trkpt lat="47.238812" lon="13.133798"><ele>1617.56</ele><time>2010-06-26T10:51:50Z</time></trkpt><trkpt lat="47.238812" lon="13.133798"><ele>1613.23</ele><time>2010-06-26T10:51:58Z</time></trkpt><trkpt lat="47.238829" lon="13.133782"><ele>1618.04</ele><time>2010-06-26T10:52:00Z</time></trkpt><trkpt lat="47.238849" lon="13.133786"><ele>1615.63</ele><time>2010-06-26T10:52:02Z</time></trkpt><trkpt lat="47.238846" lon="13.133782"><ele>1613.71</ele><time>2010-06-26T10:52:16Z</time></trkpt><trkpt lat="47.238836" lon="13.133740"><ele>1618.52</ele><time>2010-06-26T10:52:19Z</time></trkpt><trkpt lat="47.238854" lon="13.133637"><ele>1617.56</ele><time>2010-06-26T10:52:27Z</time></trkpt><trkpt lat="47.238893" lon="13.133566"><ele>1616.11</ele><time>2010-06-26T10:52:32Z</time></trkpt><trkpt lat="47.238930" lon="13.133490"><ele>1614.67</ele><time>2010-06-26T10:52:41Z</time></trkpt><trkpt lat="47.238930" lon="13.133490"><ele>1611.31</ele><time>2010-06-26T10:52:59Z</time></trkpt><trkpt lat="47.238930" lon="13.133490"><ele>1614.67</ele><time>2010-06-26T10:53:01Z</time></trkpt><trkpt lat="47.238934" lon="13.133485"><ele>1615.63</ele><time>2010-06-26T10:53:38Z</time></trkpt><trkpt lat="47.238934" lon="13.133485"><ele>1611.31</ele><time>2010-06-26T10:53:39Z</time></trkpt><trkpt lat="47.238934" lon="13.133485"><ele>1615.15</ele><time>2010-06-26T10:53:41Z</time></trkpt><trkpt lat="47.238934" lon="13.133485"><ele>1614.19</ele><time>2010-06-26T10:53:42Z</time></trkpt><trkpt lat="47.238944" lon="13.133442"><ele>1612.75</ele><time>2010-06-26T10:54:21Z</time></trkpt><trkpt lat="47.239014" lon="13.133294"><ele>1609.38</ele><time>2010-06-26T10:54:32Z</time></trkpt><trkpt lat="47.239022" lon="13.133280"><ele>1609.86</ele><time>2010-06-26T10:54:33Z</time></trkpt><trkpt lat="47.239043" lon="13.133255"><ele>1610.83</ele><time>2010-06-26T10:54:35Z</time></trkpt><trkpt lat="47.239065" lon="13.133228"><ele>1612.27</ele><time>2010-06-26T10:54:37Z</time></trkpt><trkpt lat="47.239129" lon="13.133101"><ele>1608.42</ele><time>2010-06-26T10:54:47Z</time></trkpt><trkpt lat="47.239133" lon="13.133043"><ele>1608.90</ele><time>2010-06-26T10:54:51Z</time></trkpt><trkpt lat="47.239155" lon="13.132894"><ele>1605.54</ele><time>2010-06-26T10:55:01Z</time></trkpt><trkpt lat="47.239158" lon="13.132882"><ele>1605.06</ele><time>2010-06-26T10:55:02Z</time></trkpt><trkpt lat="47.239173" lon="13.132852"><ele>1607.46</ele><time>2010-06-26T10:55:04Z</time></trkpt><trkpt lat="47.239224" lon="13.132669"><ele>1602.66</ele><time>2010-06-26T10:55:16Z</time></trkpt><trkpt lat="47.239227" lon="13.132657"><ele>1603.62</ele><time>2010-06-26T10:55:17Z</time></trkpt><trkpt lat="47.239247" lon="13.132600"><ele>1606.50</ele><time>2010-06-26T10:55:22Z</time></trkpt><trkpt lat="47.239267" lon="13.132464"><ele>1604.10</ele><time>2010-06-26T10:55:31Z</time></trkpt><trkpt lat="47.239286" lon="13.132385"><ele>1603.14</ele><time>2010-06-26T10:55:36Z</time></trkpt><trkpt lat="47.239338" lon="13.132204"><ele>1604.10</ele><time>2010-06-26T10:55:48Z</time></trkpt><trkpt lat="47.239351" lon="13.132154"><ele>1599.77</ele><time>2010-06-26T10:55:51Z</time></trkpt><trkpt lat="47.239355" lon="13.132138"><ele>1601.21</ele><time>2010-06-26T10:55:52Z</time></trkpt><trkpt lat="47.239358" lon="13.132125"><ele>1601.69</ele><time>2010-06-26T10:55:53Z</time></trkpt><trkpt lat="47.239362" lon="13.132054"><ele>1601.69</ele><time>2010-06-26T10:55:58Z</time></trkpt><trkpt lat="47.239380" lon="13.131995"><ele>1602.17</ele><time>2010-06-26T10:56:02Z</time></trkpt><trkpt lat="47.239383" lon="13.131966"><ele>1597.85</ele><time>2010-06-26T10:56:04Z</time></trkpt><trkpt lat="47.239386" lon="13.131950"><ele>1600.25</ele><time>2010-06-26T10:56:05Z</time></trkpt><trkpt lat="47.239390" lon="13.131796"><ele>1596.89</ele><time>2010-06-26T10:56:14Z</time></trkpt><trkpt lat="47.239386" lon="13.131719"><ele>1600.73</ele><time>2010-06-26T10:56:18Z</time></trkpt><trkpt lat="47.239375" lon="13.131674"><ele>1596.89</ele><time>2010-06-26T10:56:21Z</time></trkpt><trkpt lat="47.239368" lon="13.131628"><ele>1597.85</ele><time>2010-06-26T10:56:24Z</time></trkpt><trkpt lat="47.239362" lon="13.131598"><ele>1599.29</ele><time>2010-06-26T10:56:26Z</time></trkpt><trkpt lat="47.239351" lon="13.131535"><ele>1596.89</ele><time>2010-06-26T10:56:30Z</time></trkpt><trkpt lat="47.239356" lon="13.131383"><ele>1593.52</ele><time>2010-06-26T10:56:39Z</time></trkpt><trkpt lat="47.239354" lon="13.131369"><ele>1593.52</ele><time>2010-06-26T10:56:40Z</time></trkpt><trkpt lat="47.239351" lon="13.131331"><ele>1595.93</ele><time>2010-06-26T10:56:42Z</time></trkpt><trkpt lat="47.239333" lon="13.131148"><ele>1596.89</ele><time>2010-06-26T10:56:51Z</time></trkpt><trkpt lat="47.239385" lon="13.131038"><ele>1591.60</ele><time>2010-06-26T10:57:00Z</time></trkpt><trkpt lat="47.239393" lon="13.131027"><ele>1594.96</ele><time>2010-06-26T10:57:02Z</time></trkpt><trkpt lat="47.239385" lon="13.131001"><ele>1594.48</ele><time>2010-06-26T10:57:05Z</time></trkpt><trkpt lat="47.239383" lon="13.130971"><ele>1597.37</ele><time>2010-06-26T10:57:07Z</time></trkpt><trkpt lat="47.239381" lon="13.130956"><ele>1594.00</ele><time>2010-06-26T10:57:08Z</time></trkpt><trkpt lat="47.239379" lon="13.130937"><ele>1597.37</ele><time>2010-06-26T10:57:09Z</time></trkpt><trkpt lat="47.239377" lon="13.130915"><ele>1593.04</ele><time>2010-06-26T10:57:10Z</time></trkpt><trkpt lat="47.239374" lon="13.130901"><ele>1598.33</ele><time>2010-06-26T10:57:11Z</time></trkpt><trkpt lat="47.239370" lon="13.130882"><ele>1594.48</ele><time>2010-06-26T10:57:14Z</time></trkpt><trkpt lat="47.239335" lon="13.130855"><ele>1595.93</ele><time>2010-06-26T10:57:35Z</time></trkpt><trkpt lat="47.239315" lon="13.130824"><ele>1594.00</ele><time>2010-06-26T10:57:38Z</time></trkpt><trkpt lat="47.239301" lon="13.130779"><ele>1597.85</ele><time>2010-06-26T10:57:43Z</time></trkpt><trkpt lat="47.239300" lon="13.130769"><ele>1594.48</ele><time>2010-06-26T10:57:44Z</time></trkpt><trkpt lat="47.239296" lon="13.130757"><ele>1597.85</ele><time>2010-06-26T10:57:45Z</time></trkpt><trkpt lat="47.239247" lon="13.130667"><ele>1594.48</ele><time>2010-06-26T10:57:52Z</time></trkpt><trkpt lat="47.239239" lon="13.130643"><ele>1590.64</ele><time>2010-06-26T10:57:54Z</time></trkpt><trkpt lat="47.239234" lon="13.130632"><ele>1595.93</ele><time>2010-06-26T10:57:55Z</time></trkpt><trkpt lat="47.239226" lon="13.130620"><ele>1600.25</ele><time>2010-06-26T10:57:56Z</time></trkpt><trkpt lat="47.239220" lon="13.130608"><ele>1592.08</ele><time>2010-06-26T10:57:57Z</time></trkpt><trkpt lat="47.239215" lon="13.130596"><ele>1595.93</ele><time>2010-06-26T10:57:58Z</time></trkpt><trkpt lat="47.239211" lon="13.130581"><ele>1599.29</ele><time>2010-06-26T10:57:59Z</time></trkpt><trkpt lat="47.239209" lon="13.130567"><ele>1597.85</ele><time>2010-06-26T10:58:00Z</time></trkpt><trkpt lat="47.239186" lon="13.130526"><ele>1602.17</ele><time>2010-06-26T10:58:04Z</time></trkpt><trkpt lat="47.239181" lon="13.130511"><ele>1594.96</ele><time>2010-06-26T10:58:05Z</time></trkpt><trkpt lat="47.239173" lon="13.130500"><ele>1599.29</ele><time>2010-06-26T10:58:06Z</time></trkpt><trkpt lat="47.239167" lon="13.130485"><ele>1596.41</ele><time>2010-06-26T10:58:08Z</time></trkpt><trkpt lat="47.239167" lon="13.130461"><ele>1595.45</ele><time>2010-06-26T10:58:10Z</time></trkpt><trkpt lat="47.239164" lon="13.130454"><ele>1600.25</ele><time>2010-06-26T10:58:11Z</time></trkpt><trkpt lat="47.239139" lon="13.130430"><ele>1596.41</ele><time>2010-06-26T10:58:14Z</time></trkpt><trkpt lat="47.239133" lon="13.130420"><ele>1600.73</ele><time>2010-06-26T10:58:15Z</time></trkpt><trkpt lat="47.239118" lon="13.130402"><ele>1596.89</ele><time>2010-06-26T10:58:17Z</time></trkpt><trkpt lat="47.239112" lon="13.130391"><ele>1601.69</ele><time>2010-06-26T10:58:18Z</time></trkpt><trkpt lat="47.239107" lon="13.130370"><ele>1596.89</ele><time>2010-06-26T10:58:20Z</time></trkpt><trkpt lat="47.239105" lon="13.130357"><ele>1600.73</ele><time>2010-06-26T10:58:21Z</time></trkpt><trkpt lat="47.239100" lon="13.130343"><ele>1600.73</ele><time>2010-06-26T10:58:22Z</time></trkpt><trkpt lat="47.239093" lon="13.130331"><ele>1605.54</ele><time>2010-06-26T10:58:23Z</time></trkpt><trkpt lat="47.239088" lon="13.130319"><ele>1603.14</ele><time>2010-06-26T10:58:24Z</time></trkpt><trkpt lat="47.239067" lon="13.130280"><ele>1595.45</ele><time>2010-06-26T10:58:27Z</time></trkpt><trkpt lat="47.239063" lon="13.130266"><ele>1599.77</ele><time>2010-06-26T10:58:28Z</time></trkpt><trkpt lat="47.239056" lon="13.130251"><ele>1603.14</ele><time>2010-06-26T10:58:29Z</time></trkpt><trkpt lat="47.239050" lon="13.130239"><ele>1602.66</ele><time>2010-06-26T10:58:30Z</time></trkpt><trkpt lat="47.239047" lon="13.130226"><ele>1595.93</ele><time>2010-06-26T10:58:31Z</time></trkpt><trkpt lat="47.239046" lon="13.130210"><ele>1600.25</ele><time>2010-06-26T10:58:32Z</time></trkpt><trkpt lat="47.239040" lon="13.130194"><ele>1606.02</ele><time>2010-06-26T10:58:33Z</time></trkpt><trkpt lat="47.239035" lon="13.130179"><ele>1597.85</ele><time>2010-06-26T10:58:34Z</time></trkpt><trkpt lat="47.239019" lon="13.130154"><ele>1603.14</ele><time>2010-06-26T10:58:36Z</time></trkpt><trkpt lat="47.239009" lon="13.130141"><ele>1598.33</ele><time>2010-06-26T10:58:37Z</time></trkpt><trkpt lat="47.239003" lon="13.130129"><ele>1599.77</ele><time>2010-06-26T10:58:38Z</time></trkpt><trkpt lat="47.238994" lon="13.130101"><ele>1602.17</ele><time>2010-06-26T10:58:40Z</time></trkpt><trkpt lat="47.238991" lon="13.130085"><ele>1598.33</ele><time>2010-06-26T10:58:41Z</time></trkpt><trkpt lat="47.238991" lon="13.130070"><ele>1603.62</ele><time>2010-06-26T10:58:42Z</time></trkpt><trkpt lat="47.238976" lon="13.129858"><ele>1602.17</ele><time>2010-06-26T10:58:55Z</time></trkpt><trkpt lat="47.238974" lon="13.129839"><ele>1601.69</ele><time>2010-06-26T10:58:56Z</time></trkpt><trkpt lat="47.238895" lon="13.129729"><ele>1600.25</ele><time>2010-06-26T10:59:05Z</time></trkpt><trkpt lat="47.238855" lon="13.129690"><ele>1598.33</ele><time>2010-06-26T10:59:10Z</time></trkpt><trkpt lat="47.238825" lon="13.129674"><ele>1603.14</ele><time>2010-06-26T10:59:13Z</time></trkpt><trkpt lat="47.238815" lon="13.129668"><ele>1602.66</ele><time>2010-06-26T10:59:14Z</time></trkpt><trkpt lat="47.238797" lon="13.129655"><ele>1600.25</ele><time>2010-06-26T10:59:16Z</time></trkpt><trkpt lat="47.238766" lon="13.129636"><ele>1603.62</ele><time>2010-06-26T10:59:19Z</time></trkpt><trkpt lat="47.238756" lon="13.129630"><ele>1600.25</ele><time>2010-06-26T10:59:20Z</time></trkpt><trkpt lat="47.238685" lon="13.129576"><ele>1600.73</ele><time>2010-06-26T10:59:27Z</time></trkpt><trkpt lat="47.238553" lon="13.129408"><ele>1600.73</ele><time>2010-06-26T10:59:42Z</time></trkpt><trkpt lat="47.238518" lon="13.129251"><ele>1601.21</ele><time>2010-06-26T10:59:54Z</time></trkpt><trkpt lat="47.238517" lon="13.129211"><ele>1596.89</ele><time>2010-06-26T10:59:57Z</time></trkpt><trkpt lat="47.238512" lon="13.129135"><ele>1600.73</ele><time>2010-06-26T11:00:01Z</time></trkpt><trkpt lat="47.238512" lon="13.129122"><ele>1596.89</ele><time>2010-06-26T11:00:07Z</time></trkpt><trkpt lat="47.238534" lon="13.129128"><ele>1601.21</ele><time>2010-06-26T11:00:20Z</time></trkpt><trkpt lat="47.238542" lon="13.129110"><ele>1593.04</ele><time>2010-06-26T11:00:22Z</time></trkpt><trkpt lat="47.238547" lon="13.129100"><ele>1596.41</ele><time>2010-06-26T11:00:23Z</time></trkpt><trkpt lat="47.238569" lon="13.129117"><ele>1600.25</ele><time>2010-06-26T11:00:27Z</time></trkpt><trkpt lat="47.238596" lon="13.129156"><ele>1594.96</ele><time>2010-06-26T11:00:31Z</time></trkpt><trkpt lat="47.238604" lon="13.129161"><ele>1599.29</ele><time>2010-06-26T11:00:32Z</time></trkpt><trkpt lat="47.238667" lon="13.129221"><ele>1594.96</ele><time>2010-06-26T11:00:42Z</time></trkpt><trkpt lat="47.238675" lon="13.129227"><ele>1599.29</ele><time>2010-06-26T11:00:43Z</time></trkpt><trkpt lat="47.238692" lon="13.129253"><ele>1600.25</ele><time>2010-06-26T11:00:45Z</time></trkpt><trkpt lat="47.238705" lon="13.129298"><ele>1598.81</ele><time>2010-06-26T11:00:48Z</time></trkpt><trkpt lat="47.238705" lon="13.129311"><ele>1600.25</ele><time>2010-06-26T11:00:49Z</time></trkpt><trkpt lat="47.238706" lon="13.129340"><ele>1596.41</ele><time>2010-06-26T11:00:51Z</time></trkpt><trkpt lat="47.238710" lon="13.129353"><ele>1598.33</ele><time>2010-06-26T11:00:52Z</time></trkpt><trkpt lat="47.238721" lon="13.129372"><ele>1599.29</ele><time>2010-06-26T11:00:54Z</time></trkpt><trkpt lat="47.238741" lon="13.129398"><ele>1599.77</ele><time>2010-06-26T11:01:03Z</time></trkpt><trkpt lat="47.238755" lon="13.129390"><ele>1599.29</ele><time>2010-06-26T11:01:52Z</time></trkpt><trkpt lat="47.238732" lon="13.129439"><ele>1596.89</ele><time>2010-06-26T11:07:22Z</time></trkpt><trkpt lat="47.238732" lon="13.129439"><ele>1596.89</ele><time>2010-06-26T11:07:26Z</time></trkpt><trkpt lat="47.238732" lon="13.129439"><ele>1596.89</ele><time>2010-06-26T11:07:55Z</time></trkpt><trkpt lat="47.238729" lon="13.129434"><ele>1598.81</ele><time>2010-06-26T11:09:27Z</time></trkpt><trkpt lat="47.238729" lon="13.129434"><ele>1598.81</ele><time>2010-06-26T11:09:39Z</time></trkpt><trkpt lat="47.238730" lon="13.129422"><ele>1599.29</ele><time>2010-06-26T11:13:41Z</time></trkpt><trkpt lat="47.238732" lon="13.129415"><ele>1598.81</ele><time>2010-06-26T11:14:04Z</time></trkpt><trkpt lat="47.238732" lon="13.129413"><ele>1598.33</ele><time>2010-06-26T11:15:52Z</time></trkpt><trkpt lat="47.238731" lon="13.129413"><ele>1599.29</ele><time>2010-06-26T11:16:31Z</time></trkpt><trkpt lat="47.238756" lon="13.129406"><ele>1599.29</ele><time>2010-06-26T11:20:29Z</time></trkpt><trkpt lat="47.238754" lon="13.129404"><ele>1598.33</ele><time>2010-06-26T11:21:15Z</time></trkpt><trkpt lat="47.238771" lon="13.129451"><ele>1598.33</ele><time>2010-06-26T11:22:19Z</time></trkpt><trkpt lat="47.238763" lon="13.129470"><ele>1599.77</ele><time>2010-06-26T11:22:40Z</time></trkpt><trkpt lat="47.238767" lon="13.129479"><ele>1599.29</ele><time>2010-06-26T11:23:20Z</time></trkpt><trkpt lat="47.238759" lon="13.129478"><ele>1599.29</ele><time>2010-06-26T11:26:47Z</time></trkpt><trkpt lat="47.238763" lon="13.129456"><ele>1597.37</ele><time>2010-06-26T11:29:07Z</time></trkpt><trkpt lat="47.238759" lon="13.129450"><ele>1597.85</ele><time>2010-06-26T11:30:24Z</time></trkpt><trkpt lat="47.238759" lon="13.129450"><ele>1599.77</ele><time>2010-06-26T11:30:44Z</time></trkpt><trkpt lat="47.238754" lon="13.129436"><ele>1598.81</ele><time>2010-06-26T11:32:11Z</time></trkpt><trkpt lat="47.238749" lon="13.129437"><ele>1599.29</ele><time>2010-06-26T11:35:17Z</time></trkpt><trkpt lat="47.238750" lon="13.129437"><ele>1598.81</ele><time>2010-06-26T11:35:50Z</time></trkpt><trkpt lat="47.238749" lon="13.129435"><ele>1597.85</ele><time>2010-06-26T11:36:53Z</time></trkpt><trkpt lat="47.238750" lon="13.129429"><ele>1599.29</ele><time>2010-06-26T11:38:45Z</time></trkpt><trkpt lat="47.238750" lon="13.129429"><ele>1598.81</ele><time>2010-06-26T11:38:55Z</time></trkpt><trkpt lat="47.238751" lon="13.129412"><ele>1599.29</ele><time>2010-06-26T11:40:19Z</time></trkpt><trkpt lat="47.238758" lon="13.129397"><ele>1597.85</ele><time>2010-06-26T11:41:27Z</time></trkpt><trkpt lat="47.238758" lon="13.129397"><ele>1599.29</ele><time>2010-06-26T11:41:34Z</time></trkpt><trkpt lat="47.238757" lon="13.129397"><ele>1599.29</ele><time>2010-06-26T11:42:03Z</time></trkpt><trkpt lat="47.238756" lon="13.129400"><ele>1599.29</ele><time>2010-06-26T11:42:39Z</time></trkpt><trkpt lat="47.238752" lon="13.129409"><ele>1597.85</ele><time>2010-06-26T11:43:00Z</time></trkpt><trkpt lat="47.238744" lon="13.129411"><ele>1601.21</ele><time>2010-06-26T11:43:43Z</time></trkpt><trkpt lat="47.238744" lon="13.129411"><ele>1597.85</ele><time>2010-06-26T11:43:50Z</time></trkpt><trkpt lat="47.238742" lon="13.129412"><ele>1598.33</ele><time>2010-06-26T11:44:16Z</time></trkpt><trkpt lat="47.238742" lon="13.129412"><ele>1598.33</ele><time>2010-06-26T11:44:26Z</time></trkpt><trkpt lat="47.238743" lon="13.129410"><ele>1600.25</ele><time>2010-06-26T11:45:16Z</time></trkpt><trkpt lat="47.238743" lon="13.129410"><ele>1598.81</ele><time>2010-06-26T11:45:18Z</time></trkpt><trkpt lat="47.238743" lon="13.129410"><ele>1600.25</ele><time>2010-06-26T11:45:21Z</time></trkpt><trkpt lat="47.238743" lon="13.129410"><ele>1598.33</ele><time>2010-06-26T11:45:23Z</time></trkpt><trkpt lat="47.238743" lon="13.129410"><ele>1599.77</ele><time>2010-06-26T11:45:32Z</time></trkpt><trkpt lat="47.238743" lon="13.129409"><ele>1598.33</ele><time>2010-06-26T11:45:41Z</time></trkpt><trkpt lat="47.238743" lon="13.129409"><ele>1599.77</ele><time>2010-06-26T11:45:43Z</time></trkpt><trkpt lat="47.238726" lon="13.129420"><ele>1596.41</ele><time>2010-06-26T11:46:39Z</time></trkpt><trkpt lat="47.238724" lon="13.129420"><ele>1597.85</ele><time>2010-06-26T11:47:14Z</time></trkpt><trkpt lat="47.238724" lon="13.129420"><ele>1598.33</ele><time>2010-06-26T11:47:45Z</time></trkpt><trkpt lat="47.238722" lon="13.129419"><ele>1599.29</ele><time>2010-06-26T11:48:01Z</time></trkpt><trkpt lat="47.238722" lon="13.129419"><ele>1599.29</ele><time>2010-06-26T11:48:08Z</time></trkpt><trkpt lat="47.238712" lon="13.129417"><ele>1599.29</ele><time>2010-06-26T11:49:14Z</time></trkpt><trkpt lat="47.238698" lon="13.129426"><ele>1600.73</ele><time>2010-06-26T11:53:24Z</time></trkpt><trkpt lat="47.238698" lon="13.129426"><ele>1599.29</ele><time>2010-06-26T11:53:26Z</time></trkpt><trkpt lat="47.238698" lon="13.129426"><ele>1599.29</ele><time>2010-06-26T11:53:33Z</time></trkpt><trkpt lat="47.238701" lon="13.129425"><ele>1598.81</ele><time>2010-06-26T11:53:55Z</time></trkpt><trkpt lat="47.238701" lon="13.129425"><ele>1599.77</ele><time>2010-06-26T11:54:22Z</time></trkpt><trkpt lat="47.238708" lon="13.129414"><ele>1597.85</ele><time>2010-06-26T11:54:45Z</time></trkpt><trkpt lat="47.238708" lon="13.129414"><ele>1598.81</ele><time>2010-06-26T11:54:59Z</time></trkpt><trkpt lat="47.238709" lon="13.129413"><ele>1598.81</ele><time>2010-06-26T11:55:10Z</time></trkpt><trkpt lat="47.238711" lon="13.129411"><ele>1599.77</ele><time>2010-06-26T11:56:02Z</time></trkpt><trkpt lat="47.238713" lon="13.129422"><ele>1600.25</ele><time>2010-06-26T11:59:01Z</time></trkpt><trkpt lat="47.238720" lon="13.129432"><ele>1597.85</ele><time>2010-06-26T11:59:10Z</time></trkpt><trkpt lat="47.238721" lon="13.129431"><ele>1599.29</ele><time>2010-06-26T12:00:10Z</time></trkpt><trkpt lat="47.238725" lon="13.129377"><ele>1600.73</ele><time>2010-06-26T12:00:54Z</time></trkpt><trkpt lat="47.238711" lon="13.129348"><ele>1601.21</ele><time>2010-06-26T12:01:13Z</time></trkpt><trkpt lat="47.238694" lon="13.129304"><ele>1599.77</ele><time>2010-06-26T12:01:19Z</time></trkpt><trkpt lat="47.238685" lon="13.129212"><ele>1599.77</ele><time>2010-06-26T12:01:31Z</time></trkpt><trkpt lat="47.238685" lon="13.129212"><ele>1598.81</ele><time>2010-06-26T12:01:37Z</time></trkpt><trkpt lat="47.238677" lon="13.129205"><ele>1599.29</ele><time>2010-06-26T12:01:45Z</time></trkpt><trkpt lat="47.238603" lon="13.129168"><ele>1598.81</ele><time>2010-06-26T12:02:01Z</time></trkpt><trkpt lat="47.238603" lon="13.129168"><ele>1600.25</ele><time>2010-06-26T12:02:03Z</time></trkpt><trkpt lat="47.238620" lon="13.129166"><ele>1599.77</ele><time>2010-06-26T12:02:19Z</time></trkpt><trkpt lat="47.238620" lon="13.129166"><ele>1598.81</ele><time>2010-06-26T12:02:22Z</time></trkpt><trkpt lat="47.238614" lon="13.129161"><ele>1599.77</ele><time>2010-06-26T12:03:22Z</time></trkpt><trkpt lat="47.238612" lon="13.129167"><ele>1599.77</ele><time>2010-06-26T12:04:08Z</time></trkpt><trkpt lat="47.238612" lon="13.129167"><ele>1600.25</ele><time>2010-06-26T12:04:24Z</time></trkpt><trkpt lat="47.238605" lon="13.129157"><ele>1598.33</ele><time>2010-06-26T12:04:28Z</time></trkpt><trkpt lat="47.238542" lon="13.129127"><ele>1599.77</ele><time>2010-06-26T12:04:39Z</time></trkpt><trkpt lat="47.238494" lon="13.129087"><ele>1600.25</ele><time>2010-06-26T12:04:48Z</time></trkpt><trkpt lat="47.238493" lon="13.129095"><ele>1600.25</ele><time>2010-06-26T12:05:15Z</time></trkpt><trkpt lat="47.238498" lon="13.129090"><ele>1599.29</ele><time>2010-06-26T12:05:17Z</time></trkpt><trkpt lat="47.238517" lon="13.128990"><ele>1599.29</ele><time>2010-06-26T12:05:23Z</time></trkpt><trkpt lat="47.238541" lon="13.128920"><ele>1599.29</ele><time>2010-06-26T12:05:41Z</time></trkpt><trkpt lat="47.238541" lon="13.128920"><ele>1598.81</ele><time>2010-06-26T12:05:47Z</time></trkpt><trkpt lat="47.238541" lon="13.128920"><ele>1601.21</ele><time>2010-06-26T12:06:01Z</time></trkpt><trkpt lat="47.238531" lon="13.128922"><ele>1600.25</ele><time>2010-06-26T12:06:02Z</time></trkpt><trkpt lat="47.238509" lon="13.128974"><ele>1598.81</ele><time>2010-06-26T12:06:08Z</time></trkpt><trkpt lat="47.238491" lon="13.128993"><ele>1600.73</ele><time>2010-06-26T12:06:10Z</time></trkpt><trkpt lat="47.238443" lon="13.129045"><ele>1599.29</ele><time>2010-06-26T12:06:17Z</time></trkpt><trkpt lat="47.238396" lon="13.129034"><ele>1598.81</ele><time>2010-06-26T12:06:27Z</time></trkpt><trkpt lat="47.238374" lon="13.129028"><ele>1597.85</ele><time>2010-06-26T12:06:31Z</time></trkpt><trkpt lat="47.238356" lon="13.129038"><ele>1600.25</ele><time>2010-06-26T12:06:33Z</time></trkpt><trkpt lat="47.238351" lon="13.129042"><ele>1599.29</ele><time>2010-06-26T12:06:34Z</time></trkpt><trkpt lat="47.238290" lon="13.129113"><ele>1599.29</ele><time>2010-06-26T12:06:44Z</time></trkpt><trkpt lat="47.238284" lon="13.129117"><ele>1598.81</ele><time>2010-06-26T12:07:03Z</time></trkpt><trkpt lat="47.238284" lon="13.129117"><ele>1598.33</ele><time>2010-06-26T12:07:53Z</time></trkpt><trkpt lat="47.238284" lon="13.129117"><ele>1600.73</ele><time>2010-06-26T12:07:57Z</time></trkpt><trkpt lat="47.238284" lon="13.129117"><ele>1598.33</ele><time>2010-06-26T12:08:05Z</time></trkpt><trkpt lat="47.238280" lon="13.129122"><ele>1598.33</ele><time>2010-06-26T12:08:35Z</time></trkpt><trkpt lat="47.238280" lon="13.129122"><ele>1598.81</ele><time>2010-06-26T12:08:36Z</time></trkpt><trkpt lat="47.238280" lon="13.129122"><ele>1601.69</ele><time>2010-06-26T12:08:47Z</time></trkpt><trkpt lat="47.238272" lon="13.129121"><ele>1598.33</ele><time>2010-06-26T12:08:50Z</time></trkpt><trkpt lat="47.238258" lon="13.129129"><ele>1598.33</ele><time>2010-06-26T12:09:00Z</time></trkpt><trkpt lat="47.238258" lon="13.129129"><ele>1599.77</ele><time>2010-06-26T12:09:04Z</time></trkpt><trkpt lat="47.238236" lon="13.129156"><ele>1598.81</ele><time>2010-06-26T12:09:17Z</time></trkpt><trkpt lat="47.238215" lon="13.129218"><ele>1598.81</ele><time>2010-06-26T12:09:27Z</time></trkpt><trkpt lat="47.238134" lon="13.129344"><ele>1599.29</ele><time>2010-06-26T12:09:37Z</time></trkpt><trkpt lat="47.238038" lon="13.129490"><ele>1600.25</ele><time>2010-06-26T12:09:47Z</time></trkpt><trkpt lat="47.238013" lon="13.129520"><ele>1598.81</ele><time>2010-06-26T12:09:50Z</time></trkpt><trkpt lat="47.237940" lon="13.129608"><ele>1600.73</ele><time>2010-06-26T12:09:59Z</time></trkpt><trkpt lat="47.237860" lon="13.129721"><ele>1600.73</ele><time>2010-06-26T12:10:10Z</time></trkpt><trkpt lat="47.237826" lon="13.129782"><ele>1603.62</ele><time>2010-06-26T12:10:15Z</time></trkpt><trkpt lat="47.237812" lon="13.129789"><ele>1599.77</ele><time>2010-06-26T12:10:16Z</time></trkpt><trkpt lat="47.237803" lon="13.129795"><ele>1602.17</ele><time>2010-06-26T12:10:17Z</time></trkpt><trkpt lat="47.237740" lon="13.129846"><ele>1604.10</ele><time>2010-06-26T12:10:26Z</time></trkpt><trkpt lat="47.237654" lon="13.129931"><ele>1605.06</ele><time>2010-06-26T12:10:36Z</time></trkpt><trkpt lat="47.237548" lon="13.129991"><ele>1604.58</ele><time>2010-06-26T12:10:46Z</time></trkpt><trkpt lat="47.237543" lon="13.129992"><ele>1602.66</ele><time>2010-06-26T12:10:47Z</time></trkpt><trkpt lat="47.237444" lon="13.130037"><ele>1605.54</ele><time>2010-06-26T12:10:58Z</time></trkpt><trkpt lat="47.237393" lon="13.130058"><ele>1608.42</ele><time>2010-06-26T12:11:03Z</time></trkpt><trkpt lat="47.237356" lon="13.130062"><ele>1607.46</ele><time>2010-06-26T12:11:07Z</time></trkpt><trkpt lat="47.237278" lon="13.130078"><ele>1607.46</ele><time>2010-06-26T12:11:15Z</time></trkpt><trkpt lat="47.237173" lon="13.130124"><ele>1607.46</ele><time>2010-06-26T12:11:27Z</time></trkpt><trkpt lat="47.237122" lon="13.130113"><ele>1608.42</ele><time>2010-06-26T12:11:42Z</time></trkpt><trkpt lat="47.237125" lon="13.130140"><ele>1602.66</ele><time>2010-06-26T12:11:56Z</time></trkpt><trkpt lat="47.237125" lon="13.130139"><ele>1607.94</ele><time>2010-06-26T12:11:57Z</time></trkpt><trkpt lat="47.237097" lon="13.130127"><ele>1608.42</ele><time>2010-06-26T12:12:07Z</time></trkpt><trkpt lat="47.237069" lon="13.130134"><ele>1606.98</ele><time>2010-06-26T12:12:11Z</time></trkpt><trkpt lat="47.237002" lon="13.130145"><ele>1605.54</ele><time>2010-06-26T12:12:21Z</time></trkpt><trkpt lat="47.237002" lon="13.130145"><ele>1607.46</ele><time>2010-06-26T12:12:24Z</time></trkpt><trkpt lat="47.237002" lon="13.130145"><ele>1608.90</ele><time>2010-06-26T12:12:28Z</time></trkpt><trkpt lat="47.236999" lon="13.130148"><ele>1607.46</ele><time>2010-06-26T12:12:31Z</time></trkpt><trkpt lat="47.236940" lon="13.130161"><ele>1607.94</ele><time>2010-06-26T12:12:40Z</time></trkpt><trkpt lat="47.236897" lon="13.130122"><ele>1610.35</ele><time>2010-06-26T12:12:48Z</time></trkpt><trkpt lat="47.236868" lon="13.130097"><ele>1610.35</ele><time>2010-06-26T12:12:53Z</time></trkpt><trkpt lat="47.236824" lon="13.130069"><ele>1611.79</ele><time>2010-06-26T12:13:01Z</time></trkpt><trkpt lat="47.236814" lon="13.130059"><ele>1613.71</ele><time>2010-06-26T12:13:04Z</time></trkpt><trkpt lat="47.236739" lon="13.130030"><ele>1613.71</ele><time>2010-06-26T12:13:14Z</time></trkpt><trkpt lat="47.236688" lon="13.130024"><ele>1613.23</ele><time>2010-06-26T12:13:19Z</time></trkpt><trkpt lat="47.236643" lon="13.130022"><ele>1616.11</ele><time>2010-06-26T12:13:23Z</time></trkpt><trkpt lat="47.236598" lon="13.130044"><ele>1615.63</ele><time>2010-06-26T12:13:31Z</time></trkpt><trkpt lat="47.236606" lon="13.130100"><ele>1617.07</ele><time>2010-06-26T12:13:39Z</time></trkpt><trkpt lat="47.236573" lon="13.130124"><ele>1617.07</ele><time>2010-06-26T12:13:47Z</time></trkpt><trkpt lat="47.236540" lon="13.130132"><ele>1619.96</ele><time>2010-06-26T12:13:59Z</time></trkpt><trkpt lat="47.236520" lon="13.130181"><ele>1621.40</ele><time>2010-06-26T12:14:07Z</time></trkpt><trkpt lat="47.236518" lon="13.130194"><ele>1623.32</ele><time>2010-06-26T12:14:12Z</time></trkpt><trkpt lat="47.236510" lon="13.130200"><ele>1623.32</ele><time>2010-06-26T12:14:13Z</time></trkpt><trkpt lat="47.236487" lon="13.130222"><ele>1621.88</ele><time>2010-06-26T12:14:19Z</time></trkpt><trkpt lat="47.236475" lon="13.130290"><ele>1625.73</ele><time>2010-06-26T12:14:29Z</time></trkpt><trkpt lat="47.236422" lon="13.130333"><ele>1626.69</ele><time>2010-06-26T12:14:39Z</time></trkpt><trkpt lat="47.236370" lon="13.130414"><ele>1627.65</ele><time>2010-06-26T12:14:50Z</time></trkpt><trkpt lat="47.236359" lon="13.130434"><ele>1629.09</ele><time>2010-06-26T12:14:55Z</time></trkpt><trkpt lat="47.236330" lon="13.130481"><ele>1629.57</ele><time>2010-06-26T12:15:02Z</time></trkpt><trkpt lat="47.236320" lon="13.130495"><ele>1631.49</ele><time>2010-06-26T12:15:06Z</time></trkpt><trkpt lat="47.236315" lon="13.130501"><ele>1631.49</ele><time>2010-06-26T12:15:07Z</time></trkpt><trkpt lat="47.236298" lon="13.130532"><ele>1630.53</ele><time>2010-06-26T12:15:11Z</time></trkpt><trkpt lat="47.236269" lon="13.130617"><ele>1633.42</ele><time>2010-06-26T12:15:20Z</time></trkpt><trkpt lat="47.236263" lon="13.130664"><ele>1635.34</ele><time>2010-06-26T12:15:29Z</time></trkpt><trkpt lat="47.236260" lon="13.130673"><ele>1635.34</ele><time>2010-06-26T12:15:31Z</time></trkpt><trkpt lat="47.236225" lon="13.130734"><ele>1635.82</ele><time>2010-06-26T12:15:40Z</time></trkpt><trkpt lat="47.236198" lon="13.130786"><ele>1639.19</ele><time>2010-06-26T12:15:48Z</time></trkpt><trkpt lat="47.236198" lon="13.130786"><ele>1637.74</ele><time>2010-06-26T12:15:56Z</time></trkpt><trkpt lat="47.236180" lon="13.130857"><ele>1634.38</ele><time>2010-06-26T12:16:02Z</time></trkpt><trkpt lat="47.236177" lon="13.130870"><ele>1638.22</ele><time>2010-06-26T12:16:03Z</time></trkpt><trkpt lat="47.236175" lon="13.130877"><ele>1639.19</ele><time>2010-06-26T12:16:04Z</time></trkpt><trkpt lat="47.236166" lon="13.130924"><ele>1639.67</ele><time>2010-06-26T12:16:12Z</time></trkpt><trkpt lat="47.236152" lon="13.130961"><ele>1641.11</ele><time>2010-06-26T12:16:22Z</time></trkpt><trkpt lat="47.236152" lon="13.130964"><ele>1642.07</ele><time>2010-06-26T12:16:48Z</time></trkpt><trkpt lat="47.236145" lon="13.130989"><ele>1640.15</ele><time>2010-06-26T12:17:27Z</time></trkpt><trkpt lat="47.236083" lon="13.130991"><ele>1642.07</ele><time>2010-06-26T12:18:10Z</time></trkpt><trkpt lat="47.235988" lon="13.131026"><ele>1643.03</ele><time>2010-06-26T12:18:22Z</time></trkpt><trkpt lat="47.235955" lon="13.131029"><ele>1643.51</ele><time>2010-06-26T12:18:26Z</time></trkpt><trkpt lat="47.235846" lon="13.131056"><ele>1643.99</ele><time>2010-06-26T12:18:40Z</time></trkpt><trkpt lat="47.235736" lon="13.131090"><ele>1644.47</ele><time>2010-06-26T12:18:51Z</time></trkpt><trkpt lat="47.235626" lon="13.131090"><ele>1647.36</ele><time>2010-06-26T12:19:04Z</time></trkpt><trkpt lat="47.235584" lon="13.131089"><ele>1648.32</ele><time>2010-06-26T12:19:13Z</time></trkpt><trkpt lat="47.235465" lon="13.131064"><ele>1647.84</ele><time>2010-06-26T12:19:24Z</time></trkpt><trkpt lat="47.235390" lon="13.131047"><ele>1649.28</ele><time>2010-06-26T12:19:34Z</time></trkpt><trkpt lat="47.235329" lon="13.131039"><ele>1649.76</ele><time>2010-06-26T12:19:42Z</time></trkpt><trkpt lat="47.235279" lon="13.131027"><ele>1649.76</ele><time>2010-06-26T12:19:50Z</time></trkpt><trkpt lat="47.235159" lon="13.131008"><ele>1650.72</ele><time>2010-06-26T12:20:02Z</time></trkpt><trkpt lat="47.235098" lon="13.131004"><ele>1653.12</ele><time>2010-06-26T12:20:07Z</time></trkpt><trkpt lat="47.234987" lon="13.130955"><ele>1652.64</ele><time>2010-06-26T12:20:19Z</time></trkpt><trkpt lat="47.234950" lon="13.130944"><ele>1653.12</ele><time>2010-06-26T12:20:23Z</time></trkpt><trkpt lat="47.234859" lon="13.130874"><ele>1654.09</ele><time>2010-06-26T12:20:33Z</time></trkpt><trkpt lat="47.234768" lon="13.130809"><ele>1656.01</ele><time>2010-06-26T12:20:44Z</time></trkpt><trkpt lat="47.234718" lon="13.130777"><ele>1656.97</ele><time>2010-06-26T12:20:49Z</time></trkpt><trkpt lat="47.234700" lon="13.130736"><ele>1655.53</ele><time>2010-06-26T12:20:52Z</time></trkpt><trkpt lat="47.234685" lon="13.130717"><ele>1656.01</ele><time>2010-06-26T12:20:54Z</time></trkpt><trkpt lat="47.234550" lon="13.130628"><ele>1657.93</ele><time>2010-06-26T12:21:06Z</time></trkpt><trkpt lat="47.234469" lon="13.130545"><ele>1658.89</ele><time>2010-06-26T12:21:16Z</time></trkpt><trkpt lat="47.234376" lon="13.130454"><ele>1658.89</ele><time>2010-06-26T12:21:26Z</time></trkpt><trkpt lat="47.234332" lon="13.130422"><ele>1660.81</ele><time>2010-06-26T12:21:30Z</time></trkpt><trkpt lat="47.234308" lon="13.130396"><ele>1661.30</ele><time>2010-06-26T12:21:33Z</time></trkpt><trkpt lat="47.234239" lon="13.130323"><ele>1661.78</ele><time>2010-06-26T12:21:42Z</time></trkpt><trkpt lat="47.234157" lon="13.130217"><ele>1664.18</ele><time>2010-06-26T12:21:52Z</time></trkpt><trkpt lat="47.234098" lon="13.130141"><ele>1664.66</ele><time>2010-06-26T12:22:00Z</time></trkpt><trkpt lat="47.234077" lon="13.130060"><ele>1665.62</ele><time>2010-06-26T12:22:09Z</time></trkpt><trkpt lat="47.234070" lon="13.130031"><ele>1665.62</ele><time>2010-06-26T12:22:12Z</time></trkpt><trkpt lat="47.233990" lon="13.129902"><ele>1667.06</ele><time>2010-06-26T12:22:26Z</time></trkpt><trkpt lat="47.233921" lon="13.129820"><ele>1669.95</ele><time>2010-06-26T12:22:37Z</time></trkpt><trkpt lat="47.233862" lon="13.129803"><ele>1668.99</ele><time>2010-06-26T12:22:43Z</time></trkpt><trkpt lat="47.233769" lon="13.129765"><ele>1670.43</ele><time>2010-06-26T12:22:52Z</time></trkpt><trkpt lat="47.233721" lon="13.129711"><ele>1670.43</ele><time>2010-06-26T12:23:01Z</time></trkpt><trkpt lat="47.233639" lon="13.129687"><ele>1671.87</ele><time>2010-06-26T12:23:11Z</time></trkpt><trkpt lat="47.233617" lon="13.129670"><ele>1671.39</ele><time>2010-06-26T12:23:30Z</time></trkpt><trkpt lat="47.233565" lon="13.129638"><ele>1673.79</ele><time>2010-06-26T12:23:40Z</time></trkpt><trkpt lat="47.233531" lon="13.129625"><ele>1674.27</ele><time>2010-06-26T12:23:44Z</time></trkpt><trkpt lat="47.233502" lon="13.129598"><ele>1674.27</ele><time>2010-06-26T12:23:47Z</time></trkpt><trkpt lat="47.233422" lon="13.129556"><ele>1675.23</ele><time>2010-06-26T12:23:56Z</time></trkpt><trkpt lat="47.233347" lon="13.129511"><ele>1676.20</ele><time>2010-06-26T12:24:06Z</time></trkpt><trkpt lat="47.233255" lon="13.129447"><ele>1678.12</ele><time>2010-06-26T12:24:16Z</time></trkpt><trkpt lat="47.233236" lon="13.129428"><ele>1678.12</ele><time>2010-06-26T12:24:19Z</time></trkpt><trkpt lat="47.233139" lon="13.129331"><ele>1679.08</ele><time>2010-06-26T12:24:31Z</time></trkpt><trkpt lat="47.233031" lon="13.129251"><ele>1681.48</ele><time>2010-06-26T12:24:43Z</time></trkpt><trkpt lat="47.232972" lon="13.129203"><ele>1682.44</ele><time>2010-06-26T12:24:56Z</time></trkpt><trkpt lat="47.232927" lon="13.129130"><ele>1682.93</ele><time>2010-06-26T12:25:48Z</time></trkpt><trkpt lat="47.232887" lon="13.129083"><ele>1683.89</ele><time>2010-06-26T12:25:53Z</time></trkpt><trkpt lat="47.232847" lon="13.129042"><ele>1684.85</ele><time>2010-06-26T12:25:59Z</time></trkpt><trkpt lat="47.232845" lon="13.129020"><ele>1684.85</ele><time>2010-06-26T12:26:01Z</time></trkpt><trkpt lat="47.232779" lon="13.128943"><ele>1686.29</ele><time>2010-06-26T12:26:11Z</time></trkpt><trkpt lat="47.232758" lon="13.128932"><ele>1686.77</ele><time>2010-06-26T12:26:14Z</time></trkpt><trkpt lat="47.232695" lon="13.128886"><ele>1687.25</ele><time>2010-06-26T12:26:24Z</time></trkpt><trkpt lat="47.232653" lon="13.128866"><ele>1690.14</ele><time>2010-06-26T12:26:33Z</time></trkpt><trkpt lat="47.232561" lon="13.128871"><ele>1690.62</ele><time>2010-06-26T12:26:46Z</time></trkpt><trkpt lat="47.232462" lon="13.128880"><ele>1691.10</ele><time>2010-06-26T12:26:56Z</time></trkpt><trkpt lat="47.232443" lon="13.128888"><ele>1692.06</ele><time>2010-06-26T12:26:59Z</time></trkpt><trkpt lat="47.232393" lon="13.128919"><ele>1693.98</ele><time>2010-06-26T12:27:09Z</time></trkpt><trkpt lat="47.232332" lon="13.128956"><ele>1694.94</ele><time>2010-06-26T12:27:18Z</time></trkpt><trkpt lat="47.232262" lon="13.128978"><ele>1695.42</ele><time>2010-06-26T12:27:28Z</time></trkpt><trkpt lat="47.232202" lon="13.129025"><ele>1696.38</ele><time>2010-06-26T12:27:37Z</time></trkpt><trkpt lat="47.232154" lon="13.129084"><ele>1697.34</ele><time>2010-06-26T12:27:45Z</time></trkpt><trkpt lat="47.232154" lon="13.129093"><ele>1697.34</ele><time>2010-06-26T12:27:47Z</time></trkpt><trkpt lat="47.232162" lon="13.129154"><ele>1697.83</ele><time>2010-06-26T12:27:52Z</time></trkpt><trkpt lat="47.232175" lon="13.129231"><ele>1700.23</ele><time>2010-06-26T12:27:59Z</time></trkpt><trkpt lat="47.232218" lon="13.129324"><ele>1701.67</ele><time>2010-06-26T12:28:10Z</time></trkpt><trkpt lat="47.232245" lon="13.129408"><ele>1703.11</ele><time>2010-06-26T12:28:19Z</time></trkpt><trkpt lat="47.232275" lon="13.129462"><ele>1705.04</ele><time>2010-06-26T12:28:28Z</time></trkpt><trkpt lat="47.232307" lon="13.129517"><ele>1706.96</ele><time>2010-06-26T12:28:37Z</time></trkpt><trkpt lat="47.232348" lon="13.129587"><ele>1708.40</ele><time>2010-06-26T12:28:46Z</time></trkpt><trkpt lat="47.232365" lon="13.129624"><ele>1709.36</ele><time>2010-06-26T12:28:51Z</time></trkpt><trkpt lat="47.232367" lon="13.129641"><ele>1709.36</ele><time>2010-06-26T12:28:54Z</time></trkpt><trkpt lat="47.232409" lon="13.129720"><ele>1710.32</ele><time>2010-06-26T12:29:03Z</time></trkpt><trkpt lat="47.232418" lon="13.129756"><ele>1713.21</ele><time>2010-06-26T12:29:09Z</time></trkpt><trkpt lat="47.232450" lon="13.129815"><ele>1714.65</ele><time>2010-06-26T12:29:17Z</time></trkpt><trkpt lat="47.232462" lon="13.129835"><ele>1713.69</ele><time>2010-06-26T12:29:20Z</time></trkpt><trkpt lat="47.232506" lon="13.129943"><ele>1714.65</ele><time>2010-06-26T12:29:29Z</time></trkpt><trkpt lat="47.232537" lon="13.130024"><ele>1716.09</ele><time>2010-06-26T12:29:38Z</time></trkpt><trkpt lat="47.232570" lon="13.130121"><ele>1716.57</ele><time>2010-06-26T12:29:46Z</time></trkpt><trkpt lat="47.232587" lon="13.130216"><ele>1718.49</ele><time>2010-06-26T12:29:55Z</time></trkpt><trkpt lat="47.232628" lon="13.130348"><ele>1719.46</ele><time>2010-06-26T12:30:06Z</time></trkpt><trkpt lat="47.232694" lon="13.130467"><ele>1719.94</ele><time>2010-06-26T12:30:18Z</time></trkpt><trkpt lat="47.232749" lon="13.130570"><ele>1721.38</ele><time>2010-06-26T12:30:27Z</time></trkpt><trkpt lat="47.232784" lon="13.130701"><ele>1721.86</ele><time>2010-06-26T12:30:38Z</time></trkpt><trkpt lat="47.232814" lon="13.130784"><ele>1722.34</ele><time>2010-06-26T12:30:45Z</time></trkpt><trkpt lat="47.232842" lon="13.130914"><ele>1723.78</ele><time>2010-06-26T12:30:56Z</time></trkpt><trkpt lat="47.232874" lon="13.131045"><ele>1724.26</ele><time>2010-06-26T12:31:07Z</time></trkpt><trkpt lat="47.232886" lon="13.131058"><ele>1725.22</ele><time>2010-06-26T12:31:09Z</time></trkpt><trkpt lat="47.232979" lon="13.131168"><ele>1726.18</ele><time>2010-06-26T12:31:21Z</time></trkpt><trkpt lat="47.232999" lon="13.131188"><ele>1728.11</ele><time>2010-06-26T12:31:24Z</time></trkpt><trkpt lat="47.233025" lon="13.131236"><ele>1727.63</ele><time>2010-06-26T12:31:29Z</time></trkpt><trkpt lat="47.233062" lon="13.131250"><ele>1730.51</ele><time>2010-06-26T12:31:45Z</time></trkpt><trkpt lat="47.233064" lon="13.131249"><ele>1729.07</ele><time>2010-06-26T12:32:23Z</time></trkpt><trkpt lat="47.233068" lon="13.131265"><ele>1729.55</ele><time>2010-06-26T12:34:14Z</time></trkpt><trkpt lat="47.233140" lon="13.131366"><ele>1730.03</ele><time>2010-06-26T12:34:26Z</time></trkpt><trkpt lat="47.233169" lon="13.131488"><ele>1731.95</ele><time>2010-06-26T12:34:36Z</time></trkpt><trkpt lat="47.233194" lon="13.131568"><ele>1733.88</ele><time>2010-06-26T12:34:47Z</time></trkpt><trkpt lat="47.233208" lon="13.131620"><ele>1735.80</ele><time>2010-06-26T12:34:55Z</time></trkpt><trkpt lat="47.233233" lon="13.131692"><ele>1736.28</ele><time>2010-06-26T12:35:05Z</time></trkpt><trkpt lat="47.233233" lon="13.131729"><ele>1739.64</ele><time>2010-06-26T12:35:10Z</time></trkpt><trkpt lat="47.233249" lon="13.131800"><ele>1741.08</ele><time>2010-06-26T12:35:19Z</time></trkpt><trkpt lat="47.233274" lon="13.131927"><ele>1741.57</ele><time>2010-06-26T12:35:30Z</time></trkpt><trkpt lat="47.233289" lon="13.132050"><ele>1743.01</ele><time>2010-06-26T12:35:41Z</time></trkpt><trkpt lat="47.233296" lon="13.132127"><ele>1743.97</ele><time>2010-06-26T12:35:48Z</time></trkpt><trkpt lat="47.233321" lon="13.132242"><ele>1744.93</ele><time>2010-06-26T12:35:57Z</time></trkpt><trkpt lat="47.233334" lon="13.132344"><ele>1746.37</ele><time>2010-06-26T12:36:07Z</time></trkpt><trkpt lat="47.233345" lon="13.132406"><ele>1748.29</ele><time>2010-06-26T12:36:13Z</time></trkpt><trkpt lat="47.233344" lon="13.132458"><ele>1750.22</ele><time>2010-06-26T12:36:18Z</time></trkpt><trkpt lat="47.233379" lon="13.132568"><ele>1751.66</ele><time>2010-06-26T12:36:28Z</time></trkpt><trkpt lat="47.233403" lon="13.132676"><ele>1752.14</ele><time>2010-06-26T12:36:39Z</time></trkpt><trkpt lat="47.233410" lon="13.132736"><ele>1752.14</ele><time>2010-06-26T12:36:44Z</time></trkpt><trkpt lat="47.233416" lon="13.132857"><ele>1752.62</ele><time>2010-06-26T12:36:56Z</time></trkpt><trkpt lat="47.233403" lon="13.132899"><ele>1754.06</ele><time>2010-06-26T12:36:59Z</time></trkpt><trkpt lat="47.233412" lon="13.132936"><ele>1755.02</ele><time>2010-06-26T12:37:02Z</time></trkpt><trkpt lat="47.233430" lon="13.132979"><ele>1755.99</ele><time>2010-06-26T12:37:07Z</time></trkpt><trkpt lat="47.233453" lon="13.133066"><ele>1756.47</ele><time>2010-06-26T12:37:16Z</time></trkpt><trkpt lat="47.233478" lon="13.133141"><ele>1757.91</ele><time>2010-06-26T12:37:23Z</time></trkpt><trkpt lat="47.233482" lon="13.133160"><ele>1759.35</ele><time>2010-06-26T12:37:27Z</time></trkpt><trkpt lat="47.233542" lon="13.133269"><ele>1760.31</ele><time>2010-06-26T12:37:35Z</time></trkpt><trkpt lat="47.233547" lon="13.133277"><ele>1760.31</ele><time>2010-06-26T12:37:36Z</time></trkpt><trkpt lat="47.233583" lon="13.133359"><ele>1762.23</ele><time>2010-06-26T12:37:43Z</time></trkpt><trkpt lat="47.233616" lon="13.133461"><ele>1760.31</ele><time>2010-06-26T12:37:58Z</time></trkpt><trkpt lat="47.233650" lon="13.133548"><ele>1761.27</ele><time>2010-06-26T12:38:08Z</time></trkpt><trkpt lat="47.233692" lon="13.133616"><ele>1768.00</ele><time>2010-06-26T12:38:17Z</time></trkpt><trkpt lat="47.233663" lon="13.133589"><ele>1738.20</ele><time>2010-06-26T12:38:19Z</time></trkpt><trkpt lat="47.233645" lon="13.133577"><ele>1768.48</ele><time>2010-06-26T12:38:20Z</time></trkpt><trkpt lat="47.233627" lon="13.133563"><ele>1767.52</ele><time>2010-06-26T12:38:21Z</time></trkpt><trkpt lat="47.233610" lon="13.133550"><ele>1761.75</ele><time>2010-06-26T12:38:22Z</time></trkpt><trkpt lat="47.233592" lon="13.133535"><ele>1757.91</ele><time>2010-06-26T12:38:23Z</time></trkpt><trkpt lat="47.233574" lon="13.133522"><ele>1761.27</ele><time>2010-06-26T12:38:24Z</time></trkpt><trkpt lat="47.233557" lon="13.133508"><ele>1763.20</ele><time>2010-06-26T12:38:25Z</time></trkpt><trkpt lat="47.233539" lon="13.133494"><ele>1765.12</ele><time>2010-06-26T12:38:26Z</time></trkpt><trkpt lat="47.233521" lon="13.133481"><ele>1773.77</ele><time>2010-06-26T12:38:27Z</time></trkpt><trkpt lat="47.233532" lon="13.133486"><ele>1768.48</ele><time>2010-06-26T12:38:28Z</time></trkpt><trkpt lat="47.233536" lon="13.133493"><ele>1773.77</ele><time>2010-06-26T12:38:29Z</time></trkpt><trkpt lat="47.233550" lon="13.133514"><ele>1764.16</ele><time>2010-06-26T12:38:30Z</time></trkpt><trkpt lat="47.233683" lon="13.133649"><ele>1762.71</ele><time>2010-06-26T12:38:42Z</time></trkpt><trkpt lat="47.233675" lon="13.133652"><ele>1764.64</ele><time>2010-06-26T12:38:49Z</time></trkpt><trkpt lat="47.233669" lon="13.133654"><ele>1737.24</ele><time>2010-06-26T12:38:51Z</time></trkpt><trkpt lat="47.233681" lon="13.133649"><ele>1763.68</ele><time>2010-06-26T12:38:53Z</time></trkpt><trkpt lat="47.233695" lon="13.133663"><ele>1762.71</ele><time>2010-06-26T12:38:55Z</time></trkpt><trkpt lat="47.233701" lon="13.133691"><ele>1763.68</ele><time>2010-06-26T12:38:58Z</time></trkpt><trkpt lat="47.233710" lon="13.133813"><ele>1767.52</ele><time>2010-06-26T12:39:10Z</time></trkpt><trkpt lat="47.233710" lon="13.133822"><ele>1766.56</ele><time>2010-06-26T12:39:11Z</time></trkpt><trkpt lat="47.233704" lon="13.133830"><ele>1767.04</ele><time>2010-06-26T12:39:37Z</time></trkpt><trkpt lat="47.233677" lon="13.133834"><ele>1764.16</ele><time>2010-06-26T12:39:39Z</time></trkpt><trkpt lat="47.233668" lon="13.133842"><ele>1770.89</ele><time>2010-06-26T12:39:40Z</time></trkpt><trkpt lat="47.233660" lon="13.133803"><ele>1766.56</ele><time>2010-06-26T12:39:50Z</time></trkpt><trkpt lat="47.233661" lon="13.133800"><ele>1774.25</ele><time>2010-06-26T12:40:01Z</time></trkpt><trkpt lat="47.233661" lon="13.133800"><ele>1767.52</ele><time>2010-06-26T12:40:02Z</time></trkpt><trkpt lat="47.233668" lon="13.133799"><ele>1764.64</ele><time>2010-06-26T12:40:05Z</time></trkpt><trkpt lat="47.233668" lon="13.133799"><ele>1760.31</ele><time>2010-06-26T12:40:42Z</time></trkpt><trkpt lat="47.233668" lon="13.133799"><ele>1766.08</ele><time>2010-06-26T12:40:43Z</time></trkpt><trkpt lat="47.233668" lon="13.133802"><ele>1765.60</ele><time>2010-06-26T12:40:44Z</time></trkpt><trkpt lat="47.233688" lon="13.133828"><ele>1766.56</ele><time>2010-06-26T12:41:12Z</time></trkpt><trkpt lat="47.233666" lon="13.133821"><ele>1767.52</ele><time>2010-06-26T12:41:18Z</time></trkpt><trkpt lat="47.233682" lon="13.133859"><ele>1762.71</ele><time>2010-06-26T12:41:23Z</time></trkpt><trkpt lat="47.233682" lon="13.133859"><ele>1762.71</ele><time>2010-06-26T12:41:24Z</time></trkpt><trkpt lat="47.233682" lon="13.133859"><ele>1767.04</ele><time>2010-06-26T12:41:25Z</time></trkpt><trkpt lat="47.233682" lon="13.133859"><ele>1765.12</ele><time>2010-06-26T12:41:26Z</time></trkpt><trkpt lat="47.233682" lon="13.133859"><ele>1776.65</ele><time>2010-06-26T12:41:29Z</time></trkpt><trkpt lat="47.233676" lon="13.133859"><ele>1769.92</ele><time>2010-06-26T12:41:30Z</time></trkpt><trkpt lat="47.233669" lon="13.133866"><ele>1766.56</ele><time>2010-06-26T12:41:33Z</time></trkpt><trkpt lat="47.233684" lon="13.133900"><ele>1766.08</ele><time>2010-06-26T12:41:48Z</time></trkpt><trkpt lat="47.233708" lon="13.133929"><ele>1768.00</ele><time>2010-06-26T12:41:53Z</time></trkpt><trkpt lat="47.233740" lon="13.133900"><ele>1767.04</ele><time>2010-06-26T12:42:02Z</time></trkpt><trkpt lat="47.233734" lon="13.133858"><ele>1765.60</ele><time>2010-06-26T12:42:09Z</time></trkpt><trkpt lat="47.233731" lon="13.133857"><ele>1766.08</ele><time>2010-06-26T12:42:10Z</time></trkpt><trkpt lat="47.233715" lon="13.133851"><ele>1767.04</ele><time>2010-06-26T12:42:14Z</time></trkpt><trkpt lat="47.233677" lon="13.133901"><ele>1765.12</ele><time>2010-06-26T12:42:24Z</time></trkpt><trkpt lat="47.233679" lon="13.133915"><ele>1765.12</ele><time>2010-06-26T12:42:40Z</time></trkpt><trkpt lat="47.233692" lon="13.133917"><ele>1765.60</ele><time>2010-06-26T12:42:59Z</time></trkpt><trkpt lat="47.233731" lon="13.133937"><ele>1766.56</ele><time>2010-06-26T12:43:02Z</time></trkpt><trkpt lat="47.233741" lon="13.133917"><ele>1766.08</ele><time>2010-06-26T12:43:21Z</time></trkpt><trkpt lat="47.233740" lon="13.133923"><ele>1766.56</ele><time>2010-06-26T12:43:27Z</time></trkpt><trkpt lat="47.233746" lon="13.133912"><ele>1761.27</ele><time>2010-06-26T12:43:29Z</time></trkpt><trkpt lat="47.233746" lon="13.133912"><ele>1764.16</ele><time>2010-06-26T12:43:30Z</time></trkpt><trkpt lat="47.233741" lon="13.133922"><ele>1767.52</ele><time>2010-06-26T12:43:31Z</time></trkpt><trkpt lat="47.233735" lon="13.133938"><ele>1766.56</ele><time>2010-06-26T12:43:32Z</time></trkpt><trkpt lat="47.233732" lon="13.133948"><ele>1767.04</ele><time>2010-06-26T12:43:33Z</time></trkpt><trkpt lat="47.233728" lon="13.133977"><ele>1765.12</ele><time>2010-06-26T12:43:35Z</time></trkpt><trkpt lat="47.233725" lon="13.134086"><ele>1768.48</ele><time>2010-06-26T12:43:42Z</time></trkpt><trkpt lat="47.233728" lon="13.134187"><ele>1767.52</ele><time>2010-06-26T12:43:51Z</time></trkpt><trkpt lat="47.233725" lon="13.134232"><ele>1768.96</ele><time>2010-06-26T12:43:54Z</time></trkpt><trkpt lat="47.233710" lon="13.134251"><ele>1770.89</ele><time>2010-06-26T12:43:57Z</time></trkpt><trkpt lat="47.233703" lon="13.134256"><ele>1767.04</ele><time>2010-06-26T12:44:00Z</time></trkpt><trkpt lat="47.233702" lon="13.134257"><ele>1770.41</ele><time>2010-06-26T12:44:01Z</time></trkpt><trkpt lat="47.233694" lon="13.134257"><ele>1769.44</ele><time>2010-06-26T12:44:13Z</time></trkpt><trkpt lat="47.233694" lon="13.134257"><ele>1771.37</ele><time>2010-06-26T12:44:34Z</time></trkpt><trkpt lat="47.233695" lon="13.134255"><ele>1771.85</ele><time>2010-06-26T12:45:24Z</time></trkpt><trkpt lat="47.233695" lon="13.134255"><ele>1772.33</ele><time>2010-06-26T12:45:37Z</time></trkpt><trkpt lat="47.233695" lon="13.134255"><ele>1770.89</ele><time>2010-06-26T12:45:39Z</time></trkpt><trkpt lat="47.233695" lon="13.134255"><ele>1771.85</ele><time>2010-06-26T12:45:41Z</time></trkpt><trkpt lat="47.233695" lon="13.134255"><ele>1770.89</ele><time>2010-06-26T12:45:51Z</time></trkpt><trkpt lat="47.233651" lon="13.134313"><ele>1772.81</ele><time>2010-06-26T12:46:25Z</time></trkpt><trkpt lat="47.233637" lon="13.134331"><ele>1768.96</ele><time>2010-06-26T12:46:27Z</time></trkpt><trkpt lat="47.233632" lon="13.134337"><ele>1774.25</ele><time>2010-06-26T12:46:28Z</time></trkpt><trkpt lat="47.233629" lon="13.134346"><ele>1769.92</ele><time>2010-06-26T12:46:29Z</time></trkpt><trkpt lat="47.233621" lon="13.134355"><ele>1774.73</ele><time>2010-06-26T12:46:30Z</time></trkpt><trkpt lat="47.233596" lon="13.134385"><ele>1777.61</ele><time>2010-06-26T12:46:36Z</time></trkpt><trkpt lat="47.233571" lon="13.134403"><ele>1778.10</ele><time>2010-06-26T12:46:42Z</time></trkpt><trkpt lat="47.233569" lon="13.134414"><ele>1781.46</ele><time>2010-06-26T12:46:44Z</time></trkpt><trkpt lat="47.233563" lon="13.134429"><ele>1777.13</ele><time>2010-06-26T12:46:45Z</time></trkpt><trkpt lat="47.233548" lon="13.134467"><ele>1780.02</ele><time>2010-06-26T12:46:48Z</time></trkpt><trkpt lat="47.233545" lon="13.134474"><ele>1783.38</ele><time>2010-06-26T12:46:50Z</time></trkpt><trkpt lat="47.233539" lon="13.134480"><ele>1782.42</ele><time>2010-06-26T12:46:51Z</time></trkpt><trkpt lat="47.233539" lon="13.134480"><ele>1780.50</ele><time>2010-06-26T12:46:52Z</time></trkpt><trkpt lat="47.233528" lon="13.134503"><ele>1777.61</ele><time>2010-06-26T12:46:56Z</time></trkpt><trkpt lat="47.233528" lon="13.134503"><ele>1782.90</ele><time>2010-06-26T12:46:57Z</time></trkpt><trkpt lat="47.233506" lon="13.134574"><ele>1783.86</ele><time>2010-06-26T12:47:07Z</time></trkpt><trkpt lat="47.233501" lon="13.134573"><ele>1780.50</ele><time>2010-06-26T12:47:08Z</time></trkpt><trkpt lat="47.233499" lon="13.134575"><ele>1787.23</ele><time>2010-06-26T12:47:09Z</time></trkpt><trkpt lat="47.233496" lon="13.134579"><ele>1785.31</ele><time>2010-06-26T12:47:10Z</time></trkpt><trkpt lat="47.233463" lon="13.134612"><ele>1788.67</ele><time>2010-06-26T12:47:20Z</time></trkpt><trkpt lat="47.233463" lon="13.134612"><ele>1788.67</ele><time>2010-06-26T12:47:21Z</time></trkpt><trkpt lat="47.233460" lon="13.134683"><ele>1789.15</ele><time>2010-06-26T12:47:31Z</time></trkpt><trkpt lat="47.233468" lon="13.134722"><ele>1792.03</ele><time>2010-06-26T12:47:41Z</time></trkpt><trkpt lat="47.233451" lon="13.134738"><ele>1794.44</ele><time>2010-06-26T12:47:45Z</time></trkpt><trkpt lat="47.233440" lon="13.134750"><ele>1793.48</ele><time>2010-06-26T12:47:47Z</time></trkpt><trkpt lat="47.233425" lon="13.134780"><ele>1793.48</ele><time>2010-06-26T12:47:51Z</time></trkpt><trkpt lat="47.233406" lon="13.134823"><ele>1793.96</ele><time>2010-06-26T12:47:55Z</time></trkpt><trkpt lat="47.233394" lon="13.134850"><ele>1794.92</ele><time>2010-06-26T12:47:57Z</time></trkpt><trkpt lat="47.233391" lon="13.134859"><ele>1792.03</ele><time>2010-06-26T12:47:58Z</time></trkpt><trkpt lat="47.233391" lon="13.134868"><ele>1794.92</ele><time>2010-06-26T12:47:59Z</time></trkpt><trkpt lat="47.233403" lon="13.134916"><ele>1797.32</ele><time>2010-06-26T12:48:08Z</time></trkpt><trkpt lat="47.233450" lon="13.134977"><ele>1800.21</ele><time>2010-06-26T12:48:15Z</time></trkpt><trkpt lat="47.233473" lon="13.135007"><ele>1794.44</ele><time>2010-06-26T12:48:18Z</time></trkpt><trkpt lat="47.233480" lon="13.135017"><ele>1798.28</ele><time>2010-06-26T12:48:19Z</time></trkpt><trkpt lat="47.233521" lon="13.135200"><ele>1799.24</ele><time>2010-06-26T12:48:30Z</time></trkpt><trkpt lat="47.233552" lon="13.135311"><ele>1799.24</ele><time>2010-06-26T12:48:39Z</time></trkpt><trkpt lat="47.233567" lon="13.135401"><ele>1799.73</ele><time>2010-06-26T12:48:45Z</time></trkpt><trkpt lat="47.233648" lon="13.135448"><ele>1797.80</ele><time>2010-06-26T12:48:54Z</time></trkpt><trkpt lat="47.233631" lon="13.135438"><ele>1802.13</ele><time>2010-06-26T12:49:01Z</time></trkpt><trkpt lat="47.233609" lon="13.135439"><ele>1802.13</ele><time>2010-06-26T12:49:22Z</time></trkpt><trkpt lat="47.233554" lon="13.135441"><ele>1803.09</ele><time>2010-06-26T12:49:33Z</time></trkpt><trkpt lat="47.233536" lon="13.135493"><ele>1803.57</ele><time>2010-06-26T12:49:44Z</time></trkpt><trkpt lat="47.233529" lon="13.135522"><ele>1805.97</ele><time>2010-06-26T12:49:47Z</time></trkpt><trkpt lat="47.233530" lon="13.135541"><ele>1805.01</ele><time>2010-06-26T12:49:49Z</time></trkpt><trkpt lat="47.233524" lon="13.135599"><ele>1807.42</ele><time>2010-06-26T12:49:54Z</time></trkpt><trkpt lat="47.233487" lon="13.135626"><ele>1808.86</ele><time>2010-06-26T12:50:03Z</time></trkpt><trkpt lat="47.233460" lon="13.135669"><ele>1811.74</ele><time>2010-06-26T12:50:08Z</time></trkpt><trkpt lat="47.233443" lon="13.135717"><ele>1812.70</ele><time>2010-06-26T12:50:22Z</time></trkpt><trkpt lat="47.233434" lon="13.135788"><ele>1814.63</ele><time>2010-06-26T12:50:33Z</time></trkpt><trkpt lat="47.233434" lon="13.135791"><ele>1814.63</ele><time>2010-06-26T12:50:34Z</time></trkpt><trkpt lat="47.233429" lon="13.135868"><ele>1815.59</ele><time>2010-06-26T12:50:44Z</time></trkpt><trkpt lat="47.233413" lon="13.135905"><ele>1819.91</ele><time>2010-06-26T12:50:58Z</time></trkpt><trkpt lat="47.233408" lon="13.135914"><ele>1814.63</ele><time>2010-06-26T12:50:59Z</time></trkpt><trkpt lat="47.233402" lon="13.135918"><ele>1818.47</ele><time>2010-06-26T12:51:00Z</time></trkpt><trkpt lat="47.233402" lon="13.135918"><ele>1815.11</ele><time>2010-06-26T12:51:01Z</time></trkpt><trkpt lat="47.233400" lon="13.135931"><ele>1818.95</ele><time>2010-06-26T12:51:02Z</time></trkpt><trkpt lat="47.233385" lon="13.135982"><ele>1819.91</ele><time>2010-06-26T12:51:11Z</time></trkpt><trkpt lat="47.233360" lon="13.136058"><ele>1822.32</ele><time>2010-06-26T12:51:26Z</time></trkpt><trkpt lat="47.233325" lon="13.136180"><ele>1825.20</ele><time>2010-06-26T12:51:39Z</time></trkpt><trkpt lat="47.233325" lon="13.136201"><ele>1820.39</ele><time>2010-06-26T12:51:41Z</time></trkpt><trkpt lat="47.233324" lon="13.136211"><ele>1826.64</ele><time>2010-06-26T12:51:42Z</time></trkpt><trkpt lat="47.233324" lon="13.136211"><ele>1826.16</ele><time>2010-06-26T12:51:43Z</time></trkpt><trkpt lat="47.233333" lon="13.136276"><ele>1827.12</ele><time>2010-06-26T12:51:50Z</time></trkpt><trkpt lat="47.233356" lon="13.136297"><ele>1823.28</ele><time>2010-06-26T12:51:55Z</time></trkpt><trkpt lat="47.233356" lon="13.136297"><ele>1826.64</ele><time>2010-06-26T12:51:56Z</time></trkpt><trkpt lat="47.233356" lon="13.136297"><ele>1827.12</ele><time>2010-06-26T12:51:57Z</time></trkpt><trkpt lat="47.233356" lon="13.136297"><ele>1828.08</ele><time>2010-06-26T12:51:59Z</time></trkpt><trkpt lat="47.233413" lon="13.136363"><ele>1830.01</ele><time>2010-06-26T12:52:12Z</time></trkpt><trkpt lat="47.233423" lon="13.136400"><ele>1830.97</ele><time>2010-06-26T12:52:17Z</time></trkpt><trkpt lat="47.233426" lon="13.136422"><ele>1828.08</ele><time>2010-06-26T12:52:21Z</time></trkpt><trkpt lat="47.233429" lon="13.136425"><ele>1831.45</ele><time>2010-06-26T12:52:22Z</time></trkpt><trkpt lat="47.233429" lon="13.136425"><ele>1831.45</ele><time>2010-06-26T12:52:23Z</time></trkpt><trkpt lat="47.233436" lon="13.136440"><ele>1832.41</ele><time>2010-06-26T12:52:26Z</time></trkpt><trkpt lat="47.233454" lon="13.136504"><ele>1833.37</ele><time>2010-06-26T12:52:38Z</time></trkpt><trkpt lat="47.233466" lon="13.136520"><ele>1837.22</ele><time>2010-06-26T12:52:41Z</time></trkpt><trkpt lat="47.233490" lon="13.136571"><ele>1834.81</ele><time>2010-06-26T12:52:53Z</time></trkpt><trkpt lat="47.233490" lon="13.136571"><ele>1838.66</ele><time>2010-06-26T12:52:57Z</time></trkpt><trkpt lat="47.233513" lon="13.136647"><ele>1838.18</ele><time>2010-06-26T12:53:08Z</time></trkpt><trkpt lat="47.233536" lon="13.136694"><ele>1841.54</ele><time>2010-06-26T12:53:18Z</time></trkpt><trkpt lat="47.233549" lon="13.136789"><ele>1841.54</ele><time>2010-06-26T12:53:27Z</time></trkpt><trkpt lat="47.233553" lon="13.136833"><ele>1842.50</ele><time>2010-06-26T12:53:32Z</time></trkpt><trkpt lat="47.233578" lon="13.136916"><ele>1843.47</ele><time>2010-06-26T12:53:40Z</time></trkpt><trkpt lat="47.233595" lon="13.136968"><ele>1846.35</ele><time>2010-06-26T12:53:51Z</time></trkpt><trkpt lat="47.233633" lon="13.137119"><ele>1845.39</ele><time>2010-06-26T12:54:01Z</time></trkpt><trkpt lat="47.233644" lon="13.137176"><ele>1847.31</ele><time>2010-06-26T12:54:11Z</time></trkpt><trkpt lat="47.233652" lon="13.137190"><ele>1846.83</ele><time>2010-06-26T12:54:34Z</time></trkpt><trkpt lat="47.233636" lon="13.137214"><ele>1843.47</ele><time>2010-06-26T12:54:48Z</time></trkpt><trkpt lat="47.233632" lon="13.137208"><ele>1848.75</ele><time>2010-06-26T12:54:49Z</time></trkpt><trkpt lat="47.233600" lon="13.137160"><ele>1852.60</ele><time>2010-06-26T12:54:56Z</time></trkpt><trkpt lat="47.233593" lon="13.137149"><ele>1847.79</ele><time>2010-06-26T12:54:57Z</time></trkpt><trkpt lat="47.233581" lon="13.137144"><ele>1852.60</ele><time>2010-06-26T12:55:00Z</time></trkpt><trkpt lat="47.233574" lon="13.137144"><ele>1851.64</ele><time>2010-06-26T12:55:01Z</time></trkpt><trkpt lat="47.233523" lon="13.137104"><ele>1854.04</ele><time>2010-06-26T12:55:12Z</time></trkpt><trkpt lat="47.233506" lon="13.137100"><ele>1854.04</ele><time>2010-06-26T12:55:16Z</time></trkpt><trkpt lat="47.233505" lon="13.137099"><ele>1850.19</ele><time>2010-06-26T12:55:59Z</time></trkpt><trkpt lat="47.233505" lon="13.137099"><ele>1853.56</ele><time>2010-06-26T12:56:00Z</time></trkpt><trkpt lat="47.233472" lon="13.137093"><ele>1854.04</ele><time>2010-06-26T12:56:39Z</time></trkpt><trkpt lat="47.233437" lon="13.137060"><ele>1853.56</ele><time>2010-06-26T12:56:52Z</time></trkpt><trkpt lat="47.233338" lon="13.137010"><ele>1854.52</ele><time>2010-06-26T12:57:37Z</time></trkpt><trkpt lat="47.233301" lon="13.136998"><ele>1854.04</ele><time>2010-06-26T12:57:40Z</time></trkpt><trkpt lat="47.233167" lon="13.136979"><ele>1853.56</ele><time>2010-06-26T12:57:51Z</time></trkpt><trkpt lat="47.233109" lon="13.137000"><ele>1854.52</ele><time>2010-06-26T12:57:56Z</time></trkpt><trkpt lat="47.233061" lon="13.137086"><ele>1853.08</ele><time>2010-06-26T12:58:10Z</time></trkpt><trkpt lat="47.233037" lon="13.137168"><ele>1852.60</ele><time>2010-06-26T12:58:16Z</time></trkpt><trkpt lat="47.233019" lon="13.137199"><ele>1852.60</ele><time>2010-06-26T12:58:19Z</time></trkpt><trkpt lat="47.232996" lon="13.137247"><ele>1850.68</ele><time>2010-06-26T12:58:28Z</time></trkpt><trkpt lat="47.232996" lon="13.137247"><ele>1853.56</ele><time>2010-06-26T12:58:34Z</time></trkpt><trkpt lat="47.232989" lon="13.137237"><ele>1852.60</ele><time>2010-06-26T12:58:37Z</time></trkpt><trkpt lat="47.232984" lon="13.137254"><ele>1852.60</ele><time>2010-06-26T12:59:14Z</time></trkpt><trkpt lat="47.232953" lon="13.137350"><ele>1852.60</ele><time>2010-06-26T12:59:25Z</time></trkpt><trkpt lat="47.232953" lon="13.137362"><ele>1852.12</ele><time>2010-06-26T12:59:27Z</time></trkpt><trkpt lat="47.232949" lon="13.137442"><ele>1852.60</ele><time>2010-06-26T12:59:43Z</time></trkpt><trkpt lat="47.232947" lon="13.137523"><ele>1851.16</ele><time>2010-06-26T13:00:03Z</time></trkpt><trkpt lat="47.232945" lon="13.137551"><ele>1852.12</ele><time>2010-06-26T13:00:05Z</time></trkpt><trkpt lat="47.232944" lon="13.137594"><ele>1853.56</ele><time>2010-06-26T13:00:09Z</time></trkpt><trkpt lat="47.232944" lon="13.137596"><ele>1852.60</ele><time>2010-06-26T13:00:11Z</time></trkpt><trkpt lat="47.232920" lon="13.137655"><ele>1852.60</ele><time>2010-06-26T13:00:22Z</time></trkpt><trkpt lat="47.232944" lon="13.137655"><ele>1855.00</ele><time>2010-06-26T13:01:11Z</time></trkpt><trkpt lat="47.232956" lon="13.137665"><ele>1856.44</ele><time>2010-06-26T13:01:34Z</time></trkpt><trkpt lat="47.232974" lon="13.137680"><ele>1854.04</ele><time>2010-06-26T13:01:53Z</time></trkpt><trkpt lat="47.232974" lon="13.137680"><ele>1854.52</ele><time>2010-06-26T13:01:54Z</time></trkpt><trkpt lat="47.232988" lon="13.137706"><ele>1855.48</ele><time>2010-06-26T13:01:56Z</time></trkpt><trkpt lat="47.233048" lon="13.137805"><ele>1853.56</ele><time>2010-06-26T13:02:05Z</time></trkpt><trkpt lat="47.233118" lon="13.137994"><ele>1854.04</ele><time>2010-06-26T13:02:18Z</time></trkpt><trkpt lat="47.233158" lon="13.138105"><ele>1855.96</ele><time>2010-06-26T13:02:27Z</time></trkpt><trkpt lat="47.233177" lon="13.138177"><ele>1854.52</ele><time>2010-06-26T13:02:32Z</time></trkpt><trkpt lat="47.233169" lon="13.138214"><ele>1853.08</ele><time>2010-06-26T13:02:34Z</time></trkpt><trkpt lat="47.233173" lon="13.138243"><ele>1856.44</ele><time>2010-06-26T13:02:36Z</time></trkpt><trkpt lat="47.233171" lon="13.138256"><ele>1853.08</ele><time>2010-06-26T13:02:37Z</time></trkpt><trkpt lat="47.233169" lon="13.138412"><ele>1854.52</ele><time>2010-06-26T13:02:48Z</time></trkpt><trkpt lat="47.233176" lon="13.138479"><ele>1855.48</ele><time>2010-06-26T13:02:52Z</time></trkpt><trkpt lat="47.233172" lon="13.138590"><ele>1853.08</ele><time>2010-06-26T13:03:00Z</time></trkpt><trkpt lat="47.233173" lon="13.138619"><ele>1852.60</ele><time>2010-06-26T13:03:05Z</time></trkpt><trkpt lat="47.233202" lon="13.138797"><ele>1855.96</ele><time>2010-06-26T13:03:16Z</time></trkpt><trkpt lat="47.233226" lon="13.138822"><ele>1852.12</ele><time>2010-06-26T13:03:19Z</time></trkpt><trkpt lat="47.233235" lon="13.138835"><ele>1855.48</ele><time>2010-06-26T13:03:20Z</time></trkpt><trkpt lat="47.233244" lon="13.138843"><ele>1855.48</ele><time>2010-06-26T13:03:21Z</time></trkpt><trkpt lat="47.233255" lon="13.138862"><ele>1853.08</ele><time>2010-06-26T13:03:23Z</time></trkpt><trkpt lat="47.233342" lon="13.138948"><ele>1854.04</ele><time>2010-06-26T13:03:37Z</time></trkpt><trkpt lat="47.233356" lon="13.138972"><ele>1855.00</ele><time>2010-06-26T13:03:39Z</time></trkpt><trkpt lat="47.233395" lon="13.138997"><ele>1852.12</ele><time>2010-06-26T13:03:42Z</time></trkpt><trkpt lat="47.233406" lon="13.138999"><ele>1853.56</ele><time>2010-06-26T13:03:43Z</time></trkpt><trkpt lat="47.233455" lon="13.139052"><ele>1855.00</ele><time>2010-06-26T13:03:50Z</time></trkpt><trkpt lat="47.233477" lon="13.139061"><ele>1854.04</ele><time>2010-06-26T13:03:52Z</time></trkpt><trkpt lat="47.233532" lon="13.139117"><ele>1853.56</ele><time>2010-06-26T13:03:58Z</time></trkpt><trkpt lat="47.233549" lon="13.139138"><ele>1855.96</ele><time>2010-06-26T13:04:00Z</time></trkpt><trkpt lat="47.233566" lon="13.139156"><ele>1854.52</ele><time>2010-06-26T13:04:02Z</time></trkpt><trkpt lat="47.233614" lon="13.139183"><ele>1852.60</ele><time>2010-06-26T13:04:06Z</time></trkpt><trkpt lat="47.233706" lon="13.139354"><ele>1855.00</ele><time>2010-06-26T13:04:20Z</time></trkpt><trkpt lat="47.233714" lon="13.139365"><ele>1855.00</ele><time>2010-06-26T13:04:21Z</time></trkpt><trkpt lat="47.233724" lon="13.139406"><ele>1854.04</ele><time>2010-06-26T13:04:24Z</time></trkpt><trkpt lat="47.233753" lon="13.139564"><ele>1852.12</ele><time>2010-06-26T13:04:37Z</time></trkpt><trkpt lat="47.233764" lon="13.139715"><ele>1850.19</ele><time>2010-06-26T13:04:48Z</time></trkpt><trkpt lat="47.233767" lon="13.139727"><ele>1849.23</ele><time>2010-06-26T13:04:49Z</time></trkpt><trkpt lat="47.233831" lon="13.139851"><ele>1846.83</ele><time>2010-06-26T13:05:02Z</time></trkpt><trkpt lat="47.233843" lon="13.139870"><ele>1846.83</ele><time>2010-06-26T13:05:04Z</time></trkpt><trkpt lat="47.233889" lon="13.139917"><ele>1843.95</ele><time>2010-06-26T13:05:09Z</time></trkpt><trkpt lat="47.233898" lon="13.139923"><ele>1844.91</ele><time>2010-06-26T13:05:10Z</time></trkpt><trkpt lat="47.233945" lon="13.139965"><ele>1834.81</ele><time>2010-06-26T13:05:18Z</time></trkpt><trkpt lat="47.233945" lon="13.139965"><ele>1844.43</ele><time>2010-06-26T13:05:19Z</time></trkpt><trkpt lat="47.233944" lon="13.140051"><ele>1844.91</ele><time>2010-06-26T13:05:26Z</time></trkpt><trkpt lat="47.233975" lon="13.140147"><ele>1842.02</ele><time>2010-06-26T13:05:33Z</time></trkpt><trkpt lat="47.233988" lon="13.140171"><ele>1844.43</ele><time>2010-06-26T13:05:35Z</time></trkpt><trkpt lat="47.233996" lon="13.140231"><ele>1842.98</ele><time>2010-06-26T13:05:38Z</time></trkpt><trkpt lat="47.234005" lon="13.140312"><ele>1842.50</ele><time>2010-06-26T13:05:43Z</time></trkpt><trkpt lat="47.234029" lon="13.140456"><ele>1842.02</ele><time>2010-06-26T13:05:53Z</time></trkpt><trkpt lat="47.234048" lon="13.140565"><ele>1840.58</ele><time>2010-06-26T13:06:01Z</time></trkpt><trkpt lat="47.234058" lon="13.140592"><ele>1841.54</ele><time>2010-06-26T13:06:03Z</time></trkpt><trkpt lat="47.234096" lon="13.140666"><ele>1842.50</ele><time>2010-06-26T13:06:11Z</time></trkpt><trkpt lat="47.234109" lon="13.140705"><ele>1839.62</ele><time>2010-06-26T13:06:14Z</time></trkpt><trkpt lat="47.234119" lon="13.140730"><ele>1841.54</ele><time>2010-06-26T13:06:16Z</time></trkpt><trkpt lat="47.234120" lon="13.140778"><ele>1839.62</ele><time>2010-06-26T13:06:19Z</time></trkpt><trkpt lat="47.234158" lon="13.140887"><ele>1841.54</ele><time>2010-06-26T13:06:27Z</time></trkpt><trkpt lat="47.234180" lon="13.140916"><ele>1839.62</ele><time>2010-06-26T13:06:30Z</time></trkpt><trkpt lat="47.234283" lon="13.141030"><ele>1840.58</ele><time>2010-06-26T13:06:41Z</time></trkpt><trkpt lat="47.234337" lon="13.141060"><ele>1840.58</ele><time>2010-06-26T13:06:45Z</time></trkpt><trkpt lat="47.234361" lon="13.141076"><ele>1838.66</ele><time>2010-06-26T13:06:47Z</time></trkpt><trkpt lat="47.234373" lon="13.141089"><ele>1840.58</ele><time>2010-06-26T13:06:49Z</time></trkpt><trkpt lat="47.234418" lon="13.141148"><ele>1840.58</ele><time>2010-06-26T13:06:55Z</time></trkpt><trkpt lat="47.234425" lon="13.141157"><ele>1837.70</ele><time>2010-06-26T13:06:56Z</time></trkpt><trkpt lat="47.234445" lon="13.141200"><ele>1842.50</ele><time>2010-06-26T13:06:59Z</time></trkpt><trkpt lat="47.234452" lon="13.141217"><ele>1839.14</ele><time>2010-06-26T13:07:00Z</time></trkpt><trkpt lat="47.234456" lon="13.141230"><ele>1839.14</ele><time>2010-06-26T13:07:01Z</time></trkpt><trkpt lat="47.234462" lon="13.141261"><ele>1842.02</ele><time>2010-06-26T13:07:03Z</time></trkpt><trkpt lat="47.234466" lon="13.141275"><ele>1837.70</ele><time>2010-06-26T13:07:04Z</time></trkpt><trkpt lat="47.234468" lon="13.141308"><ele>1841.06</ele><time>2010-06-26T13:07:06Z</time></trkpt><trkpt lat="47.234464" lon="13.141375"><ele>1837.70</ele><time>2010-06-26T13:07:11Z</time></trkpt><trkpt lat="47.234466" lon="13.141388"><ele>1840.58</ele><time>2010-06-26T13:07:12Z</time></trkpt><trkpt lat="47.234471" lon="13.141399"><ele>1843.95</ele><time>2010-06-26T13:07:13Z</time></trkpt><trkpt lat="47.234477" lon="13.141407"><ele>1836.74</ele><time>2010-06-26T13:07:14Z</time></trkpt><trkpt lat="47.234480" lon="13.141416"><ele>1841.54</ele><time>2010-06-26T13:07:15Z</time></trkpt><trkpt lat="47.234483" lon="13.141437"><ele>1836.74</ele><time>2010-06-26T13:07:17Z</time></trkpt><trkpt lat="47.234487" lon="13.141449"><ele>1842.50</ele><time>2010-06-26T13:07:18Z</time></trkpt><trkpt lat="47.234522" lon="13.141586"><ele>1842.98</ele><time>2010-06-26T13:07:28Z</time></trkpt><trkpt lat="47.234540" lon="13.141644"><ele>1846.83</ele><time>2010-06-26T13:07:34Z</time></trkpt><trkpt lat="47.234546" lon="13.141652"><ele>1840.10</ele><time>2010-06-26T13:07:35Z</time></trkpt><trkpt lat="47.234551" lon="13.141660"><ele>1844.91</ele><time>2010-06-26T13:07:36Z</time></trkpt><trkpt lat="47.234561" lon="13.141693"><ele>1846.35</ele><time>2010-06-26T13:07:39Z</time></trkpt><trkpt lat="47.234570" lon="13.141732"><ele>1842.50</ele><time>2010-06-26T13:07:42Z</time></trkpt><trkpt lat="47.234575" lon="13.141741"><ele>1845.87</ele><time>2010-06-26T13:07:43Z</time></trkpt><trkpt lat="47.234604" lon="13.141819"><ele>1849.23</ele><time>2010-06-26T13:07:50Z</time></trkpt><trkpt lat="47.234608" lon="13.141832"><ele>1842.98</ele><time>2010-06-26T13:07:51Z</time></trkpt><trkpt lat="47.234611" lon="13.141845"><ele>1848.27</ele><time>2010-06-26T13:07:52Z</time></trkpt><trkpt lat="47.234615" lon="13.141851"><ele>1842.50</ele><time>2010-06-26T13:07:53Z</time></trkpt><trkpt lat="47.234617" lon="13.141860"><ele>1846.83</ele><time>2010-06-26T13:07:54Z</time></trkpt><trkpt lat="47.234630" lon="13.141876"><ele>1850.68</ele><time>2010-06-26T13:07:56Z</time></trkpt><trkpt lat="47.234635" lon="13.141881"><ele>1848.27</ele><time>2010-06-26T13:07:57Z</time></trkpt><trkpt lat="47.234642" lon="13.141898"><ele>1843.47</ele><time>2010-06-26T13:07:59Z</time></trkpt><trkpt lat="47.234644" lon="13.141904"><ele>1847.79</ele><time>2010-06-26T13:08:00Z</time></trkpt><trkpt lat="47.234644" lon="13.141917"><ele>1851.64</ele><time>2010-06-26T13:08:01Z</time></trkpt><trkpt lat="47.234645" lon="13.141926"><ele>1844.43</ele><time>2010-06-26T13:08:02Z</time></trkpt><trkpt lat="47.234645" lon="13.141935"><ele>1849.71</ele><time>2010-06-26T13:08:03Z</time></trkpt><trkpt lat="47.234645" lon="13.141986"><ele>1845.39</ele><time>2010-06-26T13:08:08Z</time></trkpt><trkpt lat="47.234647" lon="13.141999"><ele>1851.16</ele><time>2010-06-26T13:08:09Z</time></trkpt><trkpt lat="47.234648" lon="13.142014"><ele>1848.27</ele><time>2010-06-26T13:08:10Z</time></trkpt><trkpt lat="47.234652" lon="13.142039"><ele>1851.16</ele><time>2010-06-26T13:08:12Z</time></trkpt><trkpt lat="47.234655" lon="13.142053"><ele>1850.19</ele><time>2010-06-26T13:08:13Z</time></trkpt><trkpt lat="47.234657" lon="13.142071"><ele>1853.08</ele><time>2010-06-26T13:08:14Z</time></trkpt><trkpt lat="47.234674" lon="13.142118"><ele>1848.75</ele><time>2010-06-26T13:08:18Z</time></trkpt><trkpt lat="47.234679" lon="13.142132"><ele>1853.56</ele><time>2010-06-26T13:08:19Z</time></trkpt><trkpt lat="47.234682" lon="13.142145"><ele>1846.35</ele><time>2010-06-26T13:08:20Z</time></trkpt><trkpt lat="47.234686" lon="13.142156"><ele>1849.71</ele><time>2010-06-26T13:08:21Z</time></trkpt><trkpt lat="47.234689" lon="13.142185"><ele>1853.08</ele><time>2010-06-26T13:08:23Z</time></trkpt><trkpt lat="47.234695" lon="13.142237"><ele>1847.79</ele><time>2010-06-26T13:08:27Z</time></trkpt><trkpt lat="47.234697" lon="13.142250"><ele>1852.60</ele><time>2010-06-26T13:08:28Z</time></trkpt><trkpt lat="47.234700" lon="13.142259"><ele>1855.96</ele><time>2010-06-26T13:08:29Z</time></trkpt><trkpt lat="47.234703" lon="13.142266"><ele>1849.71</ele><time>2010-06-26T13:08:30Z</time></trkpt><trkpt lat="47.234709" lon="13.142288"><ele>1854.04</ele><time>2010-06-26T13:08:32Z</time></trkpt><trkpt lat="47.234713" lon="13.142301"><ele>1849.71</ele><time>2010-06-26T13:08:33Z</time></trkpt><trkpt lat="47.234755" lon="13.142375"><ele>1856.92</ele><time>2010-06-26T13:08:39Z</time></trkpt><trkpt lat="47.234759" lon="13.142389"><ele>1851.16</ele><time>2010-06-26T13:08:40Z</time></trkpt><trkpt lat="47.234760" lon="13.142403"><ele>1855.48</ele><time>2010-06-26T13:08:41Z</time></trkpt><trkpt lat="47.234766" lon="13.142415"><ele>1849.71</ele><time>2010-06-26T13:08:42Z</time></trkpt><trkpt lat="47.234777" lon="13.142434"><ele>1855.96</ele><time>2010-06-26T13:08:44Z</time></trkpt><trkpt lat="47.234782" lon="13.142447"><ele>1854.52</ele><time>2010-06-26T13:08:45Z</time></trkpt><trkpt lat="47.234797" lon="13.142517"><ele>1852.60</ele><time>2010-06-26T13:08:50Z</time></trkpt><trkpt lat="47.234801" lon="13.142528"><ele>1857.89</ele><time>2010-06-26T13:08:51Z</time></trkpt><trkpt lat="47.234804" lon="13.142539"><ele>1852.12</ele><time>2010-06-26T13:08:52Z</time></trkpt><trkpt lat="47.234804" lon="13.142549"><ele>1856.92</ele><time>2010-06-26T13:08:53Z</time></trkpt><trkpt lat="47.234808" lon="13.142603"><ele>1852.60</ele><time>2010-06-26T13:08:58Z</time></trkpt><trkpt lat="47.234810" lon="13.142615"><ele>1857.89</ele><time>2010-06-26T13:08:59Z</time></trkpt><trkpt lat="47.234820" lon="13.142703"><ele>1858.37</ele><time>2010-06-26T13:09:09Z</time></trkpt><trkpt lat="47.234825" lon="13.142731"><ele>1862.21</ele><time>2010-06-26T13:09:11Z</time></trkpt><trkpt lat="47.234828" lon="13.142742"><ele>1856.92</ele><time>2010-06-26T13:09:12Z</time></trkpt><trkpt lat="47.234830" lon="13.142751"><ele>1861.73</ele><time>2010-06-26T13:09:13Z</time></trkpt><trkpt lat="47.234832" lon="13.142757"><ele>1856.92</ele><time>2010-06-26T13:09:14Z</time></trkpt><trkpt lat="47.234835" lon="13.142763"><ele>1861.25</ele><time>2010-06-26T13:09:15Z</time></trkpt><trkpt lat="47.234843" lon="13.142789"><ele>1859.81</ele><time>2010-06-26T13:09:18Z</time></trkpt><trkpt lat="47.234846" lon="13.142799"><ele>1863.65</ele><time>2010-06-26T13:09:19Z</time></trkpt><trkpt lat="47.234848" lon="13.142808"><ele>1858.85</ele><time>2010-06-26T13:09:20Z</time></trkpt><trkpt lat="47.234850" lon="13.142820"><ele>1862.69</ele><time>2010-06-26T13:09:21Z</time></trkpt><trkpt lat="47.234852" lon="13.142830"><ele>1859.33</ele><time>2010-06-26T13:09:22Z</time></trkpt><trkpt lat="47.234854" lon="13.142837"><ele>1864.13</ele><time>2010-06-26T13:09:23Z</time></trkpt><trkpt lat="47.234854" lon="13.142852"><ele>1857.89</ele><time>2010-06-26T13:09:25Z</time></trkpt><trkpt lat="47.234857" lon="13.142861"><ele>1863.65</ele><time>2010-06-26T13:09:26Z</time></trkpt><trkpt lat="47.234861" lon="13.142932"><ele>1864.13</ele><time>2010-06-26T13:09:31Z</time></trkpt><trkpt lat="47.234857" lon="13.142959"><ele>1860.29</ele><time>2010-06-26T13:09:33Z</time></trkpt><trkpt lat="47.234859" lon="13.142970"><ele>1865.09</ele><time>2010-06-26T13:09:34Z</time></trkpt><trkpt lat="47.234860" lon="13.142976"><ele>1859.33</ele><time>2010-06-26T13:09:35Z</time></trkpt><trkpt lat="47.234860" lon="13.142980"><ele>1865.58</ele><time>2010-06-26T13:09:36Z</time></trkpt><trkpt lat="47.234871" lon="13.143069"><ele>1862.21</ele><time>2010-06-26T13:09:44Z</time></trkpt><trkpt lat="47.234870" lon="13.143080"><ele>1866.54</ele><time>2010-06-26T13:09:45Z</time></trkpt><trkpt lat="47.234874" lon="13.143090"><ele>1863.17</ele><time>2010-06-26T13:09:46Z</time></trkpt><trkpt lat="47.234874" lon="13.143097"><ele>1867.02</ele><time>2010-06-26T13:09:47Z</time></trkpt><trkpt lat="47.234891" lon="13.143097"><ele>1863.65</ele><time>2010-06-26T13:09:51Z</time></trkpt><trkpt lat="47.234891" lon="13.143097"><ele>1867.02</ele><time>2010-06-26T13:09:52Z</time></trkpt><trkpt lat="47.234896" lon="13.143086"><ele>1867.02</ele><time>2010-06-26T13:10:46Z</time></trkpt><trkpt lat="47.234894" lon="13.143082"><ele>1867.02</ele><time>2010-06-26T13:11:16Z</time></trkpt><trkpt lat="47.234882" lon="13.143189"><ele>1864.13</ele><time>2010-06-26T13:11:55Z</time></trkpt><trkpt lat="47.234880" lon="13.143208"><ele>1867.50</ele><time>2010-06-26T13:11:56Z</time></trkpt><trkpt lat="47.234871" lon="13.143240"><ele>1870.86</ele><time>2010-06-26T13:11:58Z</time></trkpt><trkpt lat="47.234871" lon="13.143240"><ele>1868.94</ele><time>2010-06-26T13:11:59Z</time></trkpt><trkpt lat="47.234856" lon="13.143266"><ele>1865.58</ele><time>2010-06-26T13:12:01Z</time></trkpt><trkpt lat="47.234849" lon="13.143276"><ele>1869.42</ele><time>2010-06-26T13:12:02Z</time></trkpt><trkpt lat="47.234837" lon="13.143297"><ele>1866.06</ele><time>2010-06-26T13:12:04Z</time></trkpt><trkpt lat="47.234835" lon="13.143311"><ele>1870.38</ele><time>2010-06-26T13:12:05Z</time></trkpt><trkpt lat="47.234804" lon="13.143400"><ele>1869.90</ele><time>2010-06-26T13:12:16Z</time></trkpt><trkpt lat="47.234802" lon="13.143444"><ele>1873.27</ele><time>2010-06-26T13:12:20Z</time></trkpt><trkpt lat="47.234804" lon="13.143454"><ele>1869.42</ele><time>2010-06-26T13:12:21Z</time></trkpt><trkpt lat="47.234804" lon="13.143460"><ele>1874.23</ele><time>2010-06-26T13:12:22Z</time></trkpt><trkpt lat="47.234789" lon="13.143476"><ele>1872.79</ele><time>2010-06-26T13:12:25Z</time></trkpt><trkpt lat="47.234778" lon="13.143498"><ele>1874.23</ele><time>2010-06-26T13:12:28Z</time></trkpt><trkpt lat="47.234777" lon="13.143523"><ele>1875.19</ele><time>2010-06-26T13:12:30Z</time></trkpt><trkpt lat="47.234774" lon="13.143548"><ele>1871.82</ele><time>2010-06-26T13:12:32Z</time></trkpt><trkpt lat="47.234771" lon="13.143557"><ele>1876.15</ele><time>2010-06-26T13:12:33Z</time></trkpt><trkpt lat="47.234763" lon="13.143573"><ele>1877.11</ele><time>2010-06-26T13:12:35Z</time></trkpt><trkpt lat="47.234761" lon="13.143592"><ele>1873.75</ele><time>2010-06-26T13:12:37Z</time></trkpt><trkpt lat="47.234765" lon="13.143619"><ele>1877.59</ele><time>2010-06-26T13:12:40Z</time></trkpt><trkpt lat="47.234745" lon="13.143670"><ele>1874.23</ele><time>2010-06-26T13:12:45Z</time></trkpt><trkpt lat="47.234741" lon="13.143677"><ele>1878.07</ele><time>2010-06-26T13:12:46Z</time></trkpt><trkpt lat="47.234735" lon="13.143736"><ele>1873.75</ele><time>2010-06-26T13:12:51Z</time></trkpt><trkpt lat="47.234735" lon="13.143747"><ele>1878.07</ele><time>2010-06-26T13:12:52Z</time></trkpt><trkpt lat="47.234708" lon="13.143818"><ele>1875.19</ele><time>2010-06-26T13:13:01Z</time></trkpt><trkpt lat="47.234705" lon="13.143826"><ele>1879.03</ele><time>2010-06-26T13:13:02Z</time></trkpt><trkpt lat="47.234677" lon="13.143871"><ele>1877.11</ele><time>2010-06-26T13:13:07Z</time></trkpt><trkpt lat="47.234672" lon="13.143879"><ele>1880.48</ele><time>2010-06-26T13:13:08Z</time></trkpt><trkpt lat="47.234644" lon="13.143947"><ele>1884.32</ele><time>2010-06-26T13:13:15Z</time></trkpt><trkpt lat="47.234641" lon="13.143957"><ele>1878.55</ele><time>2010-06-26T13:13:16Z</time></trkpt><trkpt lat="47.234637" lon="13.143965"><ele>1882.40</ele><time>2010-06-26T13:13:17Z</time></trkpt><trkpt lat="47.234607" lon="13.144050"><ele>1879.03</ele><time>2010-06-26T13:13:25Z</time></trkpt><trkpt lat="47.234603" lon="13.144058"><ele>1883.84</ele><time>2010-06-26T13:13:26Z</time></trkpt><trkpt lat="47.234570" lon="13.144116"><ele>1882.88</ele><time>2010-06-26T13:13:32Z</time></trkpt><trkpt lat="47.234562" lon="13.144129"><ele>1887.21</ele><time>2010-06-26T13:13:33Z</time></trkpt><trkpt lat="47.234554" lon="13.144141"><ele>1881.92</ele><time>2010-06-26T13:13:34Z</time></trkpt><trkpt lat="47.234547" lon="13.144154"><ele>1885.76</ele><time>2010-06-26T13:13:35Z</time></trkpt><trkpt lat="47.234528" lon="13.144195"><ele>1886.24</ele><time>2010-06-26T13:13:39Z</time></trkpt><trkpt lat="47.234522" lon="13.144211"><ele>1882.88</ele><time>2010-06-26T13:13:41Z</time></trkpt><trkpt lat="47.234516" lon="13.144222"><ele>1884.80</ele><time>2010-06-26T13:13:42Z</time></trkpt><trkpt lat="47.234513" lon="13.144231"><ele>1880.96</ele><time>2010-06-26T13:13:43Z</time></trkpt><trkpt lat="47.234509" lon="13.144253"><ele>1886.24</ele><time>2010-06-26T13:13:45Z</time></trkpt><trkpt lat="47.234505" lon="13.144264"><ele>1883.36</ele><time>2010-06-26T13:13:46Z</time></trkpt><trkpt lat="47.234492" lon="13.144290"><ele>1887.21</ele><time>2010-06-26T13:13:48Z</time></trkpt><trkpt lat="47.234485" lon="13.144300"><ele>1886.72</ele><time>2010-06-26T13:13:49Z</time></trkpt><trkpt lat="47.234434" lon="13.144422"><ele>1890.09</ele><time>2010-06-26T13:14:00Z</time></trkpt><trkpt lat="47.234411" lon="13.144451"><ele>1886.72</ele><time>2010-06-26T13:14:03Z</time></trkpt><trkpt lat="47.234403" lon="13.144460"><ele>1891.05</ele><time>2010-06-26T13:14:04Z</time></trkpt><trkpt lat="47.234396" lon="13.144468"><ele>1885.28</ele><time>2010-06-26T13:14:05Z</time></trkpt><trkpt lat="47.234389" lon="13.144485"><ele>1888.17</ele><time>2010-06-26T13:14:06Z</time></trkpt><trkpt lat="47.234373" lon="13.144516"><ele>1889.61</ele><time>2010-06-26T13:14:08Z</time></trkpt><trkpt lat="47.234349" lon="13.144581"><ele>1884.32</ele><time>2010-06-26T13:14:15Z</time></trkpt><trkpt lat="47.234343" lon="13.144593"><ele>1888.17</ele><time>2010-06-26T13:14:16Z</time></trkpt><trkpt lat="47.234335" lon="13.144606"><ele>1891.05</ele><time>2010-06-26T13:14:17Z</time></trkpt><trkpt lat="47.234314" lon="13.144646"><ele>1886.24</ele><time>2010-06-26T13:14:21Z</time></trkpt><trkpt lat="47.234310" lon="13.144655"><ele>1890.09</ele><time>2010-06-26T13:14:22Z</time></trkpt><trkpt lat="47.234266" lon="13.144753"><ele>1891.05</ele><time>2010-06-26T13:14:31Z</time></trkpt><trkpt lat="47.234249" lon="13.144779"><ele>1887.21</ele><time>2010-06-26T13:14:33Z</time></trkpt><trkpt lat="47.234242" lon="13.144791"><ele>1890.57</ele><time>2010-06-26T13:14:34Z</time></trkpt><trkpt lat="47.234239" lon="13.144803"><ele>1893.93</ele><time>2010-06-26T13:14:35Z</time></trkpt><trkpt lat="47.234235" lon="13.144812"><ele>1889.13</ele><time>2010-06-26T13:14:36Z</time></trkpt><trkpt lat="47.234229" lon="13.144823"><ele>1892.97</ele><time>2010-06-26T13:14:37Z</time></trkpt><trkpt lat="47.234223" lon="13.144834"><ele>1892.97</ele><time>2010-06-26T13:14:38Z</time></trkpt><trkpt lat="47.234177" lon="13.144898"><ele>1889.13</ele><time>2010-06-26T13:14:44Z</time></trkpt><trkpt lat="47.234161" lon="13.144931"><ele>1890.57</ele><time>2010-06-26T13:14:47Z</time></trkpt><trkpt lat="47.234156" lon="13.144938"><ele>1891.53</ele><time>2010-06-26T13:14:48Z</time></trkpt><trkpt lat="47.234151" lon="13.144950"><ele>1895.38</ele><time>2010-06-26T13:14:49Z</time></trkpt><trkpt lat="47.234144" lon="13.144961"><ele>1890.57</ele><time>2010-06-26T13:14:50Z</time></trkpt><trkpt lat="47.234131" lon="13.144983"><ele>1894.90</ele><time>2010-06-26T13:14:52Z</time></trkpt><trkpt lat="47.234125" lon="13.144996"><ele>1892.49</ele><time>2010-06-26T13:14:53Z</time></trkpt><trkpt lat="47.234103" lon="13.145035"><ele>1895.38</ele><time>2010-06-26T13:14:57Z</time></trkpt><trkpt lat="47.234088" lon="13.145053"><ele>1895.38</ele><time>2010-06-26T13:14:59Z</time></trkpt><trkpt lat="47.234038" lon="13.145111"><ele>1891.53</ele><time>2010-06-26T13:15:05Z</time></trkpt><trkpt lat="47.234023" lon="13.145128"><ele>1897.78</ele><time>2010-06-26T13:15:07Z</time></trkpt><trkpt lat="47.234016" lon="13.145137"><ele>1891.53</ele><time>2010-06-26T13:15:08Z</time></trkpt><trkpt lat="47.234009" lon="13.145148"><ele>1894.42</ele><time>2010-06-26T13:15:09Z</time></trkpt><trkpt lat="47.233994" lon="13.145174"><ele>1892.01</ele><time>2010-06-26T13:15:11Z</time></trkpt><trkpt lat="47.233979" lon="13.145194"><ele>1897.30</ele><time>2010-06-26T13:15:13Z</time></trkpt><trkpt lat="47.233969" lon="13.145204"><ele>1896.82</ele><time>2010-06-26T13:15:14Z</time></trkpt><trkpt lat="47.233870" lon="13.145288"><ele>1892.49</ele><time>2010-06-26T13:15:25Z</time></trkpt><trkpt lat="47.233858" lon="13.145295"><ele>1895.86</ele><time>2010-06-26T13:15:26Z</time></trkpt><trkpt lat="47.233836" lon="13.145309"><ele>1897.78</ele><time>2010-06-26T13:15:28Z</time></trkpt><trkpt lat="47.233804" lon="13.145342"><ele>1901.14</ele><time>2010-06-26T13:15:32Z</time></trkpt><trkpt lat="47.233796" lon="13.145351"><ele>1896.82</ele><time>2010-06-26T13:15:33Z</time></trkpt><trkpt lat="47.233738" lon="13.145400"><ele>1899.70</ele><time>2010-06-26T13:15:39Z</time></trkpt><trkpt lat="47.233731" lon="13.145407"><ele>1896.34</ele><time>2010-06-26T13:15:40Z</time></trkpt><trkpt lat="47.233718" lon="13.145418"><ele>1899.70</ele><time>2010-06-26T13:15:42Z</time></trkpt><trkpt lat="47.233707" lon="13.145427"><ele>1895.38</ele><time>2010-06-26T13:15:43Z</time></trkpt><trkpt lat="47.233687" lon="13.145447"><ele>1899.70</ele><time>2010-06-26T13:15:45Z</time></trkpt><trkpt lat="47.233636" lon="13.145490"><ele>1895.86</ele><time>2010-06-26T13:15:51Z</time></trkpt><trkpt lat="47.233618" lon="13.145506"><ele>1901.14</ele><time>2010-06-26T13:15:53Z</time></trkpt><trkpt lat="47.233609" lon="13.145510"><ele>1897.78</ele><time>2010-06-26T13:15:54Z</time></trkpt><trkpt lat="47.233597" lon="13.145518"><ele>1902.59</ele><time>2010-06-26T13:15:56Z</time></trkpt><trkpt lat="47.233591" lon="13.145530"><ele>1897.30</ele><time>2010-06-26T13:15:57Z</time></trkpt><trkpt lat="47.233578" lon="13.145548"><ele>1901.14</ele><time>2010-06-26T13:15:59Z</time></trkpt><trkpt lat="47.233571" lon="13.145558"><ele>1899.70</ele><time>2010-06-26T13:16:00Z</time></trkpt><trkpt lat="47.233499" lon="13.145620"><ele>1903.07</ele><time>2010-06-26T13:16:07Z</time></trkpt><trkpt lat="47.233492" lon="13.145627"><ele>1898.74</ele><time>2010-06-26T13:16:08Z</time></trkpt><trkpt lat="47.233477" lon="13.145647"><ele>1904.51</ele><time>2010-06-26T13:16:10Z</time></trkpt><trkpt lat="47.233469" lon="13.145657"><ele>1899.70</ele><time>2010-06-26T13:16:11Z</time></trkpt><trkpt lat="47.233448" lon="13.145670"><ele>1903.07</ele><time>2010-06-26T13:16:13Z</time></trkpt><trkpt lat="47.233437" lon="13.145679"><ele>1899.70</ele><time>2010-06-26T13:16:14Z</time></trkpt><trkpt lat="47.233418" lon="13.145694"><ele>1903.07</ele><time>2010-06-26T13:16:16Z</time></trkpt><trkpt lat="47.233410" lon="13.145700"><ele>1902.59</ele><time>2010-06-26T13:16:17Z</time></trkpt><trkpt lat="47.233324" lon="13.145778"><ele>1903.55</ele><time>2010-06-26T13:16:28Z</time></trkpt><trkpt lat="47.233306" lon="13.145804"><ele>1904.51</ele><time>2010-06-26T13:16:30Z</time></trkpt><trkpt lat="47.233262" lon="13.145846"><ele>1901.63</ele><time>2010-06-26T13:16:35Z</time></trkpt><trkpt lat="47.233252" lon="13.145857"><ele>1904.99</ele><time>2010-06-26T13:16:36Z</time></trkpt><trkpt lat="47.233242" lon="13.145869"><ele>1902.11</ele><time>2010-06-26T13:16:37Z</time></trkpt><trkpt lat="47.233228" lon="13.145886"><ele>1905.47</ele><time>2010-06-26T13:16:39Z</time></trkpt><trkpt lat="47.233220" lon="13.145892"><ele>1904.03</ele><time>2010-06-26T13:16:40Z</time></trkpt><trkpt lat="47.233156" lon="13.145955"><ele>1906.43</ele><time>2010-06-26T13:16:48Z</time></trkpt><trkpt lat="47.233153" lon="13.145961"><ele>1903.07</ele><time>2010-06-26T13:16:49Z</time></trkpt><trkpt lat="47.233146" lon="13.145968"><ele>1906.91</ele><time>2010-06-26T13:16:50Z</time></trkpt><trkpt lat="47.233140" lon="13.145975"><ele>1901.63</ele><time>2010-06-26T13:16:51Z</time></trkpt><trkpt lat="47.233133" lon="13.145978"><ele>1904.03</ele><time>2010-06-26T13:16:52Z</time></trkpt><trkpt lat="47.233009" lon="13.146054"><ele>1909.32</ele><time>2010-06-26T13:17:06Z</time></trkpt><trkpt lat="47.233003" lon="13.146058"><ele>1907.87</ele><time>2010-06-26T13:17:07Z</time></trkpt><trkpt lat="47.232958" lon="13.146078"><ele>1903.55</ele><time>2010-06-26T13:17:11Z</time></trkpt><trkpt lat="47.232946" lon="13.146082"><ele>1906.91</ele><time>2010-06-26T13:17:12Z</time></trkpt><trkpt lat="47.232938" lon="13.146086"><ele>1910.28</ele><time>2010-06-26T13:17:13Z</time></trkpt><trkpt lat="47.232929" lon="13.146089"><ele>1904.51</ele><time>2010-06-26T13:17:14Z</time></trkpt><trkpt lat="47.232922" lon="13.146095"><ele>1904.99</ele><time>2010-06-26T13:17:15Z</time></trkpt><trkpt lat="47.232913" lon="13.146099"><ele>1909.32</ele><time>2010-06-26T13:17:16Z</time></trkpt><trkpt lat="47.232905" lon="13.146104"><ele>1903.07</ele><time>2010-06-26T13:17:17Z</time></trkpt><trkpt lat="47.232886" lon="13.146115"><ele>1909.32</ele><time>2010-06-26T13:17:19Z</time></trkpt><trkpt lat="47.232873" lon="13.146124"><ele>1908.35</ele><time>2010-06-26T13:17:20Z</time></trkpt><trkpt lat="47.232771" lon="13.146195"><ele>1912.20</ele><time>2010-06-26T13:17:29Z</time></trkpt><trkpt lat="47.232754" lon="13.146211"><ele>1908.35</ele><time>2010-06-26T13:17:31Z</time></trkpt><trkpt lat="47.232746" lon="13.146222"><ele>1912.20</ele><time>2010-06-26T13:17:32Z</time></trkpt><trkpt lat="47.232738" lon="13.146233"><ele>1909.32</ele><time>2010-06-26T13:17:33Z</time></trkpt><trkpt lat="47.232713" lon="13.146258"><ele>1912.68</ele><time>2010-06-26T13:17:36Z</time></trkpt><trkpt lat="47.232708" lon="13.146270"><ele>1904.51</ele><time>2010-06-26T13:17:37Z</time></trkpt><trkpt lat="47.232703" lon="13.146282"><ele>1908.83</ele><time>2010-06-26T13:17:38Z</time></trkpt><trkpt lat="47.232697" lon="13.146293"><ele>1912.68</ele><time>2010-06-26T13:17:39Z</time></trkpt><trkpt lat="47.232692" lon="13.146302"><ele>1905.47</ele><time>2010-06-26T13:17:40Z</time></trkpt><trkpt lat="47.232680" lon="13.146328"><ele>1911.72</ele><time>2010-06-26T13:17:42Z</time></trkpt><trkpt lat="47.232674" lon="13.146342"><ele>1906.43</ele><time>2010-06-26T13:17:43Z</time></trkpt><trkpt lat="47.232659" lon="13.146372"><ele>1912.68</ele><time>2010-06-26T13:17:45Z</time></trkpt><trkpt lat="47.232648" lon="13.146384"><ele>1911.72</ele><time>2010-06-26T13:17:46Z</time></trkpt><trkpt lat="47.232640" lon="13.146394"><ele>1907.87</ele><time>2010-06-26T13:17:47Z</time></trkpt><trkpt lat="47.232635" lon="13.146402"><ele>1911.72</ele><time>2010-06-26T13:17:48Z</time></trkpt><trkpt lat="47.232570" lon="13.146581"><ele>1916.53</ele><time>2010-06-26T13:18:01Z</time></trkpt><trkpt lat="47.232564" lon="13.146593"><ele>1909.32</ele><time>2010-06-26T13:18:02Z</time></trkpt><trkpt lat="47.232555" lon="13.146604"><ele>1911.24</ele><time>2010-06-26T13:18:03Z</time></trkpt><trkpt lat="47.232546" lon="13.146620"><ele>1915.56</ele><time>2010-06-26T13:18:04Z</time></trkpt><trkpt lat="47.232538" lon="13.146637"><ele>1912.68</ele><time>2010-06-26T13:18:05Z</time></trkpt><trkpt lat="47.232525" lon="13.146687"><ele>1916.04</ele><time>2010-06-26T13:18:09Z</time></trkpt><trkpt lat="47.232504" lon="13.146742"><ele>1910.76</ele><time>2010-06-26T13:18:13Z</time></trkpt><trkpt lat="47.232496" lon="13.146755"><ele>1912.20</ele><time>2010-06-26T13:18:14Z</time></trkpt><trkpt lat="47.232490" lon="13.146771"><ele>1917.01</ele><time>2010-06-26T13:18:15Z</time></trkpt><trkpt lat="47.232487" lon="13.146785"><ele>1910.76</ele><time>2010-06-26T13:18:16Z</time></trkpt><trkpt lat="47.232479" lon="13.146818"><ele>1916.04</ele><time>2010-06-26T13:18:18Z</time></trkpt><trkpt lat="47.232473" lon="13.146835"><ele>1914.12</ele><time>2010-06-26T13:18:19Z</time></trkpt><trkpt lat="47.232464" lon="13.146879"><ele>1917.97</ele><time>2010-06-26T13:18:23Z</time></trkpt><trkpt lat="47.232450" lon="13.146937"><ele>1913.16</ele><time>2010-06-26T13:18:27Z</time></trkpt><trkpt lat="47.232446" lon="13.146953"><ele>1917.01</ele><time>2010-06-26T13:18:28Z</time></trkpt><trkpt lat="47.232437" lon="13.146979"><ele>1912.68</ele><time>2010-06-26T13:18:30Z</time></trkpt><trkpt lat="47.232433" lon="13.146990"><ele>1914.60</ele><time>2010-06-26T13:18:31Z</time></trkpt><trkpt lat="47.232430" lon="13.147001"><ele>1919.41</ele><time>2010-06-26T13:18:32Z</time></trkpt><trkpt lat="47.232422" lon="13.147010"><ele>1913.16</ele><time>2010-06-26T13:18:33Z</time></trkpt><trkpt lat="47.232411" lon="13.147032"><ele>1917.01</ele><time>2010-06-26T13:18:35Z</time></trkpt><trkpt lat="47.232404" lon="13.147060"><ele>1914.12</ele><time>2010-06-26T13:18:37Z</time></trkpt><trkpt lat="47.232397" lon="13.147070"><ele>1917.01</ele><time>2010-06-26T13:18:38Z</time></trkpt><trkpt lat="47.232392" lon="13.147081"><ele>1918.45</ele><time>2010-06-26T13:18:39Z</time></trkpt><trkpt lat="47.232364" lon="13.147141"><ele>1920.85</ele><time>2010-06-26T13:18:44Z</time></trkpt><trkpt lat="47.232359" lon="13.147151"><ele>1914.60</ele><time>2010-06-26T13:18:45Z</time></trkpt><trkpt lat="47.232348" lon="13.147172"><ele>1921.33</ele><time>2010-06-26T13:18:47Z</time></trkpt><trkpt lat="47.232340" lon="13.147180"><ele>1915.56</ele><time>2010-06-26T13:18:48Z</time></trkpt><trkpt lat="47.232328" lon="13.147199"><ele>1919.41</ele><time>2010-06-26T13:18:50Z</time></trkpt><trkpt lat="47.232323" lon="13.147208"><ele>1917.49</ele><time>2010-06-26T13:18:51Z</time></trkpt><trkpt lat="47.232316" lon="13.147231"><ele>1920.85</ele><time>2010-06-26T13:18:53Z</time></trkpt><trkpt lat="47.232309" lon="13.147247"><ele>1919.41</ele><time>2010-06-26T13:18:54Z</time></trkpt><trkpt lat="47.232274" lon="13.147320"><ele>1916.04</ele><time>2010-06-26T13:18:59Z</time></trkpt><trkpt lat="47.232263" lon="13.147332"><ele>1920.85</ele><time>2010-06-26T13:19:00Z</time></trkpt><trkpt lat="47.232220" lon="13.147418"><ele>1917.01</ele><time>2010-06-26T13:19:07Z</time></trkpt><trkpt lat="47.232215" lon="13.147430"><ele>1920.37</ele><time>2010-06-26T13:19:08Z</time></trkpt><trkpt lat="47.232181" lon="13.147489"><ele>1924.22</ele><time>2010-06-26T13:19:12Z</time></trkpt><trkpt lat="47.232172" lon="13.147503"><ele>1917.49</ele><time>2010-06-26T13:19:13Z</time></trkpt><trkpt lat="47.232153" lon="13.147546"><ele>1922.77</ele><time>2010-06-26T13:19:16Z</time></trkpt><trkpt lat="47.232149" lon="13.147558"><ele>1918.93</ele><time>2010-06-26T13:19:17Z</time></trkpt><trkpt lat="47.232115" lon="13.147629"><ele>1917.01</ele><time>2010-06-26T13:19:24Z</time></trkpt><trkpt lat="47.232109" lon="13.147638"><ele>1920.85</ele><time>2010-06-26T13:19:25Z</time></trkpt><trkpt lat="47.232105" lon="13.147649"><ele>1926.14</ele><time>2010-06-26T13:19:26Z</time></trkpt><trkpt lat="47.232100" lon="13.147660"><ele>1918.45</ele><time>2010-06-26T13:19:27Z</time></trkpt><trkpt lat="47.232085" lon="13.147676"><ele>1924.70</ele><time>2010-06-26T13:19:29Z</time></trkpt><trkpt lat="47.232075" lon="13.147683"><ele>1922.77</ele><time>2010-06-26T13:19:30Z</time></trkpt><trkpt lat="47.232017" lon="13.147809"><ele>1924.22</ele><time>2010-06-26T13:19:42Z</time></trkpt><trkpt lat="47.232005" lon="13.147833"><ele>1925.66</ele><time>2010-06-26T13:19:44Z</time></trkpt><trkpt lat="47.231990" lon="13.147851"><ele>1924.70</ele><time>2010-06-26T13:19:46Z</time></trkpt><trkpt lat="47.231984" lon="13.147863"><ele>1921.33</ele><time>2010-06-26T13:19:47Z</time></trkpt><trkpt lat="47.231978" lon="13.147877"><ele>1926.62</ele><time>2010-06-26T13:19:48Z</time></trkpt><trkpt lat="47.231963" lon="13.147901"><ele>1922.29</ele><time>2010-06-26T13:19:50Z</time></trkpt><trkpt lat="47.231958" lon="13.147910"><ele>1925.66</ele><time>2010-06-26T13:19:51Z</time></trkpt><trkpt lat="47.231947" lon="13.147938"><ele>1921.81</ele><time>2010-06-26T13:19:53Z</time></trkpt><trkpt lat="47.231943" lon="13.147950"><ele>1926.14</ele><time>2010-06-26T13:19:54Z</time></trkpt><trkpt lat="47.231937" lon="13.147960"><ele>1926.14</ele><time>2010-06-26T13:19:55Z</time></trkpt><trkpt lat="47.231901" lon="13.148031"><ele>1926.62</ele><time>2010-06-26T13:20:02Z</time></trkpt><trkpt lat="47.231870" lon="13.148111"><ele>1922.77</ele><time>2010-06-26T13:20:08Z</time></trkpt><trkpt lat="47.231786" lon="13.148203"><ele>1930.46</ele><time>2010-06-26T13:20:18Z</time></trkpt><trkpt lat="47.231782" lon="13.148218"><ele>1923.74</ele><time>2010-06-26T13:20:19Z</time></trkpt><trkpt lat="47.231776" lon="13.148230"><ele>1928.06</ele><time>2010-06-26T13:20:20Z</time></trkpt><trkpt lat="47.231769" lon="13.148244"><ele>1930.95</ele><time>2010-06-26T13:20:21Z</time></trkpt><trkpt lat="47.231761" lon="13.148254"><ele>1924.70</ele><time>2010-06-26T13:20:22Z</time></trkpt><trkpt lat="47.231744" lon="13.148276"><ele>1929.98</ele><time>2010-06-26T13:20:24Z</time></trkpt><trkpt lat="47.231735" lon="13.148299"><ele>1926.62</ele><time>2010-06-26T13:20:26Z</time></trkpt><trkpt lat="47.231732" lon="13.148313"><ele>1930.46</ele><time>2010-06-26T13:20:27Z</time></trkpt><trkpt lat="47.231654" lon="13.148460"><ele>1926.62</ele><time>2010-06-26T13:20:39Z</time></trkpt><trkpt lat="47.231649" lon="13.148472"><ele>1929.50</ele><time>2010-06-26T13:20:40Z</time></trkpt><trkpt lat="47.231631" lon="13.148500"><ele>1925.18</ele><time>2010-06-26T13:20:42Z</time></trkpt><trkpt lat="47.231624" lon="13.148513"><ele>1929.50</ele><time>2010-06-26T13:20:43Z</time></trkpt><trkpt lat="47.231617" lon="13.148522"><ele>1932.87</ele><time>2010-06-26T13:20:44Z</time></trkpt><trkpt lat="47.231610" lon="13.148531"><ele>1930.95</ele><time>2010-06-26T13:20:45Z</time></trkpt><trkpt lat="47.231573" lon="13.148584"><ele>1934.31</ele><time>2010-06-26T13:20:50Z</time></trkpt><trkpt lat="47.231545" lon="13.148633"><ele>1929.50</ele><time>2010-06-26T13:20:54Z</time></trkpt><trkpt lat="47.231527" lon="13.148653"><ele>1935.27</ele><time>2010-06-26T13:20:56Z</time></trkpt><trkpt lat="47.231521" lon="13.148658"><ele>1928.06</ele><time>2010-06-26T13:20:57Z</time></trkpt><trkpt lat="47.231515" lon="13.148666"><ele>1931.91</ele><time>2010-06-26T13:20:58Z</time></trkpt><trkpt lat="47.231496" lon="13.148687"><ele>1928.06</ele><time>2010-06-26T13:21:00Z</time></trkpt><trkpt lat="47.231490" lon="13.148694"><ele>1931.43</ele><time>2010-06-26T13:21:01Z</time></trkpt><trkpt lat="47.231476" lon="13.148717"><ele>1933.83</ele><time>2010-06-26T13:21:03Z</time></trkpt><trkpt lat="47.231452" lon="13.148757"><ele>1937.19</ele><time>2010-06-26T13:21:07Z</time></trkpt><trkpt lat="47.231444" lon="13.148767"><ele>1929.98</ele><time>2010-06-26T13:21:08Z</time></trkpt><trkpt lat="47.231437" lon="13.148777"><ele>1934.31</ele><time>2010-06-26T13:21:09Z</time></trkpt><trkpt lat="47.231430" lon="13.148786"><ele>1938.16</ele><time>2010-06-26T13:21:10Z</time></trkpt><trkpt lat="47.231424" lon="13.148795"><ele>1929.50</ele><time>2010-06-26T13:21:11Z</time></trkpt><trkpt lat="47.231418" lon="13.148805"><ele>1931.91</ele><time>2010-06-26T13:21:12Z</time></trkpt><trkpt lat="47.231410" lon="13.148815"><ele>1937.19</ele><time>2010-06-26T13:21:13Z</time></trkpt><trkpt lat="47.231400" lon="13.148824"><ele>1936.71</ele><time>2010-06-26T13:21:14Z</time></trkpt><trkpt lat="47.231394" lon="13.148832"><ele>1931.43</ele><time>2010-06-26T13:21:15Z</time></trkpt><trkpt lat="47.231385" lon="13.148841"><ele>1937.19</ele><time>2010-06-26T13:21:16Z</time></trkpt><trkpt lat="47.231363" lon="13.148856"><ele>1932.87</ele><time>2010-06-26T13:21:18Z</time></trkpt><trkpt lat="47.231353" lon="13.148860"><ele>1936.23</ele><time>2010-06-26T13:21:19Z</time></trkpt><trkpt lat="47.231322" lon="13.148887"><ele>1936.71</ele><time>2010-06-26T13:21:23Z</time></trkpt><trkpt lat="47.231300" lon="13.148906"><ele>1940.08</ele><time>2010-06-26T13:21:25Z</time></trkpt><trkpt lat="47.231290" lon="13.148916"><ele>1932.39</ele><time>2010-06-26T13:21:26Z</time></trkpt><trkpt lat="47.231281" lon="13.148927"><ele>1934.79</ele><time>2010-06-26T13:21:27Z</time></trkpt><trkpt lat="47.231273" lon="13.148936"><ele>1939.60</ele><time>2010-06-26T13:21:28Z</time></trkpt><trkpt lat="47.231267" lon="13.148941"><ele>1930.95</ele><time>2010-06-26T13:21:29Z</time></trkpt><trkpt lat="47.231260" lon="13.148945"><ele>1933.83</ele><time>2010-06-26T13:21:30Z</time></trkpt><trkpt lat="47.231251" lon="13.148953"><ele>1939.12</ele><time>2010-06-26T13:21:31Z</time></trkpt><trkpt lat="47.231243" lon="13.148964"><ele>1934.31</ele><time>2010-06-26T13:21:32Z</time></trkpt><trkpt lat="47.231225" lon="13.148979"><ele>1938.16</ele><time>2010-06-26T13:21:34Z</time></trkpt><trkpt lat="47.231213" lon="13.148986"><ele>1937.19</ele><time>2010-06-26T13:21:35Z</time></trkpt><trkpt lat="47.231203" lon="13.148998"><ele>1934.31</ele><time>2010-06-26T13:21:36Z</time></trkpt><trkpt lat="47.231194" lon="13.149008"><ele>1937.67</ele><time>2010-06-26T13:21:37Z</time></trkpt><trkpt lat="47.231177" lon="13.149029"><ele>1938.64</ele><time>2010-06-26T13:21:39Z</time></trkpt><trkpt lat="47.231167" lon="13.149046"><ele>1937.19</ele><time>2010-06-26T13:21:41Z</time></trkpt><trkpt lat="47.231161" lon="13.149058"><ele>1940.56</ele><time>2010-06-26T13:21:42Z</time></trkpt><trkpt lat="47.231159" lon="13.149067"><ele>1934.31</ele><time>2010-06-26T13:21:43Z</time></trkpt><trkpt lat="47.231156" lon="13.149081"><ele>1938.16</ele><time>2010-06-26T13:21:44Z</time></trkpt><trkpt lat="47.231158" lon="13.149150"><ele>1938.16</ele><time>2010-06-26T13:22:02Z</time></trkpt><trkpt lat="47.231163" lon="13.149172"><ele>1936.71</ele><time>2010-06-26T13:22:09Z</time></trkpt><trkpt lat="47.231179" lon="13.149207"><ele>1938.64</ele><time>2010-06-26T13:22:12Z</time></trkpt><trkpt lat="47.231167" lon="13.149167"><ele>1937.19</ele><time>2010-06-26T13:22:33Z</time></trkpt><trkpt lat="47.231157" lon="13.149151"><ele>1936.23</ele><time>2010-06-26T13:23:21Z</time></trkpt><trkpt lat="47.231157" lon="13.149144"><ele>1938.16</ele><time>2010-06-26T13:23:46Z</time></trkpt><trkpt lat="47.231147" lon="13.149175"><ele>1940.56</ele><time>2010-06-26T13:28:13Z</time></trkpt><trkpt lat="47.231162" lon="13.149200"><ele>1940.08</ele><time>2010-06-26T13:28:17Z</time></trkpt><trkpt lat="47.231270" lon="13.149164"><ele>1940.56</ele><time>2010-06-26T13:28:28Z</time></trkpt><trkpt lat="47.231285" lon="13.149167"><ele>1940.56</ele><time>2010-06-26T13:28:29Z</time></trkpt><trkpt lat="47.231310" lon="13.149161"><ele>1940.56</ele><time>2010-06-26T13:28:31Z</time></trkpt><trkpt lat="47.231481" lon="13.149092"><ele>1939.60</ele><time>2010-06-26T13:28:44Z</time></trkpt><trkpt lat="47.231550" lon="13.149078"><ele>1942.00</ele><time>2010-06-26T13:28:50Z</time></trkpt><trkpt lat="47.231585" lon="13.149070"><ele>1941.04</ele><time>2010-06-26T13:28:53Z</time></trkpt><trkpt lat="47.231695" lon="13.149002"><ele>1944.40</ele><time>2010-06-26T13:29:04Z</time></trkpt><trkpt lat="47.231807" lon="13.148934"><ele>1946.33</ele><time>2010-06-26T13:29:16Z</time></trkpt><trkpt lat="47.231841" lon="13.148911"><ele>1946.81</ele><time>2010-06-26T13:29:20Z</time></trkpt><trkpt lat="47.232012" lon="13.148779"><ele>1948.73</ele><time>2010-06-26T13:29:36Z</time></trkpt><trkpt lat="47.232036" lon="13.148764"><ele>1947.29</ele><time>2010-06-26T13:29:38Z</time></trkpt><trkpt lat="47.232080" lon="13.148739"><ele>1948.73</ele><time>2010-06-26T13:29:43Z</time></trkpt><trkpt lat="47.232165" lon="13.148661"><ele>1948.25</ele><time>2010-06-26T13:29:55Z</time></trkpt><trkpt lat="47.232179" lon="13.148652"><ele>1949.69</ele><time>2010-06-26T13:29:57Z</time></trkpt><trkpt lat="47.232238" lon="13.148601"><ele>1953.06</ele><time>2010-06-26T13:30:04Z</time></trkpt><trkpt lat="47.232255" lon="13.148583"><ele>1951.13</ele><time>2010-06-26T13:30:06Z</time></trkpt><trkpt lat="47.232303" lon="13.148534"><ele>1953.54</ele><time>2010-06-26T13:30:12Z</time></trkpt><trkpt lat="47.232356" lon="13.148486"><ele>1956.42</ele><time>2010-06-26T13:30:19Z</time></trkpt><trkpt lat="47.232363" lon="13.148481"><ele>1952.57</ele><time>2010-06-26T13:30:20Z</time></trkpt><trkpt lat="47.232388" lon="13.148452"><ele>1955.94</ele><time>2010-06-26T13:30:24Z</time></trkpt><trkpt lat="47.232446" lon="13.148395"><ele>1956.90</ele><time>2010-06-26T13:30:34Z</time></trkpt><trkpt lat="47.232458" lon="13.148386"><ele>1959.30</ele><time>2010-06-26T13:30:36Z</time></trkpt><trkpt lat="47.232506" lon="13.148347"><ele>1958.34</ele><time>2010-06-26T13:30:45Z</time></trkpt><trkpt lat="47.232562" lon="13.148327"><ele>1960.27</ele><time>2010-06-26T13:31:14Z</time></trkpt><trkpt lat="47.232625" lon="13.148296"><ele>1963.63</ele><time>2010-06-26T13:31:42Z</time></trkpt><trkpt lat="47.232699" lon="13.148262"><ele>1964.59</ele><time>2010-06-26T13:31:50Z</time></trkpt><trkpt lat="47.232745" lon="13.148226"><ele>1965.07</ele><time>2010-06-26T13:31:55Z</time></trkpt><trkpt lat="47.232787" lon="13.148181"><ele>1966.99</ele><time>2010-06-26T13:32:01Z</time></trkpt><trkpt lat="47.232806" lon="13.148172"><ele>1966.99</ele><time>2010-06-26T13:32:03Z</time></trkpt><trkpt lat="47.232849" lon="13.148154"><ele>1969.88</ele><time>2010-06-26T13:32:08Z</time></trkpt><trkpt lat="47.232865" lon="13.148141"><ele>1965.55</ele><time>2010-06-26T13:32:11Z</time></trkpt><trkpt lat="47.232877" lon="13.148130"><ele>1969.40</ele><time>2010-06-26T13:32:13Z</time></trkpt><trkpt lat="47.232884" lon="13.148126"><ele>1964.59</ele><time>2010-06-26T13:32:14Z</time></trkpt><trkpt lat="47.232889" lon="13.148124"><ele>1968.44</ele><time>2010-06-26T13:32:15Z</time></trkpt><trkpt lat="47.232908" lon="13.148108"><ele>1969.88</ele><time>2010-06-26T13:32:18Z</time></trkpt><trkpt lat="47.233009" lon="13.148078"><ele>1973.24</ele><time>2010-06-26T13:32:33Z</time></trkpt><trkpt lat="47.233062" lon="13.148094"><ele>1976.13</ele><time>2010-06-26T13:32:40Z</time></trkpt><trkpt lat="47.233069" lon="13.148093"><ele>1975.65</ele><time>2010-06-26T13:32:41Z</time></trkpt><trkpt lat="47.233089" lon="13.148087"><ele>1974.69</ele><time>2010-06-26T13:32:43Z</time></trkpt><trkpt lat="47.233148" lon="13.148100"><ele>1978.05</ele><time>2010-06-26T13:32:51Z</time></trkpt><trkpt lat="47.233155" lon="13.148105"><ele>1974.20</ele><time>2010-06-26T13:32:52Z</time></trkpt><trkpt lat="47.233161" lon="13.148106"><ele>1977.57</ele><time>2010-06-26T13:32:53Z</time></trkpt><trkpt lat="47.233230" lon="13.148098"><ele>1978.05</ele><time>2010-06-26T13:33:01Z</time></trkpt><trkpt lat="47.233265" lon="13.148096"><ele>1981.41</ele><time>2010-06-26T13:33:05Z</time></trkpt><trkpt lat="47.233314" lon="13.148113"><ele>1982.38</ele><time>2010-06-26T13:33:16Z</time></trkpt><trkpt lat="47.233320" lon="13.148118"><ele>1983.34</ele><time>2010-06-26T13:33:18Z</time></trkpt><trkpt lat="47.233399" lon="13.148113"><ele>1984.30</ele><time>2010-06-26T13:33:32Z</time></trkpt><trkpt lat="47.233399" lon="13.148113"><ele>1981.41</ele><time>2010-06-26T13:33:42Z</time></trkpt><trkpt lat="47.233406" lon="13.148113"><ele>1986.70</ele><time>2010-06-26T13:33:43Z</time></trkpt><trkpt lat="47.233414" lon="13.148111"><ele>1983.34</ele><time>2010-06-26T13:33:44Z</time></trkpt><trkpt lat="47.233438" lon="13.148110"><ele>1987.18</ele><time>2010-06-26T13:33:47Z</time></trkpt><trkpt lat="47.233505" lon="13.148088"><ele>1988.14</ele><time>2010-06-26T13:33:57Z</time></trkpt><trkpt lat="47.233612" lon="13.148041"><ele>1990.55</ele><time>2010-06-26T13:34:09Z</time></trkpt><trkpt lat="47.233687" lon="13.147979"><ele>1990.07</ele><time>2010-06-26T13:34:21Z</time></trkpt><trkpt lat="47.233713" lon="13.147949"><ele>1993.43</ele><time>2010-06-26T13:34:26Z</time></trkpt><trkpt lat="47.233720" lon="13.147942"><ele>1990.07</ele><time>2010-06-26T13:34:27Z</time></trkpt><trkpt lat="47.233732" lon="13.147930"><ele>1993.43</ele><time>2010-06-26T13:34:30Z</time></trkpt><trkpt lat="47.233794" lon="13.147866"><ele>1996.80</ele><time>2010-06-26T13:34:38Z</time></trkpt><trkpt lat="47.233839" lon="13.147815"><ele>1997.76</ele><time>2010-06-26T13:34:44Z</time></trkpt><trkpt lat="47.233853" lon="13.147804"><ele>1995.83</ele><time>2010-06-26T13:34:46Z</time></trkpt><trkpt lat="47.233859" lon="13.147800"><ele>1999.68</ele><time>2010-06-26T13:34:47Z</time></trkpt><trkpt lat="47.233869" lon="13.147797"><ele>1995.83</ele><time>2010-06-26T13:34:48Z</time></trkpt><trkpt lat="47.233877" lon="13.147799"><ele>1999.20</ele><time>2010-06-26T13:34:49Z</time></trkpt><trkpt lat="47.233934" lon="13.147829"><ele>1999.20</ele><time>2010-06-26T13:35:04Z</time></trkpt><trkpt lat="47.233939" lon="13.147827"><ele>2000.64</ele><time>2010-06-26T13:35:08Z</time></trkpt><trkpt lat="47.234040" lon="13.147753"><ele>2001.12</ele><time>2010-06-26T13:35:17Z</time></trkpt><trkpt lat="47.234084" lon="13.147731"><ele>2001.12</ele><time>2010-06-26T13:35:21Z</time></trkpt><trkpt lat="47.234121" lon="13.147719"><ele>2001.12</ele><time>2010-06-26T13:35:25Z</time></trkpt><trkpt lat="47.234209" lon="13.147665"><ele>2003.04</ele><time>2010-06-26T13:35:35Z</time></trkpt><trkpt lat="47.234327" lon="13.147597"><ele>2005.93</ele><time>2010-06-26T13:35:45Z</time></trkpt><trkpt lat="47.234441" lon="13.147518"><ele>2005.45</ele><time>2010-06-26T13:35:55Z</time></trkpt><trkpt lat="47.234464" lon="13.147506"><ele>2007.37</ele><time>2010-06-26T13:35:57Z</time></trkpt><trkpt lat="47.234510" lon="13.147490"><ele>2007.85</ele><time>2010-06-26T13:36:01Z</time></trkpt><trkpt lat="47.234629" lon="13.147431"><ele>2008.81</ele><time>2010-06-26T13:36:14Z</time></trkpt><trkpt lat="47.234651" lon="13.147418"><ele>2011.22</ele><time>2010-06-26T13:36:16Z</time></trkpt><trkpt lat="47.234721" lon="13.147373"><ele>2010.25</ele><time>2010-06-26T13:36:22Z</time></trkpt><trkpt lat="47.234739" lon="13.147346"><ele>2012.66</ele><time>2010-06-26T13:36:24Z</time></trkpt><trkpt lat="47.234884" lon="13.147322"><ele>2014.10</ele><time>2010-06-26T13:36:38Z</time></trkpt><trkpt lat="47.234920" lon="13.147355"><ele>2013.14</ele><time>2010-06-26T13:36:44Z</time></trkpt><trkpt lat="47.234984" lon="13.147448"><ele>2014.58</ele><time>2010-06-26T13:36:54Z</time></trkpt><trkpt lat="47.234997" lon="13.147467"><ele>2011.22</ele><time>2010-06-26T13:36:56Z</time></trkpt><trkpt lat="47.235003" lon="13.147476"><ele>2015.06</ele><time>2010-06-26T13:36:57Z</time></trkpt><trkpt lat="47.235024" lon="13.147505"><ele>2016.50</ele><time>2010-06-26T13:37:57Z</time></trkpt><trkpt lat="47.235033" lon="13.147508"><ele>2016.50</ele><time>2010-06-26T13:40:03Z</time></trkpt><trkpt lat="47.235033" lon="13.147508"><ele>2015.54</ele><time>2010-06-26T13:40:26Z</time></trkpt><trkpt lat="47.235041" lon="13.147511"><ele>2016.02</ele><time>2010-06-26T13:41:28Z</time></trkpt><trkpt lat="47.235101" lon="13.147605"><ele>2017.94</ele><time>2010-06-26T13:41:38Z</time></trkpt><trkpt lat="47.235174" lon="13.147670"><ele>2018.91</ele><time>2010-06-26T13:41:45Z</time></trkpt><trkpt lat="47.235210" lon="13.147724"><ele>2018.91</ele><time>2010-06-26T13:41:50Z</time></trkpt><trkpt lat="47.235313" lon="13.147828"><ele>2019.39</ele><time>2010-06-26T13:42:01Z</time></trkpt><trkpt lat="47.235469" lon="13.147943"><ele>2018.43</ele><time>2010-06-26T13:42:15Z</time></trkpt><trkpt lat="47.235479" lon="13.147945"><ele>2018.43</ele><time>2010-06-26T13:42:16Z</time></trkpt><trkpt lat="47.235616" lon="13.148036"><ele>2018.43</ele><time>2010-06-26T13:42:29Z</time></trkpt><trkpt lat="47.235663" lon="13.148010"><ele>2018.91</ele><time>2010-06-26T13:42:42Z</time></trkpt><trkpt lat="47.235674" lon="13.148028"><ele>2018.43</ele><time>2010-06-26T13:42:53Z</time></trkpt><trkpt lat="47.235679" lon="13.148045"><ele>2018.43</ele><time>2010-06-26T13:43:07Z</time></trkpt><trkpt lat="47.235715" lon="13.148093"><ele>2017.94</ele><time>2010-06-26T13:43:11Z</time></trkpt><trkpt lat="47.235739" lon="13.148101"><ele>2018.91</ele><time>2010-06-26T13:43:13Z</time></trkpt><trkpt lat="47.235840" lon="13.148223"><ele>2016.98</ele><time>2010-06-26T13:43:24Z</time></trkpt><trkpt lat="47.235848" lon="13.148236"><ele>2015.54</ele><time>2010-06-26T13:43:26Z</time></trkpt><trkpt lat="47.235874" lon="13.148281"><ele>2016.98</ele><time>2010-06-26T13:43:29Z</time></trkpt><trkpt lat="47.235984" lon="13.148310"><ele>2014.10</ele><time>2010-06-26T13:43:35Z</time></trkpt><trkpt lat="47.235996" lon="13.148310"><ele>2014.10</ele><time>2010-06-26T13:43:36Z</time></trkpt><trkpt lat="47.236019" lon="13.148323"><ele>2013.62</ele><time>2010-06-26T13:43:39Z</time></trkpt><trkpt lat="47.236077" lon="13.148404"><ele>2012.18</ele><time>2010-06-26T13:43:44Z</time></trkpt><trkpt lat="47.236105" lon="13.148427"><ele>2011.70</ele><time>2010-06-26T13:43:46Z</time></trkpt><trkpt lat="47.236177" lon="13.148476"><ele>2010.25</ele><time>2010-06-26T13:43:52Z</time></trkpt><trkpt lat="47.236235" lon="13.148491"><ele>2008.81</ele><time>2010-06-26T13:43:56Z</time></trkpt><trkpt lat="47.236276" lon="13.148493"><ele>2009.29</ele><time>2010-06-26T13:44:00Z</time></trkpt><trkpt lat="47.236362" lon="13.148594"><ele>2007.85</ele><time>2010-06-26T13:44:09Z</time></trkpt><trkpt lat="47.236433" lon="13.148639"><ele>2005.45</ele><time>2010-06-26T13:44:16Z</time></trkpt><trkpt lat="47.236592" lon="13.148713"><ele>2004.01</ele><time>2010-06-26T13:44:27Z</time></trkpt><trkpt lat="47.236620" lon="13.148724"><ele>2004.49</ele><time>2010-06-26T13:44:29Z</time></trkpt><trkpt lat="47.236663" lon="13.148783"><ele>2004.97</ele><time>2010-06-26T13:44:33Z</time></trkpt><trkpt lat="47.236702" lon="13.148786"><ele>2003.04</ele><time>2010-06-26T13:44:38Z</time></trkpt><trkpt lat="47.236818" lon="13.148852"><ele>2002.08</ele><time>2010-06-26T13:44:47Z</time></trkpt><trkpt lat="47.236840" lon="13.148855"><ele>2000.64</ele><time>2010-06-26T13:44:49Z</time></trkpt><trkpt lat="47.236875" lon="13.148891"><ele>1998.24</ele><time>2010-06-26T13:44:53Z</time></trkpt><trkpt lat="47.236925" lon="13.148896"><ele>1997.76</ele><time>2010-06-26T13:44:57Z</time></trkpt><trkpt lat="47.236999" lon="13.148913"><ele>1995.35</ele><time>2010-06-26T13:45:06Z</time></trkpt><trkpt lat="47.237024" lon="13.148915"><ele>1994.39</ele><time>2010-06-26T13:45:08Z</time></trkpt><trkpt lat="47.237176" lon="13.149002"><ele>1991.03</ele><time>2010-06-26T13:45:21Z</time></trkpt><trkpt lat="47.237193" lon="13.149014"><ele>1990.55</ele><time>2010-06-26T13:45:22Z</time></trkpt><trkpt lat="47.237269" lon="13.149098"><ele>1987.18</ele><time>2010-06-26T13:45:32Z</time></trkpt><trkpt lat="47.237281" lon="13.149108"><ele>1987.66</ele><time>2010-06-26T13:45:33Z</time></trkpt><trkpt lat="47.237414" lon="13.149282"><ele>1988.14</ele><time>2010-06-26T13:45:46Z</time></trkpt><trkpt lat="47.237512" lon="13.149471"><ele>1989.59</ele><time>2010-06-26T13:45:59Z</time></trkpt><trkpt lat="47.237609" lon="13.149630"><ele>1991.03</ele><time>2010-06-26T13:46:10Z</time></trkpt><trkpt lat="47.237618" lon="13.149654"><ele>1988.14</ele><time>2010-06-26T13:46:12Z</time></trkpt><trkpt lat="47.237634" lon="13.149680"><ele>1991.99</ele><time>2010-06-26T13:46:14Z</time></trkpt><trkpt lat="47.237642" lon="13.149689"><ele>1991.51</ele><time>2010-06-26T13:46:15Z</time></trkpt><trkpt lat="47.237717" lon="13.149837"><ele>1991.51</ele><time>2010-06-26T13:46:27Z</time></trkpt><trkpt lat="47.237755" lon="13.149898"><ele>1990.55</ele><time>2010-06-26T13:46:31Z</time></trkpt><trkpt lat="47.237831" lon="13.149942"><ele>1990.07</ele><time>2010-06-26T13:46:36Z</time></trkpt><trkpt lat="47.237853" lon="13.149952"><ele>1989.10</ele><time>2010-06-26T13:46:38Z</time></trkpt><trkpt lat="47.238012" lon="13.150042"><ele>1987.66</ele><time>2010-06-26T13:46:51Z</time></trkpt><trkpt lat="47.238144" lon="13.150146"><ele>1989.10</ele><time>2010-06-26T13:47:00Z</time></trkpt><trkpt lat="47.238200" lon="13.150215"><ele>1988.62</ele><time>2010-06-26T13:47:05Z</time></trkpt><trkpt lat="47.238420" lon="13.150298"><ele>1984.30</ele><time>2010-06-26T13:47:19Z</time></trkpt><trkpt lat="47.238448" lon="13.150315"><ele>1988.14</ele><time>2010-06-26T13:47:21Z</time></trkpt><trkpt lat="47.238460" lon="13.150333"><ele>1987.66</ele><time>2010-06-26T13:47:22Z</time></trkpt><trkpt lat="47.238549" lon="13.150422"><ele>1984.30</ele><time>2010-06-26T13:47:29Z</time></trkpt><trkpt lat="47.238563" lon="13.150432"><ele>1984.30</ele><time>2010-06-26T13:47:31Z</time></trkpt><trkpt lat="47.238645" lon="13.150471"><ele>1983.34</ele><time>2010-06-26T13:47:37Z</time></trkpt><trkpt lat="47.238704" lon="13.150488"><ele>1981.41</ele><time>2010-06-26T13:47:42Z</time></trkpt><trkpt lat="47.238736" lon="13.150485"><ele>1979.49</ele><time>2010-06-26T13:47:47Z</time></trkpt><trkpt lat="47.238830" lon="13.150476"><ele>1978.05</ele><time>2010-06-26T13:47:53Z</time></trkpt><trkpt lat="47.238895" lon="13.150492"><ele>1975.17</ele><time>2010-06-26T13:47:59Z</time></trkpt><trkpt lat="47.238903" lon="13.150493"><ele>1975.17</ele><time>2010-06-26T13:48:00Z</time></trkpt><trkpt lat="47.238933" lon="13.150518"><ele>1972.76</ele><time>2010-06-26T13:48:04Z</time></trkpt><trkpt lat="47.238939" lon="13.150526"><ele>1973.24</ele><time>2010-06-26T13:48:05Z</time></trkpt><trkpt lat="47.238993" lon="13.150551"><ele>1972.28</ele><time>2010-06-26T13:48:09Z</time></trkpt><trkpt lat="47.239106" lon="13.150562"><ele>1969.40</ele><time>2010-06-26T13:48:17Z</time></trkpt><trkpt lat="47.239138" lon="13.150564"><ele>1967.96</ele><time>2010-06-26T13:48:19Z</time></trkpt><trkpt lat="47.239204" lon="13.150555"><ele>1965.55</ele><time>2010-06-26T13:48:24Z</time></trkpt><trkpt lat="47.239238" lon="13.150577"><ele>1964.59</ele><time>2010-06-26T13:48:27Z</time></trkpt><trkpt lat="47.239269" lon="13.150589"><ele>1963.15</ele><time>2010-06-26T13:48:29Z</time></trkpt><trkpt lat="47.239345" lon="13.150600"><ele>1960.27</ele><time>2010-06-26T13:48:35Z</time></trkpt><trkpt lat="47.239386" lon="13.150632"><ele>1958.34</ele><time>2010-06-26T13:48:39Z</time></trkpt><trkpt lat="47.239519" lon="13.150679"><ele>1955.94</ele><time>2010-06-26T13:48:49Z</time></trkpt><trkpt lat="47.239527" lon="13.150685"><ele>1955.46</ele><time>2010-06-26T13:48:50Z</time></trkpt><trkpt lat="47.239663" lon="13.150781"><ele>1953.54</ele><time>2010-06-26T13:49:01Z</time></trkpt><trkpt lat="47.239722" lon="13.150764"><ele>1953.54</ele><time>2010-06-26T13:49:19Z</time></trkpt><trkpt lat="47.239770" lon="13.150736"><ele>1952.57</ele><time>2010-06-26T13:49:40Z</time></trkpt><trkpt lat="47.239778" lon="13.150716"><ele>1951.61</ele><time>2010-06-26T13:49:42Z</time></trkpt><trkpt lat="47.239842" lon="13.150711"><ele>1949.69</ele><time>2010-06-26T13:49:49Z</time></trkpt><trkpt lat="47.239989" lon="13.150771"><ele>1949.21</ele><time>2010-06-26T13:50:00Z</time></trkpt><trkpt lat="47.240126" lon="13.150832"><ele>1947.77</ele><time>2010-06-26T13:50:09Z</time></trkpt><trkpt lat="47.240275" lon="13.150836"><ele>1948.25</ele><time>2010-06-26T13:50:19Z</time></trkpt><trkpt lat="47.240364" lon="13.150882"><ele>1950.65</ele><time>2010-06-26T13:50:27Z</time></trkpt><trkpt lat="47.240393" lon="13.150889"><ele>1949.69</ele><time>2010-06-26T13:50:29Z</time></trkpt><trkpt lat="47.240449" lon="13.150900"><ele>1950.17</ele><time>2010-06-26T13:50:33Z</time></trkpt><trkpt lat="47.240510" lon="13.150880"><ele>1948.73</ele><time>2010-06-26T13:50:38Z</time></trkpt><trkpt lat="47.240603" lon="13.150903"><ele>1949.21</ele><time>2010-06-26T13:50:46Z</time></trkpt><trkpt lat="47.240623" lon="13.150915"><ele>1949.21</ele><time>2010-06-26T13:50:48Z</time></trkpt><trkpt lat="47.240791" lon="13.150967"><ele>1948.73</ele><time>2010-06-26T13:51:00Z</time></trkpt><trkpt lat="47.240892" lon="13.150989"><ele>1949.69</ele><time>2010-06-26T13:51:08Z</time></trkpt><trkpt lat="47.241036" lon="13.151012"><ele>1949.21</ele><time>2010-06-26T13:51:17Z</time></trkpt><trkpt lat="47.241133" lon="13.151108"><ele>1947.77</ele><time>2010-06-26T13:51:26Z</time></trkpt><trkpt lat="47.241208" lon="13.151218"><ele>1948.73</ele><time>2010-06-26T13:51:34Z</time></trkpt><trkpt lat="47.241269" lon="13.151260"><ele>1947.77</ele><time>2010-06-26T13:51:39Z</time></trkpt><trkpt lat="47.241325" lon="13.151278"><ele>1947.77</ele><time>2010-06-26T13:51:43Z</time></trkpt><trkpt lat="47.241364" lon="13.151286"><ele>1949.21</ele><time>2010-06-26T13:51:46Z</time></trkpt><trkpt lat="47.241377" lon="13.151293"><ele>1949.21</ele><time>2010-06-26T13:51:47Z</time></trkpt><trkpt lat="47.241440" lon="13.151351"><ele>1948.25</ele><time>2010-06-26T13:51:53Z</time></trkpt><trkpt lat="47.241485" lon="13.151416"><ele>1949.69</ele><time>2010-06-26T13:51:57Z</time></trkpt><trkpt lat="47.241606" lon="13.151579"><ele>1948.73</ele><time>2010-06-26T13:52:08Z</time></trkpt><trkpt lat="47.241625" lon="13.151596"><ele>1949.21</ele><time>2010-06-26T13:52:10Z</time></trkpt><trkpt lat="47.241690" lon="13.151672"><ele>1950.17</ele><time>2010-06-26T13:52:15Z</time></trkpt><trkpt lat="47.241796" lon="13.151970"><ele>1947.77</ele><time>2010-06-26T13:52:30Z</time></trkpt><trkpt lat="47.241933" lon="13.152182"><ele>1947.77</ele><time>2010-06-26T13:52:43Z</time></trkpt><trkpt lat="47.242008" lon="13.152296"><ele>1949.69</ele><time>2010-06-26T13:52:51Z</time></trkpt><trkpt lat="47.242034" lon="13.152332"><ele>1948.73</ele><time>2010-06-26T13:52:53Z</time></trkpt><trkpt lat="47.242199" lon="13.152468"><ele>1946.81</ele><time>2010-06-26T13:53:05Z</time></trkpt><trkpt lat="47.242247" lon="13.152484"><ele>1947.29</ele><time>2010-06-26T13:53:09Z</time></trkpt><trkpt lat="47.242325" lon="13.152596"><ele>1948.73</ele><time>2010-06-26T13:53:16Z</time></trkpt><trkpt lat="47.242404" lon="13.152767"><ele>1949.69</ele><time>2010-06-26T13:53:29Z</time></trkpt><trkpt lat="47.242480" lon="13.152980"><ele>1951.61</ele><time>2010-06-26T13:53:40Z</time></trkpt><trkpt lat="47.242533" lon="13.153022"><ele>1950.65</ele><time>2010-06-26T13:53:51Z</time></trkpt><trkpt lat="47.242531" lon="13.153015"><ele>1951.13</ele><time>2010-06-26T13:54:18Z</time></trkpt><trkpt lat="47.242535" lon="13.153017"><ele>1950.17</ele><time>2010-06-26T13:54:41Z</time></trkpt><trkpt lat="47.242550" lon="13.153034"><ele>1951.13</ele><time>2010-06-26T13:54:55Z</time></trkpt><trkpt lat="47.242579" lon="13.153034"><ele>1953.06</ele><time>2010-06-26T13:54:58Z</time></trkpt><trkpt lat="47.242728" lon="13.153134"><ele>1951.61</ele><time>2010-06-26T13:55:10Z</time></trkpt><trkpt lat="47.242755" lon="13.153159"><ele>1953.54</ele><time>2010-06-26T13:55:12Z</time></trkpt><trkpt lat="47.242771" lon="13.153175"><ele>1951.61</ele><time>2010-06-26T13:55:14Z</time></trkpt><trkpt lat="47.242795" lon="13.153187"><ele>1953.54</ele><time>2010-06-26T13:55:16Z</time></trkpt><trkpt lat="47.242873" lon="13.153249"><ele>1952.09</ele><time>2010-06-26T13:55:23Z</time></trkpt><trkpt lat="47.243006" lon="13.153344"><ele>1952.09</ele><time>2010-06-26T13:55:33Z</time></trkpt><trkpt lat="47.243054" lon="13.153366"><ele>1951.13</ele><time>2010-06-26T13:55:37Z</time></trkpt><trkpt lat="47.243150" lon="13.153506"><ele>1951.61</ele><time>2010-06-26T13:55:46Z</time></trkpt><trkpt lat="47.243301" lon="13.153612"><ele>1949.21</ele><time>2010-06-26T13:55:58Z</time></trkpt><trkpt lat="47.243351" lon="13.153633"><ele>1948.73</ele><time>2010-06-26T13:56:01Z</time></trkpt><trkpt lat="47.243372" lon="13.153630"><ele>1948.73</ele><time>2010-06-26T13:56:03Z</time></trkpt><trkpt lat="47.243471" lon="13.153699"><ele>1946.33</ele><time>2010-06-26T13:56:14Z</time></trkpt><trkpt lat="47.243503" lon="13.153696"><ele>1944.40</ele><time>2010-06-26T13:56:16Z</time></trkpt><trkpt lat="47.243531" lon="13.153707"><ele>1944.40</ele><time>2010-06-26T13:56:19Z</time></trkpt><trkpt lat="47.243580" lon="13.153741"><ele>1942.96</ele><time>2010-06-26T13:56:25Z</time></trkpt><trkpt lat="47.243594" lon="13.153776"><ele>1940.56</ele><time>2010-06-26T13:56:28Z</time></trkpt><trkpt lat="47.243653" lon="13.153851"><ele>1938.16</ele><time>2010-06-26T13:56:36Z</time></trkpt><trkpt lat="47.243683" lon="13.153885"><ele>1936.71</ele><time>2010-06-26T13:56:39Z</time></trkpt><trkpt lat="47.243717" lon="13.153935"><ele>1935.75</ele><time>2010-06-26T13:56:43Z</time></trkpt><trkpt lat="47.243767" lon="13.153956"><ele>1934.31</ele><time>2010-06-26T13:56:48Z</time></trkpt><trkpt lat="47.243845" lon="13.154025"><ele>1934.79</ele><time>2010-06-26T13:56:56Z</time></trkpt><trkpt lat="47.243880" lon="13.154027"><ele>1933.83</ele><time>2010-06-26T13:56:59Z</time></trkpt><trkpt lat="47.243989" lon="13.153989"><ele>1929.98</ele><time>2010-06-26T13:57:09Z</time></trkpt><trkpt lat="47.244013" lon="13.153973"><ele>1929.98</ele><time>2010-06-26T13:57:11Z</time></trkpt><trkpt lat="47.244111" lon="13.153975"><ele>1928.54</ele><time>2010-06-26T13:57:21Z</time></trkpt><trkpt lat="47.244279" lon="13.153942"><ele>1926.62</ele><time>2010-06-26T13:57:34Z</time></trkpt><trkpt lat="47.244306" lon="13.153933"><ele>1926.62</ele><time>2010-06-26T13:57:36Z</time></trkpt><trkpt lat="47.244351" lon="13.153906"><ele>1925.66</ele><time>2010-06-26T13:57:40Z</time></trkpt><trkpt lat="47.244461" lon="13.153869"><ele>1926.14</ele><time>2010-06-26T13:57:48Z</time></trkpt><trkpt lat="47.244556" lon="13.153930"><ele>1925.18</ele><time>2010-06-26T13:57:55Z</time></trkpt><trkpt lat="47.244600" lon="13.153874"><ele>1924.22</ele><time>2010-06-26T13:58:00Z</time></trkpt><trkpt lat="47.244756" lon="13.153875"><ele>1923.74</ele><time>2010-06-26T13:58:12Z</time></trkpt><trkpt lat="47.244879" lon="13.153918"><ele>1922.29</ele><time>2010-06-26T13:58:23Z</time></trkpt><trkpt lat="47.244939" lon="13.153948"><ele>1921.81</ele><time>2010-06-26T13:58:27Z</time></trkpt><trkpt lat="47.244979" lon="13.153946"><ele>1922.77</ele><time>2010-06-26T13:58:31Z</time></trkpt><trkpt lat="47.245006" lon="13.153899"><ele>1921.33</ele><time>2010-06-26T13:58:34Z</time></trkpt><trkpt lat="47.245100" lon="13.153812"><ele>1919.89</ele><time>2010-06-26T13:58:44Z</time></trkpt><trkpt lat="47.245176" lon="13.153759"><ele>1918.45</ele><time>2010-06-26T13:58:51Z</time></trkpt><trkpt lat="47.245193" lon="13.153761"><ele>1917.49</ele><time>2010-06-26T13:58:53Z</time></trkpt><trkpt lat="47.245243" lon="13.153830"><ele>1914.60</ele><time>2010-06-26T13:59:03Z</time></trkpt><trkpt lat="47.245364" lon="13.153946"><ele>1913.64</ele><time>2010-06-26T13:59:14Z</time></trkpt><trkpt lat="47.245387" lon="13.153962"><ele>1912.68</ele><time>2010-06-26T13:59:16Z</time></trkpt><trkpt lat="47.245435" lon="13.153997"><ele>1911.24</ele><time>2010-06-26T13:59:24Z</time></trkpt><trkpt lat="47.245496" lon="13.153998"><ele>1910.28</ele><time>2010-06-26T13:59:28Z</time></trkpt><trkpt lat="47.245579" lon="13.153987"><ele>1909.32</ele><time>2010-06-26T13:59:35Z</time></trkpt><trkpt lat="47.245660" lon="13.153980"><ele>1908.35</ele><time>2010-06-26T13:59:40Z</time></trkpt><trkpt lat="47.245695" lon="13.153965"><ele>1907.87</ele><time>2010-06-26T13:59:43Z</time></trkpt><trkpt lat="47.245764" lon="13.153977"><ele>1908.35</ele><time>2010-06-26T13:59:47Z</time></trkpt><trkpt lat="47.245812" lon="13.154005"><ele>1906.91</ele><time>2010-06-26T13:59:51Z</time></trkpt><trkpt lat="47.245890" lon="13.154004"><ele>1904.99</ele><time>2010-06-26T13:59:57Z</time></trkpt><trkpt lat="47.245988" lon="13.154060"><ele>1903.07</ele><time>2010-06-26T14:00:04Z</time></trkpt><trkpt lat="47.246002" lon="13.154073"><ele>1903.07</ele><time>2010-06-26T14:00:05Z</time></trkpt><trkpt lat="47.246080" lon="13.154036"><ele>1900.66</ele><time>2010-06-26T14:00:11Z</time></trkpt><trkpt lat="47.246096" lon="13.153952"><ele>1898.74</ele><time>2010-06-26T14:00:17Z</time></trkpt><trkpt lat="47.246141" lon="13.153918"><ele>1896.82</ele><time>2010-06-26T14:00:23Z</time></trkpt><trkpt lat="47.246219" lon="13.153846"><ele>1895.86</ele><time>2010-06-26T14:00:30Z</time></trkpt><trkpt lat="47.246238" lon="13.153850"><ele>1894.90</ele><time>2010-06-26T14:00:32Z</time></trkpt><trkpt lat="47.246274" lon="13.153870"><ele>1893.45</ele><time>2010-06-26T14:00:35Z</time></trkpt><trkpt lat="47.246301" lon="13.153876"><ele>1892.97</ele><time>2010-06-26T14:00:38Z</time></trkpt><trkpt lat="47.246378" lon="13.153884"><ele>1893.93</ele><time>2010-06-26T14:00:53Z</time></trkpt><trkpt lat="47.246402" lon="13.153872"><ele>1893.45</ele><time>2010-06-26T14:00:55Z</time></trkpt><trkpt lat="47.246451" lon="13.153872"><ele>1892.49</ele><time>2010-06-26T14:00:59Z</time></trkpt><trkpt lat="47.246522" lon="13.153936"><ele>1892.97</ele><time>2010-06-26T14:01:07Z</time></trkpt><trkpt lat="47.246529" lon="13.153952"><ele>1892.01</ele><time>2010-06-26T14:01:13Z</time></trkpt><trkpt lat="47.246609" lon="13.153910"><ele>1888.65</ele><time>2010-06-26T14:01:21Z</time></trkpt><trkpt lat="47.246701" lon="13.153863"><ele>1886.24</ele><time>2010-06-26T14:01:32Z</time></trkpt><trkpt lat="47.246740" lon="13.153870"><ele>1883.84</ele><time>2010-06-26T14:01:37Z</time></trkpt><trkpt lat="47.246785" lon="13.153835"><ele>1886.24</ele><time>2010-06-26T14:01:41Z</time></trkpt><trkpt lat="47.246885" lon="13.153770"><ele>1883.84</ele><time>2010-06-26T14:01:53Z</time></trkpt><trkpt lat="47.246909" lon="13.153743"><ele>1882.88</ele><time>2010-06-26T14:01:57Z</time></trkpt><trkpt lat="47.246943" lon="13.153691"><ele>1881.44</ele><time>2010-06-26T14:02:04Z</time></trkpt><trkpt lat="47.247054" lon="13.153644"><ele>1879.03</ele><time>2010-06-26T14:02:16Z</time></trkpt><trkpt lat="47.247149" lon="13.153592"><ele>1875.19</ele><time>2010-06-26T14:02:25Z</time></trkpt><trkpt lat="47.247266" lon="13.153571"><ele>1871.82</ele><time>2010-06-26T14:02:35Z</time></trkpt><trkpt lat="47.247276" lon="13.153568"><ele>1871.82</ele><time>2010-06-26T14:02:36Z</time></trkpt><trkpt lat="47.247294" lon="13.153554"><ele>1871.34</ele><time>2010-06-26T14:02:38Z</time></trkpt><trkpt lat="47.247326" lon="13.153488"><ele>1870.38</ele><time>2010-06-26T14:02:43Z</time></trkpt><trkpt lat="47.247409" lon="13.153423"><ele>1868.46</ele><time>2010-06-26T14:02:52Z</time></trkpt><trkpt lat="47.247520" lon="13.153359"><ele>1867.02</ele><time>2010-06-26T14:03:02Z</time></trkpt><trkpt lat="47.247650" lon="13.153388"><ele>1863.17</ele><time>2010-06-26T14:03:14Z</time></trkpt><trkpt lat="47.247793" lon="13.153264"><ele>1860.77</ele><time>2010-06-26T14:03:28Z</time></trkpt><trkpt lat="47.247857" lon="13.153198"><ele>1859.33</ele><time>2010-06-26T14:03:34Z</time></trkpt><trkpt lat="47.247915" lon="13.153142"><ele>1857.89</ele><time>2010-06-26T14:03:40Z</time></trkpt><trkpt lat="47.247925" lon="13.153121"><ele>1857.89</ele><time>2010-06-26T14:03:42Z</time></trkpt><trkpt lat="47.247999" lon="13.153031"><ele>1855.48</ele><time>2010-06-26T14:03:52Z</time></trkpt><trkpt lat="47.248045" lon="13.152963"><ele>1853.56</ele><time>2010-06-26T14:03:57Z</time></trkpt><trkpt lat="47.248114" lon="13.152962"><ele>1850.68</ele><time>2010-06-26T14:04:08Z</time></trkpt><trkpt lat="47.248174" lon="13.152924"><ele>1846.83</ele><time>2010-06-26T14:04:14Z</time></trkpt><trkpt lat="47.248182" lon="13.152922"><ele>1846.83</ele><time>2010-06-26T14:04:15Z</time></trkpt><trkpt lat="47.248190" lon="13.152915"><ele>1846.35</ele><time>2010-06-26T14:04:16Z</time></trkpt><trkpt lat="47.248255" lon="13.152881"><ele>1844.43</ele><time>2010-06-26T14:04:24Z</time></trkpt><trkpt lat="47.248284" lon="13.152884"><ele>1842.98</ele><time>2010-06-26T14:04:27Z</time></trkpt><trkpt lat="47.248348" lon="13.152898"><ele>1841.54</ele><time>2010-06-26T14:04:32Z</time></trkpt><trkpt lat="47.248380" lon="13.152899"><ele>1839.62</ele><time>2010-06-26T14:04:34Z</time></trkpt><trkpt lat="47.248393" lon="13.152898"><ele>1840.10</ele><time>2010-06-26T14:04:35Z</time></trkpt><trkpt lat="47.248425" lon="13.152871"><ele>1837.70</ele><time>2010-06-26T14:04:38Z</time></trkpt><trkpt lat="47.248458" lon="13.152848"><ele>1838.18</ele><time>2010-06-26T14:04:42Z</time></trkpt><trkpt lat="47.248492" lon="13.152829"><ele>1836.74</ele><time>2010-06-26T14:04:46Z</time></trkpt><trkpt lat="47.248518" lon="13.152830"><ele>1835.29</ele><time>2010-06-26T14:04:48Z</time></trkpt><trkpt lat="47.248635" lon="13.152800"><ele>1831.45</ele><time>2010-06-26T14:04:58Z</time></trkpt><trkpt lat="47.248711" lon="13.152818"><ele>1830.01</ele><time>2010-06-26T14:05:07Z</time></trkpt><trkpt lat="47.248749" lon="13.152859"><ele>1829.05</ele><time>2010-06-26T14:05:12Z</time></trkpt><trkpt lat="47.248808" lon="13.152935"><ele>1827.12</ele><time>2010-06-26T14:05:18Z</time></trkpt><trkpt lat="47.248834" lon="13.152960"><ele>1825.68</ele><time>2010-06-26T14:05:22Z</time></trkpt><trkpt lat="47.248905" lon="13.153054"><ele>1823.28</ele><time>2010-06-26T14:05:30Z</time></trkpt><trkpt lat="47.248923" lon="13.153082"><ele>1823.28</ele><time>2010-06-26T14:05:32Z</time></trkpt><trkpt lat="47.248981" lon="13.153125"><ele>1820.39</ele><time>2010-06-26T14:05:37Z</time></trkpt><trkpt lat="47.249036" lon="13.153103"><ele>1819.91</ele><time>2010-06-26T14:05:42Z</time></trkpt><trkpt lat="47.249122" lon="13.153080"><ele>1816.55</ele><time>2010-06-26T14:05:51Z</time></trkpt><trkpt lat="47.249132" lon="13.153086"><ele>1816.55</ele><time>2010-06-26T14:05:52Z</time></trkpt><trkpt lat="47.249154" lon="13.153101"><ele>1815.11</ele><time>2010-06-26T14:05:54Z</time></trkpt><trkpt lat="47.249193" lon="13.153105"><ele>1814.63</ele><time>2010-06-26T14:05:58Z</time></trkpt><trkpt lat="47.249210" lon="13.153127"><ele>1813.66</ele><time>2010-06-26T14:06:00Z</time></trkpt><trkpt lat="47.249239" lon="13.153096"><ele>1813.18</ele><time>2010-06-26T14:06:04Z</time></trkpt><trkpt lat="47.249310" lon="13.153070"><ele>1808.86</ele><time>2010-06-26T14:06:11Z</time></trkpt><trkpt lat="47.249318" lon="13.153078"><ele>1808.86</ele><time>2010-06-26T14:06:12Z</time></trkpt><trkpt lat="47.249443" lon="13.153122"><ele>1805.97</ele><time>2010-06-26T14:06:24Z</time></trkpt><trkpt lat="47.249457" lon="13.153118"><ele>1805.97</ele><time>2010-06-26T14:06:25Z</time></trkpt><trkpt lat="47.249600" lon="13.153108"><ele>1805.01</ele><time>2010-06-26T14:06:37Z</time></trkpt><trkpt lat="47.249609" lon="13.153079"><ele>1804.53</ele><time>2010-06-26T14:06:40Z</time></trkpt><trkpt lat="47.249644" lon="13.153030"><ele>1805.01</ele><time>2010-06-26T14:06:52Z</time></trkpt><trkpt lat="47.249656" lon="13.153038"><ele>1804.53</ele><time>2010-06-26T14:07:07Z</time></trkpt><trkpt lat="47.249657" lon="13.153038"><ele>1800.21</ele><time>2010-06-26T14:07:48Z</time></trkpt><trkpt lat="47.249657" lon="13.153038"><ele>1803.57</ele><time>2010-06-26T14:07:49Z</time></trkpt><trkpt lat="47.249657" lon="13.153038"><ele>1804.53</ele><time>2010-06-26T14:07:54Z</time></trkpt><trkpt lat="47.249663" lon="13.153037"><ele>1805.01</ele><time>2010-06-26T14:08:10Z</time></trkpt><trkpt lat="47.249643" lon="13.153004"><ele>1803.57</ele><time>2010-06-26T14:08:32Z</time></trkpt><trkpt lat="47.249625" lon="13.152998"><ele>1803.57</ele><time>2010-06-26T14:08:55Z</time></trkpt><trkpt lat="47.249563" lon="13.153046"><ele>1804.05</ele><time>2010-06-26T14:09:05Z</time></trkpt><trkpt lat="47.249565" lon="13.153044"><ele>1803.09</ele><time>2010-06-26T14:09:43Z</time></trkpt><trkpt lat="47.249579" lon="13.153052"><ele>1803.57</ele><time>2010-06-26T14:09:47Z</time></trkpt><trkpt lat="47.249549" lon="13.153145"><ele>1803.57</ele><time>2010-06-26T14:09:57Z</time></trkpt><trkpt lat="47.249538" lon="13.153225"><ele>1803.09</ele><time>2010-06-26T14:10:06Z</time></trkpt><trkpt lat="47.249542" lon="13.153268"><ele>1803.57</ele><time>2010-06-26T14:10:09Z</time></trkpt><trkpt lat="47.249537" lon="13.153299"><ele>1802.13</ele><time>2010-06-26T14:10:11Z</time></trkpt><trkpt lat="47.249555" lon="13.153422"><ele>1801.65</ele><time>2010-06-26T14:10:19Z</time></trkpt><trkpt lat="47.249567" lon="13.153580"><ele>1799.73</ele><time>2010-06-26T14:10:27Z</time></trkpt><trkpt lat="47.249548" lon="13.153656"><ele>1800.21</ele><time>2010-06-26T14:10:31Z</time></trkpt><trkpt lat="47.249555" lon="13.153820"><ele>1798.28</ele><time>2010-06-26T14:10:40Z</time></trkpt><trkpt lat="47.249571" lon="13.153870"><ele>1797.80</ele><time>2010-06-26T14:10:43Z</time></trkpt><trkpt lat="47.249603" lon="13.153949"><ele>1795.88</ele><time>2010-06-26T14:10:49Z</time></trkpt><trkpt lat="47.249602" lon="13.154029"><ele>1795.40</ele><time>2010-06-26T14:10:53Z</time></trkpt><trkpt lat="47.249591" lon="13.154085"><ele>1793.48</ele><time>2010-06-26T14:10:58Z</time></trkpt><trkpt lat="47.249559" lon="13.154151"><ele>1792.52</ele><time>2010-06-26T14:11:03Z</time></trkpt><trkpt lat="47.249540" lon="13.154195"><ele>1790.11</ele><time>2010-06-26T14:11:06Z</time></trkpt><trkpt lat="47.249596" lon="13.154262"><ele>1789.63</ele><time>2010-06-26T14:11:13Z</time></trkpt><trkpt lat="47.249595" lon="13.154359"><ele>1785.79</ele><time>2010-06-26T14:11:21Z</time></trkpt><trkpt lat="47.249597" lon="13.154407"><ele>1787.23</ele><time>2010-06-26T14:11:24Z</time></trkpt><trkpt lat="47.249601" lon="13.154481"><ele>1784.34</ele><time>2010-06-26T14:11:30Z</time></trkpt><trkpt lat="47.249638" lon="13.154511"><ele>1782.42</ele><time>2010-06-26T14:11:35Z</time></trkpt><trkpt lat="47.249668" lon="13.154570"><ele>1780.98</ele><time>2010-06-26T14:11:42Z</time></trkpt><trkpt lat="47.249673" lon="13.154601"><ele>1780.02</ele><time>2010-06-26T14:11:44Z</time></trkpt><trkpt lat="47.249687" lon="13.154672"><ele>1777.13</ele><time>2010-06-26T14:11:50Z</time></trkpt><trkpt lat="47.249680" lon="13.154714"><ele>1777.61</ele><time>2010-06-26T14:11:53Z</time></trkpt><trkpt lat="47.249703" lon="13.154781"><ele>1775.21</ele><time>2010-06-26T14:11:59Z</time></trkpt><trkpt lat="47.249689" lon="13.154859"><ele>1774.25</ele><time>2010-06-26T14:12:04Z</time></trkpt><trkpt lat="47.249700" lon="13.154932"><ele>1772.81</ele><time>2010-06-26T14:12:10Z</time></trkpt><trkpt lat="47.249713" lon="13.154963"><ele>1772.81</ele><time>2010-06-26T14:12:12Z</time></trkpt><trkpt lat="47.249732" lon="13.155039"><ele>1771.85</ele><time>2010-06-26T14:12:18Z</time></trkpt><trkpt lat="47.249729" lon="13.155107"><ele>1770.41</ele><time>2010-06-26T14:12:23Z</time></trkpt><trkpt lat="47.249740" lon="13.155204"><ele>1768.00</ele><time>2010-06-26T14:12:35Z</time></trkpt><trkpt lat="47.249742" lon="13.155228"><ele>1766.56</ele><time>2010-06-26T14:12:37Z</time></trkpt><trkpt lat="47.249724" lon="13.155349"><ele>1763.68</ele><time>2010-06-26T14:12:46Z</time></trkpt><trkpt lat="47.249723" lon="13.155432"><ele>1761.27</ele><time>2010-06-26T14:12:54Z</time></trkpt><trkpt lat="47.249713" lon="13.155572"><ele>1758.39</ele><time>2010-06-26T14:13:04Z</time></trkpt><trkpt lat="47.249733" lon="13.155622"><ele>1756.47</ele><time>2010-06-26T14:13:10Z</time></trkpt><trkpt lat="47.249770" lon="13.155751"><ele>1754.06</ele><time>2010-06-26T14:13:21Z</time></trkpt><trkpt lat="47.249757" lon="13.155771"><ele>1752.62</ele><time>2010-06-26T14:13:32Z</time></trkpt><trkpt lat="47.249757" lon="13.155771"><ele>1752.62</ele><time>2010-06-26T14:13:39Z</time></trkpt><trkpt lat="47.249710" lon="13.155774"><ele>1751.66</ele><time>2010-06-26T14:13:43Z</time></trkpt><trkpt lat="47.249668" lon="13.155741"><ele>1750.22</ele><time>2010-06-26T14:13:47Z</time></trkpt><trkpt lat="47.249596" lon="13.155715"><ele>1749.74</ele><time>2010-06-26T14:13:53Z</time></trkpt><trkpt lat="47.249511" lon="13.155697"><ele>1749.26</ele><time>2010-06-26T14:14:01Z</time></trkpt><trkpt lat="47.249466" lon="13.155794"><ele>1747.33</ele><time>2010-06-26T14:14:12Z</time></trkpt><trkpt lat="47.249462" lon="13.155817"><ele>1747.33</ele><time>2010-06-26T14:14:14Z</time></trkpt><trkpt lat="47.249437" lon="13.155839"><ele>1746.37</ele><time>2010-06-26T14:14:18Z</time></trkpt><trkpt lat="47.249364" lon="13.155995"><ele>1743.01</ele><time>2010-06-26T14:14:30Z</time></trkpt><trkpt lat="47.249357" lon="13.156012"><ele>1742.05</ele><time>2010-06-26T14:14:32Z</time></trkpt><trkpt lat="47.249328" lon="13.156085"><ele>1739.64</ele><time>2010-06-26T14:14:40Z</time></trkpt><trkpt lat="47.249326" lon="13.156094"><ele>1740.60</ele><time>2010-06-26T14:14:41Z</time></trkpt><trkpt lat="47.249331" lon="13.156182"><ele>1737.24</ele><time>2010-06-26T14:14:49Z</time></trkpt><trkpt lat="47.249281" lon="13.156250"><ele>1736.76</ele><time>2010-06-26T14:14:55Z</time></trkpt><trkpt lat="47.249257" lon="13.156261"><ele>1734.36</ele><time>2010-06-26T14:14:59Z</time></trkpt><trkpt lat="47.249248" lon="13.156340"><ele>1733.39</ele><time>2010-06-26T14:15:04Z</time></trkpt><trkpt lat="47.249311" lon="13.156403"><ele>1731.95</ele><time>2010-06-26T14:15:12Z</time></trkpt><trkpt lat="47.249311" lon="13.156450"><ele>1730.99</ele><time>2010-06-26T14:15:29Z</time></trkpt><trkpt lat="47.249292" lon="13.156460"><ele>1728.11</ele><time>2010-06-26T14:15:36Z</time></trkpt><trkpt lat="47.249288" lon="13.156466"><ele>1729.55</ele><time>2010-06-26T14:15:37Z</time></trkpt><trkpt lat="47.249267" lon="13.156494"><ele>1727.15</ele><time>2010-06-26T14:15:58Z</time></trkpt><trkpt lat="47.249267" lon="13.156494"><ele>1727.15</ele><time>2010-06-26T14:16:00Z</time></trkpt><trkpt lat="47.249261" lon="13.156597"><ele>1725.22</ele><time>2010-06-26T14:16:09Z</time></trkpt><trkpt lat="47.249266" lon="13.156634"><ele>1724.74</ele><time>2010-06-26T14:16:12Z</time></trkpt><trkpt lat="47.249216" lon="13.156717"><ele>1724.26</ele><time>2010-06-26T14:16:21Z</time></trkpt><trkpt lat="47.249180" lon="13.156765"><ele>1720.90</ele><time>2010-06-26T14:16:29Z</time></trkpt><trkpt lat="47.249180" lon="13.156765"><ele>1723.30</ele><time>2010-06-26T14:16:32Z</time></trkpt><trkpt lat="47.249182" lon="13.156763"><ele>1723.78</ele><time>2010-06-26T14:16:40Z</time></trkpt><trkpt lat="47.249211" lon="13.156766"><ele>1725.22</ele><time>2010-06-26T14:16:44Z</time></trkpt><trkpt lat="47.249217" lon="13.156766"><ele>1725.22</ele><time>2010-06-26T14:16:45Z</time></trkpt><trkpt lat="47.249237" lon="13.156754"><ele>1724.26</ele><time>2010-06-26T14:17:03Z</time></trkpt><trkpt lat="47.249236" lon="13.156725"><ele>1725.70</ele><time>2010-06-26T14:17:24Z</time></trkpt><trkpt lat="47.249184" lon="13.156753"><ele>1723.78</ele><time>2010-06-26T14:17:31Z</time></trkpt><trkpt lat="47.249156" lon="13.156792"><ele>1722.34</ele><time>2010-06-26T14:17:34Z</time></trkpt><trkpt lat="47.249037" lon="13.156916"><ele>1720.90</ele><time>2010-06-26T14:17:41Z</time></trkpt><trkpt lat="47.248972" lon="13.156974"><ele>1718.49</ele><time>2010-06-26T14:17:46Z</time></trkpt><trkpt lat="47.248949" lon="13.156985"><ele>1717.53</ele><time>2010-06-26T14:17:48Z</time></trkpt><trkpt lat="47.248865" lon="13.157063"><ele>1715.13</ele><time>2010-06-26T14:17:53Z</time></trkpt><trkpt lat="47.248814" lon="13.157154"><ele>1713.21</ele><time>2010-06-26T14:17:58Z</time></trkpt><trkpt lat="47.248807" lon="13.157178"><ele>1713.21</ele><time>2010-06-26T14:17:59Z</time></trkpt><trkpt lat="47.248813" lon="13.157305"><ele>1710.80</ele><time>2010-06-26T14:18:03Z</time></trkpt><trkpt lat="47.248841" lon="13.157476"><ele>1707.44</ele><time>2010-06-26T14:18:09Z</time></trkpt><trkpt lat="47.248844" lon="13.157502"><ele>1702.15</ele><time>2010-06-26T14:18:10Z</time></trkpt><trkpt lat="47.248846" lon="13.157524"><ele>1707.44</ele><time>2010-06-26T14:18:11Z</time></trkpt><trkpt lat="47.248854" lon="13.157545"><ele>1706.48</ele><time>2010-06-26T14:18:13Z</time></trkpt><trkpt lat="47.248850" lon="13.157578"><ele>1706.96</ele><time>2010-06-26T14:18:15Z</time></trkpt><trkpt lat="47.248874" lon="13.157663"><ele>1705.52</ele><time>2010-06-26T14:18:20Z</time></trkpt><trkpt lat="47.248911" lon="13.157795"><ele>1701.19</ele><time>2010-06-26T14:18:28Z</time></trkpt><trkpt lat="47.248977" lon="13.157845"><ele>1699.75</ele><time>2010-06-26T14:18:36Z</time></trkpt><trkpt lat="47.248972" lon="13.157867"><ele>1698.31</ele><time>2010-06-26T14:18:38Z</time></trkpt><trkpt lat="47.248994" lon="13.157963"><ele>1695.90</ele><time>2010-06-26T14:18:47Z</time></trkpt><trkpt lat="47.249013" lon="13.157971"><ele>1696.38</ele><time>2010-06-26T14:18:50Z</time></trkpt><trkpt lat="47.249053" lon="13.158008"><ele>1693.98</ele><time>2010-06-26T14:19:04Z</time></trkpt><trkpt lat="47.249053" lon="13.158008"><ele>1691.58</ele><time>2010-06-26T14:19:05Z</time></trkpt></trkseg><trkseg><trkpt lat="47.249053" lon="13.158008"><ele>1698.31</ele><time>2010-06-26T14:19:12Z</time></trkpt><trkpt lat="47.249053" lon="13.158008"><ele>1693.02</ele><time>2010-06-26T14:19:13Z</time></trkpt><trkpt lat="47.249053" lon="13.158008"><ele>1693.02</ele><time>2010-06-26T14:19:14Z</time></trkpt></trkseg><trkseg><trkpt lat="47.249060" lon="13.158150"><ele>1693.02</ele><time>2010-06-26T14:19:18Z</time></trkpt><trkpt lat="47.249056" lon="13.158139"><ele>1692.54</ele><time>2010-06-26T14:19:32Z</time></trkpt><trkpt lat="47.249045" lon="13.158129"><ele>1688.69</ele><time>2010-06-26T14:19:44Z</time></trkpt><trkpt lat="47.249048" lon="13.158119"><ele>1692.06</ele><time>2010-06-26T14:19:46Z</time></trkpt><trkpt lat="47.249049" lon="13.158115"><ele>1692.06</ele><time>2010-06-26T14:19:47Z</time></trkpt><trkpt lat="47.249053" lon="13.158082"><ele>1688.21</ele><time>2010-06-26T14:19:53Z</time></trkpt><trkpt lat="47.249054" lon="13.158086"><ele>1691.58</ele><time>2010-06-26T14:19:54Z</time></trkpt><trkpt lat="47.249070" lon="13.158059"><ele>1691.58</ele><time>2010-06-26T14:20:10Z</time></trkpt><trkpt lat="47.249071" lon="13.158062"><ele>1687.73</ele><time>2010-06-26T14:20:20Z</time></trkpt><trkpt lat="47.249072" lon="13.158062"><ele>1692.54</ele><time>2010-06-26T14:20:21Z</time></trkpt><trkpt lat="47.249008" lon="13.158135"><ele>1690.62</ele><time>2010-06-26T14:20:32Z</time></trkpt><trkpt lat="47.248999" lon="13.158168"><ele>1690.14</ele><time>2010-06-26T14:20:34Z</time></trkpt><trkpt lat="47.248990" lon="13.158217"><ele>1689.17</ele><time>2010-06-26T14:20:38Z</time></trkpt><trkpt lat="47.248980" lon="13.158235"><ele>1688.21</ele><time>2010-06-26T14:20:40Z</time></trkpt><trkpt lat="47.248900" lon="13.158250"><ele>1686.77</ele><time>2010-06-26T14:20:51Z</time></trkpt><trkpt lat="47.248818" lon="13.158456"><ele>1684.85</ele><time>2010-06-26T14:21:03Z</time></trkpt><trkpt lat="47.248817" lon="13.158469"><ele>1685.33</ele><time>2010-06-26T14:21:04Z</time></trkpt><trkpt lat="47.248835" lon="13.158531"><ele>1683.41</ele><time>2010-06-26T14:21:08Z</time></trkpt><trkpt lat="47.248853" lon="13.158601"><ele>1683.41</ele><time>2010-06-26T14:21:12Z</time></trkpt><trkpt lat="47.248806" lon="13.158806"><ele>1679.56</ele><time>2010-06-26T14:21:25Z</time></trkpt><trkpt lat="47.248836" lon="13.158979"><ele>1678.60</ele><time>2010-06-26T14:21:37Z</time></trkpt><trkpt lat="47.248832" lon="13.159137"><ele>1675.23</ele><time>2010-06-26T14:21:47Z</time></trkpt><trkpt lat="47.248886" lon="13.159253"><ele>1672.35</ele><time>2010-06-26T14:21:58Z</time></trkpt><trkpt lat="47.248904" lon="13.159295"><ele>1671.87</ele><time>2010-06-26T14:22:01Z</time></trkpt><trkpt lat="47.248927" lon="13.159319"><ele>1670.91</ele><time>2010-06-26T14:22:03Z</time></trkpt><trkpt lat="47.248875" lon="13.159616"><ele>1668.99</ele><time>2010-06-26T14:22:15Z</time></trkpt><trkpt lat="47.248863" lon="13.159709"><ele>1667.06</ele><time>2010-06-26T14:22:21Z</time></trkpt><trkpt lat="47.248816" lon="13.159808"><ele>1666.10</ele><time>2010-06-26T14:22:27Z</time></trkpt><trkpt lat="47.248760" lon="13.159925"><ele>1663.70</ele><time>2010-06-26T14:22:36Z</time></trkpt><trkpt lat="47.248743" lon="13.159958"><ele>1661.78</ele><time>2010-06-26T14:22:39Z</time></trkpt><trkpt lat="47.248726" lon="13.160075"><ele>1661.30</ele><time>2010-06-26T14:22:45Z</time></trkpt><trkpt lat="47.248696" lon="13.160155"><ele>1659.85</ele><time>2010-06-26T14:22:51Z</time></trkpt><trkpt lat="47.248750" lon="13.160344"><ele>1656.49</ele><time>2010-06-26T14:23:04Z</time></trkpt><trkpt lat="47.248813" lon="13.160463"><ele>1654.09</ele><time>2010-06-26T14:23:16Z</time></trkpt><trkpt lat="47.248800" lon="13.160607"><ele>1652.16</ele><time>2010-06-26T14:23:26Z</time></trkpt><trkpt lat="47.248793" lon="13.160721"><ele>1650.24</ele><time>2010-06-26T14:23:32Z</time></trkpt><trkpt lat="47.248805" lon="13.160743"><ele>1648.80</ele><time>2010-06-26T14:23:36Z</time></trkpt><trkpt lat="47.248822" lon="13.160939"><ele>1645.91</ele><time>2010-06-26T14:23:46Z</time></trkpt><trkpt lat="47.248874" lon="13.161174"><ele>1643.51</ele><time>2010-06-26T14:23:58Z</time></trkpt><trkpt lat="47.248934" lon="13.161245"><ele>1641.59</ele><time>2010-06-26T14:24:05Z</time></trkpt><trkpt lat="47.248997" lon="13.161274"><ele>1639.67</ele><time>2010-06-26T14:24:10Z</time></trkpt><trkpt lat="47.249005" lon="13.161278"><ele>1640.15</ele><time>2010-06-26T14:24:11Z</time></trkpt><trkpt lat="47.249050" lon="13.161509"><ele>1637.26</ele><time>2010-06-26T14:24:24Z</time></trkpt><trkpt lat="47.249074" lon="13.161566"><ele>1635.82</ele><time>2010-06-26T14:24:43Z</time></trkpt><trkpt lat="47.249053" lon="13.161678"><ele>1634.38</ele><time>2010-06-26T14:24:51Z</time></trkpt><trkpt lat="47.249029" lon="13.161906"><ele>1631.49</ele><time>2010-06-26T14:25:02Z</time></trkpt><trkpt lat="47.249080" lon="13.162066"><ele>1629.09</ele><time>2010-06-26T14:25:12Z</time></trkpt><trkpt lat="47.249098" lon="13.162084"><ele>1627.65</ele><time>2010-06-26T14:25:18Z</time></trkpt><trkpt lat="47.249178" lon="13.162092"><ele>1626.21</ele><time>2010-06-26T14:25:22Z</time></trkpt><trkpt lat="47.249252" lon="13.162100"><ele>1622.36</ele><time>2010-06-26T14:25:29Z</time></trkpt><trkpt lat="47.249259" lon="13.162106"><ele>1623.32</ele><time>2010-06-26T14:25:39Z</time></trkpt><trkpt lat="47.249279" lon="13.162117"><ele>1619.96</ele><time>2010-06-26T14:26:21Z</time></trkpt><trkpt lat="47.249302" lon="13.162127"><ele>1622.36</ele><time>2010-06-26T14:26:25Z</time></trkpt><trkpt lat="47.249310" lon="13.162244"><ele>1620.92</ele><time>2010-06-26T14:26:34Z</time></trkpt><trkpt lat="47.249302" lon="13.162447"><ele>1619.48</ele><time>2010-06-26T14:26:45Z</time></trkpt><trkpt lat="47.249291" lon="13.162634"><ele>1618.04</ele><time>2010-06-26T14:26:58Z</time></trkpt><trkpt lat="47.249284" lon="13.162704"><ele>1617.07</ele><time>2010-06-26T14:27:01Z</time></trkpt><trkpt lat="47.249275" lon="13.162887"><ele>1614.67</ele><time>2010-06-26T14:27:11Z</time></trkpt><trkpt lat="47.249248" lon="13.163025"><ele>1612.27</ele><time>2010-06-26T14:27:19Z</time></trkpt><trkpt lat="47.249232" lon="13.163091"><ele>1612.27</ele><time>2010-06-26T14:27:22Z</time></trkpt><trkpt lat="47.249230" lon="13.163149"><ele>1611.31</ele><time>2010-06-26T14:27:26Z</time></trkpt><trkpt lat="47.249203" lon="13.163226"><ele>1611.79</ele><time>2010-06-26T14:27:30Z</time></trkpt><trkpt lat="47.249096" lon="13.163394"><ele>1607.94</ele><time>2010-06-26T14:27:42Z</time></trkpt><trkpt lat="47.249069" lon="13.163422"><ele>1607.94</ele><time>2010-06-26T14:27:48Z</time></trkpt><trkpt lat="47.249003" lon="13.163515"><ele>1607.94</ele><time>2010-06-26T14:27:53Z</time></trkpt><trkpt lat="47.248951" lon="13.163591"><ele>1606.02</ele><time>2010-06-26T14:28:02Z</time></trkpt><trkpt lat="47.248922" lon="13.163661"><ele>1604.10</ele><time>2010-06-26T14:28:07Z</time></trkpt><trkpt lat="47.248872" lon="13.163711"><ele>1603.14</ele><time>2010-06-26T14:28:12Z</time></trkpt><trkpt lat="47.248805" lon="13.163766"><ele>1602.17</ele><time>2010-06-26T14:28:19Z</time></trkpt><trkpt lat="47.248687" lon="13.163962"><ele>1599.29</ele><time>2010-06-26T14:28:31Z</time></trkpt><trkpt lat="47.248622" lon="13.164052"><ele>1598.33</ele><time>2010-06-26T14:28:38Z</time></trkpt><trkpt lat="47.248549" lon="13.164123"><ele>1597.85</ele><time>2010-06-26T14:28:44Z</time></trkpt><trkpt lat="47.248512" lon="13.164145"><ele>1595.45</ele><time>2010-06-26T14:28:47Z</time></trkpt><trkpt lat="47.248374" lon="13.164221"><ele>1593.04</ele><time>2010-06-26T14:28:58Z</time></trkpt><trkpt lat="47.248370" lon="13.164222"><ele>1593.04</ele><time>2010-06-26T14:28:59Z</time></trkpt><trkpt lat="47.248369" lon="13.164254"><ele>1592.56</ele><time>2010-06-26T14:29:09Z</time></trkpt><trkpt lat="47.248354" lon="13.164260"><ele>1592.08</ele><time>2010-06-26T14:29:26Z</time></trkpt><trkpt lat="47.248264" lon="13.164345"><ele>1591.60</ele><time>2010-06-26T14:29:33Z</time></trkpt><trkpt lat="47.248107" lon="13.164463"><ele>1590.64</ele><time>2010-06-26T14:29:45Z</time></trkpt><trkpt lat="47.248076" lon="13.164522"><ele>1589.68</ele><time>2010-06-26T14:29:49Z</time></trkpt><trkpt lat="47.247963" lon="13.164566"><ele>1587.75</ele><time>2010-06-26T14:29:59Z</time></trkpt><trkpt lat="47.247778" lon="13.164620"><ele>1586.31</ele><time>2010-06-26T14:30:12Z</time></trkpt><trkpt lat="47.247759" lon="13.164625"><ele>1586.31</ele><time>2010-06-26T14:30:13Z</time></trkpt><trkpt lat="47.247705" lon="13.164625"><ele>1584.87</ele><time>2010-06-26T14:30:17Z</time></trkpt><trkpt lat="47.247630" lon="13.164666"><ele>1583.91</ele><time>2010-06-26T14:30:23Z</time></trkpt><trkpt lat="47.247558" lon="13.164701"><ele>1582.47</ele><time>2010-06-26T14:30:30Z</time></trkpt><trkpt lat="47.247386" lon="13.164802"><ele>1580.54</ele><time>2010-06-26T14:30:43Z</time></trkpt><trkpt lat="47.247246" lon="13.164881"><ele>1577.18</ele><time>2010-06-26T14:30:54Z</time></trkpt><trkpt lat="47.247080" lon="13.164978"><ele>1573.33</ele><time>2010-06-26T14:31:05Z</time></trkpt><trkpt lat="47.246986" lon="13.165085"><ele>1571.89</ele><time>2010-06-26T14:31:15Z</time></trkpt><trkpt lat="47.246917" lon="13.165221"><ele>1569.49</ele><time>2010-06-26T14:31:23Z</time></trkpt><trkpt lat="47.246780" lon="13.165465"><ele>1566.61</ele><time>2010-06-26T14:31:37Z</time></trkpt><trkpt lat="47.246777" lon="13.165478"><ele>1566.12</ele><time>2010-06-26T14:31:38Z</time></trkpt><trkpt lat="47.246690" lon="13.165611"><ele>1562.76</ele><time>2010-06-26T14:31:48Z</time></trkpt><trkpt lat="47.246680" lon="13.165628"><ele>1562.76</ele><time>2010-06-26T14:31:49Z</time></trkpt><trkpt lat="47.246588" lon="13.165817"><ele>1561.80</ele><time>2010-06-26T14:32:00Z</time></trkpt><trkpt lat="47.246505" lon="13.165979"><ele>1558.43</ele><time>2010-06-26T14:32:11Z</time></trkpt><trkpt lat="47.246338" lon="13.166116"><ele>1556.99</ele><time>2010-06-26T14:32:25Z</time></trkpt><trkpt lat="47.246231" lon="13.166166"><ele>1555.55</ele><time>2010-06-26T14:32:40Z</time></trkpt><trkpt lat="47.246200" lon="13.166174"><ele>1554.11</ele><time>2010-06-26T14:32:48Z</time></trkpt><trkpt lat="47.246052" lon="13.166263"><ele>1553.63</ele><time>2010-06-26T14:32:59Z</time></trkpt><trkpt lat="47.245846" lon="13.166495"><ele>1553.15</ele><time>2010-06-26T14:33:13Z</time></trkpt><trkpt lat="47.245734" lon="13.166575"><ele>1551.71</ele><time>2010-06-26T14:33:26Z</time></trkpt><trkpt lat="47.245560" lon="13.166679"><ele>1552.19</ele><time>2010-06-26T14:33:41Z</time></trkpt><trkpt lat="47.245425" lon="13.166771"><ele>1550.26</ele><time>2010-06-26T14:33:54Z</time></trkpt><trkpt lat="47.245111" lon="13.166988"><ele>1549.78</ele><time>2010-06-26T14:34:09Z</time></trkpt><trkpt lat="47.244946" lon="13.167012"><ele>1548.34</ele><time>2010-06-26T14:34:22Z</time></trkpt><trkpt lat="47.244735" lon="13.167108"><ele>1546.90</ele><time>2010-06-26T14:34:35Z</time></trkpt><trkpt lat="47.244719" lon="13.167131"><ele>1549.30</ele><time>2010-06-26T14:34:38Z</time></trkpt><trkpt lat="47.244714" lon="13.167151"><ele>1548.34</ele><time>2010-06-26T14:34:40Z</time></trkpt><trkpt lat="47.244708" lon="13.167148"><ele>1548.34</ele><time>2010-06-26T14:34:50Z</time></trkpt><trkpt lat="47.244698" lon="13.167119"><ele>1550.74</ele><time>2010-06-26T14:34:59Z</time></trkpt><trkpt lat="47.244641" lon="13.167036"><ele>1551.22</ele><time>2010-06-26T14:35:10Z</time></trkpt><trkpt lat="47.244636" lon="13.167024"><ele>1551.22</ele><time>2010-06-26T14:35:11Z</time></trkpt><trkpt lat="47.244631" lon="13.167004"><ele>1549.78</ele><time>2010-06-26T14:35:13Z</time></trkpt><trkpt lat="47.244587" lon="13.166906"><ele>1553.15</ele><time>2010-06-26T14:35:21Z</time></trkpt><trkpt lat="47.244580" lon="13.166891"><ele>1553.15</ele><time>2010-06-26T14:35:22Z</time></trkpt><trkpt lat="47.244576" lon="13.166872"><ele>1550.74</ele><time>2010-06-26T14:35:24Z</time></trkpt><trkpt lat="47.244570" lon="13.166863"><ele>1554.11</ele><time>2010-06-26T14:35:25Z</time></trkpt><trkpt lat="47.244561" lon="13.166849"><ele>1549.78</ele><time>2010-06-26T14:35:26Z</time></trkpt><trkpt lat="47.244540" lon="13.166824"><ele>1554.11</ele><time>2010-06-26T14:35:28Z</time></trkpt><trkpt lat="47.244534" lon="13.166813"><ele>1554.11</ele><time>2010-06-26T14:35:29Z</time></trkpt><trkpt lat="47.244522" lon="13.166802"><ele>1549.78</ele><time>2010-06-26T14:35:30Z</time></trkpt><trkpt lat="47.244508" lon="13.166792"><ele>1551.22</ele><time>2010-06-26T14:35:31Z</time></trkpt><trkpt lat="47.244481" lon="13.166775"><ele>1554.59</ele><time>2010-06-26T14:35:33Z</time></trkpt><trkpt lat="47.244470" lon="13.166765"><ele>1550.26</ele><time>2010-06-26T14:35:34Z</time></trkpt><trkpt lat="47.244460" lon="13.166753"><ele>1552.19</ele><time>2010-06-26T14:35:35Z</time></trkpt><trkpt lat="47.244445" lon="13.166749"><ele>1555.55</ele><time>2010-06-26T14:35:36Z</time></trkpt><trkpt lat="47.244374" lon="13.166740"><ele>1553.15</ele><time>2010-06-26T14:35:42Z</time></trkpt><trkpt lat="47.244367" lon="13.166733"><ele>1555.07</ele><time>2010-06-26T14:35:43Z</time></trkpt><trkpt lat="47.244357" lon="13.166719"><ele>1555.55</ele><time>2010-06-26T14:35:45Z</time></trkpt><trkpt lat="47.244333" lon="13.166690"><ele>1556.51</ele><time>2010-06-26T14:35:48Z</time></trkpt><trkpt lat="47.244300" lon="13.166629"><ele>1556.51</ele><time>2010-06-26T14:35:52Z</time></trkpt><trkpt lat="47.244258" lon="13.166525"><ele>1558.43</ele><time>2010-06-26T14:36:01Z</time></trkpt><trkpt lat="47.244221" lon="13.166489"><ele>1555.55</ele><time>2010-06-26T14:36:04Z</time></trkpt><trkpt lat="47.244211" lon="13.166475"><ele>1560.36</ele><time>2010-06-26T14:36:05Z</time></trkpt><trkpt lat="47.244145" lon="13.166368"><ele>1556.99</ele><time>2010-06-26T14:36:14Z</time></trkpt><trkpt lat="47.244137" lon="13.166329"><ele>1560.84</ele><time>2010-06-26T14:36:17Z</time></trkpt><trkpt lat="47.244130" lon="13.166316"><ele>1556.03</ele><time>2010-06-26T14:36:18Z</time></trkpt><trkpt lat="47.244123" lon="13.166303"><ele>1559.40</ele><time>2010-06-26T14:36:19Z</time></trkpt><trkpt lat="47.244114" lon="13.166278"><ele>1560.36</ele><time>2010-06-26T14:36:21Z</time></trkpt><trkpt lat="47.244109" lon="13.166265"><ele>1556.03</ele><time>2010-06-26T14:36:22Z</time></trkpt><trkpt lat="47.244105" lon="13.166245"><ele>1560.36</ele><time>2010-06-26T14:36:23Z</time></trkpt><trkpt lat="47.244045" lon="13.166148"><ele>1561.80</ele><time>2010-06-26T14:36:31Z</time></trkpt><trkpt lat="47.244021" lon="13.166124"><ele>1558.43</ele><time>2010-06-26T14:36:34Z</time></trkpt><trkpt lat="47.244010" lon="13.166108"><ele>1561.80</ele><time>2010-06-26T14:36:35Z</time></trkpt><trkpt lat="47.243992" lon="13.166069"><ele>1562.28</ele><time>2010-06-26T14:36:37Z</time></trkpt><trkpt lat="47.243903" lon="13.165981"><ele>1563.72</ele><time>2010-06-26T14:36:45Z</time></trkpt><trkpt lat="47.243875" lon="13.165950"><ele>1564.20</ele><time>2010-06-26T14:36:48Z</time></trkpt><trkpt lat="47.243710" lon="13.165885"><ele>1562.76</ele><time>2010-06-26T14:37:00Z</time></trkpt><trkpt lat="47.243652" lon="13.165871"><ele>1565.16</ele><time>2010-06-26T14:37:04Z</time></trkpt><trkpt lat="47.243635" lon="13.165869"><ele>1560.36</ele><time>2010-06-26T14:37:05Z</time></trkpt><trkpt lat="47.243620" lon="13.165864"><ele>1562.28</ele><time>2010-06-26T14:37:06Z</time></trkpt><trkpt lat="47.243608" lon="13.165862"><ele>1566.12</ele><time>2010-06-26T14:37:07Z</time></trkpt><trkpt lat="47.243595" lon="13.165860"><ele>1565.16</ele><time>2010-06-26T14:37:08Z</time></trkpt><trkpt lat="47.243578" lon="13.165859"><ele>1560.36</ele><time>2010-06-26T14:37:09Z</time></trkpt><trkpt lat="47.243568" lon="13.165855"><ele>1563.72</ele><time>2010-06-26T14:37:10Z</time></trkpt><trkpt lat="47.243549" lon="13.165848"><ele>1565.64</ele><time>2010-06-26T14:37:12Z</time></trkpt><trkpt lat="47.243527" lon="13.165838"><ele>1563.24</ele><time>2010-06-26T14:37:14Z</time></trkpt><trkpt lat="47.243511" lon="13.165839"><ele>1567.09</ele><time>2010-06-26T14:37:16Z</time></trkpt><trkpt lat="47.243501" lon="13.165838"><ele>1565.16</ele><time>2010-06-26T14:37:17Z</time></trkpt><trkpt lat="47.243479" lon="13.165829"><ele>1564.20</ele><time>2010-06-26T14:37:19Z</time></trkpt><trkpt lat="47.243471" lon="13.165830"><ele>1566.12</ele><time>2010-06-26T14:37:20Z</time></trkpt><trkpt lat="47.243431" lon="13.165814"><ele>1564.20</ele><time>2010-06-26T14:37:23Z</time></trkpt><trkpt lat="47.243417" lon="13.165804"><ele>1565.16</ele><time>2010-06-26T14:37:24Z</time></trkpt><trkpt lat="47.243384" lon="13.165796"><ele>1567.09</ele><time>2010-06-26T14:37:27Z</time></trkpt><trkpt lat="47.243313" lon="13.165811"><ele>1567.57</ele><time>2010-06-26T14:37:32Z</time></trkpt><trkpt lat="47.243271" lon="13.165829"><ele>1568.53</ele><time>2010-06-26T14:37:36Z</time></trkpt><trkpt lat="47.243232" lon="13.165833"><ele>1567.09</ele><time>2010-06-26T14:37:39Z</time></trkpt><trkpt lat="47.243213" lon="13.165824"><ele>1568.05</ele><time>2010-06-26T14:37:41Z</time></trkpt><trkpt lat="47.243178" lon="13.165819"><ele>1569.49</ele><time>2010-06-26T14:37:44Z</time></trkpt><trkpt lat="47.243115" lon="13.165778"><ele>1567.57</ele><time>2010-06-26T14:37:51Z</time></trkpt><trkpt lat="47.243106" lon="13.165765"><ele>1571.41</ele><time>2010-06-26T14:37:53Z</time></trkpt><trkpt lat="47.243092" lon="13.165743"><ele>1568.53</ele><time>2010-06-26T14:37:55Z</time></trkpt><trkpt lat="47.243001" lon="13.165638"><ele>1573.33</ele><time>2010-06-26T14:38:03Z</time></trkpt><trkpt lat="47.242992" lon="13.165623"><ele>1573.33</ele><time>2010-06-26T14:38:04Z</time></trkpt><trkpt lat="47.242924" lon="13.165551"><ele>1571.41</ele><time>2010-06-26T14:38:11Z</time></trkpt><trkpt lat="47.242918" lon="13.165538"><ele>1573.82</ele><time>2010-06-26T14:38:12Z</time></trkpt><trkpt lat="47.242907" lon="13.165504"><ele>1574.78</ele><time>2010-06-26T14:38:14Z</time></trkpt><trkpt lat="47.242892" lon="13.165464"><ele>1571.89</ele><time>2010-06-26T14:38:17Z</time></trkpt><trkpt lat="47.242880" lon="13.165393"><ele>1572.37</ele><time>2010-06-26T14:38:21Z</time></trkpt><trkpt lat="47.242875" lon="13.165329"><ele>1574.78</ele><time>2010-06-26T14:38:24Z</time></trkpt><trkpt lat="47.242867" lon="13.165312"><ele>1575.26</ele><time>2010-06-26T14:38:25Z</time></trkpt><trkpt lat="47.242859" lon="13.165300"><ele>1573.82</ele><time>2010-06-26T14:38:26Z</time></trkpt><trkpt lat="47.242848" lon="13.165239"><ele>1575.26</ele><time>2010-06-26T14:38:29Z</time></trkpt><trkpt lat="47.242833" lon="13.165213"><ele>1569.97</ele><time>2010-06-26T14:38:32Z</time></trkpt><trkpt lat="47.242827" lon="13.165191"><ele>1573.82</ele><time>2010-06-26T14:38:33Z</time></trkpt><trkpt lat="47.242813" lon="13.165163"><ele>1577.18</ele><time>2010-06-26T14:38:35Z</time></trkpt><trkpt lat="47.242808" lon="13.165152"><ele>1576.70</ele><time>2010-06-26T14:38:36Z</time></trkpt><trkpt lat="47.242805" lon="13.165137"><ele>1572.37</ele><time>2010-06-26T14:38:37Z</time></trkpt><trkpt lat="47.242799" lon="13.165117"><ele>1574.30</ele><time>2010-06-26T14:38:38Z</time></trkpt><trkpt lat="47.242775" lon="13.165081"><ele>1578.14</ele><time>2010-06-26T14:38:41Z</time></trkpt><trkpt lat="47.242770" lon="13.165069"><ele>1571.89</ele><time>2010-06-26T14:38:42Z</time></trkpt><trkpt lat="47.242763" lon="13.165055"><ele>1574.78</ele><time>2010-06-26T14:38:43Z</time></trkpt><trkpt lat="47.242752" lon="13.165032"><ele>1578.14</ele><time>2010-06-26T14:38:45Z</time></trkpt><trkpt lat="47.242742" lon="13.164997"><ele>1573.33</ele><time>2010-06-26T14:38:47Z</time></trkpt><trkpt lat="47.242736" lon="13.164969"><ele>1574.78</ele><time>2010-06-26T14:38:48Z</time></trkpt><trkpt lat="47.242718" lon="13.164926"><ele>1578.62</ele><time>2010-06-26T14:38:51Z</time></trkpt><trkpt lat="47.242701" lon="13.164893"><ele>1576.70</ele><time>2010-06-26T14:38:53Z</time></trkpt><trkpt lat="47.242676" lon="13.164858"><ele>1580.54</ele><time>2010-06-26T14:38:56Z</time></trkpt><trkpt lat="47.242657" lon="13.164815"><ele>1577.18</ele><time>2010-06-26T14:38:59Z</time></trkpt><trkpt lat="47.242652" lon="13.164794"><ele>1580.06</ele><time>2010-06-26T14:39:01Z</time></trkpt><trkpt lat="47.242626" lon="13.164713"><ele>1578.14</ele><time>2010-06-26T14:39:06Z</time></trkpt><trkpt lat="47.242622" lon="13.164645"><ele>1582.47</ele><time>2010-06-26T14:39:09Z</time></trkpt><trkpt lat="47.242615" lon="13.164587"><ele>1577.18</ele><time>2010-06-26T14:39:12Z</time></trkpt><trkpt lat="47.242609" lon="13.164565"><ele>1580.06</ele><time>2010-06-26T14:39:13Z</time></trkpt><trkpt lat="47.242584" lon="13.164497"><ele>1581.51</ele><time>2010-06-26T14:39:17Z</time></trkpt><trkpt lat="47.242575" lon="13.164456"><ele>1578.62</ele><time>2010-06-26T14:39:19Z</time></trkpt><trkpt lat="47.242552" lon="13.164414"><ele>1581.03</ele><time>2010-06-26T14:39:21Z</time></trkpt><trkpt lat="47.242524" lon="13.164371"><ele>1583.43</ele><time>2010-06-26T14:39:24Z</time></trkpt><trkpt lat="47.242504" lon="13.164305"><ele>1582.95</ele><time>2010-06-26T14:39:27Z</time></trkpt><trkpt lat="47.242464" lon="13.164206"><ele>1584.87</ele><time>2010-06-26T14:39:33Z</time></trkpt><trkpt lat="47.242441" lon="13.164178"><ele>1585.35</ele><time>2010-06-26T14:39:35Z</time></trkpt><trkpt lat="47.242425" lon="13.164153"><ele>1581.51</ele><time>2010-06-26T14:39:37Z</time></trkpt><trkpt lat="47.242395" lon="13.164100"><ele>1584.87</ele><time>2010-06-26T14:39:41Z</time></trkpt><trkpt lat="47.242390" lon="13.164087"><ele>1584.87</ele><time>2010-06-26T14:39:42Z</time></trkpt><trkpt lat="47.242363" lon="13.164020"><ele>1584.87</ele><time>2010-06-26T14:39:45Z</time></trkpt><trkpt lat="47.242342" lon="13.163921"><ele>1585.35</ele><time>2010-06-26T14:39:50Z</time></trkpt><trkpt lat="47.242332" lon="13.163887"><ele>1586.31</ele><time>2010-06-26T14:39:52Z</time></trkpt><trkpt lat="47.242322" lon="13.163837"><ele>1585.35</ele><time>2010-06-26T14:39:55Z</time></trkpt><trkpt lat="47.242274" lon="13.163797"><ele>1584.87</ele><time>2010-06-26T14:39:59Z</time></trkpt><trkpt lat="47.242231" lon="13.163747"><ele>1585.35</ele><time>2010-06-26T14:40:05Z</time></trkpt><trkpt lat="47.242186" lon="13.163704"><ele>1587.75</ele><time>2010-06-26T14:40:09Z</time></trkpt><trkpt lat="47.242125" lon="13.163646"><ele>1585.35</ele><time>2010-06-26T14:40:16Z</time></trkpt><trkpt lat="47.242111" lon="13.163620"><ele>1586.31</ele><time>2010-06-26T14:40:18Z</time></trkpt><trkpt lat="47.242097" lon="13.163588"><ele>1587.27</ele><time>2010-06-26T14:40:20Z</time></trkpt><trkpt lat="47.242050" lon="13.163518"><ele>1587.75</ele><time>2010-06-26T14:40:27Z</time></trkpt><trkpt lat="47.242043" lon="13.163503"><ele>1581.51</ele><time>2010-06-26T14:40:28Z</time></trkpt><trkpt lat="47.242035" lon="13.163491"><ele>1586.79</ele><time>2010-06-26T14:40:29Z</time></trkpt><trkpt lat="47.242026" lon="13.163476"><ele>1591.60</ele><time>2010-06-26T14:40:30Z</time></trkpt><trkpt lat="47.242018" lon="13.163461"><ele>1589.68</ele><time>2010-06-26T14:40:31Z</time></trkpt><trkpt lat="47.242006" lon="13.163447"><ele>1584.87</ele><time>2010-06-26T14:40:32Z</time></trkpt><trkpt lat="47.241991" lon="13.163434"><ele>1587.27</ele><time>2010-06-26T14:40:33Z</time></trkpt><trkpt lat="47.241977" lon="13.163426"><ele>1589.68</ele><time>2010-06-26T14:40:34Z</time></trkpt><trkpt lat="47.241936" lon="13.163407"><ele>1588.72</ele><time>2010-06-26T14:40:37Z</time></trkpt><trkpt lat="47.241928" lon="13.163399"><ele>1590.16</ele><time>2010-06-26T14:40:40Z</time></trkpt><trkpt lat="47.241902" lon="13.163396"><ele>1589.68</ele><time>2010-06-26T14:40:42Z</time></trkpt><trkpt lat="47.241896" lon="13.163382"><ele>1587.75</ele><time>2010-06-26T14:40:49Z</time></trkpt><trkpt lat="47.241896" lon="13.163382"><ele>1593.04</ele><time>2010-06-26T14:40:52Z</time></trkpt><trkpt lat="47.241896" lon="13.163382"><ele>1586.31</ele><time>2010-06-26T14:40:53Z</time></trkpt><trkpt lat="47.241896" lon="13.163382"><ele>1591.60</ele><time>2010-06-26T14:40:55Z</time></trkpt><trkpt lat="47.241893" lon="13.163388"><ele>1589.20</ele><time>2010-06-26T14:40:56Z</time></trkpt><trkpt lat="47.241858" lon="13.163350"><ele>1585.83</ele><time>2010-06-26T14:41:03Z</time></trkpt><trkpt lat="47.241845" lon="13.163341"><ele>1588.72</ele><time>2010-06-26T14:41:04Z</time></trkpt><trkpt lat="47.241790" lon="13.163302"><ele>1588.24</ele><time>2010-06-26T14:41:09Z</time></trkpt><trkpt lat="47.241743" lon="13.163264"><ele>1591.12</ele><time>2010-06-26T14:41:14Z</time></trkpt><trkpt lat="47.241687" lon="13.163209"><ele>1595.45</ele><time>2010-06-26T14:41:22Z</time></trkpt><trkpt lat="47.241685" lon="13.163198"><ele>1593.52</ele><time>2010-06-26T14:41:23Z</time></trkpt><trkpt lat="47.241679" lon="13.163181"><ele>1592.08</ele><time>2010-06-26T14:41:25Z</time></trkpt><trkpt lat="47.241671" lon="13.163132"><ele>1588.24</ele><time>2010-06-26T14:41:29Z</time></trkpt><trkpt lat="47.241663" lon="13.163125"><ele>1594.48</ele><time>2010-06-26T14:41:30Z</time></trkpt><trkpt lat="47.241624" lon="13.163090"><ele>1594.48</ele><time>2010-06-26T14:41:34Z</time></trkpt><trkpt lat="47.241599" lon="13.163055"><ele>1594.00</ele><time>2010-06-26T14:41:38Z</time></trkpt><trkpt lat="47.241572" lon="13.163029"><ele>1595.45</ele><time>2010-06-26T14:41:44Z</time></trkpt><trkpt lat="47.241569" lon="13.163022"><ele>1588.72</ele><time>2010-06-26T14:41:45Z</time></trkpt><trkpt lat="47.241566" lon="13.163012"><ele>1595.45</ele><time>2010-06-26T14:41:46Z</time></trkpt><trkpt lat="47.241546" lon="13.162976"><ele>1600.73</ele><time>2010-06-26T14:41:52Z</time></trkpt><trkpt lat="47.241542" lon="13.162966"><ele>1594.00</ele><time>2010-06-26T14:41:53Z</time></trkpt><trkpt lat="47.241539" lon="13.162960"><ele>1597.85</ele><time>2010-06-26T14:41:54Z</time></trkpt><trkpt lat="47.241509" lon="13.162905"><ele>1594.48</ele><time>2010-06-26T14:42:00Z</time></trkpt><trkpt lat="47.241496" lon="13.162887"><ele>1598.33</ele><time>2010-06-26T14:42:02Z</time></trkpt><trkpt lat="47.241436" lon="13.162855"><ele>1599.29</ele><time>2010-06-26T14:42:11Z</time></trkpt><trkpt lat="47.241398" lon="13.162792"><ele>1594.96</ele><time>2010-06-26T14:42:18Z</time></trkpt><trkpt lat="47.241393" lon="13.162779"><ele>1599.29</ele><time>2010-06-26T14:42:19Z</time></trkpt><trkpt lat="47.241369" lon="13.162771"><ele>1599.77</ele><time>2010-06-26T14:42:34Z</time></trkpt><trkpt lat="47.241360" lon="13.162751"><ele>1599.29</ele><time>2010-06-26T14:42:38Z</time></trkpt><trkpt lat="47.241300" lon="13.162690"><ele>1598.81</ele><time>2010-06-26T14:42:48Z</time></trkpt><trkpt lat="47.241300" lon="13.162690"><ele>1602.66</ele><time>2010-06-26T14:42:56Z</time></trkpt><trkpt lat="47.241292" lon="13.162681"><ele>1601.69</ele><time>2010-06-26T14:42:57Z</time></trkpt><trkpt lat="47.241280" lon="13.162668"><ele>1597.85</ele><time>2010-06-26T14:43:00Z</time></trkpt><trkpt lat="47.241186" lon="13.162545"><ele>1594.00</ele><time>2010-06-26T14:43:22Z</time></trkpt><trkpt lat="47.241186" lon="13.162535"><ele>1594.48</ele><time>2010-06-26T14:43:23Z</time></trkpt><trkpt lat="47.241182" lon="13.162522"><ele>1600.73</ele><time>2010-06-26T14:43:24Z</time></trkpt><trkpt lat="47.241162" lon="13.162452"><ele>1602.66</ele><time>2010-06-26T14:43:30Z</time></trkpt><trkpt lat="47.241143" lon="13.162410"><ele>1599.77</ele><time>2010-06-26T14:43:33Z</time></trkpt><trkpt lat="47.241068" lon="13.162371"><ele>1596.41</ele><time>2010-06-26T14:43:43Z</time></trkpt><trkpt lat="47.241055" lon="13.162367"><ele>1601.69</ele><time>2010-06-26T14:43:44Z</time></trkpt><trkpt lat="47.240987" lon="13.162328"><ele>1599.77</ele><time>2010-06-26T14:43:50Z</time></trkpt><trkpt lat="47.240931" lon="13.162333"><ele>1599.77</ele><time>2010-06-26T14:44:00Z</time></trkpt><trkpt lat="47.240877" lon="13.162337"><ele>1599.29</ele><time>2010-06-26T14:44:10Z</time></trkpt><trkpt lat="47.240813" lon="13.162354"><ele>1600.25</ele><time>2010-06-26T14:44:22Z</time></trkpt><trkpt lat="47.240725" lon="13.162419"><ele>1598.81</ele><time>2010-06-26T14:44:31Z</time></trkpt><trkpt lat="47.240601" lon="13.162431"><ele>1595.45</ele><time>2010-06-26T14:44:41Z</time></trkpt><trkpt lat="47.240529" lon="13.162433"><ele>1599.29</ele><time>2010-06-26T14:44:53Z</time></trkpt><trkpt lat="47.240508" lon="13.162423"><ele>1594.48</ele><time>2010-06-26T14:45:01Z</time></trkpt><trkpt lat="47.240510" lon="13.162417"><ele>1599.29</ele><time>2010-06-26T14:45:02Z</time></trkpt><trkpt lat="47.240510" lon="13.162417"><ele>1598.81</ele><time>2010-06-26T14:45:03Z</time></trkpt><trkpt lat="47.240508" lon="13.162412"><ele>1599.29</ele><time>2010-06-26T14:45:05Z</time></trkpt><trkpt lat="47.240499" lon="13.162386"><ele>1600.25</ele><time>2010-06-26T14:45:08Z</time></trkpt><trkpt lat="47.240479" lon="13.162304"><ele>1603.14</ele><time>2010-06-26T14:45:27Z</time></trkpt><trkpt lat="47.240483" lon="13.162307"><ele>1601.21</ele><time>2010-06-26T14:45:34Z</time></trkpt><trkpt lat="47.240485" lon="13.162310"><ele>1600.73</ele><time>2010-06-26T14:45:39Z</time></trkpt><trkpt lat="47.240485" lon="13.162310"><ele>1604.10</ele><time>2010-06-26T14:45:40Z</time></trkpt><trkpt lat="47.240489" lon="13.162300"><ele>1603.14</ele><time>2010-06-26T14:45:41Z</time></trkpt><trkpt lat="47.240491" lon="13.162286"><ele>1601.69</ele><time>2010-06-26T14:45:42Z</time></trkpt><trkpt lat="47.240483" lon="13.162255"><ele>1603.14</ele><time>2010-06-26T14:45:45Z</time></trkpt><trkpt lat="47.240487" lon="13.162228"><ele>1600.25</ele><time>2010-06-26T14:45:47Z</time></trkpt><trkpt lat="47.240489" lon="13.162218"><ele>1604.58</ele><time>2010-06-26T14:45:48Z</time></trkpt><trkpt lat="47.240489" lon="13.162203"><ele>1599.77</ele><time>2010-06-26T14:45:49Z</time></trkpt><trkpt lat="47.240492" lon="13.162184"><ele>1604.10</ele><time>2010-06-26T14:45:50Z</time></trkpt><trkpt lat="47.240496" lon="13.162165"><ele>1605.06</ele><time>2010-06-26T14:45:51Z</time></trkpt><trkpt lat="47.240495" lon="13.162043"><ele>1605.54</ele><time>2010-06-26T14:46:01Z</time></trkpt><trkpt lat="47.240480" lon="13.161986"><ele>1605.54</ele><time>2010-06-26T14:46:08Z</time></trkpt><trkpt lat="47.240470" lon="13.161947"><ele>1607.46</ele><time>2010-06-26T14:46:11Z</time></trkpt><trkpt lat="47.240471" lon="13.161924"><ele>1606.98</ele><time>2010-06-26T14:46:13Z</time></trkpt><trkpt lat="47.240433" lon="13.161889"><ele>1606.50</ele><time>2010-06-26T14:46:18Z</time></trkpt><trkpt lat="47.240427" lon="13.161887"><ele>1606.98</ele><time>2010-06-26T14:46:19Z</time></trkpt><trkpt lat="47.240414" lon="13.161885"><ele>1605.54</ele><time>2010-06-26T14:46:21Z</time></trkpt><trkpt lat="47.240316" lon="13.161897"><ele>1606.02</ele><time>2010-06-26T14:46:27Z</time></trkpt><trkpt lat="47.240191" lon="13.161829"><ele>1606.50</ele><time>2010-06-26T14:46:39Z</time></trkpt><trkpt lat="47.240129" lon="13.161821"><ele>1606.02</ele><time>2010-06-26T14:46:48Z</time></trkpt><trkpt lat="47.240081" lon="13.161784"><ele>1608.42</ele><time>2010-06-26T14:46:53Z</time></trkpt><trkpt lat="47.240021" lon="13.161724"><ele>1606.98</ele><time>2010-06-26T14:47:07Z</time></trkpt><trkpt lat="47.240004" lon="13.161705"><ele>1609.38</ele><time>2010-06-26T14:47:09Z</time></trkpt><trkpt lat="47.239991" lon="13.161695"><ele>1607.94</ele><time>2010-06-26T14:47:11Z</time></trkpt><trkpt lat="47.239967" lon="13.161660"><ele>1607.46</ele><time>2010-06-26T14:47:16Z</time></trkpt><trkpt lat="47.239958" lon="13.161657"><ele>1608.90</ele><time>2010-06-26T14:47:17Z</time></trkpt><trkpt lat="47.239919" lon="13.161648"><ele>1608.42</ele><time>2010-06-26T14:47:20Z</time></trkpt><trkpt lat="47.239894" lon="13.161628"><ele>1608.90</ele><time>2010-06-26T14:47:22Z</time></trkpt><trkpt lat="47.239834" lon="13.161510"><ele>1608.90</ele><time>2010-06-26T14:47:28Z</time></trkpt><trkpt lat="47.239808" lon="13.161314"><ele>1608.42</ele><time>2010-06-26T14:47:40Z</time></trkpt><trkpt lat="47.239793" lon="13.161280"><ele>1608.90</ele><time>2010-06-26T14:47:42Z</time></trkpt><trkpt lat="47.239792" lon="13.161190"><ele>1607.94</ele><time>2010-06-26T14:47:47Z</time></trkpt><trkpt lat="47.239736" lon="13.161078"><ele>1606.02</ele><time>2010-06-26T14:48:02Z</time></trkpt><trkpt lat="47.239725" lon="13.161037"><ele>1601.21</ele><time>2010-06-26T14:48:12Z</time></trkpt><trkpt lat="47.239725" lon="13.161031"><ele>1606.50</ele><time>2010-06-26T14:48:13Z</time></trkpt><trkpt lat="47.239735" lon="13.161005"><ele>1607.94</ele><time>2010-06-26T14:48:18Z</time></trkpt><trkpt lat="47.239764" lon="13.160920"><ele>1603.62</ele><time>2010-06-26T14:48:24Z</time></trkpt><trkpt lat="47.239765" lon="13.160906"><ele>1606.50</ele><time>2010-06-26T14:48:25Z</time></trkpt><trkpt lat="47.239763" lon="13.160889"><ele>1609.38</ele><time>2010-06-26T14:48:26Z</time></trkpt><trkpt lat="47.239763" lon="13.160874"><ele>1608.90</ele><time>2010-06-26T14:48:27Z</time></trkpt><trkpt lat="47.239760" lon="13.160720"><ele>1609.86</ele><time>2010-06-26T14:48:39Z</time></trkpt><trkpt lat="47.239776" lon="13.160671"><ele>1611.79</ele><time>2010-06-26T14:48:47Z</time></trkpt><trkpt lat="47.239756" lon="13.160545"><ele>1611.31</ele><time>2010-06-26T14:48:57Z</time></trkpt><trkpt lat="47.239756" lon="13.160502"><ele>1614.67</ele><time>2010-06-26T14:49:01Z</time></trkpt><trkpt lat="47.239756" lon="13.160502"><ele>1608.90</ele><time>2010-06-26T14:49:02Z</time></trkpt><trkpt lat="47.239759" lon="13.160493"><ele>1613.71</ele><time>2010-06-26T14:49:03Z</time></trkpt><trkpt lat="47.239764" lon="13.160484"><ele>1602.17</ele><time>2010-06-26T14:49:07Z</time></trkpt><trkpt lat="47.239769" lon="13.160469"><ele>1615.15</ele><time>2010-06-26T14:49:08Z</time></trkpt><trkpt lat="47.239772" lon="13.160459"><ele>1615.15</ele><time>2010-06-26T14:49:09Z</time></trkpt><trkpt lat="47.239776" lon="13.160336"><ele>1615.15</ele><time>2010-06-26T14:49:18Z</time></trkpt><trkpt lat="47.239778" lon="13.160324"><ele>1611.79</ele><time>2010-06-26T14:49:32Z</time></trkpt><trkpt lat="47.239768" lon="13.160320"><ele>1615.15</ele><time>2010-06-26T14:49:34Z</time></trkpt><trkpt lat="47.239762" lon="13.160320"><ele>1616.11</ele><time>2010-06-26T14:49:35Z</time></trkpt><trkpt lat="47.239736" lon="13.160328"><ele>1618.04</ele><time>2010-06-26T14:49:39Z</time></trkpt><trkpt lat="47.239727" lon="13.160318"><ele>1612.27</ele><time>2010-06-26T14:49:41Z</time></trkpt><trkpt lat="47.239725" lon="13.160316"><ele>1615.63</ele><time>2010-06-26T14:49:42Z</time></trkpt><trkpt lat="47.239725" lon="13.160316"><ele>1620.44</ele><time>2010-06-26T14:49:43Z</time></trkpt><trkpt lat="47.239725" lon="13.160316"><ele>1618.04</ele><time>2010-06-26T14:49:44Z</time></trkpt><trkpt lat="47.239701" lon="13.160327"><ele>1615.63</ele><time>2010-06-26T14:49:48Z</time></trkpt><trkpt lat="47.239658" lon="13.160357"><ele>1617.07</ele><time>2010-06-26T14:50:00Z</time></trkpt><trkpt lat="47.239563" lon="13.160445"><ele>1616.59</ele><time>2010-06-26T14:50:09Z</time></trkpt><trkpt lat="47.239509" lon="13.160497"><ele>1617.56</ele><time>2010-06-26T14:50:16Z</time></trkpt><trkpt lat="47.239471" lon="13.160536"><ele>1619.48</ele><time>2010-06-26T14:50:32Z</time></trkpt><trkpt lat="47.239471" lon="13.160536"><ele>1618.04</ele><time>2010-06-26T14:50:34Z</time></trkpt><trkpt lat="47.239423" lon="13.160573"><ele>1616.59</ele><time>2010-06-26T14:51:00Z</time></trkpt><trkpt lat="47.239423" lon="13.160573"><ele>1618.52</ele><time>2010-06-26T14:51:03Z</time></trkpt><trkpt lat="47.239423" lon="13.160573"><ele>1618.04</ele><time>2010-06-26T14:51:19Z</time></trkpt><trkpt lat="47.239348" lon="13.160598"><ele>1618.04</ele><time>2010-06-26T14:51:53Z</time></trkpt><trkpt lat="47.239300" lon="13.160611"><ele>1615.15</ele><time>2010-06-26T14:51:57Z</time></trkpt><trkpt lat="47.239287" lon="13.160614"><ele>1619.00</ele><time>2010-06-26T14:51:58Z</time></trkpt><trkpt lat="47.239251" lon="13.160604"><ele>1618.52</ele><time>2010-06-26T14:52:04Z</time></trkpt><trkpt lat="47.239232" lon="13.160572"><ele>1619.00</ele><time>2010-06-26T14:52:15Z</time></trkpt><trkpt lat="47.239155" lon="13.160590"><ele>1617.56</ele><time>2010-06-26T14:52:21Z</time></trkpt><trkpt lat="47.239111" lon="13.160599"><ele>1619.48</ele><time>2010-06-26T14:52:30Z</time></trkpt><trkpt lat="47.239086" lon="13.160602"><ele>1619.00</ele><time>2010-06-26T14:52:37Z</time></trkpt><trkpt lat="47.238942" lon="13.160640"><ele>1619.96</ele><time>2010-06-26T14:52:52Z</time></trkpt><trkpt lat="47.238872" lon="13.160656"><ele>1621.40</ele><time>2010-06-26T14:53:02Z</time></trkpt><trkpt lat="47.238856" lon="13.160674"><ele>1621.40</ele><time>2010-06-26T14:53:25Z</time></trkpt><trkpt lat="47.238898" lon="13.160677"><ele>1622.36</ele><time>2010-06-26T14:53:38Z</time></trkpt><trkpt lat="47.238892" lon="13.160725"><ele>1619.96</ele><time>2010-06-26T14:53:45Z</time></trkpt><trkpt lat="47.238859" lon="13.160760"><ele>1618.52</ele><time>2010-06-26T14:53:50Z</time></trkpt><trkpt lat="47.238690" lon="13.160842"><ele>1617.56</ele><time>2010-06-26T14:54:10Z</time></trkpt><trkpt lat="47.238645" lon="13.160834"><ele>1619.48</ele><time>2010-06-26T14:54:19Z</time></trkpt><trkpt lat="47.238572" lon="13.160793"><ele>1619.00</ele><time>2010-06-26T14:54:27Z</time></trkpt><trkpt lat="47.238543" lon="13.160749"><ele>1619.00</ele><time>2010-06-26T14:54:34Z</time></trkpt><trkpt lat="47.238531" lon="13.160691"><ele>1619.96</ele><time>2010-06-26T14:54:45Z</time></trkpt><trkpt lat="47.238534" lon="13.160647"><ele>1619.48</ele><time>2010-06-26T14:55:02Z</time></trkpt><trkpt lat="47.238446" lon="13.160587"><ele>1618.04</ele><time>2010-06-26T14:55:21Z</time></trkpt><trkpt lat="47.238436" lon="13.160585"><ele>1618.04</ele><time>2010-06-26T14:55:22Z</time></trkpt><trkpt lat="47.238345" lon="13.160586"><ele>1617.56</ele><time>2010-06-26T14:55:32Z</time></trkpt><trkpt lat="47.238133" lon="13.160579"><ele>1615.63</ele><time>2010-06-26T14:55:51Z</time></trkpt><trkpt lat="47.238055" lon="13.160542"><ele>1612.27</ele><time>2010-06-26T14:55:59Z</time></trkpt><trkpt lat="47.238044" lon="13.160540"><ele>1612.27</ele><time>2010-06-26T14:56:00Z</time></trkpt><trkpt lat="47.238010" lon="13.160557"><ele>1613.23</ele><time>2010-06-26T14:56:10Z</time></trkpt><trkpt lat="47.238010" lon="13.160557"><ele>1611.79</ele><time>2010-06-26T14:56:12Z</time></trkpt><trkpt lat="47.238010" lon="13.160557"><ele>1613.23</ele><time>2010-06-26T14:56:28Z</time></trkpt><trkpt lat="47.238044" lon="13.160602"><ele>1607.46</ele><time>2010-06-26T14:56:34Z</time></trkpt><trkpt lat="47.238051" lon="13.160603"><ele>1609.86</ele><time>2010-06-26T14:56:35Z</time></trkpt><trkpt lat="47.238056" lon="13.160606"><ele>1613.71</ele><time>2010-06-26T14:56:36Z</time></trkpt><trkpt lat="47.238074" lon="13.160640"><ele>1615.15</ele><time>2010-06-26T14:56:39Z</time></trkpt><trkpt lat="47.238105" lon="13.160645"><ele>1611.31</ele><time>2010-06-26T14:56:41Z</time></trkpt><trkpt lat="47.238111" lon="13.160649"><ele>1615.15</ele><time>2010-06-26T14:56:42Z</time></trkpt><trkpt lat="47.238117" lon="13.160658"><ele>1617.07</ele><time>2010-06-26T14:56:43Z</time></trkpt><trkpt lat="47.238144" lon="13.160671"><ele>1612.75</ele><time>2010-06-26T14:56:45Z</time></trkpt><trkpt lat="47.238153" lon="13.160687"><ele>1613.23</ele><time>2010-06-26T14:56:46Z</time></trkpt><trkpt lat="47.238160" lon="13.160694"><ele>1615.15</ele><time>2010-06-26T14:56:47Z</time></trkpt><trkpt lat="47.238163" lon="13.160701"><ele>1613.23</ele><time>2010-06-26T14:56:48Z</time></trkpt><trkpt lat="47.238166" lon="13.160700"><ele>1616.59</ele><time>2010-06-26T14:56:49Z</time></trkpt><trkpt lat="47.238173" lon="13.160695"><ele>1616.59</ele><time>2010-06-26T14:56:50Z</time></trkpt><trkpt lat="47.238175" lon="13.160683"><ele>1608.90</ele><time>2010-06-26T14:56:51Z</time></trkpt><trkpt lat="47.238182" lon="13.160665"><ele>1618.04</ele><time>2010-06-26T14:56:52Z</time></trkpt><trkpt lat="47.238195" lon="13.160623"><ele>1612.27</ele><time>2010-06-26T14:56:56Z</time></trkpt><trkpt lat="47.238199" lon="13.160620"><ele>1613.71</ele><time>2010-06-26T14:56:57Z</time></trkpt><trkpt lat="47.238204" lon="13.160619"><ele>1617.07</ele><time>2010-06-26T14:56:58Z</time></trkpt><trkpt lat="47.238208" lon="13.160610"><ele>1617.07</ele><time>2010-06-26T14:56:59Z</time></trkpt><trkpt lat="47.238203" lon="13.160600"><ele>1621.40</ele><time>2010-06-26T14:57:00Z</time></trkpt><trkpt lat="47.238193" lon="13.160589"><ele>1620.44</ele><time>2010-06-26T14:57:01Z</time></trkpt><trkpt lat="47.238225" lon="13.160530"><ele>1613.23</ele><time>2010-06-26T14:57:09Z</time></trkpt><trkpt lat="47.238224" lon="13.160530"><ele>1621.40</ele><time>2010-06-26T14:57:10Z</time></trkpt><trkpt lat="47.238223" lon="13.160525"><ele>1621.88</ele><time>2010-06-26T14:57:11Z</time></trkpt><trkpt lat="47.238225" lon="13.160518"><ele>1622.36</ele><time>2010-06-26T14:57:15Z</time></trkpt><trkpt lat="47.238225" lon="13.160518"><ele>1623.32</ele><time>2010-06-26T14:57:19Z</time></trkpt><trkpt lat="47.238227" lon="13.160489"><ele>1617.07</ele><time>2010-06-26T14:57:24Z</time></trkpt><trkpt lat="47.238223" lon="13.160472"><ele>1624.77</ele><time>2010-06-26T14:57:25Z</time></trkpt><trkpt lat="47.238211" lon="13.160462"><ele>1625.73</ele><time>2010-06-26T14:57:27Z</time></trkpt><trkpt lat="47.238198" lon="13.160447"><ele>1630.53</ele><time>2010-06-26T14:57:30Z</time></trkpt><trkpt lat="47.238199" lon="13.160436"><ele>1629.09</ele><time>2010-06-26T14:57:31Z</time></trkpt><trkpt lat="47.238198" lon="13.160424"><ele>1624.28</ele><time>2010-06-26T14:57:32Z</time></trkpt><trkpt lat="47.238199" lon="13.160416"><ele>1628.13</ele><time>2010-06-26T14:57:33Z</time></trkpt><trkpt lat="47.238204" lon="13.160412"><ele>1629.09</ele><time>2010-06-26T14:57:35Z</time></trkpt><trkpt lat="47.238204" lon="13.160391"><ele>1622.84</ele><time>2010-06-26T14:57:44Z</time></trkpt><trkpt lat="47.238208" lon="13.160384"><ele>1631.01</ele><time>2010-06-26T14:57:45Z</time></trkpt><trkpt lat="47.238211" lon="13.160379"><ele>1629.57</ele><time>2010-06-26T14:57:46Z</time></trkpt><trkpt lat="47.238230" lon="13.160323"><ele>1633.42</ele><time>2010-06-26T14:57:53Z</time></trkpt><trkpt lat="47.238237" lon="13.160275"><ele>1632.94</ele><time>2010-06-26T14:57:54Z</time></trkpt><trkpt lat="47.238098" lon="13.160097"><ele>1636.30</ele><time>2010-06-26T14:58:29Z</time></trkpt><trkpt lat="47.238071" lon="13.160074"><ele>1631.01</ele><time>2010-06-26T14:58:31Z</time></trkpt><trkpt lat="47.238058" lon="13.160065"><ele>1636.30</ele><time>2010-06-26T14:58:32Z</time></trkpt><trkpt lat="47.238058" lon="13.160065"><ele>1635.82</ele><time>2010-06-26T14:58:33Z</time></trkpt><trkpt lat="47.238002" lon="13.159970"><ele>1636.78</ele><time>2010-06-26T14:58:40Z</time></trkpt><trkpt lat="47.237908" lon="13.159817"><ele>1638.22</ele><time>2010-06-26T14:58:54Z</time></trkpt><trkpt lat="47.237762" lon="13.159725"><ele>1638.70</ele><time>2010-06-26T14:59:07Z</time></trkpt><trkpt lat="47.237578" lon="13.159540"><ele>1640.63</ele><time>2010-06-26T14:59:27Z</time></trkpt><trkpt lat="47.237570" lon="13.159531"><ele>1637.74</ele><time>2010-06-26T14:59:28Z</time></trkpt><trkpt lat="47.237566" lon="13.159520"><ele>1641.59</ele><time>2010-06-26T14:59:29Z</time></trkpt><trkpt lat="47.237542" lon="13.159446"><ele>1644.95</ele><time>2010-06-26T14:59:39Z</time></trkpt><trkpt lat="47.237407" lon="13.159223"><ele>1646.40</ele><time>2010-06-26T15:00:09Z</time></trkpt><trkpt lat="47.237308" lon="13.158931"><ele>1647.36</ele><time>2010-06-26T15:00:29Z</time></trkpt><trkpt lat="47.237304" lon="13.158926"><ele>1648.32</ele><time>2010-06-26T15:00:34Z</time></trkpt><trkpt lat="47.237173" lon="13.158671"><ele>1647.36</ele><time>2010-06-26T15:00:49Z</time></trkpt><trkpt lat="47.237186" lon="13.158600"><ele>1651.20</ele><time>2010-06-26T15:01:10Z</time></trkpt><trkpt lat="47.237186" lon="13.158600"><ele>1645.91</ele><time>2010-06-26T15:01:11Z</time></trkpt><trkpt lat="47.237183" lon="13.158590"><ele>1649.76</ele><time>2010-06-26T15:01:12Z</time></trkpt><trkpt lat="47.236783" lon="13.158419"><ele>1650.24</ele><time>2010-06-26T15:01:34Z</time></trkpt><trkpt lat="47.236721" lon="13.158414"><ele>1651.20</ele><time>2010-06-26T15:01:40Z</time></trkpt><trkpt lat="47.236647" lon="13.158424"><ele>1650.72</ele><time>2010-06-26T15:01:49Z</time></trkpt><trkpt lat="47.236599" lon="13.158478"><ele>1652.16</ele><time>2010-06-26T15:01:53Z</time></trkpt><trkpt lat="47.236572" lon="13.158509"><ele>1652.64</ele><time>2010-06-26T15:01:55Z</time></trkpt><trkpt lat="47.236513" lon="13.158521"><ele>1653.12</ele><time>2010-06-26T15:02:04Z</time></trkpt><trkpt lat="47.236503" lon="13.158438"><ele>1657.45</ele><time>2010-06-26T15:02:11Z</time></trkpt><trkpt lat="47.236505" lon="13.158430"><ele>1653.12</ele><time>2010-06-26T15:02:12Z</time></trkpt><trkpt lat="47.236504" lon="13.158428"><ele>1656.49</ele><time>2010-06-26T15:02:13Z</time></trkpt><trkpt lat="47.236486" lon="13.158398"><ele>1657.45</ele><time>2010-06-26T15:02:20Z</time></trkpt><trkpt lat="47.236480" lon="13.158380"><ele>1654.57</ele><time>2010-06-26T15:02:22Z</time></trkpt><trkpt lat="47.236471" lon="13.158366"><ele>1657.93</ele><time>2010-06-26T15:02:23Z</time></trkpt><trkpt lat="47.236428" lon="13.158301"><ele>1658.41</ele><time>2010-06-26T15:02:28Z</time></trkpt><trkpt lat="47.236301" lon="13.158280"><ele>1656.49</ele><time>2010-06-26T15:02:38Z</time></trkpt><trkpt lat="47.236158" lon="13.158250"><ele>1655.05</ele><time>2010-06-26T15:02:51Z</time></trkpt><trkpt lat="47.236105" lon="13.158282"><ele>1648.80</ele><time>2010-06-26T15:02:59Z</time></trkpt><trkpt lat="47.236100" lon="13.158293"><ele>1654.09</ele><time>2010-06-26T15:03:00Z</time></trkpt><trkpt lat="47.236084" lon="13.158339"><ele>1655.05</ele><time>2010-06-26T15:03:03Z</time></trkpt><trkpt lat="47.236082" lon="13.158406"><ele>1656.49</ele><time>2010-06-26T15:03:06Z</time></trkpt><trkpt lat="47.236094" lon="13.158492"><ele>1656.01</ele><time>2010-06-26T15:03:10Z</time></trkpt><trkpt lat="47.236127" lon="13.158698"><ele>1654.57</ele><time>2010-06-26T15:03:22Z</time></trkpt><trkpt lat="47.236133" lon="13.158716"><ele>1655.53</ele><time>2010-06-26T15:03:24Z</time></trkpt><trkpt lat="47.236090" lon="13.158852"><ele>1655.53</ele><time>2010-06-26T15:03:33Z</time></trkpt><trkpt lat="47.235989" lon="13.158993"><ele>1653.60</ele><time>2010-06-26T15:03:45Z</time></trkpt><trkpt lat="47.235904" lon="13.159083"><ele>1654.09</ele><time>2010-06-26T15:03:57Z</time></trkpt><trkpt lat="47.235848" lon="13.159099"><ele>1654.09</ele><time>2010-06-26T15:04:02Z</time></trkpt><trkpt lat="47.235787" lon="13.159092"><ele>1648.32</ele><time>2010-06-26T15:04:07Z</time></trkpt><trkpt lat="47.235776" lon="13.159091"><ele>1653.60</ele><time>2010-06-26T15:04:08Z</time></trkpt><trkpt lat="47.235760" lon="13.159097"><ele>1653.60</ele><time>2010-06-26T15:04:10Z</time></trkpt><trkpt lat="47.235738" lon="13.159086"><ele>1654.57</ele><time>2010-06-26T15:04:13Z</time></trkpt><trkpt lat="47.235723" lon="13.159067"><ele>1653.12</ele><time>2010-06-26T15:04:15Z</time></trkpt><trkpt lat="47.235712" lon="13.159044"><ele>1657.45</ele><time>2010-06-26T15:04:17Z</time></trkpt><trkpt lat="47.235706" lon="13.159036"><ele>1656.01</ele><time>2010-06-26T15:04:18Z</time></trkpt><trkpt lat="47.235674" lon="13.159024"><ele>1658.41</ele><time>2010-06-26T15:04:21Z</time></trkpt><trkpt lat="47.235608" lon="13.158983"><ele>1659.37</ele><time>2010-06-26T15:04:29Z</time></trkpt><trkpt lat="47.235571" lon="13.158950"><ele>1655.53</ele><time>2010-06-26T15:04:34Z</time></trkpt><trkpt lat="47.235566" lon="13.158942"><ele>1659.85</ele><time>2010-06-26T15:04:35Z</time></trkpt><trkpt lat="47.235490" lon="13.158842"><ele>1661.78</ele><time>2010-06-26T15:04:47Z</time></trkpt><trkpt lat="47.235425" lon="13.158803"><ele>1656.97</ele><time>2010-06-26T15:04:54Z</time></trkpt><trkpt lat="47.235412" lon="13.158794"><ele>1662.74</ele><time>2010-06-26T15:04:55Z</time></trkpt><trkpt lat="47.235254" lon="13.158726"><ele>1662.74</ele><time>2010-06-26T15:05:08Z</time></trkpt><trkpt lat="47.235138" lon="13.158681"><ele>1664.18</ele><time>2010-06-26T15:05:19Z</time></trkpt><trkpt lat="47.235121" lon="13.158679"><ele>1665.14</ele><time>2010-06-26T15:05:21Z</time></trkpt><trkpt lat="47.235032" lon="13.158610"><ele>1664.18</ele><time>2010-06-26T15:05:30Z</time></trkpt><trkpt lat="47.235000" lon="13.158595"><ele>1665.14</ele><time>2010-06-26T15:05:34Z</time></trkpt><trkpt lat="47.234989" lon="13.158586"><ele>1664.66</ele><time>2010-06-26T15:05:36Z</time></trkpt><trkpt lat="47.234927" lon="13.158510"><ele>1664.18</ele><time>2010-06-26T15:05:47Z</time></trkpt><trkpt lat="47.234923" lon="13.158504"><ele>1667.06</ele><time>2010-06-26T15:05:48Z</time></trkpt><trkpt lat="47.234835" lon="13.158447"><ele>1668.99</ele><time>2010-06-26T15:05:59Z</time></trkpt><trkpt lat="47.234764" lon="13.158411"><ele>1664.66</ele><time>2010-06-26T15:06:08Z</time></trkpt><trkpt lat="47.234758" lon="13.158408"><ele>1669.95</ele><time>2010-06-26T15:06:09Z</time></trkpt><trkpt lat="47.234736" lon="13.158390"><ele>1671.87</ele><time>2010-06-26T15:06:13Z</time></trkpt><trkpt lat="47.234728" lon="13.158389"><ele>1667.54</ele><time>2010-06-26T15:06:14Z</time></trkpt><trkpt lat="47.234717" lon="13.158393"><ele>1671.39</ele><time>2010-06-26T15:06:15Z</time></trkpt><trkpt lat="47.234663" lon="13.158403"><ele>1674.75</ele><time>2010-06-26T15:06:20Z</time></trkpt><trkpt lat="47.234657" lon="13.158392"><ele>1668.02</ele><time>2010-06-26T15:06:21Z</time></trkpt><trkpt lat="47.234650" lon="13.158388"><ele>1671.39</ele><time>2010-06-26T15:06:22Z</time></trkpt><trkpt lat="47.234646" lon="13.158382"><ele>1675.72</ele><time>2010-06-26T15:06:23Z</time></trkpt><trkpt lat="47.234626" lon="13.158357"><ele>1672.83</ele><time>2010-06-26T15:06:25Z</time></trkpt><trkpt lat="47.234587" lon="13.158332"><ele>1676.20</ele><time>2010-06-26T15:06:30Z</time></trkpt><trkpt lat="47.234562" lon="13.158302"><ele>1671.39</ele><time>2010-06-26T15:06:34Z</time></trkpt><trkpt lat="47.234552" lon="13.158291"><ele>1674.27</ele><time>2010-06-26T15:06:35Z</time></trkpt><trkpt lat="47.234546" lon="13.158284"><ele>1677.64</ele><time>2010-06-26T15:06:36Z</time></trkpt><trkpt lat="47.234542" lon="13.158280"><ele>1671.87</ele><time>2010-06-26T15:06:37Z</time></trkpt><trkpt lat="47.234541" lon="13.158278"><ele>1675.72</ele><time>2010-06-26T15:06:38Z</time></trkpt><trkpt lat="47.234525" lon="13.158271"><ele>1679.08</ele><time>2010-06-26T15:06:44Z</time></trkpt><trkpt lat="47.234524" lon="13.158267"><ele>1671.87</ele><time>2010-06-26T15:06:46Z</time></trkpt><trkpt lat="47.234521" lon="13.158261"><ele>1677.64</ele><time>2010-06-26T15:06:47Z</time></trkpt><trkpt lat="47.234469" lon="13.158197"><ele>1681.96</ele><time>2010-06-26T15:06:55Z</time></trkpt><trkpt lat="47.234460" lon="13.158186"><ele>1677.64</ele><time>2010-06-26T15:06:56Z</time></trkpt><trkpt lat="47.234446" lon="13.158148"><ele>1680.52</ele><time>2010-06-26T15:06:58Z</time></trkpt><trkpt lat="47.234371" lon="13.158029"><ele>1678.12</ele><time>2010-06-26T15:07:07Z</time></trkpt><trkpt lat="47.234331" lon="13.157947"><ele>1679.08</ele><time>2010-06-26T15:07:12Z</time></trkpt><trkpt lat="47.234310" lon="13.157907"><ele>1681.00</ele><time>2010-06-26T15:07:14Z</time></trkpt><trkpt lat="47.234302" lon="13.157900"><ele>1680.04</ele><time>2010-06-26T15:07:15Z</time></trkpt><trkpt lat="47.234275" lon="13.157883"><ele>1680.04</ele><time>2010-06-26T15:07:17Z</time></trkpt><trkpt lat="47.234192" lon="13.157840"><ele>1679.56</ele><time>2010-06-26T15:07:25Z</time></trkpt><trkpt lat="47.234168" lon="13.157829"><ele>1682.44</ele><time>2010-06-26T15:07:27Z</time></trkpt><trkpt lat="47.234126" lon="13.157788"><ele>1678.60</ele><time>2010-06-26T15:07:33Z</time></trkpt><trkpt lat="47.234114" lon="13.157766"><ele>1683.41</ele><time>2010-06-26T15:07:35Z</time></trkpt><trkpt lat="47.234109" lon="13.157758"><ele>1682.44</ele><time>2010-06-26T15:07:36Z</time></trkpt><trkpt lat="47.234047" lon="13.157725"><ele>1682.44</ele><time>2010-06-26T15:07:46Z</time></trkpt><trkpt lat="47.234025" lon="13.157713"><ele>1687.25</ele><time>2010-06-26T15:07:48Z</time></trkpt><trkpt lat="47.234016" lon="13.157702"><ele>1683.89</ele><time>2010-06-26T15:07:49Z</time></trkpt><trkpt lat="47.233984" lon="13.157701"><ele>1683.89</ele><time>2010-06-26T15:08:00Z</time></trkpt><trkpt lat="47.233977" lon="13.157704"><ele>1680.04</ele><time>2010-06-26T15:08:13Z</time></trkpt><trkpt lat="47.233980" lon="13.157706"><ele>1683.89</ele><time>2010-06-26T15:08:26Z</time></trkpt><trkpt lat="47.233979" lon="13.157697"><ele>1675.23</ele><time>2010-06-26T15:08:33Z</time></trkpt><trkpt lat="47.233974" lon="13.157685"><ele>1684.85</ele><time>2010-06-26T15:08:34Z</time></trkpt><trkpt lat="47.233959" lon="13.157655"><ele>1684.37</ele><time>2010-06-26T15:08:36Z</time></trkpt><trkpt lat="47.233908" lon="13.157556"><ele>1684.37</ele><time>2010-06-26T15:08:47Z</time></trkpt><trkpt lat="47.233895" lon="13.157521"><ele>1687.25</ele><time>2010-06-26T15:08:51Z</time></trkpt><trkpt lat="47.233877" lon="13.157433"><ele>1687.73</ele><time>2010-06-26T15:09:30Z</time></trkpt><trkpt lat="47.233883" lon="13.157394"><ele>1688.69</ele><time>2010-06-26T15:09:32Z</time></trkpt><trkpt lat="47.233884" lon="13.157375"><ele>1688.69</ele><time>2010-06-26T15:09:33Z</time></trkpt><trkpt lat="47.233880" lon="13.157361"><ele>1690.14</ele><time>2010-06-26T15:09:35Z</time></trkpt><trkpt lat="47.233840" lon="13.157265"><ele>1686.29</ele><time>2010-06-26T15:09:42Z</time></trkpt><trkpt lat="47.233834" lon="13.157249"><ele>1690.14</ele><time>2010-06-26T15:09:43Z</time></trkpt><trkpt lat="47.233825" lon="13.157193"><ele>1690.14</ele><time>2010-06-26T15:09:48Z</time></trkpt><trkpt lat="47.233840" lon="13.157156"><ele>1692.54</ele><time>2010-06-26T15:09:51Z</time></trkpt><trkpt lat="47.233839" lon="13.157018"><ele>1691.58</ele><time>2010-06-26T15:10:00Z</time></trkpt><trkpt lat="47.233832" lon="13.157006"><ele>1690.14</ele><time>2010-06-26T15:10:02Z</time></trkpt><trkpt lat="47.233830" lon="13.156998"><ele>1693.50</ele><time>2010-06-26T15:10:03Z</time></trkpt><trkpt lat="47.233806" lon="13.156922"><ele>1696.38</ele><time>2010-06-26T15:10:10Z</time></trkpt><trkpt lat="47.233802" lon="13.156907"><ele>1692.06</ele><time>2010-06-26T15:10:11Z</time></trkpt><trkpt lat="47.233800" lon="13.156877"><ele>1696.86</ele><time>2010-06-26T15:10:13Z</time></trkpt><trkpt lat="47.233798" lon="13.156857"><ele>1692.54</ele><time>2010-06-26T15:10:14Z</time></trkpt><trkpt lat="47.233797" lon="13.156841"><ele>1695.90</ele><time>2010-06-26T15:10:15Z</time></trkpt><trkpt lat="47.233796" lon="13.156831"><ele>1696.86</ele><time>2010-06-26T15:10:16Z</time></trkpt><trkpt lat="47.233799" lon="13.156714"><ele>1696.86</ele><time>2010-06-26T15:10:23Z</time></trkpt><trkpt lat="47.233735" lon="13.156594"><ele>1695.90</ele><time>2010-06-26T15:10:33Z</time></trkpt><trkpt lat="47.233687" lon="13.156492"><ele>1695.42</ele><time>2010-06-26T15:10:38Z</time></trkpt><trkpt lat="47.233646" lon="13.156441"><ele>1695.90</ele><time>2010-06-26T15:10:42Z</time></trkpt><trkpt lat="47.233592" lon="13.156390"><ele>1694.94</ele><time>2010-06-26T15:10:54Z</time></trkpt><trkpt lat="47.233592" lon="13.156390"><ele>1693.98</ele><time>2010-06-26T15:11:05Z</time></trkpt><trkpt lat="47.233584" lon="13.156403"><ele>1693.02</ele><time>2010-06-26T15:11:07Z</time></trkpt><trkpt lat="47.233579" lon="13.156418"><ele>1696.38</ele><time>2010-06-26T15:11:08Z</time></trkpt><trkpt lat="47.233563" lon="13.156443"><ele>1693.50</ele><time>2010-06-26T15:11:10Z</time></trkpt><trkpt lat="47.233533" lon="13.156483"><ele>1696.86</ele><time>2010-06-26T15:11:13Z</time></trkpt><trkpt lat="47.233518" lon="13.156502"><ele>1694.46</ele><time>2010-06-26T15:11:15Z</time></trkpt><trkpt lat="47.233495" lon="13.156533"><ele>1696.86</ele><time>2010-06-26T15:11:17Z</time></trkpt><trkpt lat="47.233482" lon="13.156543"><ele>1693.02</ele><time>2010-06-26T15:11:19Z</time></trkpt><trkpt lat="47.233473" lon="13.156557"><ele>1695.42</ele><time>2010-06-26T15:11:20Z</time></trkpt><trkpt lat="47.233451" lon="13.156576"><ele>1696.38</ele><time>2010-06-26T15:11:22Z</time></trkpt><trkpt lat="47.233400" lon="13.156619"><ele>1699.27</ele><time>2010-06-26T15:11:28Z</time></trkpt><trkpt lat="47.233375" lon="13.156645"><ele>1698.79</ele><time>2010-06-26T15:11:31Z</time></trkpt><trkpt lat="47.233210" lon="13.156668"><ele>1698.79</ele><time>2010-06-26T15:11:45Z</time></trkpt><trkpt lat="47.233158" lon="13.156655"><ele>1698.79</ele><time>2010-06-26T15:11:51Z</time></trkpt><trkpt lat="47.233134" lon="13.156641"><ele>1697.83</ele><time>2010-06-26T15:11:53Z</time></trkpt><trkpt lat="47.233004" lon="13.156641"><ele>1695.42</ele><time>2010-06-26T15:12:05Z</time></trkpt><trkpt lat="47.232949" lon="13.156651"><ele>1696.38</ele><time>2010-06-26T15:12:08Z</time></trkpt><trkpt lat="47.232861" lon="13.156681"><ele>1695.42</ele><time>2010-06-26T15:12:13Z</time></trkpt><trkpt lat="47.232719" lon="13.156852"><ele>1696.38</ele><time>2010-06-26T15:12:27Z</time></trkpt><trkpt lat="47.232548" lon="13.157034"><ele>1695.90</ele><time>2010-06-26T15:12:43Z</time></trkpt><trkpt lat="47.232452" lon="13.157131"><ele>1694.46</ele><time>2010-06-26T15:12:53Z</time></trkpt><trkpt lat="47.232286" lon="13.157286"><ele>1691.10</ele><time>2010-06-26T15:13:06Z</time></trkpt><trkpt lat="47.232178" lon="13.157462"><ele>1690.62</ele><time>2010-06-26T15:13:15Z</time></trkpt><trkpt lat="47.232074" lon="13.157607"><ele>1689.65</ele><time>2010-06-26T15:13:22Z</time></trkpt><trkpt lat="47.232040" lon="13.157626"><ele>1691.10</ele><time>2010-06-26T15:13:25Z</time></trkpt><trkpt lat="47.232016" lon="13.157690"><ele>1691.58</ele><time>2010-06-26T15:13:30Z</time></trkpt><trkpt lat="47.231991" lon="13.157818"><ele>1690.14</ele><time>2010-06-26T15:13:37Z</time></trkpt><trkpt lat="47.231933" lon="13.157951"><ele>1690.14</ele><time>2010-06-26T15:13:46Z</time></trkpt><trkpt lat="47.231854" lon="13.158023"><ele>1690.62</ele><time>2010-06-26T15:13:52Z</time></trkpt><trkpt lat="47.231655" lon="13.158085"><ele>1687.73</ele><time>2010-06-26T15:14:04Z</time></trkpt><trkpt lat="47.231513" lon="13.158179"><ele>1688.69</ele><time>2010-06-26T15:14:16Z</time></trkpt><trkpt lat="47.231507" lon="13.158222"><ele>1684.37</ele><time>2010-06-26T15:14:20Z</time></trkpt><trkpt lat="47.231507" lon="13.158222"><ele>1682.44</ele><time>2010-06-26T15:14:21Z</time></trkpt><trkpt lat="47.231502" lon="13.158242"><ele>1686.77</ele><time>2010-06-26T15:14:23Z</time></trkpt><trkpt lat="47.231492" lon="13.158273"><ele>1686.77</ele><time>2010-06-26T15:14:25Z</time></trkpt><trkpt lat="47.231496" lon="13.158311"><ele>1688.21</ele><time>2010-06-26T15:14:27Z</time></trkpt><trkpt lat="47.231503" lon="13.158338"><ele>1684.85</ele><time>2010-06-26T15:14:28Z</time></trkpt><trkpt lat="47.231512" lon="13.158354"><ele>1686.29</ele><time>2010-06-26T15:14:29Z</time></trkpt><trkpt lat="47.231519" lon="13.158368"><ele>1690.14</ele><time>2010-06-26T15:14:30Z</time></trkpt><trkpt lat="47.231534" lon="13.158412"><ele>1686.29</ele><time>2010-06-26T15:14:32Z</time></trkpt><trkpt lat="47.231542" lon="13.158426"><ele>1686.29</ele><time>2010-06-26T15:14:33Z</time></trkpt><trkpt lat="47.231549" lon="13.158452"><ele>1690.62</ele><time>2010-06-26T15:14:35Z</time></trkpt><trkpt lat="47.231620" lon="13.158563"><ele>1691.10</ele><time>2010-06-26T15:14:42Z</time></trkpt><trkpt lat="47.231661" lon="13.158623"><ele>1690.62</ele><time>2010-06-26T15:14:47Z</time></trkpt><trkpt lat="47.231752" lon="13.158733"><ele>1689.65</ele><time>2010-06-26T15:14:56Z</time></trkpt><trkpt lat="47.231837" lon="13.158828"><ele>1688.21</ele><time>2010-06-26T15:15:04Z</time></trkpt><trkpt lat="47.231878" lon="13.158899"><ele>1687.25</ele><time>2010-06-26T15:15:08Z</time></trkpt><trkpt lat="47.231898" lon="13.159002"><ele>1687.73</ele><time>2010-06-26T15:15:20Z</time></trkpt><trkpt lat="47.231905" lon="13.159013"><ele>1688.21</ele><time>2010-06-26T15:15:21Z</time></trkpt><trkpt lat="47.231918" lon="13.159022"><ele>1687.25</ele><time>2010-06-26T15:15:43Z</time></trkpt><trkpt lat="47.231918" lon="13.159062"><ele>1688.21</ele><time>2010-06-26T15:15:46Z</time></trkpt><trkpt lat="47.231944" lon="13.159150"><ele>1689.17</ele><time>2010-06-26T15:15:50Z</time></trkpt><trkpt lat="47.231969" lon="13.159209"><ele>1687.25</ele><time>2010-06-26T15:15:54Z</time></trkpt><trkpt lat="47.232002" lon="13.159400"><ele>1686.77</ele><time>2010-06-26T15:16:04Z</time></trkpt><trkpt lat="47.232022" lon="13.159440"><ele>1688.69</ele><time>2010-06-26T15:16:07Z</time></trkpt><trkpt lat="47.232044" lon="13.159484"><ele>1687.73</ele><time>2010-06-26T15:16:24Z</time></trkpt><trkpt lat="47.232033" lon="13.159448"><ele>1687.73</ele><time>2010-06-26T15:16:48Z</time></trkpt><trkpt lat="47.232004" lon="13.159429"><ele>1688.21</ele><time>2010-06-26T15:16:52Z</time></trkpt><trkpt lat="47.231920" lon="13.159414"><ele>1687.73</ele><time>2010-06-26T15:17:03Z</time></trkpt></trkseg><trkseg><trkpt lat="47.231858" lon="13.159397"><ele>1688.21</ele><time>2010-06-26T15:17:32Z</time></trkpt><trkpt lat="47.231858" lon="13.159397"><ele>1686.77</ele><time>2010-06-26T15:17:33Z</time></trkpt><trkpt lat="47.231858" lon="13.159397"><ele>1686.29</ele><time>2010-06-26T15:17:37Z</time></trkpt><trkpt lat="47.232026" lon="13.159443"><ele>1686.29</ele><time>2010-06-26T15:17:41Z</time></trkpt><trkpt lat="47.232074" lon="13.159478"><ele>1685.33</ele><time>2010-06-26T15:17:48Z</time></trkpt><trkpt lat="47.232104" lon="13.159485"><ele>1689.17</ele><time>2010-06-26T15:18:09Z</time></trkpt><trkpt lat="47.232099" lon="13.159477"><ele>1685.81</ele><time>2010-06-26T15:18:37Z</time></trkpt><trkpt lat="47.232099" lon="13.159477"><ele>1686.77</ele><time>2010-06-26T15:18:42Z</time></trkpt><trkpt lat="47.232099" lon="13.159477"><ele>1681.96</ele><time>2010-06-26T15:19:13Z</time></trkpt></trkseg></trk><trk><name>Aktueller Track: 27 JUN 2010 18:12</name><trkseg><trkpt lat="47.232099" lon="13.159477"><ele>1684.85</ele><time>2010-06-27T16:12:57Z</time></trkpt><trkpt lat="47.232099" lon="13.159477"><ele>768.71</ele><time>2010-06-27T16:12:58Z</time></trkpt><trkpt lat="47.232099" lon="13.159477"><ele>768.71</ele><time>2010-06-27T16:12:59Z</time></trkpt></trkseg></trk></gpx>